Wetterdaten: Sonntag, 09.07.2017
Datum Zeit Temp. A. Temp. A. max Feuchte A. Luftdruck Regen Wind Richtung Richtung Sonnenschein ET UV Solar Taupunkt Windchill Windböen
09.07.2017 00:00 17,6 °C 17,6 °C 73 % 1013,2 hPa 0,0 mm 1,1 km/h (1 Bft) SO 134 ° 0 min 0,000 mm 0,0 UV-I 0 W/m² 12,7 °C 17,6 °C 3,2 km/h (1 Bft)
09.07.2017 00:01 17,7 °C 17,7 °C 71 % 1013,1 hPa 0,0 mm 0,9 km/h (0 Bft) SO 134 ° 0 min 0,000 mm 0,0 UV-I 0 W/m² 12,4 °C 17,7 °C 3,2 km/h (1 Bft)
09.07.2017 00:02 17,8 °C 17,8 °C 71 % 1013,1 hPa 0,0 mm 0,0 km/h (0 Bft) SO 134 ° 0 min 0,000 mm 0,0 UV-I 0 W/m² 12,5 °C 17,8 °C 0,0 km/h (0 Bft)
09.07.2017 00:03 17,9 °C 17,9 °C 71 % 1013,1 hPa 0,0 mm 0,9 km/h (0 Bft) SO 134 ° 0 min 0,000 mm 0,0 UV-I 0 W/m² 12,6 °C 17,9 °C 3,2 km/h (1 Bft)
09.07.2017 00:04 18,1 °C 18,1 °C 70 % 1013,1 hPa 0,0 mm 1,6 km/h (1 Bft) W 263 ° 0 min 0,000 mm 0,0 UV-I 0 W/m² 12,5 °C 18,1 °C 3,2 km/h (1 Bft)
09.07.2017 00:05 18,2 °C 18,2 °C 69 % 1013,1 hPa 0,0 mm 2,5 km/h (1 Bft) W 271 ° 0 min 0,000 mm 0,0 UV-I 0 W/m² 12,4 °C 18,2 °C 9,7 km/h (2 Bft)
09.07.2017 00:06 18,2 °C 18,2 °C 71 % 1013,1 hPa 0,0 mm 0,4 km/h (0 Bft) W 271 ° 0 min 0,000 mm 0,0 UV-I 0 W/m² 12,9 °C 18,2 °C 1,6 km/h (1 Bft)
09.07.2017 00:07 18,2 °C 18,3 °C 71 % 1013,1 hPa 0,0 mm 0,1 km/h (0 Bft) W 271 ° 0 min 0,000 mm 0,0 UV-I 0 W/m² 12,9 °C 18,2 °C 1,6 km/h (1 Bft)
09.07.2017 00:08 18,3 °C 18,3 °C 69 % 1013,1 hPa 0,0 mm 4,3 km/h (1 Bft) W 281 ° 0 min 0,000 mm 0,0 UV-I 0 W/m² 12,5 °C 18,3 °C 6,4 km/h (2 Bft)
09.07.2017 00:09 18,3 °C 18,3 °C 68 % 1013,1 hPa 0,0 mm 2,3 km/h (1 Bft) W-NW 303 ° 0 min 0,000 mm 0,0 UV-I 0 W/m² 12,3 °C 18,3 °C 3,2 km/h (1 Bft)
09.07.2017 00:10 18,4 °C 18,4 °C 70 % 1013,0 hPa 0,0 mm 1,8 km/h (1 Bft) N-NW 348 ° 0 min 0,000 mm 0,0 UV-I 0 W/m² 12,8 °C 18,4 °C 3,2 km/h (1 Bft)
09.07.2017 00:11 18,4 °C 18,4 °C 70 % 1013,0 hPa 0,0 mm 1,1 km/h (1 Bft) N-NW 348 ° 0 min 0,000 mm 0,0 UV-I 0 W/m² 12,8 °C 18,4 °C 3,2 km/h (1 Bft)
09.07.2017 00:12 18,4 °C 18,4 °C 69 % 1013,0 hPa 0,0 mm 0,7 km/h (0 Bft) N-NO 22 ° 0 min 0,000 mm 0,0 UV-I 0 W/m² 12,6 °C 18,4 °C 1,6 km/h (1 Bft)
09.07.2017 00:13 18,4 °C 18,5 °C 71 % 1013,0 hPa 0,0 mm 1,7 km/h (1 Bft) O 92 ° 0 min 0,000 mm 0,0 UV-I 0 W/m² 13,0 °C 18,4 °C 6,4 km/h (2 Bft)
09.07.2017 00:14 18,5 °C 18,5 °C 69 % 1013,1 hPa 0,0 mm 1,3 km/h (1 Bft) NW 309 ° 0 min 0,000 mm 0,0 UV-I 0 W/m² 12,7 °C 18,5 °C 3,2 km/h (1 Bft)
09.07.2017 00:15 18,5 °C 18,5 °C 69 % 1013,1 hPa 0,0 mm 0,4 km/h (0 Bft) NW 309 ° 0 min 0,000 mm 0,0 UV-I 0 W/m² 12,7 °C 18,5 °C 1,6 km/h (1 Bft)
09.07.2017 00:16 18,6 °C 18,6 °C 68 % 1013,1 hPa 0,0 mm 0,1 km/h (0 Bft) NW 309 ° 0 min 0,000 mm 0,0 UV-I 0 W/m² 12,6 °C 18,6 °C 1,6 km/h (1 Bft)
09.07.2017 00:17 18,6 °C 18,6 °C 71 % 1013,1 hPa 0,0 mm 0,7 km/h (0 Bft) NW 309 ° 0 min 0,000 mm 0,0 UV-I 0 W/m² 13,2 °C 18,6 °C 1,6 km/h (1 Bft)
09.07.2017 00:18 18,5 °C 18,6 °C 70 % 1013,1 hPa 0,0 mm 0,6 km/h (0 Bft) NW 309 ° 0 min 0,000 mm 0,0 UV-I 0 W/m² 12,9 °C 18,5 °C 3,2 km/h (1 Bft)
09.07.2017 00:19 18,5 °C 18,5 °C 69 % 1013,1 hPa 0,0 mm 0,0 km/h (0 Bft) NW 309 ° 0 min 0,000 mm 0,0 UV-I 0 W/m² 12,7 °C 18,5 °C 0,0 km/h (0 Bft)
09.07.2017 00:20 18,5 °C 18,5 °C 69 % 1013,1 hPa 0,0 mm 0,2 km/h (0 Bft) NW 309 ° 0 min 0,000 mm 0,0 UV-I 0 W/m² 12,7 °C 18,5 °C 1,6 km/h (1 Bft)
09.07.2017 00:21 18,5 °C 18,5 °C 69 % 1013,2 hPa 0,0 mm 0,6 km/h (0 Bft) NW 309 ° 0 min 0,000 mm 0,0 UV-I 0 W/m² 12,7 °C 18,5 °C 3,2 km/h (1 Bft)
09.07.2017 00:22 18,4 °C 18,5 °C 70 % 1013,2 hPa 0,0 mm 0,0 km/h (0 Bft) NW 309 ° 0 min 0,000 mm 0,0 UV-I 0 W/m² 12,8 °C 18,4 °C 0,0 km/h (0 Bft)
09.07.2017 00:23 18,4 °C 18,4 °C 70 % 1013,3 hPa 0,0 mm 0,7 km/h (0 Bft) NW 309 ° 0 min 0,000 mm 0,0 UV-I 0 W/m² 12,8 °C 18,4 °C 3,2 km/h (1 Bft)
09.07.2017 00:24 18,3 °C 18,4 °C 70 % 1013,3 hPa 0,0 mm 0,0 km/h (0 Bft) NW 309 ° 0 min 0,000 mm 0,0 UV-I 0 W/m² 12,7 °C 18,3 °C 0,0 km/h (0 Bft)
09.07.2017 00:25 18,2 °C 18,3 °C 71 % 1013,2 hPa 0,0 mm 0,0 km/h (0 Bft) NW 309 ° 0 min 0,000 mm 0,0 UV-I 0 W/m² 12,9 °C 18,2 °C 0,0 km/h (0 Bft)
09.07.2017 00:26 18,1 °C 18,2 °C 71 % 1013,2 hPa 0,0 mm 0,0 km/h (0 Bft) NW 309 ° 0 min 0,000 mm 0,0 UV-I 0 W/m² 12,8 °C 18,1 °C 0,0 km/h (0 Bft)
09.07.2017 00:27 17,9 °C 18,1 °C 72 % 1013,1 hPa 0,0 mm 0,3 km/h (0 Bft) NW 309 ° 0 min 0,000 mm 0,0 UV-I 0 W/m² 12,8 °C 17,9 °C 1,6 km/h (1 Bft)
09.07.2017 00:28 17,9 °C 17,9 °C 72 % 1013,1 hPa 0,0 mm 0,4 km/h (0 Bft) NW 309 ° 0 min 0,000 mm 0,0 UV-I 0 W/m² 12,8 °C 17,9 °C 1,6 km/h (1 Bft)
09.07.2017 00:29 17,8 °C 17,9 °C 72 % 1013,1 hPa 0,0 mm 0,0 km/h (0 Bft) NW 309 ° 0 min 0,000 mm 0,0 UV-I 0 W/m² 12,7 °C 17,8 °C 0,0 km/h (0 Bft)
09.07.2017 00:30 17,7 °C 17,8 °C 72 % 1013,1 hPa 0,0 mm 0,0 km/h (0 Bft) NW 309 ° 0 min 0,000 mm 0,0 UV-I 0 W/m² 12,6 °C 17,7 °C 0,0 km/h (0 Bft)
09.07.2017 00:31 17,7 °C 17,7 °C 73 % 1013,0 hPa 0,0 mm 0,0 km/h (0 Bft) NW 309 ° 0 min 0,000 mm 0,0 UV-I 0 W/m² 12,8 °C 17,7 °C 0,0 km/h (0 Bft)
09.07.2017 00:32 17,6 °C 17,7 °C 73 % 1013,0 hPa 0,0 mm 0,0 km/h (0 Bft) NW 309 ° 0 min 0,000 mm 0,0 UV-I 0 W/m² 12,7 °C 17,6 °C 0,0 km/h (0 Bft)
09.07.2017 00:33 17,6 °C 17,6 °C 73 % 1013,0 hPa 0,0 mm 0,0 km/h (0 Bft) NW 309 ° 0 min 0,000 mm 0,0 UV-I 0 W/m² 12,7 °C 17,6 °C 0,0 km/h (0 Bft)
09.07.2017 00:34 17,6 °C 17,6 °C 72 % 1013,1 hPa 0,0 mm 0,0 km/h (0 Bft) NW 309 ° 0 min 0,000 mm 0,0 UV-I 0 W/m² 12,5 °C 17,6 °C 0,0 km/h (0 Bft)
09.07.2017 00:35 17,5 °C 17,6 °C 73 % 1013,1 hPa 0,0 mm 0,0 km/h (0 Bft) NW 309 ° 0 min 0,000 mm 0,0 UV-I 0 W/m² 12,6 °C 17,5 °C 0,0 km/h (0 Bft)
09.07.2017 00:36 17,5 °C 17,5 °C 73 % 1013,1 hPa 0,0 mm 0,0 km/h (0 Bft) NW 309 ° 0 min 0,000 mm 0,0 UV-I 0 W/m² 12,6 °C 17,5 °C 0,0 km/h (0 Bft)
09.07.2017 00:37 17,5 °C 17,5 °C 73 % 1013,1 hPa 0,0 mm 0,0 km/h (0 Bft) NW 309 ° 0 min 0,000 mm 0,0 UV-I 0 W/m² 12,6 °C 17,5 °C 0,0 km/h (0 Bft)
09.07.2017 00:38 17,4 °C 17,5 °C 73 % 1013,1 hPa 0,0 mm 0,0 km/h (0 Bft) NW 309 ° 0 min 0,000 mm 0,0 UV-I 0 W/m² 12,5 °C 17,4 °C 0,0 km/h (0 Bft)
09.07.2017 00:39 17,4 °C 17,4 °C 73 % 1013,0 hPa 0,0 mm 0,0 km/h (0 Bft) NW 309 ° 0 min 0,000 mm 0,0 UV-I 0 W/m² 12,5 °C 17,4 °C 0,0 km/h (0 Bft)
09.07.2017 00:40 17,4 °C 17,4 °C 73 % 1013,0 hPa 0,0 mm 0,0 km/h (0 Bft) NW 309 ° 0 min 0,000 mm 0,0 UV-I 0 W/m² 12,5 °C 17,4 °C 0,0 km/h (0 Bft)
09.07.2017 00:41 17,4 °C 17,4 °C 73 % 1013,0 hPa 0,0 mm 0,0 km/h (0 Bft) NW 309 ° 0 min 0,000 mm 0,0 UV-I 0 W/m² 12,5 °C 17,4 °C 0,0 km/h (0 Bft)
09.07.2017 00:42 17,4 °C 17,4 °C 73 % 1013,0 hPa 0,0 mm 0,3 km/h (0 Bft) NW 309 ° 0 min 0,000 mm 0,0 UV-I 0 W/m² 12,5 °C 17,4 °C 1,6 km/h (1 Bft)
09.07.2017 00:43 17,4 °C 17,4 °C 74 % 1013,1 hPa 0,0 mm 2,7 km/h (1 Bft) N-NO 15 ° 0 min 0,000 mm 0,0 UV-I 0 W/m² 12,7 °C 17,4 °C 4,8 km/h (1 Bft)
09.07.2017 00:44 17,3 °C 17,4 °C 74 % 1013,1 hPa 0,0 mm 3,2 km/h (1 Bft) N-NO 17 ° 0 min 0,000 mm 0,0 UV-I 0 W/m² 12,6 °C 17,3 °C 4,8 km/h (1 Bft)
09.07.2017 00:45 17,3 °C 17,3 °C 73 % 1013,1 hPa 0,0 mm 1,5 km/h (1 Bft) N-NO 17 ° 0 min 0,000 mm 0,0 UV-I 0 W/m² 12,4 °C 17,3 °C 3,2 km/h (1 Bft)
09.07.2017 00:46 17,3 °C 17,3 °C 75 % 1013,1 hPa 0,0 mm 0,0 km/h (0 Bft) N-NO 17 ° 0 min 0,000 mm 0,0 UV-I 0 W/m² 12,8 °C 17,3 °C 0,0 km/h (0 Bft)
09.07.2017 00:47 17,2 °C 17,3 °C 74 % 1013,1 hPa 0,0 mm 0,0 km/h (0 Bft) N-NO 17 ° 0 min 0,000 mm 0,0 UV-I 0 W/m² 12,5 °C 17,2 °C 0,0 km/h (0 Bft)
09.07.2017 00:48 17,2 °C 17,2 °C 74 % 1013,0 hPa 0,0 mm 0,0 km/h (0 Bft) N-NO 17 ° 0 min 0,000 mm 0,0 UV-I 0 W/m² 12,5 °C 17,2 °C 0,0 km/h (0 Bft)
09.07.2017 00:49 17,2 °C 17,2 °C 73 % 1013,0 hPa 0,0 mm 0,0 km/h (0 Bft) N-NO 17 ° 0 min 0,000 mm 0,0 UV-I 0 W/m² 12,3 °C 17,2 °C 0,0 km/h (0 Bft)
09.07.2017 00:50 17,3 °C 17,3 °C 73 % 1013,1 hPa 0,0 mm 0,0 km/h (0 Bft) N-NO 17 ° 0 min 0,000 mm 0,0 UV-I 0 W/m² 12,4 °C 17,3 °C 0,0 km/h (0 Bft)
09.07.2017 00:51 17,3 °C 17,3 °C 73 % 1013,1 hPa 0,0 mm 0,0 km/h (0 Bft) N-NO 17 ° 0 min 0,000 mm 0,0 UV-I 0 W/m² 12,4 °C 17,3 °C 0,0 km/h (0 Bft)
09.07.2017 00:52 17,3 °C 17,3 °C 72 % 1013,1 hPa 0,0 mm 0,0 km/h (0 Bft) N-NO 17 ° 0 min 0,000 mm 0,0 UV-I 0 W/m² 12,2 °C 17,3 °C 0,0 km/h (0 Bft)
09.07.2017 00:53 17,3 °C 17,4 °C 72 % 1013,1 hPa 0,0 mm 0,0 km/h (0 Bft) N-NO 17 ° 0 min 0,000 mm 0,0 UV-I 0 W/m² 12,2 °C 17,3 °C 0,0 km/h (0 Bft)
09.07.2017 00:54 17,4 °C 17,4 °C 72 % 1013,1 hPa 0,0 mm 0,0 km/h (0 Bft) N-NO 17 ° 0 min 0,000 mm 0,0 UV-I 0 W/m² 12,3 °C 17,4 °C 0,0 km/h (0 Bft)
09.07.2017 00:55 17,6 °C 17,6 °C 72 % 1013,1 hPa 0,0 mm 0,0 km/h (0 Bft) N-NO 17 ° 0 min 0,000 mm 0,0 UV-I 0 W/m² 12,5 °C 17,6 °C 0,0 km/h (0 Bft)
09.07.2017 00:56 17,6 °C 17,6 °C 71 % 1013,0 hPa 0,0 mm 0,0 km/h (0 Bft) N-NO 17 ° 0 min 0,000 mm 0,0 UV-I 0 W/m² 12,3 °C 17,6 °C 0,0 km/h (0 Bft)
09.07.2017 00:57 17,7 °C 17,7 °C 71 % 1013,1 hPa 0,0 mm 0,0 km/h (0 Bft) N-NO 17 ° 0 min 0,000 mm 0,0 UV-I 0 W/m² 12,4 °C 17,7 °C 0,0 km/h (0 Bft)
09.07.2017 00:58 17,7 °C 17,7 °C 72 % 1013,1 hPa 0,0 mm 0,0 km/h (0 Bft) N-NO 17 ° 0 min 0,000 mm 0,0 UV-I 0 W/m² 12,6 °C 17,7 °C 0,0 km/h (0 Bft)
09.07.2017 00:59 17,6 °C 17,7 °C 73 % 1013,1 hPa 0,0 mm 0,0 km/h (0 Bft) N-NO 17 ° 0 min 0,000 mm 0,0 UV-I 0 W/m² 12,7 °C 17,6 °C 0,0 km/h (0 Bft)
09.07.2017 01:00 17,4 °C 17,6 °C 73 % 1013,1 hPa 0,0 mm 0,0 km/h (0 Bft) N-NO 17 ° 0 min 0,000 mm 0,0 UV-I 0 W/m² 12,5 °C 17,4 °C 0,0 km/h (0 Bft)
09.07.2017 01:01 17,4 °C 17,5 °C 73 % 1013,1 hPa 0,0 mm 0,0 km/h (0 Bft) N-NO 17 ° 0 min 0,025 mm 0,0 UV-I 0 W/m² 12,5 °C 17,4 °C 0,0 km/h (0 Bft)
09.07.2017 01:02 17,4 °C 17,4 °C 74 % 1013,1 hPa 0,0 mm 0,0 km/h (0 Bft) N-NO 17 ° 0 min 0,000 mm 0,0 UV-I 0 W/m² 12,7 °C 17,4 °C 0,0 km/h (0 Bft)
09.07.2017 01:03 17,3 °C 17,4 °C 72 % 1013,1 hPa 0,0 mm 0,0 km/h (0 Bft) N-NO 17 ° 0 min 0,000 mm 0,0 UV-I 0 W/m² 12,2 °C 17,3 °C 0,0 km/h (0 Bft)
09.07.2017 01:04 17,3 °C 17,3 °C 72 % 1013,1 hPa 0,0 mm 0,0 km/h (0 Bft) N-NO 17 ° 0 min 0,000 mm 0,0 UV-I 0 W/m² 12,2 °C 17,3 °C 0,0 km/h (0 Bft)
09.07.2017 01:05 17,4 °C 17,4 °C 72 % 1013,1 hPa 0,0 mm 0,8 km/h (0 Bft) N-NO 17 ° 0 min 0,000 mm 0,0 UV-I 0 W/m² 12,3 °C 17,4 °C 3,2 km/h (1 Bft)
09.07.2017 01:06 17,4 °C 17,4 °C 72 % 1013,0 hPa 0,0 mm 0,0 km/h (0 Bft) N-NO 17 ° 0 min 0,000 mm 0,0 UV-I 0 W/m² 12,3 °C 17,4 °C 0,0 km/h (0 Bft)
09.07.2017 01:07 17,5 °C 17,5 °C 72 % 1013,0 hPa 0,0 mm 0,0 km/h (0 Bft) N-NO 17 ° 0 min 0,000 mm 0,0 UV-I 0 W/m² 12,4 °C 17,5 °C 0,0 km/h (0 Bft)
09.07.2017 01:08 17,4 °C 17,5 °C 73 % 1013,1 hPa 0,0 mm 0,0 km/h (0 Bft) N-NO 17 ° 0 min 0,000 mm 0,0 UV-I 0 W/m² 12,5 °C 17,4 °C 0,0 km/h (0 Bft)
09.07.2017 01:09 17,4 °C 17,4 °C 75 % 1013,0 hPa 0,0 mm 0,0 km/h (0 Bft) N-NO 17 ° 0 min 0,000 mm 0,0 UV-I 0 W/m² 12,9 °C 17,4 °C 0,0 km/h (0 Bft)
09.07.2017 01:10 17,3 °C 17,4 °C 75 % 1013,0 hPa 0,0 mm 0,0 km/h (0 Bft) N-NO 17 ° 0 min 0,000 mm 0,0 UV-I 0 W/m² 12,8 °C 17,3 °C 0,0 km/h (0 Bft)
09.07.2017 01:11 17,3 °C 17,3 °C 74 % 1013,0 hPa 0,0 mm 0,0 km/h (0 Bft) N-NO 17 ° 0 min 0,000 mm 0,0 UV-I 0 W/m² 12,6 °C 17,3 °C 0,0 km/h (0 Bft)
09.07.2017 01:12 17,2 °C 17,3 °C 74 % 1013,0 hPa 0,0 mm 0,0 km/h (0 Bft) N-NO 17 ° 0 min 0,000 mm 0,0 UV-I 0 W/m² 12,5 °C 17,2 °C 0,0 km/h (0 Bft)
09.07.2017 01:13 17,2 °C 17,2 °C 75 % 1013,0 hPa 0,0 mm 0,3 km/h (0 Bft) N-NO 17 ° 0 min 0,000 mm 0,0 UV-I 0 W/m² 12,7 °C 17,2 °C 1,6 km/h (1 Bft)
09.07.2017 01:14 17,1 °C 17,2 °C 77 % 1013,0 hPa 0,0 mm 0,3 km/h (0 Bft) N-NO 17 ° 0 min 0,000 mm 0,0 UV-I 0 W/m² 13,0 °C 17,1 °C 1,6 km/h (1 Bft)
09.07.2017 01:15 17,1 °C 17,1 °C 77 % 1013,1 hPa 0,0 mm 0,1 km/h (0 Bft) N-NO 17 ° 0 min 0,000 mm 0,0 UV-I 0 W/m² 13,0 °C 17,1 °C 1,6 km/h (1 Bft)
09.07.2017 01:16 17,0 °C 17,1 °C 76 % 1013,1 hPa 0,0 mm 0,0 km/h (0 Bft) N-NO 17 ° 0 min 0,000 mm 0,0 UV-I 0 W/m² 12,7 °C 17,0 °C 0,0 km/h (0 Bft)
09.07.2017 01:17 16,9 °C 17,0 °C 76 % 1013,1 hPa 0,0 mm 0,0 km/h (0 Bft) N-NO 17 ° 0 min 0,000 mm 0,0 UV-I 0 W/m² 12,6 °C 16,9 °C 0,0 km/h (0 Bft)
09.07.2017 01:18 16,9 °C 17,0 °C 76 % 1013,1 hPa 0,0 mm 0,0 km/h (0 Bft) N-NO 17 ° 0 min 0,000 mm 0,0 UV-I 0 W/m² 12,6 °C 16,9 °C 0,0 km/h (0 Bft)
09.07.2017 01:19 16,9 °C 17,0 °C 75 % 1013,1 hPa 0,0 mm 0,0 km/h (0 Bft) N-NO 17 ° 0 min 0,000 mm 0,0 UV-I 0 W/m² 12,4 °C 16,9 °C 0,0 km/h (0 Bft)
09.07.2017 01:20 17,0 °C 17,0 °C 76 % 1013,1 hPa 0,0 mm 0,0 km/h (0 Bft) N-NO 17 ° 0 min 0,000 mm 0,0 UV-I 0 W/m² 12,7 °C 17,0 °C 0,0 km/h (0 Bft)
09.07.2017 01:21 17,0 °C 17,0 °C 75 % 1013,0 hPa 0,0 mm 0,0 km/h (0 Bft) N-NO 17 ° 0 min 0,000 mm 0,0 UV-I 0 W/m² 12,5 °C 17,0 °C 0,0 km/h (0 Bft)
09.07.2017 01:22 17,0 °C 17,0 °C 75 % 1013,0 hPa 0,0 mm 0,0 km/h (0 Bft) N-NO 17 ° 0 min 0,000 mm 0,0 UV-I 0 W/m² 12,5 °C 17,0 °C 0,0 km/h (0 Bft)
09.07.2017 01:23 17,0 °C 17,0 °C 76 % 1013,0 hPa 0,0 mm 0,0 km/h (0 Bft) N-NO 17 ° 0 min 0,000 mm 0,0 UV-I 0 W/m² 12,7 °C 17,0 °C 0,0 km/h (0 Bft)
09.07.2017 01:24 16,9 °C 17,0 °C 76 % 1013,0 hPa 0,0 mm 0,0 km/h (0 Bft) N-NO 17 ° 0 min 0,000 mm 0,0 UV-I 0 W/m² 12,6 °C 16,9 °C 0,0 km/h (0 Bft)
09.07.2017 01:25 16,9 °C 16,9 °C 75 % 1013,0 hPa 0,0 mm 0,0 km/h (0 Bft) N-NO 17 ° 0 min 0,000 mm 0,0 UV-I 0 W/m² 12,4 °C 16,9 °C 0,0 km/h (0 Bft)
09.07.2017 01:26 17,0 °C 17,0 °C 75 % 1013,0 hPa 0,0 mm 0,1 km/h (0 Bft) N-NO 17 ° 0 min 0,000 mm 0,0 UV-I 0 W/m² 12,5 °C 17,0 °C 1,6 km/h (1 Bft)
09.07.2017 01:27 17,0 °C 17,0 °C 75 % 1013,0 hPa 0,0 mm 0,1 km/h (0 Bft) N-NO 17 ° 0 min 0,000 mm 0,0 UV-I 0 W/m² 12,5 °C 17,0 °C 1,6 km/h (1 Bft)
09.07.2017 01:28 17,0 °C 17,1 °C 75 % 1013,0 hPa 0,0 mm 0,1 km/h (0 Bft) N-NO 17 ° 0 min 0,000 mm 0,0 UV-I 0 W/m² 12,5 °C 17,0 °C 1,6 km/h (1 Bft)
09.07.2017 01:29 17,1 °C 17,1 °C 74 % 1013,0 hPa 0,0 mm 0,0 km/h (0 Bft) N-NO 17 ° 0 min 0,000 mm 0,0 UV-I 0 W/m² 12,4 °C 17,1 °C 0,0 km/h (0 Bft)
09.07.2017 01:30 17,2 °C 17,2 °C 74 % 1013,0 hPa 0,0 mm 0,0 km/h (0 Bft) N-NO 17 ° 0 min 0,000 mm 0,0 UV-I 0 W/m² 12,5 °C 17,2 °C 0,0 km/h (0 Bft)
09.07.2017 01:31 17,3 °C 17,3 °C 74 % 1013,0 hPa 0,0 mm 0,0 km/h (0 Bft) N-NO 17 ° 0 min 0,000 mm 0,0 UV-I 0 W/m² 12,6 °C 17,3 °C 0,0 km/h (0 Bft)
09.07.2017 01:32 17,3 °C 17,3 °C 74 % 1013,0 hPa 0,0 mm 0,0 km/h (0 Bft) N-NO 17 ° 0 min 0,000 mm 0,0 UV-I 0 W/m² 12,6 °C 17,3 °C 0,0 km/h (0 Bft)
09.07.2017 01:33 17,3 °C 17,3 °C 74 % 1013,0 hPa 0,0 mm 0,0 km/h (0 Bft) N-NO 17 ° 0 min 0,000 mm 0,0 UV-I 0 W/m² 12,6 °C 17,3 °C 0,0 km/h (0 Bft)
09.07.2017 01:34 17,3 °C 17,3 °C 75 % 1013,0 hPa 0,0 mm 0,0 km/h (0 Bft) N-NO 17 ° 0 min 0,000 mm 0,0 UV-I 0 W/m² 12,8 °C 17,3 °C 0,0 km/h (0 Bft)
09.07.2017 01:35 17,3 °C 17,3 °C 75 % 1013,0 hPa 0,0 mm 0,0 km/h (0 Bft) N-NO 17 ° 0 min 0,000 mm 0,0 UV-I 0 W/m² 12,8 °C 17,3 °C 0,0 km/h (0 Bft)
09.07.2017 01:36 17,3 °C 17,3 °C 75 % 1013,0 hPa 0,0 mm 0,0 km/h (0 Bft) N-NO 17 ° 0 min 0,000 mm 0,0 UV-I 0 W/m² 12,8 °C 17,3 °C 0,0 km/h (0 Bft)
09.07.2017 01:37 17,3 °C 17,3 °C 76 % 1013,0 hPa 0,0 mm 0,0 km/h (0 Bft) N-NO 17 ° 0 min 0,000 mm 0,0 UV-I 0 W/m² 13,0 °C 17,3 °C 0,0 km/h (0 Bft)
09.07.2017 01:38 17,2 °C 17,3 °C 76 % 1013,0 hPa 0,0 mm 0,0 km/h (0 Bft) N-NO 17 ° 0 min 0,000 mm 0,0 UV-I 0 W/m² 12,9 °C 17,2 °C 0,0 km/h (0 Bft)
09.07.2017 01:39 17,1 °C 17,2 °C 76 % 1013,0 hPa 0,0 mm 0,0 km/h (0 Bft) N-NO 17 ° 0 min 0,000 mm 0,0 UV-I 0 W/m² 12,8 °C 17,1 °C 0,0 km/h (0 Bft)
09.07.2017 01:40 17,1 °C 17,1 °C 75 % 1013,0 hPa 0,0 mm 0,0 km/h (0 Bft) N-NO 17 ° 0 min 0,000 mm 0,0 UV-I 0 W/m² 12,6 °C 17,1 °C 0,0 km/h (0 Bft)
09.07.2017 01:41 17,1 °C 17,1 °C 75 % 1012,9 hPa 0,0 mm 0,0 km/h (0 Bft) N-NO 17 ° 0 min 0,000 mm 0,0 UV-I 0 W/m² 12,6 °C 17,1 °C 0,0 km/h (0 Bft)
09.07.2017 01:42 17,2 °C 17,2 °C 76 % 1012,8 hPa 0,0 mm 0,0 km/h (0 Bft) N-NO 17 ° 0 min 0,000 mm 0,0 UV-I 0 W/m² 12,9 °C 17,2 °C 0,0 km/h (0 Bft)
09.07.2017 01:43 17,1 °C 17,2 °C 76 % 1012,8 hPa 0,0 mm 0,0 km/h (0 Bft) N-NO 17 ° 0 min 0,000 mm 0,0 UV-I 0 W/m² 12,8 °C 17,1 °C 0,0 km/h (0 Bft)
09.07.2017 01:44 17,1 °C 17,2 °C 76 % 1012,9 hPa 0,0 mm 0,0 km/h (0 Bft) N-NO 17 ° 0 min 0,000 mm 0,0 UV-I 0 W/m² 12,8 °C 17,1 °C 0,0 km/h (0 Bft)
09.07.2017 01:45 17,1 °C 17,1 °C 76 % 1012,9 hPa 0,0 mm 0,0 km/h (0 Bft) N-NO 17 ° 0 min 0,000 mm 0,0 UV-I 0 W/m² 12,8 °C 17,1 °C 0,0 km/h (0 Bft)
09.07.2017 01:46 17,1 °C 17,1 °C 76 % 1012,9 hPa 0,0 mm 0,0 km/h (0 Bft) N-NO 17 ° 0 min 0,000 mm 0,0 UV-I 0 W/m² 12,8 °C 17,1 °C 0,0 km/h (0 Bft)
09.07.2017 01:47 17,1 °C 17,1 °C 75 % 1012,9 hPa 0,0 mm 0,0 km/h (0 Bft) N-NO 17 ° 0 min 0,000 mm 0,0 UV-I 0 W/m² 12,6 °C 17,1 °C 0,0 km/h (0 Bft)
09.07.2017 01:48 17,1 °C 17,1 °C 78 % 1012,9 hPa 0,0 mm 0,0 km/h (0 Bft) N-NO 17 ° 0 min 0,000 mm 0,0 UV-I 0 W/m² 13,2 °C 17,1 °C 0,0 km/h (0 Bft)
09.07.2017 01:49 17,1 °C 17,1 °C 77 % 1012,8 hPa 0,0 mm 0,0 km/h (0 Bft) N-NO 17 ° 0 min 0,000 mm 0,0 UV-I 0 W/m² 13,0 °C 17,1 °C 0,0 km/h (0 Bft)
09.07.2017 01:50 17,1 °C 17,1 °C 75 % 1012,8 hPa 0,0 mm 0,0 km/h (0 Bft) N-NO 17 ° 0 min 0,000 mm 0,0 UV-I 0 W/m² 12,6 °C 17,1 °C 0,0 km/h (0 Bft)
09.07.2017 01:51 17,1 °C 17,2 °C 74 % 1012,8 hPa 0,0 mm 0,0 km/h (0 Bft) N-NO 17 ° 0 min 0,000 mm 0,0 UV-I 0 W/m² 12,4 °C 17,1 °C 0,0 km/h (0 Bft)
09.07.2017 01:52 17,2 °C 17,2 °C 75 % 1012,8 hPa 0,0 mm 0,5 km/h (0 Bft) N-NW 348 ° 0 min 0,000 mm 0,0 UV-I 0 W/m² 12,7 °C 17,2 °C 3,2 km/h (1 Bft)
09.07.2017 01:53 17,2 °C 17,2 °C 75 % 1012,7 hPa 0,0 mm 1,1 km/h (1 Bft) N 349 ° 0 min 0,000 mm 0,0 UV-I 0 W/m² 12,7 °C 17,2 °C 3,2 km/h (1 Bft)
09.07.2017 01:54 17,2 °C 17,3 °C 75 % 1012,8 hPa 0,0 mm 0,0 km/h (0 Bft) N 349 ° 0 min 0,000 mm 0,0 UV-I 0 W/m² 12,7 °C 17,2 °C 0,0 km/h (0 Bft)
09.07.2017 01:55 17,2 °C 17,3 °C 76 % 1012,7 hPa 0,0 mm 0,0 km/h (0 Bft) N 349 ° 0 min 0,000 mm 0,0 UV-I 0 W/m² 12,9 °C 17,2 °C 0,0 km/h (0 Bft)
09.07.2017 01:56 17,2 °C 17,2 °C 77 % 1012,8 hPa 0,0 mm 1,7 km/h (1 Bft) N-NW 348 ° 0 min 0,000 mm 0,0 UV-I 0 W/m² 13,1 °C 17,2 °C 3,2 km/h (1 Bft)
09.07.2017 01:57 17,2 °C 17,2 °C 77 % 1012,8 hPa 0,0 mm 1,5 km/h (1 Bft) N-NW 348 ° 0 min 0,000 mm 0,0 UV-I 0 W/m² 13,1 °C 17,2 °C 3,2 km/h (1 Bft)
09.07.2017 01:58 17,1 °C 17,2 °C 77 % 1012,9 hPa 0,0 mm 0,0 km/h (0 Bft) N-NW 348 ° 0 min 0,000 mm 0,0 UV-I 0 W/m² 13,0 °C 17,1 °C 0,0 km/h (0 Bft)
09.07.2017 01:59 17,1 °C 17,1 °C 77 % 1012,8 hPa 0,0 mm 0,5 km/h (0 Bft) N-NW 348 ° 0 min 0,000 mm 0,0 UV-I 0 W/m² 13,0 °C 17,1 °C 1,6 km/h (1 Bft)
09.07.2017 02:00 17,1 °C 17,1 °C 77 % 1012,7 hPa 0,0 mm 0,0 km/h (0 Bft) N-NW 348 ° 0 min 0,026 mm 0,0 UV-I 0 W/m² 13,0 °C 17,1 °C 0,0 km/h (0 Bft)
09.07.2017 02:01 17,1 °C 17,1 °C 76 % 1012,7 hPa 0,0 mm 0,0 km/h (0 Bft) N-NW 348 ° 0 min 0,000 mm 0,0 UV-I 0 W/m² 12,8 °C 17,1 °C 0,0 km/h (0 Bft)
09.07.2017 02:02 17,1 °C 17,1 °C 75 % 1012,7 hPa 0,0 mm 0,2 km/h (0 Bft) N-NW 348 ° 0 min 0,000 mm 0,0 UV-I 0 W/m² 12,6 °C 17,1 °C 1,6 km/h (1 Bft)
09.07.2017 02:03 17,2 °C 17,2 °C 76 % 1012,7 hPa 0,0 mm 0,0 km/h (0 Bft) N-NW 348 ° 0 min 0,000 mm 0,0 UV-I 0 W/m² 12,9 °C 17,2 °C 0,0 km/h (0 Bft)
09.07.2017 02:04 17,2 °C 17,2 °C 76 % 1012,6 hPa 0,0 mm 0,0 km/h (0 Bft) N-NW 348 ° 0 min 0,000 mm 0,0 UV-I 0 W/m² 12,9 °C 17,2 °C 0,0 km/h (0 Bft)
09.07.2017 02:05 17,3 °C 17,3 °C 75 % 1012,5 hPa 0,0 mm 0,0 km/h (0 Bft) N-NW 348 ° 0 min 0,000 mm 0,0 UV-I 0 W/m² 12,8 °C 17,3 °C 0,0 km/h (0 Bft)
09.07.2017 02:06 17,3 °C 17,3 °C 75 % 1012,6 hPa 0,0 mm 0,0 km/h (0 Bft) N-NW 348 ° 0 min 0,000 mm 0,0 UV-I 0 W/m² 12,8 °C 17,3 °C 0,0 km/h (0 Bft)
09.07.2017 02:07 17,3 °C 17,3 °C 75 % 1012,5 hPa 0,0 mm 0,0 km/h (0 Bft) N-NW 348 ° 0 min 0,000 mm 0,0 UV-I 0 W/m² 12,8 °C 17,3 °C 0,0 km/h (0 Bft)
09.07.2017 02:08 17,3 °C 17,3 °C 75 % 1012,5 hPa 0,0 mm 0,0 km/h (0 Bft) N-NW 348 ° 0 min 0,000 mm 0,0 UV-I 0 W/m² 12,8 °C 17,3 °C 0,0 km/h (0 Bft)
09.07.2017 02:09 17,3 °C 17,3 °C 75 % 1012,5 hPa 0,0 mm 0,1 km/h (0 Bft) N-NW 348 ° 0 min 0,000 mm 0,0 UV-I 0 W/m² 12,8 °C 17,3 °C 1,6 km/h (1 Bft)
09.07.2017 02:10 17,4 °C 17,4 °C 74 % 1012,5 hPa 0,0 mm 0,0 km/h (0 Bft) N-NW 348 ° 0 min 0,000 mm 0,0 UV-I 0 W/m² 12,7 °C 17,4 °C 0,0 km/h (0 Bft)
09.07.2017 02:11 17,4 °C 17,4 °C 74 % 1012,5 hPa 0,0 mm 0,3 km/h (0 Bft) N 349 ° 0 min 0,000 mm 0,0 UV-I 0 W/m² 12,7 °C 17,4 °C 1,6 km/h (1 Bft)
09.07.2017 02:12 17,4 °C 17,4 °C 74 % 1012,6 hPa 0,0 mm 0,0 km/h (0 Bft) N-NW 348 ° 0 min 0,000 mm 0,0 UV-I 0 W/m² 12,7 °C 17,4 °C 0,0 km/h (0 Bft)
09.07.2017 02:13 17,4 °C 17,4 °C 74 % 1012,6 hPa 0,0 mm 0,0 km/h (0 Bft) N-NW 348 ° 0 min 0,000 mm 0,0 UV-I 0 W/m² 12,7 °C 17,4 °C 0,0 km/h (0 Bft)
09.07.2017 02:14 17,4 °C 17,4 °C 74 % 1012,6 hPa 0,0 mm 0,0 km/h (0 Bft) N-NW 348 ° 0 min 0,000 mm 0,0 UV-I 0 W/m² 12,7 °C 17,4 °C 0,0 km/h (0 Bft)
09.07.2017 02:15 17,4 °C 17,4 °C 74 % 1012,6 hPa 0,0 mm 0,0 km/h (0 Bft) N-NW 348 ° 0 min 0,000 mm 0,0 UV-I 0 W/m² 12,7 °C 17,4 °C 0,0 km/h (0 Bft)
09.07.2017 02:16 17,4 °C 17,4 °C 74 % 1012,5 hPa 0,0 mm 0,0 km/h (0 Bft) N 349 ° 0 min 0,000 mm 0,0 UV-I 0 W/m² 12,7 °C 17,4 °C 0,0 km/h (0 Bft)
09.07.2017 02:17 17,4 °C 17,5 °C 74 % 1012,5 hPa 0,0 mm 0,0 km/h (0 Bft) N-NW 348 ° 0 min 0,000 mm 0,0 UV-I 0 W/m² 12,7 °C 17,4 °C 0,0 km/h (0 Bft)
09.07.2017 02:18 17,5 °C 17,5 °C 74 % 1012,5 hPa 0,0 mm 0,0 km/h (0 Bft) N 349 ° 0 min 0,000 mm 0,0 UV-I 0 W/m² 12,8 °C 17,5 °C 0,0 km/h (0 Bft)
09.07.2017 02:19 17,6 °C 17,6 °C 73 % 1012,4 hPa 0,0 mm 0,0 km/h (0 Bft) N-NW 348 ° 0 min 0,000 mm 0,0 UV-I 0 W/m² 12,7 °C 17,6 °C 0,0 km/h (0 Bft)
09.07.2017 02:20 17,6 °C 17,6 °C 73 % 1012,5 hPa 0,0 mm 0,0 km/h (0 Bft) N-NW 348 ° 0 min 0,000 mm 0,0 UV-I 0 W/m² 12,7 °C 17,6 °C 0,0 km/h (0 Bft)
09.07.2017 02:21 17,6 °C 17,6 °C 73 % 1012,5 hPa 0,0 mm 0,0 km/h (0 Bft) N-NW 348 ° 0 min 0,000 mm 0,0 UV-I 0 W/m² 12,7 °C 17,6 °C 0,0 km/h (0 Bft)
09.07.2017 02:22 17,6 °C 17,6 °C 73 % 1012,5 hPa 0,0 mm 0,0 km/h (0 Bft) N-NW 348 ° 0 min 0,000 mm 0,0 UV-I 0 W/m² 12,7 °C 17,6 °C 0,0 km/h (0 Bft)
09.07.2017 02:23 17,6 °C 17,6 °C 74 % 1012,6 hPa 0,0 mm 0,0 km/h (0 Bft) N-NW 348 ° 0 min 0,000 mm 0,0 UV-I 0 W/m² 12,9 °C 17,6 °C 0,0 km/h (0 Bft)
09.07.2017 02:24 17,6 °C 17,6 °C 74 % 1012,6 hPa 0,0 mm 0,0 km/h (0 Bft) N-NW 348 ° 0 min 0,000 mm 0,0 UV-I 0 W/m² 12,9 °C 17,6 °C 0,0 km/h (0 Bft)
09.07.2017 02:25 17,5 °C 17,6 °C 75 % 1012,5 hPa 0,0 mm 0,3 km/h (0 Bft) N-NW 348 ° 0 min 0,000 mm 0,0 UV-I 0 W/m² 13,0 °C 17,5 °C 1,6 km/h (1 Bft)
09.07.2017 02:26 17,4 °C 17,5 °C 74 % 1012,5 hPa 0,0 mm 0,0 km/h (0 Bft) N-NW 348 ° 0 min 0,000 mm 0,0 UV-I 0 W/m² 12,7 °C 17,4 °C 0,0 km/h (0 Bft)
09.07.2017 02:27 17,4 °C 17,4 °C 74 % 1012,5 hPa 0,0 mm 0,0 km/h (0 Bft) N-NW 348 ° 0 min 0,000 mm 0,0 UV-I 0 W/m² 12,7 °C 17,4 °C 0,0 km/h (0 Bft)
09.07.2017 02:28 17,3 °C 17,4 °C 74 % 1012,5 hPa 0,0 mm 0,0 km/h (0 Bft) N-NW 348 ° 0 min 0,000 mm 0,0 UV-I 0 W/m² 12,6 °C 17,3 °C 0,0 km/h (0 Bft)
09.07.2017 02:29 17,3 °C 17,4 °C 74 % 1012,5 hPa 0,0 mm 0,0 km/h (0 Bft) N-NW 348 ° 0 min 0,000 mm 0,0 UV-I 0 W/m² 12,6 °C 17,3 °C 0,0 km/h (0 Bft)
09.07.2017 02:30 17,4 °C 17,4 °C 74 % 1012,4 hPa 0,0 mm 0,0 km/h (0 Bft) N 349 ° 0 min 0,000 mm 0,0 UV-I 0 W/m² 12,7 °C 17,4 °C 0,0 km/h (0 Bft)
09.07.2017 02:31 17,3 °C 17,4 °C 75 % 1012,4 hPa 0,0 mm 0,7 km/h (0 Bft) N 349 ° 0 min 0,000 mm 0,0 UV-I 0 W/m² 12,8 °C 17,3 °C 3,2 km/h (1 Bft)
09.07.2017 02:32 17,3 °C 17,3 °C 75 % 1012,4 hPa 0,0 mm 0,1 km/h (0 Bft) N 349 ° 0 min 0,000 mm 0,0 UV-I 0 W/m² 12,8 °C 17,3 °C 1,6 km/h (1 Bft)
09.07.2017 02:33 17,3 °C 17,3 °C 75 % 1012,4 hPa 0,0 mm 0,9 km/h (0 Bft) N 360 ° 0 min 0,000 mm 0,0 UV-I 0 W/m² 12,8 °C 17,3 °C 3,2 km/h (1 Bft)
09.07.2017 02:34 17,3 °C 17,3 °C 75 % 1012,4 hPa 0,0 mm 0,9 km/h (0 Bft) N 360 ° 0 min 0,000 mm 0,0 UV-I 0 W/m² 12,8 °C 17,3 °C 3,2 km/h (1 Bft)
09.07.2017 02:35 17,3 °C 17,3 °C 75 % 1012,4 hPa 0,0 mm 1,0 km/h (0 Bft) N 360 ° 0 min 0,000 mm 0,0 UV-I 0 W/m² 12,8 °C 17,3 °C 3,2 km/h (1 Bft)
09.07.2017 02:36 17,3 °C 17,3 °C 74 % 1012,4 hPa 0,0 mm 0,7 km/h (0 Bft) N 360 ° 0 min 0,000 mm 0,0 UV-I 0 W/m² 12,6 °C 17,3 °C 3,2 km/h (1 Bft)
09.07.2017 02:37 17,3 °C 17,3 °C 75 % 1012,4 hPa 0,0 mm 3,2 km/h (1 Bft) SO 146 ° 0 min 0,000 mm 0,0 UV-I 0 W/m² 12,8 °C 17,3 °C 4,8 km/h (1 Bft)
09.07.2017 02:38 17,3 °C 17,3 °C 75 % 1012,4 hPa 0,0 mm 0,9 km/h (0 Bft) SO 146 ° 0 min 0,000 mm 0,0 UV-I 0 W/m² 12,8 °C 17,3 °C 3,2 km/h (1 Bft)
09.07.2017 02:39 17,3 °C 17,3 °C 75 % 1012,4 hPa 0,0 mm 0,6 km/h (0 Bft) SO 126 ° 0 min 0,000 mm 0,0 UV-I 0 W/m² 12,8 °C 17,3 °C 1,6 km/h (1 Bft)
09.07.2017 02:40 17,3 °C 17,3 °C 75 % 1012,5 hPa 0,0 mm 0,0 km/h (0 Bft) SO 126 ° 0 min 0,000 mm 0,0 UV-I 0 W/m² 12,8 °C 17,3 °C 0,0 km/h (0 Bft)
09.07.2017 02:41 17,3 °C 17,3 °C 74 % 1012,5 hPa 0,0 mm 1,4 km/h (1 Bft) NO 39 ° 0 min 0,000 mm 0,0 UV-I 0 W/m² 12,6 °C 17,3 °C 3,2 km/h (1 Bft)
09.07.2017 02:42 17,4 °C 17,4 °C 74 % 1012,5 hPa 0,0 mm 1,3 km/h (1 Bft) NO 38 ° 0 min 0,000 mm 0,0 UV-I 0 W/m² 12,7 °C 17,4 °C 3,2 km/h (1 Bft)
09.07.2017 02:43 17,4 °C 17,4 °C 75 % 1012,5 hPa 0,0 mm 1,1 km/h (1 Bft) NO 38 ° 0 min 0,000 mm 0,0 UV-I 0 W/m² 12,9 °C 17,4 °C 1,6 km/h (1 Bft)
09.07.2017 02:44 17,4 °C 17,4 °C 74 % 1012,5 hPa 0,0 mm 1,9 km/h (1 Bft) N 9 ° 0 min 0,000 mm 0,0 UV-I 0 W/m² 12,7 °C 17,4 °C 3,2 km/h (1 Bft)
09.07.2017 02:45 17,5 °C 17,5 °C 75 % 1012,5 hPa 0,0 mm 0,2 km/h (0 Bft) N 9 ° 0 min 0,000 mm 0,0 UV-I 0 W/m² 13,0 °C 17,5 °C 1,6 km/h (1 Bft)
09.07.2017 02:46 17,5 °C 17,5 °C 74 % 1012,5 hPa 0,0 mm 0,1 km/h (0 Bft) N 9 ° 0 min 0,000 mm 0,0 UV-I 0 W/m² 12,8 °C 17,5 °C 1,6 km/h (1 Bft)
09.07.2017 02:47 17,5 °C 17,5 °C 74 % 1012,5 hPa 0,0 mm 0,0 km/h (0 Bft) N 9 ° 0 min 0,000 mm 0,0 UV-I 0 W/m² 12,8 °C 17,5 °C 0,0 km/h (0 Bft)
09.07.2017 02:48 17,6 °C 17,6 °C 74 % 1012,5 hPa 0,0 mm 0,9 km/h (0 Bft) N 349 ° 0 min 0,000 mm 0,0 UV-I 0 W/m² 12,9 °C 17,6 °C 3,2 km/h (1 Bft)
09.07.2017 02:49 17,6 °C 17,6 °C 73 % 1012,5 hPa 0,0 mm 0,9 km/h (0 Bft) O-NO 68 ° 0 min 0,000 mm 0,0 UV-I 0 W/m² 12,7 °C 17,6 °C 3,2 km/h (1 Bft)
09.07.2017 02:50 17,7 °C 17,7 °C 73 % 1012,5 hPa 0,0 mm 0,3 km/h (0 Bft) O-NO 68 ° 0 min 0,000 mm 0,0 UV-I 0 W/m² 12,8 °C 17,7 °C 1,6 km/h (1 Bft)
09.07.2017 02:51 17,7 °C 17,7 °C 74 % 1012,5 hPa 0,0 mm 1,1 km/h (1 Bft) NO 50 ° 0 min 0,000 mm 0,0 UV-I 0 W/m² 13,0 °C 17,7 °C 3,2 km/h (1 Bft)
09.07.2017 02:52 17,7 °C 17,7 °C 73 % 1012,6 hPa 0,0 mm 1,4 km/h (1 Bft) N-NO 22 ° 0 min 0,000 mm 0,0 UV-I 0 W/m² 12,8 °C 17,7 °C 4,8 km/h (1 Bft)
09.07.2017 02:53 17,7 °C 17,7 °C 74 % 1012,6 hPa 0,0 mm 2,0 km/h (1 Bft) O 86 ° 0 min 0,000 mm 0,0 UV-I 0 W/m² 13,0 °C 17,7 °C 4,8 km/h (1 Bft)
09.07.2017 02:54 17,7 °C 17,7 °C 73 % 1012,5 hPa 0,0 mm 0,7 km/h (0 Bft) W-NW 301 ° 0 min 0,000 mm 0,0 UV-I 0 W/m² 12,8 °C 17,7 °C 1,6 km/h (1 Bft)
09.07.2017 02:55 17,7 °C 17,7 °C 72 % 1012,5 hPa 0,0 mm 0,0 km/h (0 Bft) W-NW 301 ° 0 min 0,000 mm 0,0 UV-I 0 W/m² 12,6 °C 17,7 °C 0,0 km/h (0 Bft)
09.07.2017 02:56 17,8 °C 17,8 °C 72 % 1012,5 hPa 0,0 mm 0,0 km/h (0 Bft) S-SW 210 ° 0 min 0,000 mm 0,0 UV-I 0 W/m² 12,7 °C 17,8 °C 0,0 km/h (0 Bft)
09.07.2017 02:57 17,8 °C 17,8 °C 72 % 1012,5 hPa 0,0 mm 2,6 km/h (1 Bft) S-SW 213 ° 0 min 0,000 mm 0,0 UV-I 0 W/m² 12,7 °C 17,8 °C 6,4 km/h (2 Bft)
09.07.2017 02:58 17,9 °C 17,9 °C 73 % 1012,5 hPa 0,0 mm 0,1 km/h (0 Bft) S-SW 213 ° 0 min 0,000 mm 0,0 UV-I 0 W/m² 13,0 °C 17,9 °C 1,6 km/h (1 Bft)
09.07.2017 02:59 17,9 °C 17,9 °C 71 % 1012,4 hPa 0,0 mm 0,1 km/h (0 Bft) S-SW 213 ° 0 min 0,000 mm 0,0 UV-I 0 W/m² 12,6 °C 17,9 °C 1,6 km/h (1 Bft)
09.07.2017 03:00 17,9 °C 17,9 °C 72 % 1012,4 hPa 0,0 mm 0,7 km/h (0 Bft) S-SW 213 ° 0 min 0,000 mm 0,0 UV-I 0 W/m² 12,8 °C 17,9 °C 1,6 km/h (1 Bft)
09.07.2017 03:01 18,0 °C 18,0 °C 70 % 1012,5 hPa 0,0 mm 0,0 km/h (0 Bft) S-SW 213 ° 0 min 0,025 mm 0,0 UV-I 0 W/m² 12,4 °C 18,0 °C 0,0 km/h (0 Bft)
09.07.2017 03:02 18,0 °C 18,1 °C 70 % 1012,5 hPa 0,0 mm 0,9 km/h (0 Bft) N-NW 343 ° 0 min 0,000 mm 0,0 UV-I 0 W/m² 12,4 °C 18,0 °C 4,8 km/h (1 Bft)
09.07.2017 03:03 18,0 °C 18,1 °C 71 % 1012,5 hPa 0,0 mm 3,2 km/h (1 Bft) S-SW 194 ° 0 min 0,000 mm 0,0 UV-I 0 W/m² 12,7 °C 18,0 °C 6,4 km/h (2 Bft)
09.07.2017 03:04 18,1 °C 18,1 °C 70 % 1012,5 hPa 0,0 mm 1,6 km/h (1 Bft) S-SW 206 ° 0 min 0,000 mm 0,0 UV-I 0 W/m² 12,5 °C 18,1 °C 3,2 km/h (1 Bft)
09.07.2017 03:05 18,1 °C 18,1 °C 71 % 1012,5 hPa 0,0 mm 0,7 km/h (0 Bft) NW 322 ° 0 min 0,000 mm 0,0 UV-I 0 W/m² 12,8 °C 18,1 °C 4,8 km/h (1 Bft)
09.07.2017 03:06 18,1 °C 18,1 °C 71 % 1012,5 hPa 0,0 mm 1,2 km/h (1 Bft) SW 220 ° 0 min 0,000 mm 0,0 UV-I 0 W/m² 12,8 °C 18,1 °C 4,8 km/h (1 Bft)
09.07.2017 03:07 18,0 °C 18,1 °C 71 % 1012,5 hPa 0,0 mm 0,0 km/h (0 Bft) SW 220 ° 0 min 0,000 mm 0,0 UV-I 0 W/m² 12,7 °C 18,0 °C 0,0 km/h (0 Bft)
09.07.2017 03:08 18,0 °C 18,1 °C 71 % 1012,5 hPa 0,0 mm 0,0 km/h (0 Bft) SW 220 ° 0 min 0,000 mm 0,0 UV-I 0 W/m² 12,7 °C 18,0 °C 0,0 km/h (0 Bft)
09.07.2017 03:09 18,0 °C 18,0 °C 71 % 1012,5 hPa 0,0 mm 0,8 km/h (0 Bft) SW 221 ° 0 min 0,000 mm 0,0 UV-I 0 W/m² 12,7 °C 18,0 °C 3,2 km/h (1 Bft)
09.07.2017 03:10 18,0 °C 18,1 °C 70 % 1012,5 hPa 0,0 mm 0,1 km/h (0 Bft) SW 221 ° 0 min 0,000 mm 0,0 UV-I 0 W/m² 12,4 °C 18,0 °C 1,6 km/h (1 Bft)
09.07.2017 03:11 18,1 °C 18,1 °C 71 % 1012,5 hPa 0,0 mm 0,0 km/h (0 Bft) SW 221 ° 0 min 0,000 mm 0,0 UV-I 0 W/m² 12,8 °C 18,1 °C 0,0 km/h (0 Bft)
09.07.2017 03:12 18,0 °C 18,1 °C 72 % 1012,5 hPa 0,0 mm 0,8 km/h (0 Bft) NW 325 ° 0 min 0,000 mm 0,0 UV-I 0 W/m² 12,9 °C 18,0 °C 4,8 km/h (1 Bft)
09.07.2017 03:13 17,9 °C 18,0 °C 73 % 1012,5 hPa 0,0 mm 1,1 km/h (1 Bft) NW 325 ° 0 min 0,000 mm 0,0 UV-I 0 W/m² 13,0 °C 17,9 °C 3,2 km/h (1 Bft)
09.07.2017 03:14 17,8 °C 17,9 °C 74 % 1012,5 hPa 0,0 mm 0,0 km/h (0 Bft) NW 325 ° 0 min 0,000 mm 0,0 UV-I 0 W/m² 13,1 °C 17,8 °C 0,0 km/h (0 Bft)
09.07.2017 03:15 17,8 °C 17,8 °C 73 % 1012,5 hPa 0,0 mm 0,1 km/h (0 Bft) NW 325 ° 0 min 0,000 mm 0,0 UV-I 0 W/m² 12,9 °C 17,8 °C 1,6 km/h (1 Bft)
09.07.2017 03:16 17,8 °C 17,8 °C 73 % 1012,5 hPa 0,0 mm 3,4 km/h (1 Bft) O 86 ° 0 min 0,000 mm 0,0 UV-I 0 W/m² 12,9 °C 17,8 °C 6,4 km/h (2 Bft)
09.07.2017 03:17 17,8 °C 17,8 °C 73 % 1012,4 hPa 0,0 mm 1,2 km/h (1 Bft) O 86 ° 0 min 0,000 mm 0,0 UV-I 0 W/m² 12,9 °C 17,8 °C 3,2 km/h (1 Bft)
09.07.2017 03:18 17,8 °C 17,9 °C 73 % 1012,4 hPa 0,0 mm 0,1 km/h (0 Bft) O 86 ° 0 min 0,000 mm 0,0 UV-I 0 W/m² 12,9 °C 17,8 °C 1,6 km/h (1 Bft)
09.07.2017 03:19 17,8 °C 17,9 °C 72 % 1012,4 hPa 0,0 mm 0,0 km/h (0 Bft) O 86 ° 0 min 0,000 mm 0,0 UV-I 0 W/m² 12,7 °C 17,8 °C 0,0 km/h (0 Bft)
09.07.2017 03:20 17,8 °C 17,9 °C 72 % 1012,4 hPa 0,0 mm 0,0 km/h (0 Bft) O 86 ° 0 min 0,000 mm 0,0 UV-I 0 W/m² 12,7 °C 17,8 °C 0,0 km/h (0 Bft)
09.07.2017 03:21 17,9 °C 17,9 °C 72 % 1012,3 hPa 0,0 mm 2,7 km/h (1 Bft) N-NW 338 ° 0 min 0,000 mm 0,0 UV-I 0 W/m² 12,8 °C 17,9 °C 6,4 km/h (2 Bft)
09.07.2017 03:22 17,9 °C 17,9 °C 71 % 1012,3 hPa 0,0 mm 0,1 km/h (0 Bft) N-NW 338 ° 0 min 0,000 mm 0,0 UV-I 0 W/m² 12,6 °C 17,9 °C 1,6 km/h (1 Bft)
09.07.2017 03:23 17,9 °C 17,9 °C 71 % 1012,4 hPa 0,0 mm 1,1 km/h (1 Bft) N-NW 338 ° 0 min 0,000 mm 0,0 UV-I 0 W/m² 12,6 °C 17,9 °C 4,8 km/h (1 Bft)
09.07.2017 03:24 17,9 °C 17,9 °C 71 % 1012,3 hPa 0,0 mm 0,3 km/h (0 Bft) N-NW 338 ° 0 min 0,000 mm 0,0 UV-I 0 W/m² 12,6 °C 17,9 °C 1,6 km/h (1 Bft)
09.07.2017 03:25 18,0 °C 18,0 °C 71 % 1012,4 hPa 0,0 mm 0,0 km/h (0 Bft) N-NW 338 ° 0 min 0,000 mm 0,0 UV-I 0 W/m² 12,7 °C 18,0 °C 0,0 km/h (0 Bft)
09.07.2017 03:26 18,0 °C 18,0 °C 72 % 1012,3 hPa 0,0 mm 0,3 km/h (0 Bft) N-NW 338 ° 0 min 0,000 mm 0,0 UV-I 0 W/m² 12,9 °C 18,0 °C 1,6 km/h (1 Bft)
09.07.2017 03:27 18,0 °C 18,0 °C 71 % 1012,2 hPa 0,0 mm 0,6 km/h (0 Bft) N-NW 338 ° 0 min 0,000 mm 0,0 UV-I 0 W/m² 12,7 °C 18,0 °C 1,6 km/h (1 Bft)
09.07.2017 03:28 18,1 °C 18,1 °C 70 % 1012,2 hPa 0,0 mm 1,0 km/h (0 Bft) N-NW 338 ° 0 min 0,000 mm 0,0 UV-I 0 W/m² 12,5 °C 18,1 °C 3,2 km/h (1 Bft)
09.07.2017 03:29 18,1 °C 18,1 °C 70 % 1012,2 hPa 0,0 mm 0,0 km/h (0 Bft) N-NW 338 ° 0 min 0,000 mm 0,0 UV-I 0 W/m² 12,5 °C 18,1 °C 0,0 km/h (0 Bft)
09.07.2017 03:30 18,1 °C 18,1 °C 72 % 1012,3 hPa 0,0 mm 0,0 km/h (0 Bft) N-NW 338 ° 0 min 0,000 mm 0,0 UV-I 0 W/m² 13,0 °C 18,1 °C 0,0 km/h (0 Bft)
09.07.2017 03:31 18,1 °C 18,1 °C 71 % 1012,3 hPa 0,0 mm 0,0 km/h (0 Bft) N-NW 338 ° 0 min 0,000 mm 0,0 UV-I 0 W/m² 12,8 °C 18,1 °C 0,0 km/h (0 Bft)
09.07.2017 03:32 18,1 °C 18,1 °C 71 % 1012,3 hPa 0,0 mm 0,0 km/h (0 Bft) N-NW 338 ° 0 min 0,000 mm 0,0 UV-I 0 W/m² 12,8 °C 18,1 °C 0,0 km/h (0 Bft)
09.07.2017 03:33 18,1 °C 18,1 °C 71 % 1012,3 hPa 0,0 mm 0,0 km/h (0 Bft) N-NW 338 ° 0 min 0,000 mm 0,0 UV-I 0 W/m² 12,8 °C 18,1 °C 0,0 km/h (0 Bft)
09.07.2017 03:34 18,1 °C 18,1 °C 73 % 1012,3 hPa 0,0 mm 1,5 km/h (1 Bft) N-NW 345 ° 0 min 0,000 mm 0,0 UV-I 0 W/m² 13,2 °C 18,1 °C 3,2 km/h (1 Bft)
09.07.2017 03:35 18,1 °C 18,1 °C 71 % 1012,3 hPa 0,0 mm 0,3 km/h (0 Bft) N-NW 345 ° 0 min 0,000 mm 0,0 UV-I 0 W/m² 12,8 °C 18,1 °C 1,6 km/h (1 Bft)
09.07.2017 03:36 18,1 °C 18,1 °C 70 % 1012,3 hPa 0,0 mm 0,0 km/h (0 Bft) N-NW 345 ° 0 min 0,000 mm 0,0 UV-I 0 W/m² 12,5 °C 18,1 °C 0,0 km/h (0 Bft)
09.07.2017 03:37 18,1 °C 18,1 °C 71 % 1012,3 hPa 0,0 mm 0,0 km/h (0 Bft) N-NW 345 ° 0 min 0,000 mm 0,0 UV-I 0 W/m² 12,8 °C 18,1 °C 0,0 km/h (0 Bft)
09.07.2017 03:38 18,1 °C 18,1 °C 70 % 1012,3 hPa 0,0 mm 1,0 km/h (0 Bft) N 355 ° 0 min 0,000 mm 0,0 UV-I 0 W/m² 12,5 °C 18,1 °C 3,2 km/h (1 Bft)
09.07.2017 03:39 18,1 °C 18,1 °C 72 % 1012,2 hPa 0,0 mm 3,1 km/h (1 Bft) S-SO 147 ° 0 min 0,000 mm 0,0 UV-I 0 W/m² 13,0 °C 18,1 °C 4,8 km/h (1 Bft)
09.07.2017 03:40 18,1 °C 18,1 °C 70 % 1012,2 hPa 0,0 mm 0,1 km/h (0 Bft) S-SO 147 ° 0 min 0,000 mm 0,0 UV-I 0 W/m² 12,5 °C 18,1 °C 1,6 km/h (1 Bft)
09.07.2017 03:41 18,1 °C 18,2 °C 70 % 1012,2 hPa 0,0 mm 0,1 km/h (0 Bft) S-SO 147 ° 0 min 0,000 mm 0,0 UV-I 0 W/m² 12,5 °C 18,1 °C 1,6 km/h (1 Bft)
09.07.2017 03:42 18,2 °C 18,2 °C 71 % 1012,2 hPa 0,0 mm 1,4 km/h (1 Bft) N-NO 29 ° 0 min 0,000 mm 0,0 UV-I 0 W/m² 12,9 °C 18,2 °C 3,2 km/h (1 Bft)
09.07.2017 03:43 18,2 °C 18,2 °C 70 % 1012,3 hPa 0,0 mm 2,4 km/h (1 Bft) N-NO 29 ° 0 min 0,000 mm 0,0 UV-I 0 W/m² 12,6 °C 18,2 °C 3,2 km/h (1 Bft)
09.07.2017 03:44 18,2 °C 18,2 °C 70 % 1012,3 hPa 0,0 mm 0,6 km/h (0 Bft) N-NO 29 ° 0 min 0,000 mm 0,0 UV-I 0 W/m² 12,6 °C 18,2 °C 1,6 km/h (1 Bft)
09.07.2017 03:45 18,2 °C 18,2 °C 70 % 1012,3 hPa 0,0 mm 0,0 km/h (0 Bft) N-NO 29 ° 0 min 0,000 mm 0,0 UV-I 0 W/m² 12,6 °C 18,2 °C 0,0 km/h (0 Bft)
09.07.2017 03:46 18,2 °C 18,2 °C 69 % 1012,3 hPa 0,0 mm 0,0 km/h (0 Bft) N-NO 29 ° 0 min 0,000 mm 0,0 UV-I 0 W/m² 12,4 °C 18,2 °C 0,0 km/h (0 Bft)
09.07.2017 03:47 18,3 °C 18,3 °C 71 % 1012,2 hPa 0,0 mm 0,0 km/h (0 Bft) N-NO 29 ° 0 min 0,000 mm 0,0 UV-I 0 W/m² 12,9 °C 18,3 °C 0,0 km/h (0 Bft)
09.07.2017 03:48 18,2 °C 18,3 °C 71 % 1012,3 hPa 0,0 mm 0,0 km/h (0 Bft) N-NO 29 ° 0 min 0,000 mm 0,0 UV-I 0 W/m² 12,9 °C 18,2 °C 0,0 km/h (0 Bft)
09.07.2017 03:49 18,2 °C 18,2 °C 69 % 1012,3 hPa 0,0 mm 0,0 km/h (0 Bft) N-NO 29 ° 0 min 0,000 mm 0,0 UV-I 0 W/m² 12,4 °C 18,2 °C 0,0 km/h (0 Bft)
09.07.2017 03:50 18,2 °C 18,2 °C 70 % 1012,3 hPa 0,0 mm 0,0 km/h (0 Bft) N-NO 29 ° 0 min 0,000 mm 0,0 UV-I 0 W/m² 12,6 °C 18,2 °C 0,0 km/h (0 Bft)
09.07.2017 03:51 18,3 °C 18,3 °C 69 % 1012,2 hPa 0,0 mm 0,0 km/h (0 Bft) N-NO 29 ° 0 min 0,000 mm 0,0 UV-I 0 W/m² 12,5 °C 18,3 °C 0,0 km/h (0 Bft)
09.07.2017 03:52 18,3 °C 18,3 °C 71 % 1012,2 hPa 0,0 mm 0,0 km/h (0 Bft) N-NO 29 ° 0 min 0,000 mm 0,0 UV-I 0 W/m² 12,9 °C 18,3 °C 0,0 km/h (0 Bft)
09.07.2017 03:53 18,3 °C 18,3 °C 70 % 1012,3 hPa 0,0 mm 0,1 km/h (0 Bft) N-NO 29 ° 0 min 0,000 mm 0,0 UV-I 0 W/m² 12,7 °C 18,3 °C 1,6 km/h (1 Bft)
09.07.2017 03:54 18,3 °C 18,3 °C 71 % 1012,3 hPa 0,0 mm 0,0 km/h (0 Bft) N-NO 28 ° 0 min 0,000 mm 0,0 UV-I 0 W/m² 12,9 °C 18,3 °C 0,0 km/h (0 Bft)
09.07.2017 03:55 18,2 °C 18,3 °C 69 % 1012,2 hPa 0,0 mm 0,1 km/h (0 Bft) N-NO 28 ° 0 min 0,000 mm 0,0 UV-I 0 W/m² 12,4 °C 18,2 °C 3,2 km/h (1 Bft)
09.07.2017 03:56 18,3 °C 18,3 °C 71 % 1012,2 hPa 0,0 mm 1,5 km/h (1 Bft) N 5 ° 0 min 0,000 mm 0,0 UV-I 0 W/m² 12,9 °C 18,3 °C 3,2 km/h (1 Bft)
09.07.2017 03:57 18,3 °C 18,3 °C 69 % 1012,2 hPa 0,0 mm 0,0 km/h (0 Bft) N 5 ° 0 min 0,000 mm 0,0 UV-I 0 W/m² 12,5 °C 18,3 °C 0,0 km/h (0 Bft)
09.07.2017 03:58 18,4 °C 18,4 °C 68 % 1012,2 hPa 0,0 mm 0,0 km/h (0 Bft) N 5 ° 0 min 0,000 mm 0,0 UV-I 0 W/m² 12,4 °C 18,4 °C 0,0 km/h (0 Bft)
09.07.2017 03:59 18,4 °C 18,4 °C 68 % 1012,2 hPa 0,0 mm 0,0 km/h (0 Bft) N 5 ° 0 min 0,000 mm 0,0 UV-I 0 W/m² 12,4 °C 18,4 °C 0,0 km/h (0 Bft)
09.07.2017 04:00 18,5 °C 18,5 °C 68 % 1012,2 hPa 0,0 mm 0,0 km/h (0 Bft) N 5 ° 0 min 0,026 mm 0,0 UV-I 0 W/m² 12,5 °C 18,5 °C 0,0 km/h (0 Bft)
09.07.2017 04:02 18,6 °C 18,6 °C 70 % 1012,2 hPa 0,0 mm 0,4 km/h (0 Bft) N 5 ° 0 min 0,000 mm 0,0 UV-I 0 W/m² 13,0 °C 18,6 °C 3,2 km/h (1 Bft)
09.07.2017 04:03 18,5 °C 18,6 °C 70 % 1012,2 hPa 0,0 mm 0,3 km/h (0 Bft) N 5 ° 0 min 0,000 mm 0,0 UV-I 0 W/m² 12,9 °C 18,5 °C 1,6 km/h (1 Bft)
09.07.2017 04:04 18,5 °C 18,5 °C 70 % 1012,1 hPa 0,0 mm 0,0 km/h (0 Bft) N 5 ° 0 min 0,000 mm 0,0 UV-I 0 W/m² 12,9 °C 18,5 °C 0,0 km/h (0 Bft)
09.07.2017 04:05 18,4 °C 18,5 °C 74 % 1012,2 hPa 0,0 mm 1,5 km/h (1 Bft) N 5 ° 0 min 0,000 mm 0,0 UV-I 0 W/m² 13,7 °C 18,4 °C 3,2 km/h (1 Bft)
09.07.2017 04:06 18,2 °C 18,4 °C 71 % 1012,2 hPa 0,0 mm 0,2 km/h (0 Bft) N 5 ° 0 min 0,000 mm 0,0 UV-I 0 W/m² 12,9 °C 18,2 °C 1,6 km/h (1 Bft)
09.07.2017 04:07 18,2 °C 18,2 °C 72 % 1012,1 hPa 0,0 mm 0,1 km/h (0 Bft) N 5 ° 0 min 0,000 mm 0,0 UV-I 0 W/m² 13,1 °C 18,2 °C 1,6 km/h (1 Bft)
09.07.2017 04:08 18,1 °C 18,2 °C 72 % 1012,2 hPa 0,0 mm 0,2 km/h (0 Bft) N 5 ° 0 min 0,000 mm 0,0 UV-I 0 W/m² 13,0 °C 18,1 °C 1,6 km/h (1 Bft)
09.07.2017 04:09 18,1 °C 18,1 °C 71 % 1012,2 hPa 0,0 mm 1,2 km/h (1 Bft) N 5 ° 0 min 0,000 mm 0,0 UV-I 0 W/m² 12,8 °C 18,1 °C 3,2 km/h (1 Bft)
09.07.2017 04:10 18,1 °C 18,1 °C 71 % 1012,2 hPa 0,0 mm 0,0 km/h (0 Bft) N 5 ° 0 min 0,000 mm 0,0 UV-I 0 W/m² 12,8 °C 18,1 °C 0,0 km/h (0 Bft)
09.07.2017 04:11 18,1 °C 18,2 °C 71 % 1012,2 hPa 0,0 mm 1,5 km/h (1 Bft) N-NO 19 ° 0 min 0,000 mm 0,0 UV-I 0 W/m² 12,8 °C 18,1 °C 3,2 km/h (1 Bft)
09.07.2017 04:12 18,1 °C 18,1 °C 70 % 1012,2 hPa 0,0 mm 0,0 km/h (0 Bft) N-NO 19 ° 0 min 0,000 mm 0,0 UV-I 0 W/m² 12,5 °C 18,1 °C 0,0 km/h (0 Bft)
09.07.2017 04:13 18,2 °C 18,2 °C 72 % 1012,2 hPa 0,0 mm 0,0 km/h (0 Bft) N-NO 19 ° 0 min 0,000 mm 0,0 UV-I 0 W/m² 13,1 °C 18,2 °C 0,0 km/h (0 Bft)
09.07.2017 04:14 18,1 °C 18,2 °C 71 % 1012,2 hPa 0,0 mm 0,0 km/h (0 Bft) N-NO 19 ° 0 min 0,000 mm 0,0 UV-I 0 W/m² 12,8 °C 18,1 °C 0,0 km/h (0 Bft)
09.07.2017 04:15 18,1 °C 18,2 °C 72 % 1012,1 hPa 0,0 mm 0,0 km/h (0 Bft) N-NO 19 ° 0 min 0,000 mm 0,0 UV-I 0 W/m² 13,0 °C 18,1 °C 0,0 km/h (0 Bft)
09.07.2017 04:16 18,1 °C 18,1 °C 71 % 1012,1 hPa 0,0 mm 0,0 km/h (0 Bft) N-NO 19 ° 0 min 0,000 mm 0,0 UV-I 0 W/m² 12,8 °C 18,1 °C 0,0 km/h (0 Bft)
09.07.2017 04:17 18,1 °C 18,1 °C 70 % 1012,1 hPa 0,0 mm 0,0 km/h (0 Bft) N-NO 19 ° 0 min 0,000 mm 0,0 UV-I 0 W/m² 12,5 °C 18,1 °C 0,0 km/h (0 Bft)
09.07.2017 04:18 18,1 °C 18,1 °C 70 % 1012,0 hPa 0,0 mm 0,0 km/h (0 Bft) N-NO 19 ° 0 min 0,000 mm 0,0 UV-I 0 W/m² 12,5 °C 18,1 °C 0,0 km/h (0 Bft)
09.07.2017 04:19 18,1 °C 18,2 °C 69 % 1012,0 hPa 0,0 mm 0,0 km/h (0 Bft) N-NO 19 ° 0 min 0,000 mm 0,0 UV-I 0 W/m² 12,3 °C 18,1 °C 0,0 km/h (0 Bft)
09.07.2017 04:20 18,1 °C 18,2 °C 70 % 1012,1 hPa 0,0 mm 0,0 km/h (0 Bft) N-NO 19 ° 0 min 0,000 mm 0,0 UV-I 0 W/m² 12,5 °C 18,1 °C 0,0 km/h (0 Bft)
09.07.2017 04:21 18,2 °C 18,2 °C 69 % 1012,0 hPa 0,0 mm 0,0 km/h (0 Bft) N-NO 19 ° 0 min 0,000 mm 0,0 UV-I 0 W/m² 12,4 °C 18,2 °C 0,0 km/h (0 Bft)
09.07.2017 04:22 18,2 °C 18,2 °C 69 % 1012,0 hPa 0,0 mm 0,0 km/h (0 Bft) N-NO 19 ° 0 min 0,000 mm 0,0 UV-I 0 W/m² 12,4 °C 18,2 °C 0,0 km/h (0 Bft)
09.07.2017 04:23 18,2 °C 18,2 °C 69 % 1012,1 hPa 0,0 mm 0,0 km/h (0 Bft) N-NO 19 ° 0 min 0,000 mm 0,0 UV-I 0 W/m² 12,4 °C 18,2 °C 0,0 km/h (0 Bft)
09.07.2017 04:24 18,3 °C 18,3 °C 69 % 1012,1 hPa 0,0 mm 0,0 km/h (0 Bft) N-NO 19 ° 0 min 0,000 mm 0,0 UV-I 0 W/m² 12,5 °C 18,3 °C 0,0 km/h (0 Bft)
09.07.2017 04:25 18,3 °C 18,3 °C 70 % 1012,1 hPa 0,0 mm 0,3 km/h (0 Bft) N-NO 19 ° 0 min 0,000 mm 0,0 UV-I 0 W/m² 12,7 °C 18,3 °C 1,6 km/h (1 Bft)
09.07.2017 04:26 18,3 °C 18,3 °C 70 % 1012,1 hPa 0,0 mm 0,0 km/h (0 Bft) N-NO 19 ° 0 min 0,000 mm 0,0 UV-I 0 W/m² 12,7 °C 18,3 °C 0,0 km/h (0 Bft)
09.07.2017 04:27 18,3 °C 18,3 °C 70 % 1012,1 hPa 0,0 mm 0,0 km/h (0 Bft) N-NO 19 ° 0 min 0,000 mm 0,0 UV-I 0 W/m² 12,7 °C 18,3 °C 0,0 km/h (0 Bft)
09.07.2017 04:28 18,3 °C 18,3 °C 70 % 1012,1 hPa 0,0 mm 0,0 km/h (0 Bft) N-NO 19 ° 0 min 0,000 mm 0,0 UV-I 0 W/m² 12,7 °C 18,3 °C 0,0 km/h (0 Bft)
09.07.2017 04:29 18,2 °C 18,3 °C 71 % 1012,0 hPa 0,0 mm 0,0 km/h (0 Bft) N-NO 19 ° 0 min 0,000 mm 0,0 UV-I 0 W/m² 12,9 °C 18,2 °C 0,0 km/h (0 Bft)
09.07.2017 04:30 18,1 °C 18,2 °C 72 % 1012,0 hPa 0,0 mm 0,0 km/h (0 Bft) N-NO 19 ° 0 min 0,000 mm 0,0 UV-I 0 W/m² 13,0 °C 18,1 °C 0,0 km/h (0 Bft)
09.07.2017 04:31 18,0 °C 18,1 °C 72 % 1012,0 hPa 0,0 mm 0,0 km/h (0 Bft) N-NO 19 ° 0 min 0,000 mm 0,0 UV-I 0 W/m² 12,9 °C 18,0 °C 0,0 km/h (0 Bft)
09.07.2017 04:32 17,9 °C 18,1 °C 72 % 1012,0 hPa 0,0 mm 0,6 km/h (0 Bft) N-NO 19 ° 0 min 0,000 mm 0,0 UV-I 0 W/m² 12,8 °C 17,9 °C 1,6 km/h (1 Bft)
09.07.2017 04:33 17,9 °C 17,9 °C 72 % 1011,9 hPa 0,0 mm 0,1 km/h (0 Bft) N-NO 19 ° 0 min 0,000 mm 0,0 UV-I 0 W/m² 12,8 °C 17,9 °C 1,6 km/h (1 Bft)
09.07.2017 04:34 17,9 °C 17,9 °C 71 % 1012,0 hPa 0,0 mm 0,0 km/h (0 Bft) N-NO 19 ° 0 min 0,000 mm 0,0 UV-I 0 W/m² 12,6 °C 17,9 °C 0,0 km/h (0 Bft)
09.07.2017 04:35 17,9 °C 17,9 °C 70 % 1012,0 hPa 0,0 mm 1,4 km/h (1 Bft) N 5 ° 0 min 0,000 mm 0,0 UV-I 0 W/m² 12,3 °C 17,9 °C 4,8 km/h (1 Bft)
09.07.2017 04:36 17,9 °C 17,9 °C 71 % 1012,0 hPa 0,0 mm 1,2 km/h (1 Bft) N 5 ° 0 min 0,000 mm 0,0 UV-I 0 W/m² 12,6 °C 17,9 °C 3,2 km/h (1 Bft)
09.07.2017 04:37 17,9 °C 17,9 °C 71 % 1012,0 hPa 0,0 mm 1,9 km/h (1 Bft) N 5 ° 0 min 0,000 mm 0,0 UV-I 0 W/m² 12,6 °C 17,9 °C 3,2 km/h (1 Bft)
09.07.2017 04:38 17,9 °C 17,9 °C 71 % 1012,0 hPa 0,0 mm 1,4 km/h (1 Bft) N 360 ° 0 min 0,000 mm 0,0 UV-I 0 W/m² 12,6 °C 17,9 °C 3,2 km/h (1 Bft)
09.07.2017 04:39 17,9 °C 17,9 °C 71 % 1012,0 hPa 0,0 mm 0,1 km/h (0 Bft) N 360 ° 0 min 0,000 mm 0,0 UV-I 0 W/m² 12,6 °C 17,9 °C 1,6 km/h (1 Bft)
09.07.2017 04:40 17,8 °C 17,9 °C 73 % 1012,0 hPa 0,0 mm 0,0 km/h (0 Bft) N 360 ° 0 min 0,000 mm 0,0 UV-I 0 W/m² 12,9 °C 17,8 °C 0,0 km/h (0 Bft)
09.07.2017 04:41 17,7 °C 17,8 °C 73 % 1012,0 hPa 0,0 mm 0,0 km/h (0 Bft) N 360 ° 0 min 0,000 mm 0,0 UV-I 0 W/m² 12,8 °C 17,7 °C 0,0 km/h (0 Bft)
09.07.2017 04:42 17,7 °C 17,7 °C 73 % 1012,0 hPa 0,0 mm 0,3 km/h (0 Bft) N 360 ° 0 min 0,000 mm 0,0 UV-I 0 W/m² 12,8 °C 17,7 °C 1,6 km/h (1 Bft)
09.07.2017 04:43 17,6 °C 17,7 °C 73 % 1012,0 hPa 0,0 mm 0,0 km/h (0 Bft) N 360 ° 0 min 0,000 mm 0,0 UV-I 0 W/m² 12,7 °C 17,6 °C 0,0 km/h (0 Bft)
09.07.2017 04:44 17,6 °C 17,6 °C 73 % 1012,0 hPa 0,0 mm 0,0 km/h (0 Bft) N 360 ° 0 min 0,000 mm 0,0 UV-I 0 W/m² 12,7 °C 17,6 °C 0,0 km/h (0 Bft)
09.07.2017 04:45 17,6 °C 17,6 °C 72 % 1012,0 hPa 0,0 mm 0,0 km/h (0 Bft) N 360 ° 0 min 0,000 mm 0,0 UV-I 0 W/m² 12,5 °C 17,6 °C 0,0 km/h (0 Bft)
09.07.2017 04:46 17,7 °C 17,7 °C 71 % 1012,0 hPa 0,0 mm 0,0 km/h (0 Bft) N 360 ° 0 min 0,000 mm 0,0 UV-I 0 W/m² 12,4 °C 17,7 °C 0,0 km/h (0 Bft)
09.07.2017 04:47 17,7 °C 17,7 °C 71 % 1012,0 hPa 0,0 mm 0,0 km/h (0 Bft) N 360 ° 0 min 0,000 mm 0,0 UV-I 0 W/m² 12,4 °C 17,7 °C 0,0 km/h (0 Bft)
09.07.2017 04:48 17,8 °C 17,8 °C 71 % 1012,0 hPa 0,0 mm 0,0 km/h (0 Bft) N 360 ° 0 min 0,000 mm 0,0 UV-I 0 W/m² 12,5 °C 17,8 °C 0,0 km/h (0 Bft)
09.07.2017 04:49 17,8 °C 17,8 °C 70 % 1012,0 hPa 0,0 mm 0,7 km/h (0 Bft) N 360 ° 0 min 0,000 mm 0,0 UV-I 0 W/m² 12,3 °C 17,8 °C 3,2 km/h (1 Bft)
09.07.2017 04:50 17,8 °C 17,8 °C 71 % 1012,0 hPa 0,0 mm 0,3 km/h (0 Bft) N 360 ° 0 min 0,000 mm 0,0 UV-I 0 W/m² 12,5 °C 17,8 °C 1,6 km/h (1 Bft)
09.07.2017 04:51 17,8 °C 17,8 °C 70 % 1012,0 hPa 0,0 mm 0,0 km/h (0 Bft) N 360 ° 0 min 0,000 mm 0,0 UV-I 0 W/m² 12,3 °C 17,8 °C 0,0 km/h (0 Bft)
09.07.2017 04:52 17,8 °C 17,8 °C 70 % 1012,0 hPa 0,0 mm 0,0 km/h (0 Bft) N 360 ° 0 min 0,000 mm 0,0 UV-I 0 W/m² 12,3 °C 17,8 °C 0,0 km/h (0 Bft)
09.07.2017 04:53 17,7 °C 17,8 °C 70 % 1012,0 hPa 0,0 mm 0,0 km/h (0 Bft) N 360 ° 0 min 0,000 mm 0,0 UV-I 0 W/m² 12,2 °C 17,7 °C 0,0 km/h (0 Bft)
09.07.2017 04:54 17,7 °C 17,8 °C 71 % 1012,0 hPa 0,0 mm 0,1 km/h (0 Bft) N 360 ° 0 min 0,000 mm 0,0 UV-I 0 W/m² 12,4 °C 17,7 °C 1,6 km/h (1 Bft)
09.07.2017 04:55 17,7 °C 17,7 °C 71 % 1012,0 hPa 0,0 mm 1,0 km/h (0 Bft) N 360 ° 0 min 0,000 mm 0,0 UV-I 0 W/m² 12,4 °C 17,7 °C 3,2 km/h (1 Bft)
09.07.2017 04:56 17,7 °C 17,7 °C 71 % 1012,0 hPa 0,0 mm 0,0 km/h (0 Bft) N 360 ° 0 min 0,000 mm 0,0 UV-I 0 W/m² 12,4 °C 17,7 °C 0,0 km/h (0 Bft)
09.07.2017 04:57 17,6 °C 17,7 °C 71 % 1012,0 hPa 0,0 mm 1,5 km/h (1 Bft) O 88 ° 0 min 0,000 mm 0,0 UV-I 0 W/m² 12,3 °C 17,6 °C 4,8 km/h (1 Bft)
09.07.2017 04:58 17,6 °C 17,7 °C 71 % 1011,9 hPa 0,0 mm 1,1 km/h (1 Bft) O 96 ° 0 min 0,000 mm 0,0 UV-I 0 W/m² 12,3 °C 17,6 °C 3,2 km/h (1 Bft)
09.07.2017 04:59 17,6 °C 17,6 °C 71 % 1011,8 hPa 0,0 mm 0,0 km/h (0 Bft) O 96 ° 0 min 0,000 mm 0,0 UV-I 0 W/m² 12,3 °C 17,6 °C 0,0 km/h (0 Bft)
09.07.2017 05:00 17,6 °C 17,6 °C 74 % 1011,8 hPa 0,0 mm 0,0 km/h (0 Bft) O 96 ° 0 min 0,000 mm 0,0 UV-I 0 W/m² 12,9 °C 17,6 °C 0,0 km/h (0 Bft)
09.07.2017 05:01 17,5 °C 17,6 °C 73 % 1011,8 hPa 0,0 mm 0,5 km/h (0 Bft) O 95 ° 0 min 0,025 mm 0,0 UV-I 0 W/m² 12,6 °C 17,5 °C 3,2 km/h (1 Bft)
09.07.2017 05:02 17,4 °C 17,5 °C 73 % 1011,8 hPa 0,0 mm 0,0 km/h (0 Bft) O 95 ° 0 min 0,000 mm 0,0 UV-I 0 W/m² 12,5 °C 17,4 °C 0,0 km/h (0 Bft)
09.07.2017 05:03 17,4 °C 17,4 °C 73 % 1011,8 hPa 0,0 mm 0,0 km/h (0 Bft) O 95 ° 0 min 0,000 mm 0,0 UV-I 0 W/m² 12,5 °C 17,4 °C 0,0 km/h (0 Bft)
09.07.2017 05:04 17,5 °C 17,5 °C 72 % 1011,8 hPa 0,0 mm 0,3 km/h (0 Bft) NO 44 ° 0 min 0,000 mm 0,0 UV-I 0 W/m² 12,4 °C 17,5 °C 1,6 km/h (1 Bft)
09.07.2017 05:05 17,5 °C 17,5 °C 72 % 1011,8 hPa 0,0 mm 0,1 km/h (0 Bft) NO 46 ° 0 min 0,000 mm 0,0 UV-I 0 W/m² 12,4 °C 17,5 °C 1,6 km/h (1 Bft)
09.07.2017 05:06 17,5 °C 17,5 °C 72 % 1011,8 hPa 0,0 mm 1,9 km/h (1 Bft) S-SO 147 ° 0 min 0,000 mm 0,0 UV-I 0 W/m² 12,4 °C 17,5 °C 6,4 km/h (2 Bft)
09.07.2017 05:07 17,5 °C 17,5 °C 73 % 1011,8 hPa 0,0 mm 0,2 km/h (0 Bft) S-SO 147 ° 0 min 0,000 mm 0,0 UV-I 0 W/m² 12,6 °C 17,5 °C 1,6 km/h (1 Bft)
09.07.2017 05:08 17,5 °C 17,5 °C 72 % 1011,8 hPa 0,0 mm 0,7 km/h (0 Bft) S-SO 151 ° 0 min 0,000 mm 0,0 UV-I 0 W/m² 12,4 °C 17,5 °C 3,2 km/h (1 Bft)
09.07.2017 05:09 17,4 °C 17,5 °C 72 % 1011,8 hPa 0,0 mm 0,1 km/h (0 Bft) S-SO 151 ° 0 min 0,000 mm 0,0 UV-I 0 W/m² 12,3 °C 17,4 °C 1,6 km/h (1 Bft)
09.07.2017 05:10 17,4 °C 17,5 °C 72 % 1011,8 hPa 0,0 mm 0,0 km/h (0 Bft) S-SO 151 ° 0 min 0,000 mm 0,0 UV-I 0 W/m² 12,3 °C 17,4 °C 0,0 km/h (0 Bft)
09.07.2017 05:11 17,4 °C 17,4 °C 72 % 1011,8 hPa 0,0 mm 0,0 km/h (0 Bft) S-SO 151 ° 0 min 0,000 mm 0,0 UV-I 0 W/m² 12,3 °C 17,4 °C 0,0 km/h (0 Bft)
09.07.2017 05:12 17,4 °C 17,4 °C 72 % 1011,8 hPa 0,0 mm 0,4 km/h (0 Bft) S-SO 151 ° 0 min 0,000 mm 0,0 UV-I 0 W/m² 12,3 °C 17,4 °C 1,6 km/h (1 Bft)
09.07.2017 05:13 17,4 °C 17,4 °C 72 % 1011,8 hPa 0,0 mm 0,3 km/h (0 Bft) S-SO 151 ° 0 min 0,000 mm 0,0 UV-I 0 W/m² 12,3 °C 17,4 °C 1,6 km/h (1 Bft)
09.07.2017 05:14 17,4 °C 17,4 °C 72 % 1011,8 hPa 0,0 mm 0,1 km/h (0 Bft) S-SO 151 ° 0 min 0,000 mm 0,0 UV-I 0 W/m² 12,3 °C 17,4 °C 1,6 km/h (1 Bft)
09.07.2017 05:15 17,3 °C 17,4 °C 72 % 1011,8 hPa 0,0 mm 0,7 km/h (0 Bft) N-NO 32 ° 0 min 0,000 mm 0,0 UV-I 0 W/m² 12,2 °C 17,3 °C 3,2 km/h (1 Bft)
09.07.2017 05:16 17,3 °C 17,3 °C 72 % 1011,8 hPa 0,0 mm 1,5 km/h (1 Bft) N-NO 32 ° 0 min 0,000 mm 0,0 UV-I 0 W/m² 12,2 °C 17,3 °C 3,2 km/h (1 Bft)
09.07.2017 05:17 17,3 °C 17,3 °C 72 % 1011,8 hPa 0,0 mm 1,2 km/h (1 Bft) N-NO 31 ° 0 min 0,000 mm 0,0 UV-I 0 W/m² 12,2 °C 17,3 °C 3,2 km/h (1 Bft)
09.07.2017 05:18 17,2 °C 17,3 °C 72 % 1011,8 hPa 0,0 mm 0,4 km/h (0 Bft) N-NO 31 ° 0 min 0,000 mm 0,0 UV-I 0 W/m² 12,1 °C 17,2 °C 3,2 km/h (1 Bft)
09.07.2017 05:19 17,2 °C 17,2 °C 72 % 1011,8 hPa 0,0 mm 2,2 km/h (1 Bft) N 355 ° 0 min 0,000 mm 0,0 UV-I 0 W/m² 12,1 °C 17,2 °C 4,8 km/h (1 Bft)
09.07.2017 05:20 17,2 °C 17,2 °C 72 % 1011,8 hPa 0,0 mm 1,5 km/h (1 Bft) N 355 ° 0 min 0,000 mm 0,0 UV-I 0 W/m² 12,1 °C 17,2 °C 3,2 km/h (1 Bft)
09.07.2017 05:21 17,2 °C 17,2 °C 72 % 1011,8 hPa 0,0 mm 0,8 km/h (0 Bft) N 355 ° 0 min 0,000 mm 0,0 UV-I 0 W/m² 12,1 °C 17,2 °C 1,6 km/h (1 Bft)
09.07.2017 05:22 17,2 °C 17,2 °C 72 % 1011,8 hPa 0,0 mm 0,5 km/h (0 Bft) N 355 ° 0 min 0,000 mm 0,0 UV-I 0 W/m² 12,1 °C 17,2 °C 1,6 km/h (1 Bft)
09.07.2017 05:23 17,1 °C 17,2 °C 72 % 1011,8 hPa 0,0 mm 0,5 km/h (0 Bft) O 91 ° 0 min 0,000 mm 0,0 UV-I 0 W/m² 12,0 °C 17,1 °C 1,6 km/h (1 Bft)
09.07.2017 05:24 17,2 °C 17,2 °C 72 % 1011,7 hPa 0,0 mm 2,9 km/h (1 Bft) O-SO 110 ° 0 min 0,000 mm 0,0 UV-I 0 W/m² 12,1 °C 17,2 °C 4,8 km/h (1 Bft)
09.07.2017 05:25 17,3 °C 17,3 °C 72 % 1011,8 hPa 0,0 mm 1,3 km/h (1 Bft) O-SO 110 ° 0 min 0,000 mm 0,0 UV-I 0 W/m² 12,2 °C 17,3 °C 4,8 km/h (1 Bft)
09.07.2017 05:26 17,3 °C 17,3 °C 73 % 1011,7 hPa 0,0 mm 0,0 km/h (0 Bft) O-SO 110 ° 0 min 0,000 mm 0,0 UV-I 0 W/m² 12,4 °C 17,3 °C 0,0 km/h (0 Bft)
09.07.2017 05:27 17,2 °C 17,3 °C 73 % 1011,7 hPa 0,0 mm 0,7 km/h (0 Bft) O-SO 109 ° 0 min 0,000 mm 0,0 UV-I 0 W/m² 12,3 °C 17,2 °C 3,2 km/h (1 Bft)
09.07.2017 05:28 17,2 °C 17,2 °C 73 % 1011,6 hPa 0,0 mm 1,6 km/h (1 Bft) N 11 ° 0 min 0,000 mm 0,0 UV-I 0 W/m² 12,3 °C 17,2 °C 4,8 km/h (1 Bft)
09.07.2017 05:29 17,1 °C 17,2 °C 74 % 1011,6 hPa 0,0 mm 0,1 km/h (0 Bft) N 11 ° 0 min 0,000 mm 0,0 UV-I 0 W/m² 12,4 °C 17,1 °C 1,6 km/h (1 Bft)
09.07.2017 05:30 17,1 °C 17,1 °C 74 % 1011,6 hPa 0,0 mm 0,6 km/h (0 Bft) N 11 ° 0 min 0,000 mm 0,0 UV-I 0 W/m² 12,4 °C 17,1 °C 3,2 km/h (1 Bft)
09.07.2017 05:31 17,1 °C 17,1 °C 74 % 1011,6 hPa 0,0 mm 0,2 km/h (0 Bft) N 11 ° 0 min 0,000 mm 0,0 UV-I 0 W/m² 12,4 °C 17,1 °C 1,6 km/h (1 Bft)
09.07.2017 05:32 17,1 °C 17,1 °C 74 % 1011,6 hPa 0,0 mm 0,9 km/h (0 Bft) N 11 ° 0 min 0,000 mm 0,0 UV-I 0 W/m² 12,4 °C 17,1 °C 3,2 km/h (1 Bft)
09.07.2017 05:33 17,0 °C 17,1 °C 74 % 1011,6 hPa 0,0 mm 0,9 km/h (0 Bft) N 11 ° 0 min 0,000 mm 0,0 UV-I 0 W/m² 12,3 °C 17,0 °C 1,6 km/h (1 Bft)
09.07.2017 05:34 16,9 °C 17,0 °C 74 % 1011,6 hPa 0,0 mm 0,1 km/h (0 Bft) N 11 ° 0 min 0,000 mm 0,0 UV-I 5 W/m² 12,2 °C 16,9 °C 1,6 km/h (1 Bft)
09.07.2017 05:35 16,9 °C 17,0 °C 74 % 1011,6 hPa 0,0 mm 0,0 km/h (0 Bft) N 11 ° 0 min 0,000 mm 0,0 UV-I 5 W/m² 12,2 °C 16,9 °C 0,0 km/h (0 Bft)
09.07.2017 05:36 16,9 °C 16,9 °C 74 % 1011,6 hPa 0,0 mm 0,5 km/h (0 Bft) N 11 ° 0 min 0,000 mm 0,0 UV-I 5 W/m² 12,2 °C 16,9 °C 1,6 km/h (1 Bft)
09.07.2017 05:37 17,0 °C 17,0 °C 74 % 1011,6 hPa 0,0 mm 0,1 km/h (0 Bft) N 11 ° 0 min 0,000 mm 0,0 UV-I 5 W/m² 12,3 °C 17,0 °C 1,6 km/h (1 Bft)
09.07.2017 05:38 17,0 °C 17,0 °C 73 % 1011,5 hPa 0,0 mm 0,5 km/h (0 Bft) N 11 ° 0 min 0,000 mm 0,0 UV-I 7 W/m² 12,1 °C 17,0 °C 1,6 km/h (1 Bft)
09.07.2017 05:39 17,0 °C 17,0 °C 73 % 1011,5 hPa 0,0 mm 0,0 km/h (0 Bft) N 11 ° 0 min 0,000 mm 0,0 UV-I 7 W/m² 12,1 °C 17,0 °C 0,0 km/h (0 Bft)
09.07.2017 05:40 17,0 °C 17,0 °C 72 % 1011,5 hPa 0,0 mm 0,2 km/h (0 Bft) N 11 ° 0 min 0,000 mm 0,0 UV-I 7 W/m² 11,9 °C 17,0 °C 1,6 km/h (1 Bft)
09.07.2017 05:41 17,1 °C 17,1 °C 72 % 1011,5 hPa 0,0 mm 2,7 km/h (1 Bft) N-NW 346 ° 0 min 0,000 mm 0,0 UV-I 9 W/m² 12,0 °C 17,1 °C 4,8 km/h (1 Bft)
09.07.2017 05:42 17,2 °C 17,2 °C 72 % 1011,6 hPa 0,0 mm 0,4 km/h (0 Bft) N-NW 346 ° 0 min 0,000 mm 0,0 UV-I 9 W/m² 12,1 °C 17,2 °C 1,6 km/h (1 Bft)
09.07.2017 05:43 17,3 °C 17,3 °C 71 % 1011,6 hPa 0,0 mm 0,0 km/h (0 Bft) N-NW 346 ° 0 min 0,000 mm 0,0 UV-I 11 W/m² 12,0 °C 17,3 °C 0,0 km/h (0 Bft)
09.07.2017 05:44 17,4 °C 17,4 °C 71 % 1011,6 hPa 0,0 mm 0,0 km/h (0 Bft) N-NW 346 ° 0 min 0,000 mm 0,0 UV-I 11 W/m² 12,1 °C 17,4 °C 0,0 km/h (0 Bft)
09.07.2017 05:45 17,5 °C 17,5 °C 71 % 1011,7 hPa 0,0 mm 0,1 km/h (0 Bft) N-NW 346 ° 0 min 0,000 mm 0,0 UV-I 12 W/m² 12,2 °C 17,5 °C 1,6 km/h (1 Bft)
09.07.2017 05:46 17,4 °C 17,5 °C 71 % 1011,8 hPa 0,0 mm 0,0 km/h (0 Bft) N-NW 346 ° 0 min 0,000 mm 0,0 UV-I 14 W/m² 12,1 °C 17,4 °C 0,0 km/h (0 Bft)
09.07.2017 05:47 17,4 °C 17,5 °C 71 % 1011,7 hPa 0,0 mm 0,3 km/h (0 Bft) N-NW 346 ° 0 min 0,000 mm 0,0 UV-I 18 W/m² 12,1 °C 17,4 °C 3,2 km/h (1 Bft)
09.07.2017 05:48 17,5 °C 17,5 °C 71 % 1011,8 hPa 0,0 mm 0,3 km/h (0 Bft) N-NW 346 ° 0 min 0,000 mm 0,0 UV-I 19 W/m² 12,2 °C 17,5 °C 1,6 km/h (1 Bft)
09.07.2017 05:49 17,5 °C 17,5 °C 71 % 1011,8 hPa 0,0 mm 0,0 km/h (0 Bft) N-NW 346 ° 0 min 0,000 mm 0,0 UV-I 21 W/m² 12,2 °C 17,5 °C 0,0 km/h (0 Bft)
09.07.2017 05:50 17,5 °C 17,5 °C 72 % 1011,8 hPa 0,0 mm 0,0 km/h (0 Bft) N-NW 346 ° 0 min 0,000 mm 0,0 UV-I 23 W/m² 12,4 °C 17,5 °C 0,0 km/h (0 Bft)
09.07.2017 05:51 17,4 °C 17,5 °C 74 % 1011,8 hPa 0,0 mm 0,2 km/h (0 Bft) N-NW 346 ° 0 min 0,000 mm 0,0 UV-I 23 W/m² 12,7 °C 17,4 °C 1,6 km/h (1 Bft)
09.07.2017 05:52 17,3 °C 17,4 °C 73 % 1011,8 hPa 0,0 mm 0,0 km/h (0 Bft) N-NW 346 ° 0 min 0,000 mm 0,0 UV-I 23 W/m² 12,4 °C 17,3 °C 0,0 km/h (0 Bft)
09.07.2017 05:53 17,4 °C 17,4 °C 72 % 1011,8 hPa 0,0 mm 0,0 km/h (0 Bft) N-NW 346 ° 0 min 0,000 mm 0,0 UV-I 21 W/m² 12,3 °C 17,4 °C 0,0 km/h (0 Bft)
09.07.2017 05:54 17,3 °C 17,4 °C 72 % 1011,8 hPa 0,0 mm 0,0 km/h (0 Bft) N-NW 346 ° 0 min 0,000 mm 0,0 UV-I 21 W/m² 12,2 °C 17,3 °C 0,0 km/h (0 Bft)
09.07.2017 05:55 17,4 °C 17,4 °C 72 % 1011,9 hPa 0,0 mm 0,0 km/h (0 Bft) N-NW 346 ° 0 min 0,000 mm 0,0 UV-I 21 W/m² 12,3 °C 17,4 °C 0,0 km/h (0 Bft)
09.07.2017 05:56 17,4 °C 17,4 °C 72 % 1011,9 hPa 0,0 mm 0,0 km/h (0 Bft) N-NW 346 ° 0 min 0,000 mm 0,0 UV-I 21 W/m² 12,3 °C 17,4 °C 0,0 km/h (0 Bft)
09.07.2017 05:57 17,4 °C 17,4 °C 72 % 1012,1 hPa 0,0 mm 1,2 km/h (1 Bft) N-NW 346 ° 0 min 0,000 mm 0,0 UV-I 23 W/m² 12,3 °C 17,4 °C 3,2 km/h (1 Bft)
09.07.2017 05:58 17,4 °C 17,4 °C 72 % 1012,1 hPa 0,0 mm 0,3 km/h (0 Bft) N-NW 346 ° 0 min 0,000 mm 0,0 UV-I 23 W/m² 12,3 °C 17,4 °C 1,6 km/h (1 Bft)
09.07.2017 05:59 17,5 °C 17,5 °C 72 % 1012,1 hPa 0,0 mm 0,0 km/h (0 Bft) N-NW 346 ° 0 min 0,000 mm 0,0 UV-I 23 W/m² 12,4 °C 17,5 °C 0,0 km/h (0 Bft)
09.07.2017 06:00 17,5 °C 17,5 °C 73 % 1012,2 hPa 0,0 mm 0,0 km/h (0 Bft) N-NW 346 ° 0 min 0,000 mm 0,0 UV-I 23 W/m² 12,6 °C 17,5 °C 0,0 km/h (0 Bft)
09.07.2017 06:01 17,5 °C 17,5 °C 73 % 1012,2 hPa 0,0 mm 0,2 km/h (0 Bft) N-NW 346 ° 0 min 0,000 mm 0,0 UV-I 25 W/m² 12,6 °C 17,5 °C 1,6 km/h (1 Bft)
09.07.2017 06:02 17,5 °C 17,5 °C 72 % 1012,2 hPa 0,0 mm 0,0 km/h (0 Bft) N-NW 346 ° 0 min 0,000 mm 0,0 UV-I 25 W/m² 12,4 °C 17,5 °C 0,0 km/h (0 Bft)
09.07.2017 06:03 17,5 °C 17,5 °C 72 % 1012,2 hPa 0,0 mm 0,0 km/h (0 Bft) N-NW 346 ° 0 min 0,000 mm 0,0 UV-I 26 W/m² 12,4 °C 17,5 °C 0,0 km/h (0 Bft)
09.07.2017 06:04 17,6 °C 17,6 °C 72 % 1012,2 hPa 0,0 mm 0,0 km/h (0 Bft) N-NW 346 ° 0 min 0,000 mm 0,0 UV-I 26 W/m² 12,5 °C 17,6 °C 0,0 km/h (0 Bft)
09.07.2017 06:05 17,6 °C 17,6 °C 73 % 1012,2 hPa 0,0 mm 0,0 km/h (0 Bft) N-NW 346 ° 0 min 0,000 mm 0,0 UV-I 28 W/m² 12,7 °C 17,6 °C 0,0 km/h (0 Bft)
09.07.2017 06:06 17,6 °C 17,6 °C 73 % 1012,1 hPa 0,0 mm 0,0 km/h (0 Bft) N-NW 346 ° 0 min 0,000 mm 0,0 UV-I 28 W/m² 12,7 °C 17,6 °C 0,0 km/h (0 Bft)
09.07.2017 06:07 17,6 °C 17,7 °C 72 % 1012,1 hPa 0,0 mm 0,0 km/h (0 Bft) N-NW 346 ° 0 min 0,000 mm 0,0 UV-I 30 W/m² 12,5 °C 17,6 °C 0,0 km/h (0 Bft)
09.07.2017 06:08 17,6 °C 17,6 °C 74 % 1012,1 hPa 0,0 mm 0,0 km/h (0 Bft) N-NW 346 ° 0 min 0,000 mm 0,0 UV-I 30 W/m² 12,9 °C 17,6 °C 0,0 km/h (0 Bft)
09.07.2017 06:09 17,6 °C 17,6 °C 73 % 1012,1 hPa 0,0 mm 0,0 km/h (0 Bft) N-NW 346 ° 0 min 0,000 mm 0,0 UV-I 30 W/m² 12,7 °C 17,6 °C 0,0 km/h (0 Bft)
09.07.2017 06:10 17,6 °C 17,6 °C 72 % 1012,1 hPa 0,0 mm 0,0 km/h (0 Bft) N-NW 346 ° 0 min 0,000 mm 0,0 UV-I 37 W/m² 12,5 °C 17,6 °C 0,0 km/h (0 Bft)
09.07.2017 06:11 17,6 °C 17,6 °C 73 % 1012,1 hPa 0,0 mm 0,0 km/h (0 Bft) N-NW 346 ° 0 min 0,000 mm 0,0 UV-I 37 W/m² 12,7 °C 17,6 °C 0,0 km/h (0 Bft)
09.07.2017 06:12 17,6 °C 17,6 °C 72 % 1012,2 hPa 0,0 mm 0,0 km/h (0 Bft) N-NW 346 ° 0 min 0,000 mm 0,0 UV-I 33 W/m² 12,5 °C 17,6 °C 0,0 km/h (0 Bft)
09.07.2017 06:13 17,6 °C 17,6 °C 72 % 1012,2 hPa 0,0 mm 2,5 km/h (1 Bft) N-NW 346 ° 0 min 0,000 mm 0,0 UV-I 30 W/m² 12,5 °C 17,6 °C 3,2 km/h (1 Bft)
09.07.2017 06:14 17,6 °C 17,6 °C 72 % 1012,3 hPa 0,0 mm 1,9 km/h (1 Bft) N-NW 346 ° 0 min 0,000 mm 0,0 UV-I 30 W/m² 12,5 °C 17,6 °C 3,2 km/h (1 Bft)
09.07.2017 06:15 17,6 °C 17,6 °C 75 % 1012,3 hPa 0,0 mm 3,2 km/h (1 Bft) NW 321 ° 0 min 0,000 mm 0,0 UV-I 30 W/m² 13,1 °C 17,6 °C 3,2 km/h (1 Bft)
09.07.2017 06:16 17,6 °C 17,6 °C 75 % 1012,4 hPa 0,0 mm 4,3 km/h (1 Bft) W 278 ° 0 min 0,000 mm 0,0 UV-I 28 W/m² 13,1 °C 17,6 °C 9,7 km/h (2 Bft)
09.07.2017 06:17 17,6 °C 17,6 °C 76 % 1012,5 hPa 0,0 mm 4,6 km/h (1 Bft) W 275 ° 0 min 0,000 mm 0,0 UV-I 28 W/m² 13,3 °C 17,6 °C 6,4 km/h (2 Bft)
09.07.2017 06:18 17,5 °C 17,6 °C 74 % 1012,4 hPa 0,0 mm 3,6 km/h (1 Bft) W-NW 298 ° 0 min 0,000 mm 0,0 UV-I 30 W/m² 12,8 °C 17,5 °C 4,8 km/h (1 Bft)
09.07.2017 06:19 17,5 °C 17,5 °C 74 % 1012,4 hPa 0,0 mm 3,0 km/h (1 Bft) W-NW 298 ° 0 min 0,000 mm 0,0 UV-I 30 W/m² 12,8 °C 17,5 °C 4,8 km/h (1 Bft)
09.07.2017 06:20 17,5 °C 17,5 °C 74 % 1012,5 hPa 0,0 mm 2,8 km/h (1 Bft) W-NW 298 ° 0 min 0,000 mm 0,0 UV-I 30 W/m² 12,8 °C 17,5 °C 3,2 km/h (1 Bft)
09.07.2017 06:21 17,5 °C 17,5 °C 74 % 1012,5 hPa 0,0 mm 1,6 km/h (1 Bft) W-NW 298 ° 0 min 0,000 mm 0,0 UV-I 32 W/m² 12,8 °C 17,5 °C 3,2 km/h (1 Bft)
09.07.2017 06:22 17,5 °C 17,5 °C 74 % 1012,5 hPa 0,0 mm 0,1 km/h (0 Bft) W-NW 298 ° 0 min 0,000 mm 0,0 UV-I 32 W/m² 12,8 °C 17,5 °C 1,6 km/h (1 Bft)
09.07.2017 06:23 17,4 °C 17,5 °C 74 % 1012,5 hPa 0,0 mm 1,6 km/h (1 Bft) W-NW 298 ° 0 min 0,000 mm 0,0 UV-I 30 W/m² 12,7 °C 17,4 °C 3,2 km/h (1 Bft)
09.07.2017 06:24 17,3 °C 17,4 °C 74 % 1012,5 hPa 0,0 mm 3,2 km/h (1 Bft) W 281 ° 0 min 0,000 mm 0,0 UV-I 30 W/m² 12,6 °C 17,3 °C 4,8 km/h (1 Bft)
09.07.2017 06:25 17,3 °C 17,3 °C 74 % 1012,5 hPa 0,0 mm 2,2 km/h (1 Bft) W 275 ° 0 min 0,000 mm 0,0 UV-I 30 W/m² 12,6 °C 17,3 °C 4,8 km/h (1 Bft)
09.07.2017 06:26 17,3 °C 17,3 °C 74 % 1012,6 hPa 0,0 mm 2,6 km/h (1 Bft) W 275 ° 0 min 0,000 mm 0,0 UV-I 30 W/m² 12,6 °C 17,3 °C 4,8 km/h (1 Bft)
09.07.2017 06:27 17,3 °C 17,3 °C 74 % 1012,6 hPa 0,0 mm 2,3 km/h (1 Bft) W 275 ° 0 min 0,000 mm 0,0 UV-I 32 W/m² 12,6 °C 17,3 °C 3,2 km/h (1 Bft)
09.07.2017 06:28 17,3 °C 17,3 °C 72 % 1012,6 hPa 0,0 mm 1,5 km/h (1 Bft) SW 235 ° 0 min 0,000 mm 0,0 UV-I 32 W/m² 12,2 °C 17,3 °C 3,2 km/h (1 Bft)
09.07.2017 06:29 17,4 °C 17,4 °C 72 % 1012,6 hPa 0,0 mm 6,0 km/h (2 Bft) S 182 ° 0 min 0,000 mm 0,0 UV-I 33 W/m² 12,3 °C 17,4 °C 9,7 km/h (2 Bft)
09.07.2017 06:30 17,6 °C 17,6 °C 71 % 1012,7 hPa 0,0 mm 3,5 km/h (1 Bft) S 182 ° 0 min 0,000 mm 0,0 UV-I 33 W/m² 12,3 °C 17,6 °C 6,4 km/h (2 Bft)
09.07.2017 06:31 17,7 °C 17,7 °C 71 % 1012,7 hPa 0,0 mm 2,4 km/h (1 Bft) S 189 ° 0 min 0,000 mm 0,0 UV-I 35 W/m² 12,4 °C 17,7 °C 4,8 km/h (1 Bft)
09.07.2017 06:32 17,7 °C 17,7 °C 70 % 1012,7 hPa 0,0 mm 0,0 km/h (0 Bft) S 189 ° 0 min 0,000 mm 0,0 UV-I 40 W/m² 12,2 °C 17,7 °C 0,0 km/h (0 Bft)
09.07.2017 06:33 17,8 °C 17,8 °C 71 % 1012,8 hPa 0,0 mm 2,6 km/h (1 Bft) S-SW 201 ° 0 min 0,000 mm 0,0 UV-I 70 W/m² 12,5 °C 17,8 °C 4,8 km/h (1 Bft)
09.07.2017 06:34 17,8 °C 17,8 °C 70 % 1012,8 hPa 0,0 mm 1,8 km/h (1 Bft) S-SW 201 ° 0 min 0,000 mm 0,0 UV-I 76 W/m² 12,3 °C 17,8 °C 4,8 km/h (1 Bft)
09.07.2017 06:35 17,9 °C 17,9 °C 71 % 1012,9 hPa 0,0 mm 2,7 km/h (1 Bft) W-SW 256 ° 0 min 0,000 mm 0,0 UV-I 79 W/m² 12,6 °C 17,9 °C 4,8 km/h (1 Bft)
09.07.2017 06:36 17,8 °C 17,9 °C 73 % 1013,0 hPa 0,0 mm 4,0 km/h (1 Bft) W-SW 251 ° 0 min 0,000 mm 0,0 UV-I 84 W/m² 12,9 °C 17,8 °C 6,4 km/h (2 Bft)
09.07.2017 06:37 17,9 °C 17,9 °C 72 % 1013,1 hPa 0,0 mm 3,4 km/h (1 Bft) W-SW 239 ° 0 min 0,000 mm 0,0 UV-I 88 W/m² 12,8 °C 17,9 °C 4,8 km/h (1 Bft)
09.07.2017 06:38 17,9 °C 18,0 °C 72 % 1013,1 hPa 0,0 mm 5,4 km/h (1 Bft) W 259 ° 0 min 0,000 mm 0,0 UV-I 90 W/m² 12,8 °C 17,9 °C 11,3 km/h (2 Bft)
09.07.2017 06:39 18,1 °C 18,1 °C 71 % 1013,1 hPa 0,0 mm 4,2 km/h (1 Bft) W-NW 287 ° 0 min 0,000 mm 0,0 UV-I 93 W/m² 12,8 °C 18,1 °C 8,0 km/h (2 Bft)
09.07.2017 06:40 18,2 °C 18,2 °C 72 % 1013,1 hPa 0,0 mm 0,5 km/h (0 Bft) SW 218 ° 0 min 0,000 mm 0,0 UV-I 95 W/m² 13,1 °C 18,2 °C 3,2 km/h (1 Bft)
09.07.2017 06:41 18,3 °C 18,3 °C 71 % 1013,2 hPa 0,0 mm 7,9 km/h (2 Bft) W-NW 296 ° 0 min 0,000 mm 0,0 UV-I 90 W/m² 12,9 °C 18,3 °C 11,3 km/h (2 Bft)
09.07.2017 06:42 18,4 °C 18,4 °C 71 % 1013,2 hPa 0,0 mm 5,8 km/h (2 Bft) SW 227 ° 0 min 0,000 mm 0,0 UV-I 86 W/m² 13,0 °C 18,4 °C 11,3 km/h (2 Bft)
09.07.2017 06:43 18,5 °C 18,5 °C 71 % 1013,2 hPa 0,0 mm 4,0 km/h (1 Bft) W 273 ° 0 min 0,000 mm 0,0 UV-I 56 W/m² 13,1 °C 18,5 °C 9,7 km/h (2 Bft)
09.07.2017 06:44 18,6 °C 18,6 °C 71 % 1013,2 hPa 0,0 mm 8,2 km/h (2 Bft) W-SW 256 ° 0 min 0,000 mm 0,0 UV-I 58 W/m² 13,2 °C 18,6 °C 16,1 km/h (3 Bft)
09.07.2017 06:45 18,6 °C 18,6 °C 71 % 1013,2 hPa 0,0 mm 9,7 km/h (2 Bft) W-NW 283 ° 0 min 0,000 mm 0,0 UV-I 60 W/m² 13,2 °C 18,6 °C 16,1 km/h (3 Bft)
09.07.2017 06:46 18,6 °C 18,6 °C 71 % 1013,2 hPa 0,0 mm 14,1 km/h (3 Bft) W-NW 296 ° 0 min 0,000 mm 0,0 UV-I 90 W/m² 13,2 °C 18,6 °C 19,3 km/h (3 Bft)
09.07.2017 06:47 18,6 °C 18,6 °C 71 % 1013,2 hPa 0,0 mm 12,1 km/h (2 Bft) W 265 ° 0 min 0,000 mm 0,0 UV-I 91 W/m² 13,2 °C 18,6 °C 19,3 km/h (3 Bft)
09.07.2017 06:48 18,5 °C 18,6 °C 71 % 1013,2 hPa 0,0 mm 13,7 km/h (3 Bft) W-SW 252 ° 0 min 0,000 mm 0,0 UV-I 90 W/m² 13,1 °C 18,5 °C 20,9 km/h (4 Bft)
09.07.2017 06:49 18,5 °C 18,5 °C 72 % 1013,1 hPa 0,0 mm 17,3 km/h (3 Bft) NW 316 ° 0 min 0,000 mm 0,5 UV-I 98 W/m² 13,4 °C 18,5 °C 24,1 km/h (4 Bft)
09.07.2017 06:50 18,5 °C 18,6 °C 71 % 1013,1 hPa 0,0 mm 19,1 km/h (3 Bft) W 277 ° 0 min 0,000 mm 0,5 UV-I 83 W/m² 13,1 °C 18,5 °C 30,6 km/h (5 Bft)
09.07.2017 06:51 18,6 °C 18,6 °C 71 % 1013,2 hPa 0,0 mm 15,5 km/h (3 Bft) W-NW 292 ° 0 min 0,000 mm 0,5 UV-I 62 W/m² 13,2 °C 18,6 °C 20,9 km/h (4 Bft)
09.07.2017 06:52 18,6 °C 18,6 °C 72 % 1013,1 hPa 0,0 mm 16,6 km/h (3 Bft) W-SW 250 ° 0 min 0,000 mm 0,5 UV-I 60 W/m² 13,4 °C 18,6 °C 20,9 km/h (4 Bft)
09.07.2017 06:53 18,5 °C 18,6 °C 72 % 1013,3 hPa 0,0 mm 13,3 km/h (3 Bft) W-NW 301 ° 0 min 0,000 mm 0,5 UV-I 62 W/m² 13,4 °C 18,5 °C 27,4 km/h (4 Bft)
09.07.2017 06:54 18,4 °C 18,5 °C 73 % 1013,2 hPa 0,0 mm 11,1 km/h (2 Bft) W 273 ° 0 min 0,000 mm 0,5 UV-I 63 W/m² 13,5 °C 18,4 °C 17,7 km/h (3 Bft)
09.07.2017 06:55 18,4 °C 18,4 °C 73 % 1013,3 hPa 0,0 mm 15,1 km/h (3 Bft) W-NW 282 ° 0 min 0,000 mm 0,5 UV-I 72 W/m² 13,5 °C 18,4 °C 20,9 km/h (4 Bft)
09.07.2017 06:56 18,4 °C 18,4 °C 73 % 1013,3 hPa 0,0 mm 15,3 km/h (3 Bft) W 264 ° 0 min 0,000 mm 0,5 UV-I 67 W/m² 13,5 °C 18,4 °C 22,5 km/h (4 Bft)
09.07.2017 06:57 18,3 °C 18,4 °C 74 % 1013,3 hPa 0,0 mm 16,9 km/h (3 Bft) W 267 ° 0 min 0,000 mm 0,5 UV-I 67 W/m² 13,6 °C 18,3 °C 25,7 km/h (4 Bft)
09.07.2017 06:58 18,3 °C 18,4 °C 73 % 1013,3 hPa 0,0 mm 15,1 km/h (3 Bft) W 269 ° 0 min 0,000 mm 0,6 UV-I 69 W/m² 13,4 °C 18,3 °C 22,5 km/h (4 Bft)
09.07.2017 06:59 18,3 °C 18,3 °C 74 % 1013,3 hPa 0,0 mm 14,3 km/h (3 Bft) W 276 ° 0 min 0,000 mm 0,6 UV-I 69 W/m² 13,6 °C 18,3 °C 20,9 km/h (4 Bft)
09.07.2017 07:00 18,3 °C 18,3 °C 74 % 1013,4 hPa 0,0 mm 8,6 km/h (2 Bft) W 267 ° 0 min 0,000 mm 0,6 UV-I 72 W/m² 13,6 °C 18,3 °C 16,1 km/h (3 Bft)
09.07.2017 07:01 18,3 °C 18,3 °C 74 % 1013,3 hPa 0,0 mm 8,9 km/h (2 Bft) W 262 ° 0 min 0,051 mm 0,6 UV-I 72 W/m² 13,6 °C 18,3 °C 12,9 km/h (3 Bft)
09.07.2017 07:02 18,3 °C 18,3 °C 74 % 1013,4 hPa 0,0 mm 10,8 km/h (2 Bft) W 268 ° 0 min 0,000 mm 0,6 UV-I 69 W/m² 13,6 °C 18,3 °C 20,9 km/h (4 Bft)
09.07.2017 07:03 18,3 °C 18,3 °C 74 % 1013,4 hPa 0,0 mm 14,0 km/h (3 Bft) W 275 ° 0 min 0,000 mm 0,6 UV-I 69 W/m² 13,6 °C 18,3 °C 27,4 km/h (4 Bft)
09.07.2017 07:04 18,3 °C 18,3 °C 74 % 1013,4 hPa 0,0 mm 16,5 km/h (3 Bft) W 266 ° 0 min 0,000 mm 0,6 UV-I 70 W/m² 13,6 °C 18,3 °C 24,1 km/h (4 Bft)
09.07.2017 07:05 18,3 °C 18,3 °C 74 % 1013,4 hPa 0,0 mm 10,2 km/h (2 Bft) W 274 ° 0 min 0,000 mm 0,6 UV-I 70 W/m² 13,6 °C 18,3 °C 16,1 km/h (3 Bft)
09.07.2017 07:06 18,3 °C 18,3 °C 75 % 1013,4 hPa 0,0 mm 11,7 km/h (2 Bft) W 263 ° 0 min 0,000 mm 0,6 UV-I 72 W/m² 13,8 °C 18,3 °C 19,3 km/h (3 Bft)
09.07.2017 07:07 18,3 °C 18,3 °C 75 % 1013,4 hPa 0,0 mm 13,0 km/h (3 Bft) S-SW 206 ° 0 min 0,000 mm 0,6 UV-I 72 W/m² 13,8 °C 18,3 °C 17,7 km/h (3 Bft)
09.07.2017 07:08 18,3 °C 18,3 °C 74 % 1013,4 hPa 0,0 mm 5,3 km/h (1 Bft) W-SW 249 ° 0 min 0,000 mm 0,6 UV-I 77 W/m² 13,6 °C 18,3 °C 11,3 km/h (2 Bft)
09.07.2017 07:09 18,4 °C 18,4 °C 75 % 1013,5 hPa 0,0 mm 10,7 km/h (2 Bft) SW 229 ° 0 min 0,000 mm 0,7 UV-I 118 W/m² 13,9 °C 18,4 °C 16,1 km/h (3 Bft)
09.07.2017 07:10 18,4 °C 18,4 °C 75 % 1013,4 hPa 0,0 mm 6,2 km/h (2 Bft) W-SW 257 ° 0 min 0,000 mm 0,7 UV-I 116 W/m² 13,9 °C 18,4 °C 11,3 km/h (2 Bft)
09.07.2017 07:11 18,4 °C 18,4 °C 75 % 1013,5 hPa 0,0 mm 9,2 km/h (2 Bft) W 267 ° 0 min 0,000 mm 0,7 UV-I 141 W/m² 13,9 °C 18,4 °C 16,1 km/h (3 Bft)
09.07.2017 07:12 18,6 °C 18,6 °C 75 % 1013,4 hPa 0,0 mm 10,6 km/h (2 Bft) W-NW 284 ° 0 min 0,000 mm 0,7 UV-I 148 W/m² 14,1 °C 18,6 °C 14,5 km/h (3 Bft)
09.07.2017 07:13 18,6 °C 18,7 °C 74 % 1013,5 hPa 0,0 mm 5,4 km/h (1 Bft) S-SW 211 ° 0 min 0,000 mm 0,7 UV-I 148 W/m² 13,9 °C 18,6 °C 11,3 km/h (2 Bft)
09.07.2017 07:14 18,8 °C 18,8 °C 74 % 1013,5 hPa 0,0 mm 7,8 km/h (2 Bft) W 260 ° 0 min 0,000 mm 0,7 UV-I 153 W/m² 14,1 °C 18,8 °C 14,5 km/h (3 Bft)
09.07.2017 07:15 18,9 °C 18,9 °C 76 % 1013,5 hPa 0,0 mm 7,0 km/h (2 Bft) W-NW 285 ° 0 min 0,000 mm 0,7 UV-I 172 W/m² 14,6 °C 18,9 °C 11,3 km/h (2 Bft)
09.07.2017 07:16 19,0 °C 19,0 °C 75 % 1013,4 hPa 0,0 mm 9,3 km/h (2 Bft) W-SW 238 ° 0 min 0,000 mm 0,7 UV-I 174 W/m² 14,5 °C 19,0 °C 14,5 km/h (3 Bft)
09.07.2017 07:17 19,1 °C 19,1 °C 74 % 1013,5 hPa 0,0 mm 11,1 km/h (2 Bft) S-SW 209 ° 0 min 0,000 mm 0,8 UV-I 171 W/m² 14,4 °C 19,1 °C 19,3 km/h (3 Bft)
09.07.2017 07:18 19,2 °C 19,2 °C 75 % 1013,5 hPa 0,0 mm 12,5 km/h (3 Bft) W-SW 257 ° 0 min 0,000 mm 0,7 UV-I 153 W/m² 14,7 °C 19,2 °C 17,7 km/h (3 Bft)
09.07.2017 07:19 19,3 °C 19,3 °C 74 % 1013,5 hPa 0,0 mm 10,4 km/h (2 Bft) W-SW 257 ° 0 min 0,000 mm 0,7 UV-I 132 W/m² 14,5 °C 19,3 °C 17,7 km/h (3 Bft)
09.07.2017 07:20 19,3 °C 19,3 °C 73 % 1013,4 hPa 0,0 mm 8,4 km/h (2 Bft) W 266 ° 0 min 0,000 mm 0,7 UV-I 134 W/m² 14,3 °C 19,3 °C 14,5 km/h (3 Bft)
09.07.2017 07:21 19,3 °C 19,3 °C 73 % 1013,5 hPa 0,0 mm 7,6 km/h (2 Bft) W-SW 252 ° 0 min 0,000 mm 0,7 UV-I 167 W/m² 14,3 °C 19,3 °C 12,9 km/h (3 Bft)
09.07.2017 07:22 19,3 °C 19,3 °C 74 % 1013,5 hPa 0,0 mm 7,2 km/h (2 Bft) W-SW 242 ° 0 min 0,000 mm 0,7 UV-I 135 W/m² 14,5 °C 19,3 °C 11,3 km/h (2 Bft)
09.07.2017 07:23 19,4 °C 19,4 °C 74 % 1013,5 hPa 0,0 mm 7,0 km/h (2 Bft) W-SW 243 ° 0 min 0,000 mm 0,7 UV-I 146 W/m² 14,6 °C 19,4 °C 12,9 km/h (3 Bft)
09.07.2017 07:24 19,4 °C 19,4 °C 73 % 1013,5 hPa 0,0 mm 10,4 km/h (2 Bft) W 267 ° 0 min 0,000 mm 0,7 UV-I 146 W/m² 14,4 °C 19,4 °C 14,5 km/h (3 Bft)
09.07.2017 07:25 19,5 °C 19,5 °C 73 % 1013,5 hPa 0,0 mm 10,3 km/h (2 Bft) W-SW 251 ° 0 min 0,000 mm 0,7 UV-I 149 W/m² 14,5 °C 19,5 °C 22,5 km/h (4 Bft)
09.07.2017 07:26 19,5 °C 19,5 °C 73 % 1013,6 hPa 0,0 mm 8,8 km/h (2 Bft) W 267 ° 0 min 0,000 mm 0,7 UV-I 139 W/m² 14,5 °C 19,5 °C 14,5 km/h (3 Bft)
09.07.2017 07:27 19,5 °C 19,6 °C 74 % 1013,5 hPa 0,0 mm 8,6 km/h (2 Bft) W-SW 257 ° 0 min 0,000 mm 0,6 UV-I 114 W/m² 14,7 °C 19,5 °C 14,5 km/h (3 Bft)
09.07.2017 07:28 19,6 °C 19,6 °C 73 % 1013,5 hPa 0,0 mm 9,3 km/h (2 Bft) W-SW 243 ° 0 min 0,000 mm 0,6 UV-I 109 W/m² 14,6 °C 19,6 °C 12,9 km/h (3 Bft)
09.07.2017 07:29 19,6 °C 19,6 °C 72 % 1013,5 hPa 0,0 mm 11,3 km/h (2 Bft) S-SW 209 ° 0 min 0,000 mm 0,6 UV-I 105 W/m² 14,4 °C 19,6 °C 19,3 km/h (3 Bft)
09.07.2017 07:30 19,6 °C 19,6 °C 73 % 1013,5 hPa 0,0 mm 9,9 km/h (2 Bft) W 273 ° 0 min 0,000 mm 0,7 UV-I 125 W/m² 14,6 °C 19,6 °C 19,3 km/h (3 Bft)
09.07.2017 07:31 19,6 °C 19,6 °C 72 % 1013,6 hPa 0,0 mm 10,7 km/h (2 Bft) W 269 ° 0 min 0,000 mm 0,7 UV-I 192 W/m² 14,4 °C 19,6 °C 20,9 km/h (4 Bft)
09.07.2017 07:32 19,6 °C 19,6 °C 73 % 1013,5 hPa 0,0 mm 8,5 km/h (2 Bft) W 281 ° 0 min 0,000 mm 0,6 UV-I 91 W/m² 14,6 °C 19,6 °C 14,5 km/h (3 Bft)
09.07.2017 07:33 19,7 °C 19,7 °C 72 % 1013,5 hPa 0,0 mm 9,5 km/h (2 Bft) W 265 ° 0 min 0,000 mm 0,5 UV-I 86 W/m² 14,5 °C 19,7 °C 17,7 km/h (3 Bft)
09.07.2017 07:34 19,7 °C 19,7 °C 73 % 1013,5 hPa 0,0 mm 8,7 km/h (2 Bft) W-SW 257 ° 0 min 0,000 mm 0,5 UV-I 86 W/m² 14,7 °C 19,7 °C 17,7 km/h (3 Bft)
09.07.2017 07:35 19,7 °C 19,7 °C 71 % 1013,5 hPa 0,0 mm 8,9 km/h (2 Bft) W-SW 257 ° 0 min 0,000 mm 0,5 UV-I 86 W/m² 14,3 °C 19,7 °C 12,9 km/h (3 Bft)
09.07.2017 07:36 19,7 °C 19,7 °C 71 % 1013,5 hPa 0,0 mm 13,8 km/h (3 Bft) SW 219 ° 0 min 0,000 mm 0,5 UV-I 86 W/m² 14,3 °C 19,7 °C 20,9 km/h (4 Bft)
09.07.2017 07:37 19,7 °C 19,7 °C 72 % 1013,5 hPa 0,0 mm 9,6 km/h (2 Bft) W 271 ° 0 min 0,000 mm 0,5 UV-I 84 W/m² 14,5 °C 19,7 °C 16,1 km/h (3 Bft)
09.07.2017 07:38 19,7 °C 19,7 °C 71 % 1013,5 hPa 0,0 mm 10,6 km/h (2 Bft) NW 309 ° 0 min 0,000 mm 0,6 UV-I 86 W/m² 14,3 °C 19,7 °C 19,3 km/h (3 Bft)
09.07.2017 07:39 19,7 °C 19,7 °C 71 % 1013,5 hPa 0,0 mm 10,0 km/h (2 Bft) W-SW 257 ° 0 min 0,000 mm 0,6 UV-I 90 W/m² 14,3 °C 19,7 °C 16,1 km/h (3 Bft)
09.07.2017 07:40 19,7 °C 19,7 °C 72 % 1013,5 hPa 0,0 mm 9,1 km/h (2 Bft) W-SW 248 ° 0 min 0,000 mm 0,6 UV-I 95 W/m² 14,5 °C 19,7 °C 12,9 km/h (3 Bft)
09.07.2017 07:41 19,7 °C 19,7 °C 71 % 1013,5 hPa 0,0 mm 7,8 km/h (2 Bft) W-NW 295 ° 0 min 0,000 mm 0,6 UV-I 100 W/m² 14,3 °C 19,7 °C 11,3 km/h (2 Bft)
09.07.2017 07:42 19,7 °C 19,7 °C 72 % 1013,5 hPa 0,0 mm 9,4 km/h (2 Bft) W-SW 254 ° 0 min 0,000 mm 0,6 UV-I 104 W/m² 14,5 °C 19,7 °C 17,7 km/h (3 Bft)
09.07.2017 07:43 19,7 °C 19,7 °C 72 % 1013,5 hPa 0,0 mm 10,8 km/h (2 Bft) W 262 ° 0 min 0,000 mm 0,7 UV-I 107 W/m² 14,5 °C 19,7 °C 14,5 km/h (3 Bft)
09.07.2017 07:44 19,7 °C 19,7 °C 72 % 1013,5 hPa 0,0 mm 10,1 km/h (2 Bft) W-NW 288 ° 0 min 0,000 mm 0,7 UV-I 107 W/m² 14,5 °C 19,7 °C 12,9 km/h (3 Bft)
09.07.2017 07:45 19,7 °C 19,7 °C 72 % 1013,5 hPa 0,0 mm 7,0 km/h (2 Bft) W 270 ° 0 min 0,000 mm 0,7 UV-I 105 W/m² 14,5 °C 19,7 °C 11,3 km/h (2 Bft)
09.07.2017 07:46 19,7 °C 19,7 °C 72 % 1013,6 hPa 0,0 mm 12,5 km/h (3 Bft) W-SW 240 ° 0 min 0,000 mm 0,8 UV-I 107 W/m² 14,5 °C 19,7 °C 17,7 km/h (3 Bft)
09.07.2017 07:47 19,7 °C 19,7 °C 72 % 1013,6 hPa 0,0 mm 8,0 km/h (2 Bft) W 271 ° 0 min 0,000 mm 0,8 UV-I 111 W/m² 14,5 °C 19,7 °C 12,9 km/h (3 Bft)
09.07.2017 07:48 19,7 °C 19,7 °C 72 % 1013,6 hPa 0,0 mm 10,7 km/h (2 Bft) W-SW 239 ° 0 min 0,000 mm 0,8 UV-I 118 W/m² 14,5 °C 19,7 °C 16,1 km/h (3 Bft)
09.07.2017 07:49 19,7 °C 19,7 °C 73 % 1013,6 hPa 0,0 mm 6,2 km/h (2 Bft) SW 234 ° 0 min 0,000 mm 0,8 UV-I 121 W/m² 14,7 °C 19,7 °C 11,3 km/h (2 Bft)
09.07.2017 07:50 19,7 °C 19,7 °C 72 % 1013,5 hPa 0,0 mm 7,2 km/h (2 Bft) W 278 ° 0 min 0,000 mm 0,9 UV-I 137 W/m² 14,5 °C 19,7 °C 11,3 km/h (2 Bft)
09.07.2017 07:51 19,8 °C 19,8 °C 73 % 1013,6 hPa 0,0 mm 5,3 km/h (1 Bft) W-SW 239 ° 0 min 0,000 mm 1,0 UV-I 144 W/m² 14,8 °C 19,8 °C 11,3 km/h (2 Bft)
09.07.2017 07:52 19,8 °C 19,8 °C 72 % 1013,6 hPa 0,0 mm 4,5 km/h (1 Bft) W 267 ° 0 min 0,000 mm 1,0 UV-I 149 W/m² 14,6 °C 19,8 °C 6,4 km/h (2 Bft)
09.07.2017 07:53 19,8 °C 19,8 °C 72 % 1013,6 hPa 0,0 mm 8,9 km/h (2 Bft) W-SW 246 ° 0 min 0,000 mm 1,0 UV-I 156 W/m² 14,6 °C 19,8 °C 12,9 km/h (3 Bft)
09.07.2017 07:54 19,8 °C 19,8 °C 71 % 1013,6 hPa 0,0 mm 12,7 km/h (3 Bft) W 262 ° 0 min 0,000 mm 1,1 UV-I 160 W/m² 14,4 °C 19,8 °C 19,3 km/h (3 Bft)
09.07.2017 07:55 19,9 °C 19,9 °C 71 % 1013,6 hPa 0,0 mm 13,9 km/h (3 Bft) SW 235 ° 0 min 0,000 mm 1,1 UV-I 163 W/m² 14,5 °C 19,9 °C 22,5 km/h (4 Bft)
09.07.2017 07:56 19,9 °C 19,9 °C 72 % 1013,6 hPa 0,0 mm 8,5 km/h (2 Bft) W-SW 257 ° 0 min 0,000 mm 1,1 UV-I 163 W/m² 14,7 °C 19,9 °C 19,3 km/h (3 Bft)
09.07.2017 07:57 20,0 °C 20,0 °C 71 % 1013,6 hPa 0,0 mm 18,9 km/h (3 Bft) W 263 ° 0 min 0,000 mm 1,1 UV-I 160 W/m² 14,6 °C 20,0 °C 29,0 km/h (5 Bft)
09.07.2017 07:58 20,0 °C 20,0 °C 72 % 1013,6 hPa 0,0 mm 11,5 km/h (2 Bft) W-NW 289 ° 0 min 0,000 mm 1,0 UV-I 158 W/m² 14,8 °C 20,0 °C 16,1 km/h (3 Bft)
09.07.2017 07:59 20,1 °C 20,1 °C 72 % 1013,6 hPa 0,0 mm 14,2 km/h (3 Bft) W-SW 255 ° 0 min 0,000 mm 1,0 UV-I 160 W/m² 14,9 °C 20,1 °C 24,1 km/h (4 Bft)
09.07.2017 08:00 20,1 °C 20,1 °C 71 % 1013,7 hPa 0,0 mm 19,5 km/h (3 Bft) SW 233 ° 0 min 0,000 mm 1,1 UV-I 162 W/m² 14,7 °C 20,1 °C 35,4 km/h (5 Bft)
09.07.2017 08:01 20,1 °C 20,1 °C 71 % 1013,6 hPa 0,0 mm 18,2 km/h (3 Bft) W 273 ° 0 min 0,101 mm 1,1 UV-I 165 W/m² 14,7 °C 20,1 °C 24,1 km/h (4 Bft)
09.07.2017 08:02 20,1 °C 20,1 °C 72 % 1013,6 hPa 0,0 mm 14,1 km/h (3 Bft) NW 304 ° 0 min 0,000 mm 1,1 UV-I 169 W/m² 14,9 °C 20,1 °C 19,3 km/h (3 Bft)
09.07.2017 08:03 20,2 °C 20,2 °C 71 % 1013,7 hPa 0,0 mm 12,5 km/h (3 Bft) NW 324 ° 0 min 0,000 mm 1,1 UV-I 169 W/m² 14,8 °C 20,2 °C 20,9 km/h (4 Bft)
09.07.2017 08:04 20,2 °C 20,2 °C 71 % 1013,7 hPa 0,0 mm 21,3 km/h (4 Bft) W-NW 290 ° 0 min 0,000 mm 1,1 UV-I 172 W/m² 14,8 °C 20,2 °C 29,0 km/h (5 Bft)
09.07.2017 08:05 20,2 °C 20,2 °C 72 % 1013,7 hPa 0,0 mm 11,7 km/h (2 Bft) W 275 ° 0 min 0,000 mm 1,1 UV-I 174 W/m² 15,0 °C 20,2 °C 19,3 km/h (3 Bft)
09.07.2017 08:06 20,2 °C 20,2 °C 72 % 1013,7 hPa 0,0 mm 14,9 km/h (3 Bft) W 259 ° 0 min 0,000 mm 1,1 UV-I 176 W/m² 15,0 °C 20,2 °C 22,5 km/h (4 Bft)
09.07.2017 08:07 20,2 °C 20,2 °C 72 % 1013,7 hPa 0,0 mm 16,3 km/h (3 Bft) W 278 ° 0 min 0,000 mm 1,1 UV-I 178 W/m² 15,0 °C 20,2 °C 24,1 km/h (4 Bft)
09.07.2017 08:08 20,2 °C 20,2 °C 72 % 1013,7 hPa 0,0 mm 11,2 km/h (2 Bft) W 263 ° 0 min 0,000 mm 1,1 UV-I 186 W/m² 15,0 °C 20,2 °C 17,7 km/h (3 Bft)
09.07.2017 08:09 20,2 °C 20,2 °C 72 % 1013,7 hPa 0,0 mm 16,9 km/h (3 Bft) W 275 ° 0 min 0,000 mm 1,1 UV-I 181 W/m² 15,0 °C 20,2 °C 22,5 km/h (4 Bft)
09.07.2017 08:10 20,2 °C 20,2 °C 73 % 1013,7 hPa 0,0 mm 12,6 km/h (3 Bft) NW 317 ° 0 min 0,000 mm 1,1 UV-I 179 W/m² 15,2 °C 20,2 °C 24,1 km/h (4 Bft)
09.07.2017 08:11 20,2 °C 20,2 °C 73 % 1013,7 hPa 0,0 mm 15,4 km/h (3 Bft) W 260 ° 0 min 0,000 mm 1,1 UV-I 192 W/m² 15,2 °C 20,2 °C 20,9 km/h (4 Bft)
09.07.2017 08:12 20,1 °C 20,2 °C 73 % 1013,7 hPa 0,0 mm 15,7 km/h (3 Bft) W-SW 252 ° 0 min 0,000 mm 1,1 UV-I 188 W/m² 15,1 °C 20,1 °C 24,1 km/h (4 Bft)
09.07.2017 08:13 20,1 °C 20,1 °C 73 % 1013,8 hPa 0,0 mm 12,9 km/h (3 Bft) W-NW 287 ° 0 min 0,000 mm 1,1 UV-I 195 W/m² 15,1 °C 20,1 °C 17,7 km/h (3 Bft)
09.07.2017 08:14 20,1 °C 20,1 °C 73 % 1013,7 hPa 0,0 mm 13,0 km/h (3 Bft) W-NW 302 ° 0 min 0,000 mm 1,1 UV-I 204 W/m² 15,1 °C 20,1 °C 19,3 km/h (3 Bft)
09.07.2017 08:15 20,1 °C 20,1 °C 74 % 1013,8 hPa 0,0 mm 9,6 km/h (2 Bft) W-NW 287 ° 0 min 0,000 mm 1,0 UV-I 195 W/m² 15,3 °C 20,1 °C 14,5 km/h (3 Bft)
09.07.2017 08:16 20,1 °C 20,1 °C 74 % 1013,8 hPa 0,0 mm 10,7 km/h (2 Bft) SW 218 ° 0 min 0,000 mm 1,0 UV-I 178 W/m² 15,3 °C 20,1 °C 19,3 km/h (3 Bft)
09.07.2017 08:17 20,1 °C 20,1 °C 74 % 1013,9 hPa 0,0 mm 14,8 km/h (3 Bft) NW 305 ° 0 min 0,000 mm 0,9 UV-I 162 W/m² 15,3 °C 20,1 °C 20,9 km/h (4 Bft)
09.07.2017 08:18 20,1 °C 20,1 °C 74 % 1013,9 hPa 0,0 mm 16,7 km/h (3 Bft) W 271 ° 0 min 0,000 mm 0,9 UV-I 153 W/m² 15,3 °C 20,1 °C 22,5 km/h (4 Bft)
09.07.2017 08:19 20,0 °C 20,1 °C 75 % 1014,0 hPa 0,0 mm 11,1 km/h (2 Bft) W-NW 284 ° 0 min 0,000 mm 0,9 UV-I 149 W/m² 15,4 °C 20,0 °C 14,5 km/h (3 Bft)
09.07.2017 08:20 19,9 °C 20,0 °C 75 % 1014,0 hPa 0,0 mm 7,8 km/h (2 Bft) W-NW 302 ° 0 min 0,000 mm 0,9 UV-I 148 W/m² 15,3 °C 19,9 °C 14,5 km/h (3 Bft)
09.07.2017 08:21 19,9 °C 19,9 °C 75 % 1014,1 hPa 0,0 mm 13,3 km/h (3 Bft) W-NW 288 ° 0 min 0,000 mm 0,9 UV-I 146 W/m² 15,3 °C 19,9 °C 20,9 km/h (4 Bft)
09.07.2017 08:22 19,8 °C 19,9 °C 75 % 1014,1 hPa 0,0 mm 13,6 km/h (3 Bft) W 269 ° 0 min 0,000 mm 0,9 UV-I 144 W/m² 15,2 °C 19,8 °C 22,5 km/h (4 Bft)
09.07.2017 08:23 19,8 °C 19,8 °C 75 % 1014,1 hPa 0,0 mm 13,2 km/h (3 Bft) W-SW 258 ° 0 min 0,000 mm 0,9 UV-I 141 W/m² 15,2 °C 19,8 °C 22,5 km/h (4 Bft)
09.07.2017 08:24 19,7 °C 19,8 °C 75 % 1014,2 hPa 0,0 mm 11,7 km/h (2 Bft) W-NW 296 ° 0 min 0,000 mm 0,9 UV-I 141 W/m² 15,1 °C 19,7 °C 17,7 km/h (3 Bft)
09.07.2017 08:25 19,7 °C 19,7 °C 76 % 1014,2 hPa 0,0 mm 12,7 km/h (3 Bft) W-NW 288 ° 0 min 0,000 mm 0,9 UV-I 148 W/m² 15,3 °C 19,7 °C 16,1 km/h (3 Bft)
09.07.2017 08:26 19,6 °C 19,7 °C 76 % 1014,2 hPa 0,0 mm 12,6 km/h (3 Bft) W-SW 255 ° 0 min 0,000 mm 1,0 UV-I 155 W/m² 15,2 °C 19,6 °C 16,1 km/h (3 Bft)
09.07.2017 08:27 19,6 °C 19,6 °C 76 % 1014,2 hPa 0,0 mm 9,9 km/h (2 Bft) NW 309 ° 0 min 0,000 mm 1,1 UV-I 162 W/m² 15,2 °C 19,6 °C 20,9 km/h (4 Bft)
09.07.2017 08:28 19,5 °C 19,6 °C 76 % 1014,2 hPa 0,0 mm 13,0 km/h (3 Bft) W 281 ° 0 min 0,000 mm 1,1 UV-I 169 W/m² 15,2 °C 19,5 °C 20,9 km/h (4 Bft)
09.07.2017 08:29 19,5 °C 19,6 °C 77 % 1014,3 hPa 0,0 mm 8,9 km/h (2 Bft) W-NW 290 ° 0 min 0,000 mm 1,2 UV-I 179 W/m² 15,4 °C 19,5 °C 12,9 km/h (3 Bft)
09.07.2017 08:30 19,5 °C 19,5 °C 77 % 1014,4 hPa 0,0 mm 7,5 km/h (2 Bft) NW 320 ° 0 min 0,000 mm 1,2 UV-I 192 W/m² 15,4 °C 19,5 °C 11,3 km/h (2 Bft)
09.07.2017 08:31 19,5 °C 19,5 °C 76 % 1014,4 hPa 0,0 mm 17,8 km/h (3 Bft) W-NW 300 ° 0 min 0,000 mm 1,3 UV-I 214 W/m² 15,2 °C 19,5 °C 24,1 km/h (4 Bft)
09.07.2017 08:32 19,5 °C 19,5 °C 77 % 1014,4 hPa 0,0 mm 13,6 km/h (3 Bft) W-SW 252 ° 0 min 0,000 mm 1,4 UV-I 225 W/m² 15,4 °C 19,5 °C 22,5 km/h (4 Bft)
09.07.2017 08:33 19,5 °C 19,5 °C 77 % 1014,4 hPa 0,0 mm 9,7 km/h (2 Bft) W-NW 290 ° 0 min 0,000 mm 1,4 UV-I 230 W/m² 15,4 °C 19,5 °C 14,5 km/h (3 Bft)
09.07.2017 08:34 19,5 °C 19,5 °C 77 % 1014,4 hPa 0,0 mm 13,8 km/h (3 Bft) W-NW 288 ° 0 min 0,000 mm 1,4 UV-I 237 W/m² 15,4 °C 19,5 °C 19,3 km/h (3 Bft)
09.07.2017 08:35 19,5 °C 19,6 °C 77 % 1014,4 hPa 0,0 mm 11,3 km/h (2 Bft) W 263 ° 0 min 0,000 mm 1,4 UV-I 241 W/m² 15,4 °C 19,5 °C 14,5 km/h (3 Bft)
09.07.2017 08:36 19,6 °C 19,6 °C 77 % 1014,4 hPa 0,0 mm 13,4 km/h (3 Bft) W-NW 297 ° 0 min 0,000 mm 1,4 UV-I 236 W/m² 15,5 °C 19,6 °C 16,1 km/h (3 Bft)
09.07.2017 08:37 19,6 °C 19,6 °C 77 % 1014,4 hPa 0,0 mm 10,7 km/h (2 Bft) W 272 ° 0 min 0,000 mm 1,4 UV-I 230 W/m² 15,5 °C 19,6 °C 12,9 km/h (3 Bft)
09.07.2017 08:38 19,6 °C 19,6 °C 77 % 1014,4 hPa 0,0 mm 12,6 km/h (3 Bft) W 273 ° 0 min 0,000 mm 1,3 UV-I 221 W/m² 15,5 °C 19,6 °C 20,9 km/h (4 Bft)
09.07.2017 08:39 19,6 °C 19,6 °C 77 % 1014,4 hPa 0,0 mm 12,9 km/h (3 Bft) W-NW 296 ° 0 min 0,000 mm 1,2 UV-I 207 W/m² 15,5 °C 19,6 °C 20,9 km/h (4 Bft)
09.07.2017 08:40 19,6 °C 19,6 °C 77 % 1014,4 hPa 0,0 mm 9,5 km/h (2 Bft) W 273 ° 0 min 0,000 mm 1,1 UV-I 197 W/m² 15,5 °C 19,6 °C 12,9 km/h (3 Bft)
09.07.2017 08:41 19,5 °C 19,6 °C 76 % 1014,5 hPa 0,0 mm 12,1 km/h (2 Bft) W-SW 252 ° 0 min 0,000 mm 1,0 UV-I 176 W/m² 15,2 °C 19,5 °C 19,3 km/h (3 Bft)
09.07.2017 08:42 19,5 °C 19,5 °C 76 % 1014,3 hPa 0,0 mm 11,3 km/h (2 Bft) NW 304 ° 0 min 0,000 mm 0,9 UV-I 137 W/m² 15,2 °C 19,5 °C 14,5 km/h (3 Bft)
09.07.2017 08:43 19,4 °C 19,5 °C 76 % 1014,3 hPa 0,0 mm 14,2 km/h (3 Bft) W-NW 286 ° 0 min 0,000 mm 0,8 UV-I 118 W/m² 15,1 °C 19,4 °C 22,5 km/h (4 Bft)
09.07.2017 08:44 19,4 °C 19,4 °C 76 % 1014,4 hPa 0,0 mm 9,8 km/h (2 Bft) W-NW 294 ° 0 min 0,000 mm 0,6 UV-I 104 W/m² 15,1 °C 19,4 °C 16,1 km/h (3 Bft)
09.07.2017 08:45 19,3 °C 19,4 °C 77 % 1014,3 hPa 0,0 mm 6,6 km/h (2 Bft) W 281 ° 0 min 0,000 mm 0,6 UV-I 90 W/m² 15,2 °C 19,3 °C 12,9 km/h (3 Bft)
09.07.2017 08:46 19,3 °C 19,3 °C 77 % 1014,3 hPa 0,0 mm 10,3 km/h (2 Bft) W 270 ° 0 min 0,000 mm 0,5 UV-I 79 W/m² 15,2 °C 19,3 °C 16,1 km/h (3 Bft)
09.07.2017 08:47 19,2 °C 19,3 °C 77 % 1014,3 hPa 0,0 mm 8,7 km/h (2 Bft) W-NW 286 ° 0 min 0,000 mm 0,5 UV-I 79 W/m² 15,1 °C 19,2 °C 12,9 km/h (3 Bft)
09.07.2017 08:48 19,2 °C 19,2 °C 77 % 1014,3 hPa 0,0 mm 7,8 km/h (2 Bft) W 280 ° 0 min 0,000 mm 0,0 UV-I 60 W/m² 15,1 °C 19,2 °C 11,3 km/h (2 Bft)
09.07.2017 08:49 19,1 °C 19,2 °C 77 % 1014,3 hPa 0,0 mm 4,2 km/h (1 Bft) W-NW 286 ° 0 min 0,000 mm 0,0 UV-I 54 W/m² 15,0 °C 19,1 °C 11,3 km/h (2 Bft)
09.07.2017 08:50 19,1 °C 19,1 °C 77 % 1014,3 hPa 0,0 mm 15,5 km/h (3 Bft) W 266 ° 0 min 0,000 mm 0,0 UV-I 51 W/m² 15,0 °C 19,1 °C 20,9 km/h (4 Bft)
09.07.2017 08:51 19,1 °C 19,1 °C 77 % 1014,3 hPa 0,0 mm 15,8 km/h (3 Bft) W 267 ° 0 min 0,000 mm 0,0 UV-I 47 W/m² 15,0 °C 19,1 °C 20,9 km/h (4 Bft)
09.07.2017 08:52 19,0 °C 19,1 °C 78 % 1014,3 hPa 0,0 mm 10,6 km/h (2 Bft) W-NW 292 ° 0 min 0,000 mm 0,0 UV-I 46 W/m² 15,1 °C 19,0 °C 14,5 km/h (3 Bft)
09.07.2017 08:53 18,9 °C 19,0 °C 78 % 1014,3 hPa 0,0 mm 11,1 km/h (2 Bft) W-NW 294 ° 0 min 0,000 mm 0,0 UV-I 44 W/m² 15,0 °C 18,9 °C 22,5 km/h (4 Bft)
09.07.2017 08:54 18,9 °C 18,9 °C 78 % 1014,4 hPa 0,0 mm 4,8 km/h (1 Bft) W-SW 257 ° 0 min 0,000 mm 0,0 UV-I 42 W/m² 15,0 °C 18,9 °C 11,3 km/h (2 Bft)
09.07.2017 08:55 18,8 °C 18,9 °C 79 % 1014,3 hPa 0,0 mm 4,1 km/h (1 Bft) W-NW 292 ° 0 min 0,000 mm 0,0 UV-I 42 W/m² 15,1 °C 18,8 °C 6,4 km/h (2 Bft)
09.07.2017 08:56 18,8 °C 18,8 °C 79 % 1014,3 hPa 0,0 mm 4,3 km/h (1 Bft) W-NW 298 ° 0 min 0,000 mm 0,0 UV-I 42 W/m² 15,1 °C 18,8 °C 6,4 km/h (2 Bft)
09.07.2017 08:57 18,7 °C 18,8 °C 79 % 1014,3 hPa 0,0 mm 3,7 km/h (1 Bft) W-NW 296 ° 0 min 0,000 mm 0,0 UV-I 42 W/m² 15,0 °C 18,7 °C 4,8 km/h (1 Bft)
09.07.2017 08:58 18,7 °C 18,7 °C 80 % 1014,4 hPa 0,0 mm 5,4 km/h (1 Bft) W-SW 249 ° 0 min 0,000 mm 0,0 UV-I 42 W/m² 15,2 °C 18,7 °C 11,3 km/h (2 Bft)
09.07.2017 08:59 18,6 °C 18,7 °C 81 % 1014,3 hPa 0,0 mm 4,8 km/h (1 Bft) W 268 ° 0 min 0,000 mm 0,0 UV-I 42 W/m² 15,3 °C 18,6 °C 6,4 km/h (2 Bft)
09.07.2017 09:00 18,6 °C 18,6 °C 81 % 1014,4 hPa 0,0 mm 3,9 km/h (1 Bft) W 263 ° 0 min 0,000 mm 0,0 UV-I 42 W/m² 15,3 °C 18,6 °C 6,4 km/h (2 Bft)
09.07.2017 09:01 18,4 °C 18,6 °C 81 % 1014,4 hPa 0,0 mm 5,7 km/h (1 Bft) W 279 ° 0 min 0,127 mm 0,0 UV-I 42 W/m² 15,1 °C 18,4 °C 11,3 km/h (2 Bft)
09.07.2017 09:02 18,4 °C 18,4 °C 81 % 1014,3 hPa 0,0 mm 4,4 km/h (1 Bft) W-NW 287 ° 0 min 0,000 mm 0,0 UV-I 42 W/m² 15,1 °C 18,4 °C 6,4 km/h (2 Bft)
09.07.2017 09:03 18,3 °C 18,4 °C 82 % 1014,4 hPa 0,0 mm 2,7 km/h (1 Bft) W-NW 286 ° 0 min 0,000 mm 0,0 UV-I 42 W/m² 15,2 °C 18,3 °C 4,8 km/h (1 Bft)
09.07.2017 09:04 18,3 °C 18,3 °C 82 % 1014,3 hPa 0,0 mm 0,5 km/h (0 Bft) W-NW 286 ° 0 min 0,000 mm 0,0 UV-I 44 W/m² 15,2 °C 18,3 °C 1,6 km/h (1 Bft)
09.07.2017 09:05 18,3 °C 18,3 °C 82 % 1014,3 hPa 0,0 mm 0,9 km/h (0 Bft) W 281 ° 0 min 0,000 mm 0,0 UV-I 44 W/m² 15,2 °C 18,3 °C 3,2 km/h (1 Bft)
09.07.2017 09:06 18,2 °C 18,3 °C 83 % 1014,4 hPa 0,0 mm 0,7 km/h (0 Bft) W 281 ° 0 min 0,000 mm 0,0 UV-I 46 W/m² 15,3 °C 18,2 °C 1,6 km/h (1 Bft)
09.07.2017 09:07 18,1 °C 18,2 °C 82 % 1014,4 hPa 0,0 mm 2,0 km/h (1 Bft) W 281 ° 0 min 0,000 mm 0,0 UV-I 46 W/m² 15,0 °C 18,1 °C 4,8 km/h (1 Bft)
09.07.2017 09:08 18,1 °C 18,1 °C 84 % 1014,4 hPa 0,0 mm 6,2 km/h (2 Bft) W 263 ° 0 min 0,000 mm 0,0 UV-I 47 W/m² 15,4 °C 18,1 °C 12,9 km/h (3 Bft)
09.07.2017 09:09 17,9 °C 18,1 °C 84 % 1014,4 hPa 0,0 mm 5,3 km/h (1 Bft) W-NW 289 ° 0 min 0,000 mm 0,0 UV-I 47 W/m² 15,2 °C 17,9 °C 6,4 km/h (2 Bft)
09.07.2017 09:10 17,9 °C 17,9 °C 84 % 1014,4 hPa 0,0 mm 4,2 km/h (1 Bft) W 276 ° 0 min 0,000 mm 0,0 UV-I 49 W/m² 15,2 °C 17,9 °C 6,4 km/h (2 Bft)
09.07.2017 09:11 17,8 °C 17,9 °C 85 % 1014,4 hPa 0,2 mm 1,1 km/h (1 Bft) W 276 ° 0 min 0,000 mm 0,0 UV-I 49 W/m² 15,2 °C 17,8 °C 3,2 km/h (1 Bft)
09.07.2017 09:12 17,7 °C 17,8 °C 86 % 1014,3 hPa 0,0 mm 0,2 km/h (0 Bft) W 276 ° 0 min 0,000 mm 0,0 UV-I 49 W/m² 15,3 °C 17,7 °C 1,6 km/h (1 Bft)
09.07.2017 09:13 17,6 °C 17,7 °C 86 % 1014,3 hPa 0,0 mm 0,0 km/h (0 Bft) W 276 ° 0 min 0,000 mm 0,0 UV-I 51 W/m² 15,2 °C 17,6 °C 0,0 km/h (0 Bft)
09.07.2017 09:14 17,5 °C 17,6 °C 87 % 1014,3 hPa 0,0 mm 1,3 km/h (1 Bft) SW 218 ° 0 min 0,000 mm 0,0 UV-I 53 W/m² 15,3 °C 17,5 °C 3,2 km/h (1 Bft)
09.07.2017 09:15 17,4 °C 17,5 °C 87 % 1014,3 hPa 0,0 mm 0,8 km/h (0 Bft) SW 218 ° 0 min 0,000 mm 0,0 UV-I 53 W/m² 15,2 °C 17,4 °C 3,2 km/h (1 Bft)
09.07.2017 09:16 17,4 °C 17,4 °C 86 % 1014,3 hPa 0,0 mm 0,1 km/h (0 Bft) SW 218 ° 0 min 0,000 mm 0,0 UV-I 51 W/m² 15,0 °C 17,4 °C 1,6 km/h (1 Bft)
09.07.2017 09:17 17,4 °C 17,4 °C 86 % 1014,2 hPa 0,0 mm 0,8 km/h (0 Bft) SW 218 ° 0 min 0,000 mm 0,0 UV-I 51 W/m² 15,0 °C 17,4 °C 1,6 km/h (1 Bft)
09.07.2017 09:18 17,4 °C 17,4 °C 87 % 1014,2 hPa 0,0 mm 0,6 km/h (0 Bft) SW 218 ° 0 min 0,000 mm 0,0 UV-I 47 W/m² 15,2 °C 17,4 °C 1,6 km/h (1 Bft)
09.07.2017 09:19 17,3 °C 17,4 °C 87 % 1014,2 hPa 0,0 mm 0,0 km/h (0 Bft) SW 218 ° 0 min 0,000 mm 0,0 UV-I 47 W/m² 15,1 °C 17,3 °C 0,0 km/h (0 Bft)
09.07.2017 09:20 17,3 °C 17,3 °C 88 % 1014,2 hPa 0,0 mm 0,7 km/h (0 Bft) SW 218 ° 0 min 0,000 mm 0,0 UV-I 46 W/m² 15,3 °C 17,3 °C 3,2 km/h (1 Bft)
09.07.2017 09:21 17,3 °C 17,3 °C 88 % 1014,3 hPa 0,0 mm 1,3 km/h (1 Bft) SW 218 ° 0 min 0,000 mm 0,0 UV-I 46 W/m² 15,3 °C 17,3 °C 3,2 km/h (1 Bft)
09.07.2017 09:22 17,2 °C 17,3 °C 89 % 1014,3 hPa 0,0 mm 0,0 km/h (0 Bft) SW 218 ° 0 min 0,000 mm 0,0 UV-I 44 W/m² 15,4 °C 17,2 °C 0,0 km/h (0 Bft)
09.07.2017 09:23 17,2 °C 17,2 °C 89 % 1014,3 hPa 0,0 mm 0,5 km/h (0 Bft) SW 218 ° 0 min 0,000 mm 0,0 UV-I 44 W/m² 15,4 °C 17,2 °C 1,6 km/h (1 Bft)
09.07.2017 09:24 17,3 °C 17,3 °C 89 % 1014,2 hPa 0,0 mm 0,8 km/h (0 Bft) SW 218 ° 0 min 0,000 mm 0,0 UV-I 46 W/m² 15,5 °C 17,3 °C 1,6 km/h (1 Bft)
09.07.2017 09:25 17,3 °C 17,3 °C 88 % 1014,2 hPa 0,0 mm 0,5 km/h (0 Bft) SW 218 ° 0 min 0,000 mm 0,0 UV-I 47 W/m² 15,3 °C 17,3 °C 3,2 km/h (1 Bft)
09.07.2017 09:26 17,2 °C 17,3 °C 89 % 1014,2 hPa 0,0 mm 0,1 km/h (0 Bft) SW 218 ° 0 min 0,000 mm 0,0 UV-I 49 W/m² 15,4 °C 17,2 °C 1,6 km/h (1 Bft)
09.07.2017 09:27 17,2 °C 17,2 °C 89 % 1014,2 hPa 0,0 mm 0,0 km/h (0 Bft) SW 218 ° 0 min 0,000 mm 0,0 UV-I 49 W/m² 15,4 °C 17,2 °C 0,0 km/h (0 Bft)
09.07.2017 09:28 17,2 °C 17,2 °C 90 % 1014,2 hPa 0,0 mm 0,0 km/h (0 Bft) SW 218 ° 0 min 0,000 mm 0,0 UV-I 51 W/m² 15,5 °C 17,2 °C 0,0 km/h (0 Bft)
09.07.2017 09:29 17,1 °C 17,2 °C 90 % 1014,1 hPa 0,0 mm 0,0 km/h (0 Bft) SW 218 ° 0 min 0,000 mm 0,0 UV-I 53 W/m² 15,4 °C 17,1 °C 0,0 km/h (0 Bft)
09.07.2017 09:30 17,0 °C 17,1 °C 90 % 1014,0 hPa 0,0 mm 0,0 km/h (0 Bft) SW 218 ° 0 min 0,000 mm 0,0 UV-I 54 W/m² 15,3 °C 17,0 °C 0,0 km/h (0 Bft)
09.07.2017 09:31 16,9 °C 17,1 °C 90 % 1013,9 hPa 0,0 mm 0,0 km/h (0 Bft) SW 218 ° 0 min 0,000 mm 0,0 UV-I 54 W/m² 15,2 °C 16,9 °C 0,0 km/h (0 Bft)
09.07.2017 09:32 16,9 °C 16,9 °C 90 % 1013,9 hPa 0,2 mm 0,0 km/h (0 Bft) SW 217 ° 0 min 0,000 mm 0,5 UV-I 56 W/m² 15,2 °C 16,9 °C 0,0 km/h (0 Bft)
09.07.2017 09:33 16,9 °C 16,9 °C 90 % 1013,9 hPa 0,0 mm 0,0 km/h (0 Bft) SW 217 ° 0 min 0,000 mm 0,5 UV-I 58 W/m² 15,2 °C 16,9 °C 0,0 km/h (0 Bft)
09.07.2017 09:34 16,9 °C 16,9 °C 91 % 1013,9 hPa 0,0 mm 0,0 km/h (0 Bft) SW 217 ° 0 min 0,000 mm 0,5 UV-I 60 W/m² 15,4 °C 16,9 °C 0,0 km/h (0 Bft)
09.07.2017 09:35 16,9 °C 16,9 °C 91 % 1013,9 hPa 0,0 mm 0,0 km/h (0 Bft) SW 217 ° 0 min 0,000 mm 0,5 UV-I 60 W/m² 15,4 °C 16,9 °C 0,0 km/h (0 Bft)
09.07.2017 09:36 16,9 °C 16,9 °C 91 % 1013,9 hPa 0,0 mm 0,0 km/h (0 Bft) SW 217 ° 0 min 0,000 mm 0,5 UV-I 62 W/m² 15,4 °C 16,9 °C 0,0 km/h (0 Bft)
09.07.2017 09:37 16,9 °C 16,9 °C 91 % 1013,9 hPa 0,0 mm 0,0 km/h (0 Bft) SW 217 ° 0 min 0,000 mm 0,5 UV-I 65 W/m² 15,4 °C 16,9 °C 0,0 km/h (0 Bft)
09.07.2017 09:38 16,9 °C 16,9 °C 90 % 1013,8 hPa 0,0 mm 0,0 km/h (0 Bft) S-SW 200 ° 0 min 0,000 mm 0,6 UV-I 69 W/m² 15,2 °C 16,9 °C 0,0 km/h (0 Bft)
09.07.2017 09:39 16,8 °C 16,9 °C 90 % 1013,8 hPa 0,0 mm 0,0 km/h (0 Bft) S-SW 192 ° 0 min 0,000 mm 0,6 UV-I 70 W/m² 15,1 °C 16,8 °C 0,0 km/h (0 Bft)
09.07.2017 09:40 16,9 °C 16,9 °C 91 % 1013,7 hPa 0,0 mm 0,0 km/h (0 Bft) S-SW 192 ° 0 min 0,000 mm 0,6 UV-I 72 W/m² 15,4 °C 16,9 °C 0,0 km/h (0 Bft)
09.07.2017 09:41 16,9 °C 16,9 °C 91 % 1013,7 hPa 0,0 mm 0,0 km/h (0 Bft) S 191 ° 0 min 0,000 mm 0,6 UV-I 72 W/m² 15,4 °C 16,9 °C 0,0 km/h (0 Bft)
09.07.2017 09:42 16,9 °C 16,9 °C 91 % 1013,6 hPa 0,0 mm 0,0 km/h (0 Bft) S 191 ° 0 min 0,000 mm 0,6 UV-I 70 W/m² 15,4 °C 16,9 °C 0,0 km/h (0 Bft)
09.07.2017 09:43 16,9 °C 16,9 °C 91 % 1013,6 hPa 0,0 mm 0,0 km/h (0 Bft) S 191 ° 0 min 0,000 mm 0,6 UV-I 70 W/m² 15,4 °C 16,9 °C 0,0 km/h (0 Bft)
09.07.2017 09:44 16,9 °C 16,9 °C 91 % 1013,6 hPa 0,0 mm 0,0 km/h (0 Bft) S 191 ° 0 min 0,000 mm 0,6 UV-I 70 W/m² 15,4 °C 16,9 °C 0,0 km/h (0 Bft)
09.07.2017 09:45 16,9 °C 16,9 °C 91 % 1013,6 hPa 0,0 mm 0,0 km/h (0 Bft) S 191 ° 0 min 0,000 mm 0,6 UV-I 72 W/m² 15,4 °C 16,9 °C 0,0 km/h (0 Bft)
09.07.2017 09:46 17,0 °C 17,0 °C 91 % 1013,7 hPa 0,0 mm 0,0 km/h (0 Bft) S 191 ° 0 min 0,000 mm 0,6 UV-I 72 W/m² 15,5 °C 17,0 °C 0,0 km/h (0 Bft)
09.07.2017 09:47 17,0 °C 17,0 °C 90 % 1013,7 hPa 0,0 mm 0,0 km/h (0 Bft) S 191 ° 0 min 0,000 mm 0,6 UV-I 76 W/m² 15,3 °C 17,0 °C 0,0 km/h (0 Bft)
09.07.2017 09:48 17,1 °C 17,1 °C 90 % 1013,7 hPa 0,0 mm 0,0 km/h (0 Bft) S 191 ° 0 min 0,000 mm 0,6 UV-I 77 W/m² 15,4 °C 17,1 °C 0,0 km/h (0 Bft)
09.07.2017 09:49 17,2 °C 17,2 °C 91 % 1013,7 hPa 0,0 mm 0,0 km/h (0 Bft) S 191 ° 0 min 0,000 mm 0,6 UV-I 77 W/m² 15,7 °C 17,2 °C 0,0 km/h (0 Bft)
09.07.2017 09:50 17,2 °C 17,2 °C 91 % 1013,7 hPa 0,0 mm 0,0 km/h (0 Bft) S 191 ° 0 min 0,000 mm 0,6 UV-I 77 W/m² 15,7 °C 17,2 °C 0,0 km/h (0 Bft)
09.07.2017 09:51 17,2 °C 17,2 °C 91 % 1013,8 hPa 0,0 mm 0,0 km/h (0 Bft) S 191 ° 0 min 0,000 mm 0,6 UV-I 76 W/m² 15,7 °C 17,2 °C 0,0 km/h (0 Bft)
09.07.2017 09:52 17,3 °C 17,3 °C 91 % 1013,8 hPa 0,0 mm 0,0 km/h (0 Bft) S 191 ° 0 min 0,000 mm 0,6 UV-I 74 W/m² 15,8 °C 17,3 °C 0,0 km/h (0 Bft)
09.07.2017 09:53 17,3 °C 17,3 °C 90 % 1013,8 hPa 0,0 mm 0,0 km/h (0 Bft) S 191 ° 0 min 0,000 mm 0,6 UV-I 72 W/m² 15,6 °C 17,3 °C 0,0 km/h (0 Bft)
09.07.2017 09:54 17,3 °C 17,3 °C 90 % 1013,9 hPa 0,0 mm 0,0 km/h (0 Bft) S 191 ° 0 min 0,000 mm 0,6 UV-I 72 W/m² 15,6 °C 17,3 °C 0,0 km/h (0 Bft)
09.07.2017 09:55 17,2 °C 17,3 °C 90 % 1013,8 hPa 0,0 mm 0,0 km/h (0 Bft) S 191 ° 0 min 0,000 mm 0,6 UV-I 72 W/m² 15,5 °C 17,2 °C 0,0 km/h (0 Bft)
09.07.2017 09:56 17,2 °C 17,2 °C 90 % 1013,9 hPa 0,0 mm 0,0 km/h (0 Bft) S 191 ° 0 min 0,000 mm 0,6 UV-I 69 W/m² 15,5 °C 17,2 °C 0,0 km/h (0 Bft)
09.07.2017 09:57 17,2 °C 17,2 °C 90 % 1013,9 hPa 0,0 mm 0,0 km/h (0 Bft) S 191 ° 0 min 0,000 mm 0,6 UV-I 67 W/m² 15,5 °C 17,2 °C 0,0 km/h (0 Bft)
09.07.2017 09:58 17,2 °C 17,2 °C 90 % 1014,0 hPa 0,0 mm 0,0 km/h (0 Bft) S 191 ° 0 min 0,000 mm 0,6 UV-I 65 W/m² 15,5 °C 17,2 °C 0,0 km/h (0 Bft)
09.07.2017 09:59 17,1 °C 17,2 °C 91 % 1014,0 hPa 0,0 mm 0,0 km/h (0 Bft) S 191 ° 0 min 0,000 mm 0,6 UV-I 65 W/m² 15,6 °C 17,1 °C 0,0 km/h (0 Bft)
09.07.2017 10:00 17,2 °C 17,2 °C 91 % 1014,0 hPa 0,0 mm 0,0 km/h (0 Bft) S 191 ° 0 min 0,026 mm 0,6 UV-I 65 W/m² 15,7 °C 17,2 °C 0,0 km/h (0 Bft)
09.07.2017 10:01 17,2 °C 17,2 °C 91 % 1014,0 hPa 0,0 mm 0,0 km/h (0 Bft) S 191 ° 0 min 0,000 mm 0,6 UV-I 67 W/m² 15,7 °C 17,2 °C 0,0 km/h (0 Bft)
09.07.2017 10:02 17,2 °C 17,2 °C 91 % 1014,1 hPa 0,0 mm 0,0 km/h (0 Bft) S 191 ° 0 min 0,000 mm 0,6 UV-I 69 W/m² 15,7 °C 17,2 °C 0,0 km/h (0 Bft)
09.07.2017 10:03 17,2 °C 17,2 °C 91 % 1014,1 hPa 0,0 mm 0,0 km/h (0 Bft) S 191 ° 0 min 0,000 mm 0,6 UV-I 70 W/m² 15,7 °C 17,2 °C 0,0 km/h (0 Bft)
09.07.2017 10:04 17,2 °C 17,2 °C 91 % 1014,1 hPa 0,0 mm 0,0 km/h (0 Bft) S 191 ° 0 min 0,000 mm 0,7 UV-I 76 W/m² 15,7 °C 17,2 °C 0,0 km/h (0 Bft)
09.07.2017 10:05 17,2 °C 17,2 °C 91 % 1014,1 hPa 0,0 mm 0,0 km/h (0 Bft) S 191 ° 0 min 0,000 mm 0,7 UV-I 77 W/m² 15,7 °C 17,2 °C 0,0 km/h (0 Bft)
09.07.2017 10:06 17,2 °C 17,2 °C 92 % 1014,1 hPa 0,0 mm 0,0 km/h (0 Bft) S 191 ° 0 min 0,000 mm 0,7 UV-I 79 W/m² 15,9 °C 17,2 °C 0,0 km/h (0 Bft)
09.07.2017 10:07 17,2 °C 17,2 °C 91 % 1014,1 hPa 0,0 mm 0,0 km/h (0 Bft) S 191 ° 0 min 0,000 mm 0,7 UV-I 81 W/m² 15,7 °C 17,2 °C 0,0 km/h (0 Bft)
09.07.2017 10:08 17,2 °C 17,3 °C 91 % 1014,0 hPa 0,0 mm 0,0 km/h (0 Bft) S 191 ° 0 min 0,000 mm 0,7 UV-I 81 W/m² 15,7 °C 17,2 °C 0,0 km/h (0 Bft)
09.07.2017 10:09 17,3 °C 17,3 °C 91 % 1013,9 hPa 0,0 mm 1,0 km/h (0 Bft) S 187 ° 0 min 0,000 mm 0,7 UV-I 83 W/m² 15,8 °C 17,3 °C 4,8 km/h (1 Bft)
09.07.2017 10:10 17,3 °C 17,3 °C 91 % 1013,8 hPa 0,0 mm 4,5 km/h (1 Bft) S 172 ° 0 min 0,000 mm 0,7 UV-I 81 W/m² 15,8 °C 17,3 °C 8,0 km/h (2 Bft)
09.07.2017 10:11 17,3 °C 17,3 °C 91 % 1013,7 hPa 0,0 mm 5,1 km/h (1 Bft) SO 139 ° 0 min 0,000 mm 0,7 UV-I 77 W/m² 15,8 °C 17,3 °C 6,4 km/h (2 Bft)
09.07.2017 10:12 17,2 °C 17,3 °C 91 % 1013,4 hPa 0,0 mm 4,0 km/h (1 Bft) O-SO 119 ° 0 min 0,000 mm 0,7 UV-I 76 W/m² 15,7 °C 17,2 °C 4,8 km/h (1 Bft)
09.07.2017 10:13 17,2 °C 17,3 °C 91 % 1013,4 hPa 0,0 mm 2,8 km/h (1 Bft) O-NO 75 ° 0 min 0,000 mm 0,7 UV-I 74 W/m² 15,7 °C 17,2 °C 3,2 km/h (1 Bft)
09.07.2017 10:14 17,3 °C 17,3 °C 91 % 1013,4 hPa 0,0 mm 3,4 km/h (1 Bft) O-NO 74 ° 0 min 0,000 mm 0,7 UV-I 76 W/m² 15,8 °C 17,3 °C 4,8 km/h (1 Bft)
09.07.2017 10:15 17,3 °C 17,3 °C 92 % 1013,2 hPa 0,0 mm 1,0 km/h (0 Bft) O-NO 74 ° 0 min 0,000 mm 0,7 UV-I 77 W/m² 16,0 °C 17,3 °C 3,2 km/h (1 Bft)
09.07.2017 10:16 17,3 °C 17,3 °C 92 % 1013,2 hPa 0,0 mm 1,1 km/h (1 Bft) O-NO 74 ° 0 min 0,000 mm 0,7 UV-I 81 W/m² 16,0 °C 17,3 °C 3,2 km/h (1 Bft)
09.07.2017 10:17 17,3 °C 17,4 °C 91 % 1013,2 hPa 0,0 mm 0,9 km/h (0 Bft) O-NO 74 ° 0 min 0,000 mm 0,7 UV-I 81 W/m² 15,8 °C 17,3 °C 1,6 km/h (1 Bft)
09.07.2017 10:18 17,4 °C 17,4 °C 91 % 1013,2 hPa 0,0 mm 4,2 km/h (1 Bft) O 86 ° 0 min 0,000 mm 0,7 UV-I 81 W/m² 15,9 °C 17,4 °C 11,3 km/h (2 Bft)
09.07.2017 10:19 17,4 °C 17,4 °C 92 % 1013,0 hPa 0,0 mm 5,9 km/h (2 Bft) O 92 ° 0 min 0,000 mm 0,8 UV-I 81 W/m² 16,1 °C 17,4 °C 9,7 km/h (2 Bft)
09.07.2017 10:20 17,4 °C 17,4 °C 92 % 1013,0 hPa 0,0 mm 1,4 km/h (1 Bft) O 92 ° 0 min 0,000 mm 0,8 UV-I 81 W/m² 16,1 °C 17,4 °C 3,2 km/h (1 Bft)
09.07.2017 10:21 17,4 °C 17,4 °C 92 % 1013,0 hPa 0,0 mm 0,6 km/h (0 Bft) NO 41 ° 0 min 0,000 mm 0,8 UV-I 90 W/m² 16,1 °C 17,4 °C 3,2 km/h (1 Bft)
09.07.2017 10:22 17,4 °C 17,4 °C 92 % 1013,0 hPa 0,0 mm 0,5 km/h (0 Bft) NO 52 ° 0 min 0,000 mm 0,8 UV-I 98 W/m² 16,1 °C 17,4 °C 1,6 km/h (1 Bft)
09.07.2017 10:23 17,5 °C 17,5 °C 91 % 1013,0 hPa 0,0 mm 0,6 km/h (0 Bft) NO 52 ° 0 min 0,000 mm 0,9 UV-I 104 W/m² 16,0 °C 17,5 °C 1,6 km/h (1 Bft)
09.07.2017 10:24 17,5 °C 17,5 °C 90 % 1012,9 hPa 0,0 mm 0,1 km/h (0 Bft) NO 52 ° 0 min 0,000 mm 0,9 UV-I 107 W/m² 15,8 °C 17,5 °C 1,6 km/h (1 Bft)
09.07.2017 10:25 17,6 °C 17,6 °C 91 % 1012,9 hPa 0,0 mm 2,1 km/h (1 Bft) NO 54 ° 0 min 0,000 mm 1,0 UV-I 111 W/m² 16,1 °C 17,6 °C 3,2 km/h (1 Bft)
09.07.2017 10:26 17,6 °C 17,6 °C 90 % 1012,8 hPa 0,0 mm 0,2 km/h (0 Bft) NO 54 ° 0 min 0,000 mm 1,0 UV-I 118 W/m² 15,9 °C 17,6 °C 1,6 km/h (1 Bft)
09.07.2017 10:27 17,6 °C 17,6 °C 91 % 1012,8 hPa 0,0 mm 0,3 km/h (0 Bft) NO 54 ° 0 min 0,000 mm 1,0 UV-I 121 W/m² 16,1 °C 17,6 °C 1,6 km/h (1 Bft)
09.07.2017 10:28 17,6 °C 17,6 °C 91 % 1012,8 hPa 0,0 mm 2,1 km/h (1 Bft) O 94 ° 0 min 0,000 mm 1,1 UV-I 128 W/m² 16,1 °C 17,6 °C 4,8 km/h (1 Bft)
09.07.2017 10:29 17,6 °C 17,6 °C 91 % 1012,7 hPa 0,0 mm 3,8 km/h (1 Bft) O 82 ° 0 min 0,000 mm 1,1 UV-I 132 W/m² 16,1 °C 17,6 °C 9,7 km/h (2 Bft)
09.07.2017 10:30 17,6 °C 17,6 °C 91 % 1012,7 hPa 0,0 mm 5,4 km/h (1 Bft) O 85 ° 0 min 0,000 mm 1,1 UV-I 134 W/m² 16,1 °C 17,6 °C 6,4 km/h (2 Bft)
09.07.2017 10:31 17,5 °C 17,6 °C 91 % 1012,7 hPa 0,0 mm 2,4 km/h (1 Bft) O 83 ° 0 min 0,000 mm 1,2 UV-I 137 W/m² 16,0 °C 17,5 °C 4,8 km/h (1 Bft)
09.07.2017 10:32 17,6 °C 17,6 °C 91 % 1012,6 hPa 0,0 mm 4,8 km/h (1 Bft) O-NO 60 ° 0 min 0,000 mm 1,2 UV-I 139 W/m² 16,1 °C 17,6 °C 6,4 km/h (2 Bft)
09.07.2017 10:33 17,6 °C 17,6 °C 91 % 1012,6 hPa 0,0 mm 3,6 km/h (1 Bft) O-NO 67 ° 0 min 0,000 mm 1,2 UV-I 142 W/m² 16,1 °C 17,6 °C 6,4 km/h (2 Bft)
09.07.2017 10:34 17,6 °C 17,6 °C 91 % 1012,6 hPa 0,0 mm 3,4 km/h (1 Bft) O-NO 71 ° 0 min 0,000 mm 1,2 UV-I 146 W/m² 16,1 °C 17,6 °C 6,4 km/h (2 Bft)
09.07.2017 10:35 17,6 °C 17,6 °C 90 % 1012,6 hPa 0,0 mm 0,7 km/h (0 Bft) O-NO 71 ° 0 min 0,000 mm 1,3 UV-I 148 W/m² 15,9 °C 17,6 °C 1,6 km/h (1 Bft)
09.07.2017 10:36 17,7 °C 17,7 °C 90 % 1012,6 hPa 0,0 mm 0,7 km/h (0 Bft) N-NO 33 ° 0 min 0,000 mm 1,3 UV-I 149 W/m² 16,0 °C 17,7 °C 3,2 km/h (1 Bft)
09.07.2017 10:37 17,8 °C 17,8 °C 90 % 1012,6 hPa 0,0 mm 2,0 km/h (1 Bft) N-NO 32 ° 0 min 0,000 mm 1,3 UV-I 151 W/m² 16,1 °C 17,8 °C 3,2 km/h (1 Bft)
09.07.2017 10:38 17,9 °C 17,9 °C 91 % 1012,8 hPa 0,0 mm 2,7 km/h (1 Bft) N-NW 345 ° 0 min 0,000 mm 1,3 UV-I 153 W/m² 16,4 °C 17,9 °C 4,8 km/h (1 Bft)
09.07.2017 10:39 18,1 °C 18,1 °C 90 % 1012,6 hPa 0,0 mm 3,4 km/h (1 Bft) N-NO 14 ° 0 min 0,000 mm 1,3 UV-I 151 W/m² 16,4 °C 18,1 °C 4,8 km/h (1 Bft)
09.07.2017 10:40 18,2 °C 18,2 °C 89 % 1012,6 hPa 0,0 mm 4,8 km/h (1 Bft) SO 131 ° 0 min 0,000 mm 1,3 UV-I 142 W/m² 16,4 °C 18,2 °C 6,4 km/h (2 Bft)
09.07.2017 10:41 18,1 °C 18,2 °C 89 % 1012,4 hPa 0,0 mm 5,0 km/h (1 Bft) N 355 ° 0 min 0,000 mm 1,2 UV-I 139 W/m² 16,3 °C 18,1 °C 6,4 km/h (2 Bft)
09.07.2017 10:42 18,1 °C 18,1 °C 89 % 1012,3 hPa 0,0 mm 5,0 km/h (1 Bft) NO 53 ° 0 min 0,000 mm 1,2 UV-I 137 W/m² 16,3 °C 18,1 °C 6,4 km/h (2 Bft)
09.07.2017 10:43 18,1 °C 18,1 °C 89 % 1012,3 hPa 0,0 mm 4,2 km/h (1 Bft) O 100 ° 0 min 0,000 mm 1,2 UV-I 137 W/m² 16,3 °C 18,1 °C 6,4 km/h (2 Bft)
09.07.2017 10:44 18,0 °C 18,1 °C 89 % 1012,3 hPa 0,0 mm 2,5 km/h (1 Bft) O 93 ° 0 min 0,000 mm 1,2 UV-I 139 W/m² 16,2 °C 18,0 °C 4,8 km/h (1 Bft)
09.07.2017 10:45 18,1 °C 18,1 °C 89 % 1012,2 hPa 0,0 mm 4,5 km/h (1 Bft) NO 45 ° 0 min 0,000 mm 1,2 UV-I 141 W/m² 16,3 °C 18,1 °C 6,4 km/h (2 Bft)
09.07.2017 10:46 18,0 °C 18,1 °C 88 % 1012,0 hPa 0,0 mm 5,6 km/h (1 Bft) O-NO 65 ° 0 min 0,000 mm 1,2 UV-I 151 W/m² 16,0 °C 18,0 °C 6,4 km/h (2 Bft)
09.07.2017 10:47 18,1 °C 18,1 °C 89 % 1011,9 hPa 0,0 mm 7,8 km/h (2 Bft) NO 43 ° 0 min 0,000 mm 1,3 UV-I 156 W/m² 16,3 °C 18,1 °C 12,9 km/h (3 Bft)
09.07.2017 10:48 18,1 °C 18,1 °C 89 % 1011,8 hPa 0,0 mm 7,5 km/h (2 Bft) O-NO 71 ° 0 min 0,000 mm 1,4 UV-I 163 W/m² 16,3 °C 18,1 °C 12,9 km/h (3 Bft)
09.07.2017 10:49 18,1 °C 18,1 °C 88 % 1011,7 hPa 0,0 mm 5,2 km/h (1 Bft) NO 51 ° 0 min 0,000 mm 1,4 UV-I 171 W/m² 16,1 °C 18,1 °C 8,0 km/h (2 Bft)
09.07.2017 10:50 18,2 °C 18,2 °C 87 % 1011,6 hPa 0,0 mm 4,3 km/h (1 Bft) O-NO 65 ° 0 min 0,000 mm 1,5 UV-I 178 W/m² 16,0 °C 18,2 °C 6,4 km/h (2 Bft)
09.07.2017 10:51 18,4 °C 18,4 °C 86 % 1011,6 hPa 0,0 mm 2,6 km/h (1 Bft) N 9 ° 0 min 0,000 mm 1,6 UV-I 195 W/m² 16,0 °C 18,4 °C 4,8 km/h (1 Bft)
09.07.2017 10:52 18,5 °C 18,5 °C 85 % 1011,5 hPa 0,0 mm 5,0 km/h (1 Bft) O 84 ° 0 min 0,000 mm 1,7 UV-I 206 W/m² 15,9 °C 18,5 °C 9,7 km/h (2 Bft)
09.07.2017 10:53 18,6 °C 18,6 °C 87 % 1011,5 hPa 0,0 mm 6,4 km/h (2 Bft) S-SO 165 ° 0 min 0,000 mm 1,9 UV-I 218 W/m² 16,4 °C 18,6 °C 12,9 km/h (3 Bft)
09.07.2017 10:54 18,6 °C 18,6 °C 87 % 1011,5 hPa 0,0 mm 3,2 km/h (1 Bft) O-NO 74 ° 0 min 0,000 mm 2,0 UV-I 230 W/m² 16,4 °C 18,6 °C 8,0 km/h (2 Bft)
09.07.2017 10:55 18,7 °C 18,7 °C 88 % 1011,4 hPa 0,0 mm 5,2 km/h (1 Bft) NO 51 ° 0 min 0,000 mm 2,1 UV-I 241 W/m² 16,7 °C 18,7 °C 8,0 km/h (2 Bft)
09.07.2017 10:56 18,8 °C 18,8 °C 86 % 1011,5 hPa 0,0 mm 6,6 km/h (2 Bft) O-NO 76 ° 0 min 0,000 mm 2,2 UV-I 251 W/m² 16,4 °C 18,8 °C 8,0 km/h (2 Bft)
09.07.2017 10:57 18,8 °C 18,8 °C 86 % 1011,4 hPa 0,0 mm 1,5 km/h (1 Bft) O-NO 77 ° 0 min 0,000 mm 2,3 UV-I 274 W/m² 16,4 °C 18,8 °C 6,4 km/h (2 Bft)
09.07.2017 10:58 18,8 °C 18,8 °C 85 % 1011,4 hPa 0,0 mm 1,9 km/h (1 Bft) NO 53 ° 0 min 0,000 mm 2,5 UV-I 287 W/m² 16,2 °C 18,8 °C 3,2 km/h (1 Bft)
09.07.2017 10:59 19,1 °C 19,1 °C 84 % 1011,4 hPa 0,0 mm 4,5 km/h (1 Bft) S-SO 160 ° 1 min 0,000 mm 2,7 UV-I 297 W/m² 16,3 °C 19,1 °C 8,0 km/h (2 Bft)
09.07.2017 11:00 19,2 °C 19,2 °C 84 % 1011,4 hPa 0,0 mm 4,2 km/h (1 Bft) O-SO 105 ° 1 min 0,000 mm 2,8 UV-I 308 W/m² 16,4 °C 19,2 °C 9,7 km/h (2 Bft)
09.07.2017 11:01 19,3 °C 19,3 °C 84 % 1011,4 hPa 0,0 mm 2,0 km/h (1 Bft) NO 34 ° 1 min 0,076 mm 2,9 UV-I 318 W/m² 16,5 °C 19,3 °C 4,8 km/h (1 Bft)
09.07.2017 11:02 19,4 °C 19,4 °C 83 % 1011,4 hPa 0,0 mm 4,4 km/h (1 Bft) N-NO 30 ° 1 min 0,000 mm 2,9 UV-I 329 W/m² 16,4 °C 19,4 °C 6,4 km/h (2 Bft)
09.07.2017 11:03 19,6 °C 19,6 °C 82 % 1011,4 hPa 0,0 mm 2,5 km/h (1 Bft) N-NO 28 ° 1 min 0,000 mm 3,0 UV-I 353 W/m² 16,4 °C 19,6 °C 4,8 km/h (1 Bft)
09.07.2017 11:04 19,8 °C 19,8 °C 83 % 1011,4 hPa 0,0 mm 1,3 km/h (1 Bft) SO 143 ° 1 min 0,000 mm 3,2 UV-I 369 W/m² 16,8 °C 19,8 °C 3,2 km/h (1 Bft)
09.07.2017 11:05 20,0 °C 20,0 °C 85 % 1011,4 hPa 0,0 mm 2,5 km/h (1 Bft) NO 48 ° 1 min 0,000 mm 3,5 UV-I 397 W/m² 17,4 °C 20,0 °C 6,4 km/h (2 Bft)
09.07.2017 11:06 20,1 °C 20,1 °C 82 % 1011,4 hPa 0,0 mm 2,1 km/h (1 Bft) N-NO 18 ° 1 min 0,000 mm 3,8 UV-I 441 W/m² 16,9 °C 20,1 °C 6,4 km/h (2 Bft)
09.07.2017 11:07 20,3 °C 20,3 °C 81 % 1011,3 hPa 0,0 mm 4,0 km/h (1 Bft) N-NO 28 ° 1 min 0,000 mm 3,6 UV-I 418 W/m² 16,9 °C 20,3 °C 6,4 km/h (2 Bft)
09.07.2017 11:08 20,4 °C 20,4 °C 79 % 1011,3 hPa 0,0 mm 3,3 km/h (1 Bft) N-NW 347 ° 1 min 0,000 mm 4,1 UV-I 485 W/m² 16,6 °C 20,4 °C 6,4 km/h (2 Bft)
09.07.2017 11:09 20,6 °C 20,6 °C 82 % 1011,4 hPa 0,0 mm 3,6 km/h (1 Bft) N-NW 331 ° 1 min 0,000 mm 3,9 UV-I 422 W/m² 17,4 °C 20,6 °C 6,4 km/h (2 Bft)
09.07.2017 11:10 20,7 °C 20,7 °C 78 % 1011,4 hPa 0,0 mm 4,9 km/h (1 Bft) N 5 ° 1 min 0,000 mm 3,6 UV-I 420 W/m² 16,7 °C 20,7 °C 9,7 km/h (2 Bft)
09.07.2017 11:11 20,8 °C 20,8 °C 78 % 1011,4 hPa 0,0 mm 2,9 km/h (1 Bft) W-SW 248 ° 1 min 0,000 mm 3,4 UV-I 387 W/m² 16,8 °C 20,8 °C 6,4 km/h (2 Bft)
09.07.2017 11:12 20,8 °C 20,8 °C 79 % 1011,4 hPa 0,0 mm 2,8 km/h (1 Bft) N-NW 340 ° 1 min 0,000 mm 3,4 UV-I 387 W/m² 17,0 °C 20,8 °C 6,4 km/h (2 Bft)
09.07.2017 11:13 20,8 °C 20,8 °C 80 % 1011,4 hPa 0,0 mm 1,4 km/h (1 Bft) W 263 ° 1 min 0,000 mm 3,5 UV-I 374 W/m² 17,2 °C 20,8 °C 3,2 km/h (1 Bft)
09.07.2017 11:14 20,9 °C 20,9 °C 83 % 1011,3 hPa 0,0 mm 5,1 km/h (1 Bft) S-SO 154 ° 1 min 0,000 mm 3,5 UV-I 387 W/m² 17,9 °C 20,9 °C 11,3 km/h (2 Bft)
09.07.2017 11:15 20,9 °C 20,9 °C 81 % 1011,3 hPa 0,0 mm 4,3 km/h (1 Bft) N 5 ° 1 min 0,000 mm 3,8 UV-I 443 W/m² 17,5 °C 20,9 °C 8,0 km/h (2 Bft)
09.07.2017 11:16 21,1 °C 21,1 °C 79 % 1011,3 hPa 0,0 mm 2,4 km/h (1 Bft) N 355 ° 1 min 0,000 mm 4,3 UV-I 473 W/m² 17,3 °C 21,1 °C 6,4 km/h (2 Bft)
09.07.2017 11:17 21,1 °C 21,1 °C 79 % 1011,2 hPa 0,0 mm 3,4 km/h (1 Bft) NW 319 ° 1 min 0,000 mm 4,5 UV-I 473 W/m² 17,3 °C 21,1 °C 8,0 km/h (2 Bft)
09.07.2017 11:18 21,2 °C 21,2 °C 76 % 1011,2 hPa 0,0 mm 2,9 km/h (1 Bft) O 98 ° 1 min 0,000 mm 3,8 UV-I 473 W/m² 16,8 °C 21,2 °C 6,4 km/h (2 Bft)
09.07.2017 11:19 21,3 °C 21,3 °C 76 % 1011,2 hPa 0,0 mm 3,0 km/h (1 Bft) W-NW 298 ° 1 min 0,000 mm 3,5 UV-I 381 W/m² 16,9 °C 21,3 °C 6,4 km/h (2 Bft)
09.07.2017 11:20 21,4 °C 21,4 °C 76 % 1011,2 hPa 0,0 mm 3,6 km/h (1 Bft) NW 318 ° 1 min 0,000 mm 3,4 UV-I 369 W/m² 17,0 °C 21,4 °C 6,4 km/h (2 Bft)
09.07.2017 11:21 21,6 °C 21,6 °C 78 % 1011,3 hPa 0,0 mm 4,3 km/h (1 Bft) W-NW 293 ° 1 min 0,000 mm 3,4 UV-I 371 W/m² 17,6 °C 21,6 °C 4,8 km/h (1 Bft)
09.07.2017 11:22 21,6 °C 21,7 °C 78 % 1011,4 hPa 0,0 mm 1,9 km/h (1 Bft) W-NW 293 ° 1 min 0,000 mm 3,4 UV-I 367 W/m² 17,6 °C 21,6 °C 3,2 km/h (1 Bft)
09.07.2017 11:23 21,7 °C 21,7 °C 77 % 1011,3 hPa 0,0 mm 2,7 km/h (1 Bft) N-NO 33 ° 1 min 0,000 mm 3,4 UV-I 359 W/m² 17,5 °C 21,7 °C 4,8 km/h (1 Bft)
09.07.2017 11:24 21,8 °C 21,8 °C 77 % 1011,3 hPa 0,0 mm 1,9 km/h (1 Bft) O-SO 120 ° 1 min 0,000 mm 3,5 UV-I 390 W/m² 17,6 °C 21,8 °C 4,8 km/h (1 Bft)
09.07.2017 11:25 21,7 °C 21,8 °C 77 % 1011,3 hPa 0,0 mm 3,0 km/h (1 Bft) NO 55 ° 1 min 0,000 mm 4,0 UV-I 438 W/m² 17,5 °C 21,7 °C 4,8 km/h (1 Bft)
09.07.2017 11:26 21,7 °C 21,7 °C 73 % 1011,2 hPa 0,0 mm 2,4 km/h (1 Bft) NO 49 ° 1 min 0,000 mm 3,8 UV-I 418 W/m² 16,6 °C 21,7 °C 3,2 km/h (1 Bft)
09.07.2017 11:27 21,7 °C 21,7 °C 78 % 1011,2 hPa 0,0 mm 2,7 km/h (1 Bft) NO 49 ° 1 min 0,000 mm 3,9 UV-I 438 W/m² 17,7 °C 21,7 °C 4,8 km/h (1 Bft)
09.07.2017 11:28 21,8 °C 21,8 °C 75 % 1011,1 hPa 0,0 mm 4,0 km/h (1 Bft) O-NO 73 ° 1 min 0,000 mm 3,7 UV-I 408 W/m² 17,2 °C 21,8 °C 6,4 km/h (2 Bft)
09.07.2017 11:29 21,9 °C 21,9 °C 77 % 1011,1 hPa 0,0 mm 3,0 km/h (1 Bft) O-NO 64 ° 1 min 0,000 mm 3,9 UV-I 420 W/m² 17,7 °C 21,9 °C 6,4 km/h (2 Bft)
09.07.2017 11:30 22,0 °C 22,0 °C 74 % 1011,1 hPa 0,0 mm 1,7 km/h (1 Bft) N-NO 33 ° 1 min 0,000 mm 4,2 UV-I 420 W/m² 17,1 °C 22,0 °C 4,8 km/h (1 Bft)
09.07.2017 11:31 22,0 °C 22,1 °C 74 % 1011,1 hPa 0,0 mm 4,7 km/h (1 Bft) NO 40 ° 1 min 0,000 mm 5,4 UV-I 589 W/m² 17,1 °C 22,0 °C 9,7 km/h (2 Bft)
09.07.2017 11:32 22,1 °C 22,1 °C 72 % 1011,1 hPa 0,0 mm 3,6 km/h (1 Bft) NO 40 ° 1 min 0,000 mm 5,7 UV-I 589 W/m² 16,8 °C 22,1 °C 4,8 km/h (1 Bft)
09.07.2017 11:33 22,3 °C 22,3 °C 73 % 1011,1 hPa 0,0 mm 4,6 km/h (1 Bft) O 88 ° 1 min 0,000 mm 4,4 UV-I 589 W/m² 17,2 °C 22,3 °C 8,0 km/h (2 Bft)
09.07.2017 11:34 22,4 °C 22,4 °C 70 % 1011,1 hPa 0,0 mm 3,8 km/h (1 Bft) N-NW 346 ° 1 min 0,000 mm 5,3 UV-I 589 W/m² 16,7 °C 22,4 °C 6,4 km/h (2 Bft)
09.07.2017 11:35 22,6 °C 22,6 °C 68 % 1011,1 hPa 0,0 mm 3,9 km/h (1 Bft) O-NO 69 ° 1 min 0,000 mm 4,5 UV-I 589 W/m² 16,4 °C 22,6 °C 6,4 km/h (2 Bft)
09.07.2017 11:36 22,7 °C 22,7 °C 67 % 1011,2 hPa 0,0 mm 4,4 km/h (1 Bft) N-NO 30 ° 1 min 0,000 mm 4,4 UV-I 506 W/m² 16,2 °C 22,7 °C 8,0 km/h (2 Bft)
09.07.2017 11:37 22,7 °C 22,8 °C 72 % 1011,1 hPa 0,0 mm 2,9 km/h (1 Bft) N-NO 26 ° 1 min 0,000 mm 4,3 UV-I 490 W/m² 17,4 °C 22,7 °C 6,4 km/h (2 Bft)
09.07.2017 11:38 22,8 °C 22,8 °C 77 % 1011,1 hPa 0,0 mm 2,0 km/h (1 Bft) N-NO 26 ° 1 min 0,000 mm 4,3 UV-I 512 W/m² 18,5 °C 22,8 °C 4,8 km/h (1 Bft)
09.07.2017 11:39 22,8 °C 22,8 °C 75 % 1011,2 hPa 0,0 mm 2,5 km/h (1 Bft) N-NO 26 ° 1 min 0,000 mm 6,0 UV-I 512 W/m² 18,1 °C 22,8 °C 4,8 km/h (1 Bft)
09.07.2017 11:40 22,7 °C 22,8 °C 74 % 1011,1 hPa 0,0 mm 5,0 km/h (1 Bft) NO 34 ° 1 min 0,000 mm 6,1 UV-I 817 W/m² 17,8 °C 22,7 °C 8,0 km/h (2 Bft)
09.07.2017 11:41 22,8 °C 22,8 °C 73 % 1011,2 hPa 0,0 mm 1,9 km/h (1 Bft) O-NO 76 ° 1 min 0,000 mm 5,5 UV-I 817 W/m² 17,7 °C 22,8 °C 4,8 km/h (1 Bft)
09.07.2017 11:42 23,1 °C 23,1 °C 73 % 1011,2 hPa 0,0 mm 2,0 km/h (1 Bft) O 80 ° 1 min 0,000 mm 5,5 UV-I 675 W/m² 18,0 °C 23,1 °C 3,2 km/h (1 Bft)
09.07.2017 11:43 23,3 °C 23,3 °C 68 % 1011,2 hPa 0,0 mm 0,4 km/h (0 Bft) O 80 ° 1 min 0,000 mm 5,0 UV-I 610 W/m² 17,1 °C 23,3 °C 1,6 km/h (1 Bft)
09.07.2017 11:44 23,5 °C 23,5 °C 69 % 1011,2 hPa 0,0 mm 3,8 km/h (1 Bft) NW 308 ° 1 min 0,000 mm 4,4 UV-I 469 W/m² 17,5 °C 23,5 °C 6,4 km/h (2 Bft)
09.07.2017 11:45 23,6 °C 23,6 °C 65 % 1011,2 hPa 0,0 mm 4,0 km/h (1 Bft) N-NO 31 ° 1 min 0,000 mm 4,0 UV-I 436 W/m² 16,6 °C 23,6 °C 6,4 km/h (2 Bft)
09.07.2017 11:46 23,7 °C 23,7 °C 65 % 1011,2 hPa 0,0 mm 5,3 km/h (1 Bft) S-SO 161 ° 1 min 0,000 mm 4,2 UV-I 434 W/m² 16,7 °C 23,7 °C 8,0 km/h (2 Bft)
09.07.2017 11:47 23,7 °C 23,7 °C 70 % 1011,2 hPa 0,0 mm 6,0 km/h (2 Bft) SO 141 ° 1 min 0,000 mm 4,2 UV-I 424 W/m² 17,9 °C 23,7 °C 14,5 km/h (3 Bft)
09.07.2017 11:48 23,6 °C 23,7 °C 62 % 1011,2 hPa 0,0 mm 1,4 km/h (1 Bft) O 84 ° 1 min 0,000 mm 4,7 UV-I 508 W/m² 15,9 °C 23,6 °C 3,2 km/h (1 Bft)
09.07.2017 11:49 23,6 °C 23,6 °C 63 % 1011,1 hPa 0,0 mm 6,0 km/h (2 Bft) O-NO 67 ° 1 min 0,000 mm 5,4 UV-I 603 W/m² 16,1 °C 23,6 °C 9,7 km/h (2 Bft)
09.07.2017 11:50 23,7 °C 23,7 °C 67 % 1011,1 hPa 0,0 mm 8,7 km/h (2 Bft) O-NO 74 ° 1 min 0,000 mm 5,8 UV-I 670 W/m² 17,2 °C 23,7 °C 12,9 km/h (3 Bft)
09.07.2017 11:51 23,7 °C 23,7 °C 64 % 1011,2 hPa 0,0 mm 3,8 km/h (1 Bft) O 92 ° 1 min 0,000 mm 6,7 UV-I 795 W/m² 16,5 °C 23,7 °C 8,0 km/h (2 Bft)
09.07.2017 11:52 23,7 °C 23,7 °C 63 % 1011,2 hPa 0,0 mm 1,0 km/h (0 Bft) O-NO 59 ° 1 min 0,000 mm 6,8 UV-I 835 W/m² 16,2 °C 23,7 °C 3,2 km/h (1 Bft)
09.07.2017 11:53 23,8 °C 23,8 °C 63 % 1011,2 hPa 0,0 mm 1,7 km/h (1 Bft) N-NW 331 ° 1 min 0,000 mm 7,1 UV-I 909 W/m² 16,3 °C 23,8 °C 4,8 km/h (1 Bft)
09.07.2017 11:54 23,9 °C 23,9 °C 61 % 1011,2 hPa 0,0 mm 2,8 km/h (1 Bft) O 94 ° 1 min 0,000 mm 7,1 UV-I 865 W/m² 15,9 °C 23,9 °C 6,4 km/h (2 Bft)
09.07.2017 11:55 24,1 °C 24,1 °C 60 % 1011,2 hPa 0,0 mm 1,7 km/h (1 Bft) O 94 ° 1 min 0,000 mm 7,3 UV-I 925 W/m² 15,8 °C 24,1 °C 3,2 km/h (1 Bft)
09.07.2017 11:56 24,2 °C 24,2 °C 61 % 1011,2 hPa 0,0 mm 5,4 km/h (1 Bft) O-SO 109 ° 1 min 0,000 mm 7,1 UV-I 854 W/m² 16,2 °C 24,2 °C 9,7 km/h (2 Bft)
09.07.2017 11:57 24,2 °C 24,2 °C 61 % 1011,2 hPa 0,0 mm 4,7 km/h (1 Bft) O-NO 76 ° 1 min 0,000 mm 6,8 UV-I 819 W/m² 16,2 °C 24,2 °C 8,0 km/h (2 Bft)
09.07.2017 11:58 24,3 °C 24,3 °C 60 % 1011,3 hPa 0,0 mm 4,4 km/h (1 Bft) O-NO 64 ° 1 min 0,000 mm 7,0 UV-I 853 W/m² 16,0 °C 24,3 °C 6,4 km/h (2 Bft)
09.07.2017 11:59 24,3 °C 24,3 °C 59 % 1011,2 hPa 0,0 mm 1,6 km/h (1 Bft) O-NO 59 ° 1 min 0,000 mm 7,2 UV-I 891 W/m² 15,8 °C 24,3 °C 3,2 km/h (1 Bft)
09.07.2017 12:00 24,4 °C 24,4 °C 59 % 1011,2 hPa 0,0 mm 1,7 km/h (1 Bft) O-NO 59 ° 1 min 0,330 mm 7,2 UV-I 891 W/m² 15,9 °C 24,4 °C 3,2 km/h (1 Bft)
09.07.2017 12:01 24,6 °C 24,6 °C 59 % 1011,2 hPa 0,0 mm 2,5 km/h (1 Bft) N-NO 33 ° 1 min 0,000 mm 7,3 UV-I 889 W/m² 16,0 °C 24,6 °C 3,2 km/h (1 Bft)
09.07.2017 12:02 24,7 °C 24,7 °C 59 % 1011,2 hPa 0,0 mm 2,5 km/h (1 Bft) NO 50 ° 1 min 0,000 mm 7,4 UV-I 914 W/m² 16,1 °C 24,7 °C 4,8 km/h (1 Bft)
09.07.2017 12:03 24,8 °C 24,8 °C 60 % 1011,2 hPa 0,0 mm 4,8 km/h (1 Bft) O-NO 72 ° 1 min 0,000 mm 7,4 UV-I 923 W/m² 16,5 °C 24,8 °C 6,4 km/h (2 Bft)
09.07.2017 12:04 24,9 °C 24,9 °C 62 % 1011,2 hPa 0,0 mm 1,8 km/h (1 Bft) O 90 ° 1 min 0,000 mm 7,4 UV-I 877 W/m² 17,1 °C 24,9 °C 4,8 km/h (1 Bft)
09.07.2017 12:05 24,9 °C 24,9 °C 63 % 1011,2 hPa 0,0 mm 1,3 km/h (1 Bft) O-SO 107 ° 1 min 0,000 mm 7,4 UV-I 900 W/m² 17,4 °C 24,9 °C 3,2 km/h (1 Bft)
09.07.2017 12:06 25,0 °C 25,0 °C 63 % 1011,2 hPa 0,0 mm 3,2 km/h (1 Bft) O-SO 109 ° 1 min 0,000 mm 7,4 UV-I 900 W/m² 17,5 °C 25,0 °C 9,7 km/h (2 Bft)
09.07.2017 12:07 25,1 °C 25,1 °C 58 % 1011,2 hPa 0,0 mm 2,0 km/h (1 Bft) O-SO 109 ° 1 min 0,000 mm 7,4 UV-I 893 W/m² 16,2 °C 25,1 °C 3,2 km/h (1 Bft)
09.07.2017 12:08 25,1 °C 25,1 °C 61 % 1011,2 hPa 0,0 mm 3,2 km/h (1 Bft) O 82 ° 1 min 0,000 mm 7,4 UV-I 874 W/m² 17,0 °C 25,1 °C 4,8 km/h (1 Bft)
09.07.2017 12:09 25,2 °C 25,2 °C 59 % 1011,2 hPa 0,0 mm 3,6 km/h (1 Bft) O-SO 111 ° 1 min 0,000 mm 7,3 UV-I 879 W/m² 16,6 °C 25,2 °C 6,4 km/h (2 Bft)
09.07.2017 12:10 25,1 °C 25,2 °C 55 % 1011,2 hPa 0,0 mm 4,6 km/h (1 Bft) SO 143 ° 1 min 0,000 mm 7,3 UV-I 886 W/m² 15,4 °C 25,1 °C 8,0 km/h (2 Bft)
09.07.2017 12:11 25,1 °C 25,1 °C 54 % 1011,2 hPa 0,0 mm 0,3 km/h (0 Bft) SO 143 ° 1 min 0,000 mm 7,3 UV-I 891 W/m² 15,1 °C 25,1 °C 3,2 km/h (1 Bft)
09.07.2017 12:12 25,1 °C 25,1 °C 54 % 1011,2 hPa 0,0 mm 0,0 km/h (0 Bft) SO 143 ° 1 min 0,000 mm 7,2 UV-I 860 W/m² 15,1 °C 25,1 °C 0,0 km/h (0 Bft)
09.07.2017 12:13 25,2 °C 25,2 °C 56 % 1011,1 hPa 0,0 mm 0,1 km/h (0 Bft) SO 143 ° 1 min 0,000 mm 7,2 UV-I 805 W/m² 15,8 °C 25,2 °C 1,6 km/h (1 Bft)
09.07.2017 12:14 25,2 °C 25,2 °C 56 % 1011,1 hPa 0,0 mm 1,3 km/h (1 Bft) SO 133 ° 1 min 0,000 mm 6,7 UV-I 805 W/m² 15,8 °C 25,2 °C 4,8 km/h (1 Bft)
09.07.2017 12:15 25,2 °C 25,2 °C 53 % 1011,1 hPa 0,0 mm 1,1 km/h (1 Bft) SO 134 ° 1 min 0,000 mm 4,5 UV-I 805 W/m² 14,9 °C 25,2 °C 4,8 km/h (1 Bft)
09.07.2017 12:16 25,2 °C 25,2 °C 54 % 1011,1 hPa 0,0 mm 0,6 km/h (0 Bft) SO 134 ° 1 min 0,000 mm 4,4 UV-I 385 W/m² 15,2 °C 25,2 °C 1,6 km/h (1 Bft)
09.07.2017 12:17 25,2 °C 25,2 °C 61 % 1011,2 hPa 0,0 mm 1,3 km/h (1 Bft) S 180 ° 1 min 0,000 mm 5,3 UV-I 432 W/m² 17,1 °C 25,2 °C 6,4 km/h (2 Bft)
09.07.2017 12:18 25,2 °C 25,2 °C 55 % 1011,2 hPa 0,0 mm 2,3 km/h (1 Bft) SO 126 ° 1 min 0,000 mm 6,3 UV-I 432 W/m² 15,5 °C 25,2 °C 6,4 km/h (2 Bft)
09.07.2017 12:19 25,2 °C 25,2 °C 63 % 1011,1 hPa 0,0 mm 3,2 km/h (1 Bft) O 89 ° 1 min 0,000 mm 7,7 UV-I 877 W/m² 17,6 °C 25,2 °C 6,4 km/h (2 Bft)
09.07.2017 12:20 25,2 °C 25,2 °C 57 % 1011,1 hPa 0,0 mm 1,5 km/h (1 Bft) O 89 ° 1 min 0,000 mm 7,6 UV-I 877 W/m² 16,1 °C 25,2 °C 3,2 km/h (1 Bft)
09.07.2017 12:21 25,3 °C 25,3 °C 58 % 1011,1 hPa 0,0 mm 2,1 km/h (1 Bft) NO 55 ° 1 min 0,000 mm 6,2 UV-I 877 W/m² 16,4 °C 25,3 °C 4,8 km/h (1 Bft)
09.07.2017 12:22 25,5 °C 25,5 °C 56 % 1011,1 hPa 0,0 mm 2,5 km/h (1 Bft) NO 55 ° 1 min 0,000 mm 5,4 UV-I 877 W/m² 16,1 °C 25,5 °C 4,8 km/h (1 Bft)
09.07.2017 12:23 25,6 °C 25,6 °C 55 % 1011,1 hPa 0,0 mm 2,5 km/h (1 Bft) NO 55 ° 1 min 0,000 mm 6,6 UV-I 877 W/m² 15,9 °C 25,6 °C 4,8 km/h (1 Bft)
09.07.2017 12:24 25,6 °C 25,6 °C 54 % 1011,1 hPa 0,0 mm 1,7 km/h (1 Bft) NO 55 ° 1 min 0,000 mm 7,4 UV-I 877 W/m² 15,6 °C 25,6 °C 3,2 km/h (1 Bft)
09.07.2017 12:25 25,8 °C 25,8 °C 56 % 1011,1 hPa 0,0 mm 1,7 km/h (1 Bft) NW 321 ° 1 min 0,000 mm 4,8 UV-I 877 W/m² 16,3 °C 25,8 °C 3,2 km/h (1 Bft)
09.07.2017 12:26 25,9 °C 25,9 °C 60 % 1011,1 hPa 0,0 mm 3,7 km/h (1 Bft) NW 318 ° 1 min 0,000 mm 7,7 UV-I 877 W/m² 17,5 °C 25,9 °C 4,8 km/h (1 Bft)
09.07.2017 12:27 26,0 °C 26,0 °C 58 % 1011,1 hPa 0,0 mm 2,3 km/h (1 Bft) NW 319 ° 1 min 0,000 mm 8,1 UV-I 789 W/m² 17,1 °C 26,0 °C 4,8 km/h (1 Bft)
09.07.2017 12:28 26,0 °C 26,1 °C 51 % 1011,1 hPa 0,0 mm 2,6 km/h (1 Bft) NW 319 ° 1 min 0,000 mm 6,1 UV-I 700 W/m² 15,1 °C 26,0 °C 4,8 km/h (1 Bft)
09.07.2017 12:29 25,8 °C 26,0 °C 51 % 1011,1 hPa 0,0 mm 1,3 km/h (1 Bft) W 266 ° 1 min 0,000 mm 7,9 UV-I 700 W/m² 14,9 °C 25,8 °C 3,2 km/h (1 Bft)
09.07.2017 12:30 25,8 °C 25,8 °C 55 % 1011,1 hPa 0,0 mm 0,1 km/h (0 Bft) W 267 ° 1 min 0,000 mm 7,5 UV-I 953 W/m² 16,1 °C 25,8 °C 1,6 km/h (1 Bft)
09.07.2017 12:31 25,9 °C 25,9 °C 59 % 1011,1 hPa 0,0 mm 0,2 km/h (0 Bft) W 267 ° 1 min 0,000 mm 7,7 UV-I 942 W/m² 17,3 °C 25,9 °C 1,6 km/h (1 Bft)
09.07.2017 12:32 26,1 °C 26,1 °C 61 % 1011,1 hPa 0,0 mm 2,7 km/h (1 Bft) W-NW 283 ° 1 min 0,000 mm 7,5 UV-I 990 W/m² 18,0 °C 26,1 °C 4,8 km/h (1 Bft)
09.07.2017 12:33 26,3 °C 26,3 °C 60 % 1011,1 hPa 0,0 mm 2,2 km/h (1 Bft) W-NW 283 ° 1 min 0,000 mm 7,5 UV-I 990 W/m² 17,9 °C 26,3 °C 3,2 km/h (1 Bft)
09.07.2017 12:34 26,3 °C 26,3 °C 56 % 1011,1 hPa 0,0 mm 1,1 km/h (1 Bft) W-NW 283 ° 1 min 0,000 mm 8,3 UV-I 990 W/m² 16,8 °C 26,3 °C 3,2 km/h (1 Bft)
09.07.2017 12:35 26,4 °C 26,4 °C 52 % 1011,1 hPa 0,0 mm 1,6 km/h (1 Bft) W-NW 283 ° 1 min 0,000 mm 8,1 UV-I 993 W/m² 15,7 °C 26,4 °C 3,2 km/h (1 Bft)
09.07.2017 12:36 26,5 °C 26,5 °C 55 % 1011,0 hPa 0,0 mm 3,0 km/h (1 Bft) W-NW 300 ° 1 min 0,000 mm 8,3 UV-I 1023 W/m² 16,7 °C 26,5 °C 4,8 km/h (1 Bft)
09.07.2017 12:37 26,6 °C 26,6 °C 54 % 1011,0 hPa 0,0 mm 3,2 km/h (1 Bft) W-NW 300 ° 1 min 0,000 mm 8,6 UV-I 988 W/m² 16,5 °C 26,6 °C 4,8 km/h (1 Bft)
09.07.2017 12:38 26,6 °C 26,6 °C 54 % 1011,1 hPa 0,0 mm 2,7 km/h (1 Bft) NW 319 ° 1 min 0,000 mm 7,0 UV-I 988 W/m² 16,5 °C 26,6 °C 4,8 km/h (1 Bft)
09.07.2017 12:39 26,6 °C 26,7 °C 50 % 1011,1 hPa 0,0 mm 0,8 km/h (0 Bft) NW 319 ° 1 min 0,000 mm 6,8 UV-I 988 W/m² 15,3 °C 26,6 °C 3,2 km/h (1 Bft)
09.07.2017 12:40 26,6 °C 26,6 °C 52 % 1011,1 hPa 0,0 mm 3,6 km/h (1 Bft) W-NW 302 ° 1 min 0,000 mm 7,2 UV-I 988 W/m² 15,9 °C 26,6 °C 6,4 km/h (2 Bft)
09.07.2017 12:41 26,5 °C 26,6 °C 51 % 1011,1 hPa 0,0 mm 2,7 km/h (1 Bft) W-NW 298 ° 1 min 0,000 mm 7,3 UV-I 724 W/m² 15,5 °C 26,5 °C 4,8 km/h (1 Bft)
09.07.2017 12:42 26,3 °C 26,5 °C 49 % 1011,1 hPa 0,0 mm 2,2 km/h (1 Bft) W-NW 298 ° 1 min 0,000 mm 8,1 UV-I 724 W/m² 14,7 °C 26,3 °C 4,8 km/h (1 Bft)
09.07.2017 12:43 26,3 °C 26,3 °C 53 % 1011,0 hPa 0,0 mm 0,8 km/h (0 Bft) W-NW 298 ° 1 min 0,000 mm 7,2 UV-I 522 W/m² 15,9 °C 26,3 °C 3,2 km/h (1 Bft)
09.07.2017 12:44 26,2 °C 26,3 °C 51 % 1011,0 hPa 0,0 mm 1,1 km/h (1 Bft) W-NW 298 ° 1 min 0,000 mm 3,8 UV-I 522 W/m² 15,2 °C 26,2 °C 3,2 km/h (1 Bft)
09.07.2017 12:45 26,2 °C 26,2 °C 53 % 1011,0 hPa 0,0 mm 1,6 km/h (1 Bft) W-NW 286 ° 1 min 0,000 mm 3,6 UV-I 522 W/m² 15,8 °C 26,2 °C 3,2 km/h (1 Bft)
09.07.2017 12:46 26,1 °C 26,2 °C 55 % 1011,0 hPa 0,0 mm 2,1 km/h (1 Bft) W-NW 286 ° 0 min 0,000 mm 3,3 UV-I 272 W/m² 16,3 °C 26,1 °C 3,2 km/h (1 Bft)
09.07.2017 12:47 25,9 °C 26,1 °C 60 % 1011,0 hPa 0,0 mm 0,1 km/h (0 Bft) W-NW 286 ° 0 min 0,000 mm 3,3 UV-I 267 W/m² 17,5 °C 25,9 °C 1,6 km/h (1 Bft)
09.07.2017 12:48 25,7 °C 25,9 °C 54 % 1011,0 hPa 0,0 mm 0,4 km/h (0 Bft) W-NW 302 ° 0 min 0,000 mm 3,3 UV-I 272 W/m² 15,7 °C 25,7 °C 1,6 km/h (1 Bft)
09.07.2017 12:49 25,4 °C 25,7 °C 56 % 1011,0 hPa 0,0 mm 2,3 km/h (1 Bft) N-NW 342 ° 0 min 0,000 mm 3,3 UV-I 278 W/m² 16,0 °C 25,4 °C 4,8 km/h (1 Bft)
09.07.2017 12:50 25,3 °C 25,4 °C 59 % 1011,0 hPa 0,0 mm 0,2 km/h (0 Bft) N-NW 342 ° 0 min 0,000 mm 3,3 UV-I 281 W/m² 16,7 °C 25,3 °C 1,6 km/h (1 Bft)
09.07.2017 12:51 25,2 °C 25,3 °C 54 % 1011,0 hPa 0,0 mm 0,5 km/h (0 Bft) N-NW 342 ° 0 min 0,000 mm 3,2 UV-I 278 W/m² 15,2 °C 25,2 °C 1,6 km/h (1 Bft)
09.07.2017 12:52 25,1 °C 25,2 °C 61 % 1011,0 hPa 0,0 mm 0,1 km/h (0 Bft) N-NW 342 ° 0 min 0,000 mm 3,1 UV-I 272 W/m² 17,0 °C 25,1 °C 1,6 km/h (1 Bft)
09.07.2017 12:53 25,1 °C 25,1 °C 64 % 1011,0 hPa 0,0 mm 0,0 km/h (0 Bft) N-NW 342 ° 0 min 0,000 mm 3,1 UV-I 264 W/m² 17,8 °C 25,1 °C 0,0 km/h (0 Bft)
09.07.2017 12:54 25,1 °C 25,1 °C 57 % 1011,0 hPa 0,0 mm 0,0 km/h (0 Bft) N-NW 342 ° 0 min 0,000 mm 3,0 UV-I 246 W/m² 16,0 °C 25,1 °C 0,0 km/h (0 Bft)
09.07.2017 12:55 25,1 °C 25,1 °C 65 % 1011,0 hPa 0,0 mm 0,0 km/h (0 Bft) N-NW 342 ° 0 min 0,000 mm 2,8 UV-I 239 W/m² 18,0 °C 25,1 °C 0,0 km/h (0 Bft)
09.07.2017 12:56 24,9 °C 25,1 °C 68 % 1011,0 hPa 0,0 mm 2,6 km/h (1 Bft) NO 46 ° 0 min 0,000 mm 2,7 UV-I 232 W/m² 18,6 °C 24,9 °C 4,8 km/h (1 Bft)
09.07.2017 12:57 24,7 °C 24,9 °C 64 % 1011,0 hPa 0,0 mm 2,1 km/h (1 Bft) NO 46 ° 0 min 0,000 mm 2,6 UV-I 225 W/m² 17,4 °C 24,7 °C 3,2 km/h (1 Bft)
09.07.2017 12:58 24,5 °C 24,7 °C 60 % 1011,0 hPa 0,0 mm 0,2 km/h (0 Bft) NO 46 ° 0 min 0,000 mm 2,5 UV-I 221 W/m² 16,2 °C 24,5 °C 1,6 km/h (1 Bft)
09.07.2017 12:59 24,3 °C 24,5 °C 63 % 1011,0 hPa 0,0 mm 0,0 km/h (0 Bft) NO 46 ° 0 min 0,000 mm 2,5 UV-I 218 W/m² 16,8 °C 24,3 °C 0,0 km/h (0 Bft)
09.07.2017 13:00 24,3 °C 24,4 °C 62 % 1010,9 hPa 0,0 mm 0,0 km/h (0 Bft) NO 46 ° 0 min 0,432 mm 2,5 UV-I 216 W/m² 16,5 °C 24,3 °C 0,0 km/h (0 Bft)
09.07.2017 13:01 24,3 °C 24,3 °C 64 % 1010,9 hPa 0,0 mm 0,0 km/h (0 Bft) NO 46 ° 0 min 0,000 mm 2,4 UV-I 218 W/m² 17,0 °C 24,3 °C 0,0 km/h (0 Bft)
09.07.2017 13:02 24,2 °C 24,3 °C 64 % 1011,0 hPa 0,0 mm 0,7 km/h (0 Bft) NO 46 ° 0 min 0,000 mm 2,5 UV-I 221 W/m² 16,9 °C 24,2 °C 1,6 km/h (1 Bft)
09.07.2017 13:03 24,1 °C 24,2 °C 61 % 1011,0 hPa 0,0 mm 1,1 km/h (1 Bft) NO 46 ° 0 min 0,000 mm 2,5 UV-I 227 W/m² 16,1 °C 24,1 °C 1,6 km/h (1 Bft)
09.07.2017 13:04 24,1 °C 24,1 °C 63 % 1011,0 hPa 0,0 mm 1,1 km/h (1 Bft) NO 46 ° 0 min 0,000 mm 2,6 UV-I 236 W/m² 16,6 °C 24,1 °C 3,2 km/h (1 Bft)
09.07.2017 13:05 24,1 °C 24,1 °C 64 % 1011,0 hPa 0,0 mm 0,0 km/h (0 Bft) NO 46 ° 0 min 0,000 mm 2,7 UV-I 243 W/m² 16,9 °C 24,1 °C 0,0 km/h (0 Bft)
09.07.2017 13:06 24,1 °C 24,1 °C 62 % 1011,0 hPa 0,0 mm 0,0 km/h (0 Bft) NO 46 ° 0 min 0,000 mm 2,8 UV-I 262 W/m² 16,4 °C 24,1 °C 0,0 km/h (0 Bft)
09.07.2017 13:07 24,1 °C 24,1 °C 65 % 1011,0 hPa 0,0 mm 0,0 km/h (0 Bft) NO 46 ° 0 min 0,000 mm 2,9 UV-I 271 W/m² 17,1 °C 24,1 °C 0,0 km/h (0 Bft)
09.07.2017 13:08 24,1 °C 24,2 °C 65 % 1011,0 hPa 0,0 mm 0,0 km/h (0 Bft) NO 46 ° 0 min 0,000 mm 3,0 UV-I 278 W/m² 17,1 °C 24,1 °C 0,0 km/h (0 Bft)
09.07.2017 13:09 24,1 °C 24,2 °C 70 % 1011,0 hPa 0,0 mm 0,0 km/h (0 Bft) NO 46 ° 0 min 0,000 mm 3,0 UV-I 281 W/m² 18,3 °C 24,1 °C 0,0 km/h (0 Bft)
09.07.2017 13:10 24,2 °C 24,2 °C 64 % 1011,0 hPa 0,0 mm 0,0 km/h (0 Bft) NO 46 ° 0 min 0,000 mm 3,0 UV-I 279 W/m² 16,9 °C 24,2 °C 0,0 km/h (0 Bft)
09.07.2017 13:11 24,1 °C 24,2 °C 62 % 1011,0 hPa 0,0 mm 0,0 km/h (0 Bft) NO 46 ° 0 min 0,000 mm 3,0 UV-I 283 W/m² 16,4 °C 24,1 °C 0,0 km/h (0 Bft)
09.07.2017 13:12 24,2 °C 24,2 °C 66 % 1010,9 hPa 0,0 mm 0,4 km/h (0 Bft) NO 46 ° 0 min 0,000 mm 2,9 UV-I 264 W/m² 17,4 °C 24,2 °C 1,6 km/h (1 Bft)
09.07.2017 13:13 24,2 °C 24,2 °C 61 % 1010,9 hPa 0,0 mm 1,2 km/h (1 Bft) NO 46 ° 0 min 0,000 mm 2,7 UV-I 258 W/m² 16,2 °C 24,2 °C 3,2 km/h (1 Bft)
09.07.2017 13:14 24,3 °C 24,3 °C 61 % 1011,0 hPa 0,0 mm 0,1 km/h (0 Bft) NO 46 ° 0 min 0,000 mm 2,6 UV-I 251 W/m² 16,3 °C 24,3 °C 1,6 km/h (1 Bft)
09.07.2017 13:15 24,3 °C 24,3 °C 61 % 1010,9 hPa 0,0 mm 0,0 km/h (0 Bft) NO 46 ° 0 min 0,000 mm 2,6 UV-I 246 W/m² 16,3 °C 24,3 °C 0,0 km/h (0 Bft)
09.07.2017 13:16 24,3 °C 24,3 °C 60 % 1010,9 hPa 0,0 mm 0,0 km/h (0 Bft) NO 46 ° 0 min 0,000 mm 2,5 UV-I 241 W/m² 16,0 °C 24,3 °C 0,0 km/h (0 Bft)
09.07.2017 13:17 24,3 °C 24,3 °C 65 % 1010,9 hPa 0,0 mm 0,0 km/h (0 Bft) NO 46 ° 0 min 0,000 mm 2,4 UV-I 237 W/m² 17,3 °C 24,3 °C 0,0 km/h (0 Bft)
09.07.2017 13:18 24,2 °C 24,3 °C 66 % 1010,9 hPa 0,0 mm 0,0 km/h (0 Bft) NO 46 ° 0 min 0,000 mm 2,4 UV-I 229 W/m² 17,4 °C 24,2 °C 0,0 km/h (0 Bft)
09.07.2017 13:19 24,2 °C 24,2 °C 65 % 1011,0 hPa 0,0 mm 0,0 km/h (0 Bft) NO 46 ° 0 min 0,000 mm 2,2 UV-I 223 W/m² 17,2 °C 24,2 °C 0,0 km/h (0 Bft)
09.07.2017 13:20 24,3 °C 24,3 °C 63 % 1011,0 hPa 0,0 mm 0,0 km/h (0 Bft) NO 46 ° 0 min 0,000 mm 2,2 UV-I 216 W/m² 16,8 °C 24,3 °C 0,0 km/h (0 Bft)
09.07.2017 13:21 24,2 °C 24,3 °C 69 % 1011,0 hPa 0,0 mm 0,0 km/h (0 Bft) NO 46 ° 0 min 0,000 mm 2,1 UV-I 211 W/m² 18,1 °C 24,2 °C 0,0 km/h (0 Bft)
09.07.2017 13:22 24,2 °C 24,2 °C 70 % 1010,9 hPa 0,0 mm 0,0 km/h (0 Bft) NO 46 ° 0 min 0,000 mm 2,1 UV-I 206 W/m² 18,4 °C 24,2 °C 0,0 km/h (0 Bft)
09.07.2017 13:23 24,1 °C 24,2 °C 65 % 1010,9 hPa 0,0 mm 0,0 km/h (0 Bft) NO 46 ° 0 min 0,000 mm 2,0 UV-I 204 W/m² 17,1 °C 24,1 °C 0,0 km/h (0 Bft)
09.07.2017 13:24 24,1 °C 24,1 °C 68 % 1010,9 hPa 0,0 mm 0,0 km/h (0 Bft) NO 46 ° 0 min 0,000 mm 2,0 UV-I 206 W/m² 17,8 °C 24,1 °C 0,0 km/h (0 Bft)
09.07.2017 13:25 23,9 °C 24,1 °C 70 % 1010,8 hPa 0,0 mm 0,0 km/h (0 Bft) NO 46 ° 0 min 0,000 mm 2,1 UV-I 207 W/m² 18,1 °C 23,9 °C 0,0 km/h (0 Bft)
09.07.2017 13:26 23,9 °C 24,0 °C 76 % 1010,8 hPa 0,0 mm 0,1 km/h (0 Bft) NO 46 ° 0 min 0,000 mm 2,1 UV-I 213 W/m² 19,4 °C 23,9 °C 1,6 km/h (1 Bft)
09.07.2017 13:27 23,9 °C 24,0 °C 70 % 1010,9 hPa 0,0 mm 0,0 km/h (0 Bft) NO 46 ° 0 min 0,000 mm 2,2 UV-I 220 W/m² 18,1 °C 23,9 °C 0,0 km/h (0 Bft)
09.07.2017 13:28 23,9 °C 24,0 °C 67 % 1010,8 hPa 0,0 mm 0,0 km/h (0 Bft) NO 46 ° 0 min 0,000 mm 2,3 UV-I 232 W/m² 17,4 °C 23,9 °C 0,0 km/h (0 Bft)
09.07.2017 13:29 23,9 °C 24,0 °C 68 % 1010,9 hPa 0,0 mm 0,0 km/h (0 Bft) NO 46 ° 0 min 0,000 mm 2,4 UV-I 246 W/m² 17,6 °C 23,9 °C 0,0 km/h (0 Bft)
09.07.2017 13:30 23,9 °C 23,9 °C 72 % 1010,8 hPa 0,0 mm 0,0 km/h (0 Bft) NO 46 ° 0 min 0,000 mm 2,6 UV-I 278 W/m² 18,5 °C 23,9 °C 0,0 km/h (0 Bft)
09.07.2017 13:31 23,9 °C 23,9 °C 68 % 1010,8 hPa 0,0 mm 0,0 km/h (0 Bft) NO 46 ° 1 min 0,000 mm 2,9 UV-I 295 W/m² 17,6 °C 23,9 °C 0,0 km/h (0 Bft)
09.07.2017 13:32 23,9 °C 23,9 °C 71 % 1010,8 hPa 0,0 mm 0,0 km/h (0 Bft) NO 46 ° 1 min 0,000 mm 3,0 UV-I 315 W/m² 18,3 °C 23,9 °C 0,0 km/h (0 Bft)
09.07.2017 13:33 24,0 °C 24,0 °C 73 % 1010,8 hPa 0,0 mm 0,6 km/h (0 Bft) NO 46 ° 1 min 0,000 mm 3,2 UV-I 338 W/m² 18,9 °C 24,0 °C 3,2 km/h (1 Bft)
09.07.2017 13:34 24,0 °C 24,0 °C 69 % 1010,7 hPa 0,0 mm 0,5 km/h (0 Bft) NO 46 ° 1 min 0,000 mm 3,6 UV-I 373 W/m² 18,0 °C 24,0 °C 1,6 km/h (1 Bft)
09.07.2017 13:35 24,1 °C 24,1 °C 65 % 1010,7 hPa 0,0 mm 0,8 km/h (0 Bft) NO 46 ° 1 min 0,000 mm 3,9 UV-I 445 W/m² 17,1 °C 24,1 °C 1,6 km/h (1 Bft)
09.07.2017 13:36 24,2 °C 24,2 °C 67 % 1010,7 hPa 0,0 mm 1,5 km/h (1 Bft) NO 46 ° 1 min 0,000 mm 4,0 UV-I 429 W/m² 17,7 °C 24,2 °C 3,2 km/h (1 Bft)
09.07.2017 13:37 24,3 °C 24,3 °C 70 % 1010,7 hPa 0,0 mm 0,1 km/h (0 Bft) NO 46 ° 1 min 0,000 mm 4,1 UV-I 443 W/m² 18,5 °C 24,3 °C 1,6 km/h (1 Bft)
09.07.2017 13:38 24,4 °C 24,4 °C 65 % 1010,6 hPa 0,0 mm 0,0 km/h (0 Bft) NO 46 ° 1 min 0,000 mm 4,4 UV-I 466 W/m² 17,4 °C 24,4 °C 0,0 km/h (0 Bft)
09.07.2017 13:39 24,5 °C 24,5 °C 69 % 1010,6 hPa 0,0 mm 0,0 km/h (0 Bft) NO 46 ° 1 min 0,000 mm 4,8 UV-I 504 W/m² 18,4 °C 24,5 °C 0,0 km/h (0 Bft)
09.07.2017 13:40 24,7 °C 24,7 °C 69 % 1010,6 hPa 0,0 mm 0,3 km/h (0 Bft) NO 46 ° 1 min 0,000 mm 5,1 UV-I 564 W/m² 18,6 °C 24,7 °C 1,6 km/h (1 Bft)
09.07.2017 13:41 24,8 °C 24,8 °C 61 % 1010,6 hPa 0,0 mm 1,4 km/h (1 Bft) NO 46 ° 1 min 0,000 mm 4,5 UV-I 431 W/m² 16,8 °C 24,8 °C 3,2 km/h (1 Bft)
09.07.2017 13:42 25,0 °C 25,0 °C 63 % 1010,6 hPa 0,0 mm 0,0 km/h (0 Bft) NO 46 ° 1 min 0,000 mm 4,3 UV-I 431 W/m² 17,5 °C 25,0 °C 0,0 km/h (0 Bft)
09.07.2017 13:43 25,2 °C 25,2 °C 64 % 1010,6 hPa 0,0 mm 0,3 km/h (0 Bft) NO 46 ° 1 min 0,000 mm 4,1 UV-I 411 W/m² 17,9 °C 25,2 °C 1,6 km/h (1 Bft)
09.07.2017 13:44 25,3 °C 25,3 °C 65 % 1010,6 hPa 0,0 mm 0,0 km/h (0 Bft) NO 46 ° 1 min 0,000 mm 4,2 UV-I 422 W/m² 18,2 °C 25,3 °C 0,0 km/h (0 Bft)
09.07.2017 13:45 25,3 °C 25,3 °C 60 % 1010,5 hPa 0,0 mm 0,0 km/h (0 Bft) NO 46 ° 1 min 0,000 mm 4,3 UV-I 432 W/m² 17,0 °C 25,3 °C 0,0 km/h (0 Bft)
09.07.2017 13:46 25,3 °C 25,4 °C 58 % 1010,5 hPa 0,0 mm 0,8 km/h (0 Bft) NO 46 ° 1 min 0,000 mm 4,5 UV-I 452 W/m² 16,4 °C 25,3 °C 1,6 km/h (1 Bft)
09.07.2017 13:47 25,3 °C 25,3 °C 61 % 1010,5 hPa 0,0 mm 0,9 km/h (0 Bft) NO 46 ° 1 min 0,000 mm 4,6 UV-I 475 W/m² 17,2 °C 25,3 °C 1,6 km/h (1 Bft)
09.07.2017 13:48 25,3 °C 25,3 °C 58 % 1010,5 hPa 0,0 mm 0,7 km/h (0 Bft) NO 46 ° 1 min 0,000 mm 4,5 UV-I 462 W/m² 16,4 °C 25,3 °C 3,2 km/h (1 Bft)
09.07.2017 13:49 25,3 °C 25,3 °C 58 % 1010,5 hPa 0,0 mm 0,0 km/h (0 Bft) NO 46 ° 1 min 0,000 mm 4,5 UV-I 454 W/m² 16,4 °C 25,3 °C 0,0 km/h (0 Bft)
09.07.2017 13:50 25,3 °C 25,4 °C 58 % 1010,5 hPa 0,0 mm 0,0 km/h (0 Bft) NO 46 ° 1 min 0,000 mm 4,5 UV-I 448 W/m² 16,4 °C 25,3 °C 0,0 km/h (0 Bft)
09.07.2017 13:51 25,3 °C 25,4 °C 58 % 1010,5 hPa 0,0 mm 1,6 km/h (1 Bft) O 90 ° 1 min 0,000 mm 4,5 UV-I 445 W/m² 16,4 °C 25,3 °C 3,2 km/h (1 Bft)
09.07.2017 13:52 25,3 °C 25,3 °C 58 % 1010,6 hPa 0,0 mm 0,7 km/h (0 Bft) O 90 ° 1 min 0,000 mm 4,6 UV-I 452 W/m² 16,4 °C 25,3 °C 1,6 km/h (1 Bft)
09.07.2017 13:53 25,3 °C 25,3 °C 60 % 1010,6 hPa 0,0 mm 0,1 km/h (0 Bft) O 90 ° 1 min 0,000 mm 5,0 UV-I 541 W/m² 17,0 °C 25,3 °C 1,6 km/h (1 Bft)
09.07.2017 13:54 25,3 °C 25,3 °C 61 % 1010,5 hPa 0,0 mm 0,0 km/h (0 Bft) O 90 ° 1 min 0,000 mm 6,0 UV-I 580 W/m² 17,2 °C 25,3 °C 0,0 km/h (0 Bft)
09.07.2017 13:55 25,4 °C 25,4 °C 65 % 1010,6 hPa 0,0 mm 0,7 km/h (0 Bft) O-SO 109 ° 1 min 0,000 mm 5,6 UV-I 570 W/m² 18,3 °C 25,4 °C 3,2 km/h (1 Bft)
09.07.2017 13:56 25,5 °C 25,5 °C 61 % 1010,5 hPa 0,0 mm 0,9 km/h (0 Bft) O-SO 109 ° 1 min 0,000 mm 5,7 UV-I 608 W/m² 17,4 °C 25,5 °C 1,6 km/h (1 Bft)
09.07.2017 13:57 25,6 °C 25,6 °C 61 % 1010,5 hPa 0,0 mm 0,1 km/h (0 Bft) O-SO 109 ° 1 min 0,000 mm 5,3 UV-I 522 W/m² 17,5 °C 25,6 °C 1,6 km/h (1 Bft)
09.07.2017 13:58 25,6 °C 25,6 °C 62 % 1010,5 hPa 0,0 mm 0,0 km/h (0 Bft) O-SO 109 ° 1 min 0,000 mm 5,8 UV-I 608 W/m² 17,8 °C 25,6 °C 0,0 km/h (0 Bft)
09.07.2017 13:59 25,8 °C 25,8 °C 62 % 1010,5 hPa 0,0 mm 0,0 km/h (0 Bft) O-SO 109 ° 1 min 0,000 mm 6,4 UV-I 608 W/m² 18,0 °C 25,8 °C 0,0 km/h (0 Bft)
09.07.2017 14:00 25,8 °C 25,8 °C 62 % 1010,5 hPa 0,0 mm 0,3 km/h (0 Bft) O-NO 70 ° 1 min 0,000 mm 6,3 UV-I 608 W/m² 18,0 °C 25,8 °C 3,2 km/h (1 Bft)
09.07.2017 14:01 25,9 °C 25,9 °C 60 % 1010,5 hPa 0,0 mm 3,8 km/h (1 Bft) N-NO 13 ° 1 min 0,229 mm 6,2 UV-I 756 W/m² 17,5 °C 25,9 °C 4,8 km/h (1 Bft)
09.07.2017 14:02 26,1 °C 26,1 °C 60 % 1010,5 hPa 0,0 mm 4,6 km/h (1 Bft) O-NO 59 ° 1 min 0,000 mm 6,6 UV-I 744 W/m² 17,7 °C 26,1 °C 8,0 km/h (2 Bft)
09.07.2017 14:03 26,0 °C 26,1 °C 61 % 1010,5 hPa 0,0 mm 2,2 km/h (1 Bft) NO 49 ° 1 min 0,000 mm 6,2 UV-I 765 W/m² 17,9 °C 26,0 °C 4,8 km/h (1 Bft)
09.07.2017 14:04 25,9 °C 26,0 °C 61 % 1010,5 hPa 0,0 mm 1,1 km/h (1 Bft) NO 49 ° 1 min 0,000 mm 5,5 UV-I 765 W/m² 17,8 °C 25,9 °C 3,2 km/h (1 Bft)
09.07.2017 14:05 25,8 °C 25,9 °C 66 % 1010,5 hPa 0,0 mm 1,0 km/h (0 Bft) NO 49 ° 1 min 0,000 mm 5,6 UV-I 598 W/m² 19,0 °C 25,8 °C 3,2 km/h (1 Bft)
09.07.2017 14:06 25,8 °C 25,8 °C 63 % 1010,4 hPa 0,0 mm 4,7 km/h (1 Bft) O-NO 66 ° 1 min 0,000 mm 4,9 UV-I 501 W/m² 18,2 °C 25,8 °C 6,4 km/h (2 Bft)
09.07.2017 14:07 25,7 °C 25,8 °C 61 % 1010,4 hPa 0,0 mm 4,2 km/h (1 Bft) O 88 ° 1 min 0,000 mm 4,9 UV-I 517 W/m² 17,6 °C 25,7 °C 8,0 km/h (2 Bft)
09.07.2017 14:08 25,5 °C 25,7 °C 60 % 1010,4 hPa 0,0 mm 6,3 km/h (2 Bft) O 88 ° 1 min 0,000 mm 4,8 UV-I 499 W/m² 17,2 °C 25,5 °C 8,0 km/h (2 Bft)
09.07.2017 14:09 25,4 °C 25,5 °C 63 % 1010,4 hPa 0,0 mm 4,6 km/h (1 Bft) NO 38 ° 1 min 0,000 mm 5,9 UV-I 519 W/m² 17,8 °C 25,4 °C 6,4 km/h (2 Bft)
09.07.2017 14:10 25,4 °C 25,4 °C 60 % 1010,3 hPa 0,0 mm 3,5 km/h (1 Bft) NO 38 ° 1 min 0,000 mm 6,3 UV-I 636 W/m² 17,1 °C 25,4 °C 6,4 km/h (2 Bft)
09.07.2017 14:11 25,4 °C 25,4 °C 64 % 1010,3 hPa 0,0 mm 0,5 km/h (0 Bft) NO 44 ° 1 min 0,000 mm 5,6 UV-I 575 W/m² 18,1 °C 25,4 °C 3,2 km/h (1 Bft)
09.07.2017 14:12 25,5 °C 25,5 °C 61 % 1010,3 hPa 0,0 mm 2,4 km/h (1 Bft) N 360 ° 1 min 0,000 mm 5,6 UV-I 564 W/m² 17,4 °C 25,5 °C 6,4 km/h (2 Bft)
09.07.2017 14:13 25,6 °C 25,6 °C 62 % 1010,3 hPa 0,0 mm 2,5 km/h (1 Bft) N 360 ° 1 min 0,000 mm 7,3 UV-I 564 W/m² 17,8 °C 25,6 °C 4,8 km/h (1 Bft)
09.07.2017 14:14 25,8 °C 25,8 °C 60 % 1010,3 hPa 0,0 mm 4,6 km/h (1 Bft) N 360 ° 1 min 0,000 mm 7,5 UV-I 564 W/m² 17,4 °C 25,8 °C 6,4 km/h (2 Bft)
09.07.2017 14:15 25,9 °C 25,9 °C 60 % 1010,3 hPa 0,0 mm 4,1 km/h (1 Bft) N 355 ° 1 min 0,000 mm 6,5 UV-I 805 W/m² 17,5 °C 25,9 °C 6,4 km/h (2 Bft)
09.07.2017 14:16 26,1 °C 26,1 °C 60 % 1010,3 hPa 0,0 mm 3,9 km/h (1 Bft) NO 38 ° 1 min 0,000 mm 8,1 UV-I 1165 W/m² 17,7 °C 26,1 °C 6,4 km/h (2 Bft)
09.07.2017 14:17 26,2 °C 26,2 °C 58 % 1010,2 hPa 0,0 mm 2,3 km/h (1 Bft) NO 37 ° 1 min 0,000 mm 8,2 UV-I 1165 W/m² 17,3 °C 26,2 °C 4,8 km/h (1 Bft)
09.07.2017 14:18 26,2 °C 26,2 °C 56 % 1010,2 hPa 0,0 mm 2,1 km/h (1 Bft) N-NW 340 ° 1 min 0,000 mm 8,4 UV-I 1165 W/m² 16,7 °C 26,2 °C 4,8 km/h (1 Bft)
09.07.2017 14:19 26,3 °C 26,3 °C 56 % 1010,2 hPa 0,0 mm 3,9 km/h (1 Bft) N-NO 29 ° 1 min 0,000 mm 8,2 UV-I 1060 W/m² 16,8 °C 26,3 °C 8,0 km/h (2 Bft)
09.07.2017 14:20 26,3 °C 26,3 °C 55 % 1010,2 hPa 0,0 mm 5,6 km/h (1 Bft) O-NO 57 ° 1 min 0,000 mm 8,2 UV-I 1042 W/m² 16,5 °C 26,3 °C 8,0 km/h (2 Bft)
09.07.2017 14:21 26,3 °C 26,3 °C 56 % 1010,2 hPa 0,0 mm 2,1 km/h (1 Bft) O-NO 66 ° 1 min 0,000 mm 8,0 UV-I 1030 W/m² 16,8 °C 26,3 °C 4,8 km/h (1 Bft)
09.07.2017 14:22 26,3 °C 26,3 °C 60 % 1010,1 hPa 0,0 mm 4,4 km/h (1 Bft) O 93 ° 1 min 0,000 mm 8,0 UV-I 1027 W/m² 17,9 °C 26,3 °C 4,8 km/h (1 Bft)
09.07.2017 14:23 26,3 °C 26,3 °C 58 % 1010,2 hPa 0,0 mm 2,7 km/h (1 Bft) N 355 ° 1 min 0,000 mm 7,8 UV-I 1027 W/m² 17,4 °C 26,3 °C 4,8 km/h (1 Bft)
09.07.2017 14:24 26,4 °C 26,4 °C 58 % 1010,1 hPa 0,0 mm 3,6 km/h (1 Bft) N-NW 330 ° 1 min 0,000 mm 7,8 UV-I 991 W/m² 17,5 °C 26,4 °C 4,8 km/h (1 Bft)
09.07.2017 14:25 26,5 °C 26,5 °C 58 % 1010,1 hPa 0,0 mm 4,6 km/h (1 Bft) N-NO 19 ° 1 min 0,000 mm 7,7 UV-I 997 W/m² 17,5 °C 26,5 °C 6,4 km/h (2 Bft)
09.07.2017 14:26 26,6 °C 26,7 °C 55 % 1010,1 hPa 0,0 mm 3,9 km/h (1 Bft) N 355 ° 1 min 0,000 mm 6,9 UV-I 997 W/m² 16,8 °C 26,6 °C 4,8 km/h (1 Bft)
09.07.2017 14:27 26,8 °C 26,8 °C 60 % 1010,1 hPa 0,0 mm 3,6 km/h (1 Bft) NO 37 ° 1 min 0,000 mm 7,5 UV-I 930 W/m² 18,4 °C 26,8 °C 6,4 km/h (2 Bft)
09.07.2017 14:28 26,9 °C 26,9 °C 57 % 1010,0 hPa 0,0 mm 4,4 km/h (1 Bft) N-NW 336 ° 1 min 0,000 mm 7,4 UV-I 925 W/m² 17,6 °C 26,9 °C 6,4 km/h (2 Bft)
09.07.2017 14:29 27,1 °C 27,1 °C 57 % 1010,0 hPa 0,0 mm 4,5 km/h (1 Bft) N 10 ° 1 min 0,000 mm 7,6 UV-I 947 W/m² 17,8 °C 27,1 °C 6,4 km/h (2 Bft)
09.07.2017 14:30 26,9 °C 27,1 °C 55 % 1010,0 hPa 0,0 mm 2,4 km/h (1 Bft) O-NO 59 ° 1 min 0,000 mm 6,2 UV-I 947 W/m² 17,1 °C 26,9 °C 4,8 km/h (1 Bft)
09.07.2017 14:31 26,8 °C 26,9 °C 57 % 1010,0 hPa 0,0 mm 4,4 km/h (1 Bft) NO 53 ° 1 min 0,000 mm 5,1 UV-I 947 W/m² 17,6 °C 26,8 °C 6,4 km/h (2 Bft)
09.07.2017 14:32 26,7 °C 26,8 °C 53 % 1010,0 hPa 0,0 mm 1,2 km/h (1 Bft) O 95 ° 1 min 0,000 mm 6,0 UV-I 661 W/m² 16,3 °C 26,7 °C 3,2 km/h (1 Bft)
09.07.2017 14:33 26,6 °C 26,7 °C 55 % 1010,0 hPa 0,0 mm 2,5 km/h (1 Bft) N 360 ° 1 min 0,000 mm 7,6 UV-I 856 W/m² 16,8 °C 26,6 °C 6,4 km/h (2 Bft)
09.07.2017 14:34 26,7 °C 26,7 °C 56 % 1010,0 hPa 0,0 mm 5,4 km/h (1 Bft) N-NO 32 ° 1 min 0,000 mm 7,1 UV-I 773 W/m² 17,2 °C 26,7 °C 8,0 km/h (2 Bft)
09.07.2017 14:35 26,8 °C 26,8 °C 59 % 1010,0 hPa 0,0 mm 7,7 km/h (2 Bft) NO 37 ° 1 min 0,000 mm 6,8 UV-I 773 W/m² 18,1 °C 26,8 °C 11,3 km/h (2 Bft)
09.07.2017 14:36 27,0 °C 27,0 °C 58 % 1010,0 hPa 0,0 mm 6,1 km/h (2 Bft) O 84 ° 1 min 0,000 mm 7,6 UV-I 932 W/m² 18,0 °C 27,0 °C 8,0 km/h (2 Bft)
09.07.2017 14:37 27,0 °C 27,1 °C 60 % 1010,0 hPa 0,0 mm 7,2 km/h (2 Bft) O-NO 60 ° 1 min 0,000 mm 7,5 UV-I 942 W/m² 18,6 °C 27,0 °C 11,3 km/h (2 Bft)
09.07.2017 14:38 26,8 °C 27,0 °C 61 % 1010,0 hPa 0,0 mm 8,3 km/h (2 Bft) NO 44 ° 1 min 0,000 mm 7,2 UV-I 916 W/m² 18,6 °C 26,8 °C 12,9 km/h (3 Bft)
09.07.2017 14:39 26,6 °C 26,8 °C 62 % 1010,0 hPa 0,0 mm 6,3 km/h (2 Bft) O-NO 65 ° 1 min 0,000 mm 7,2 UV-I 916 W/m² 18,7 °C 26,6 °C 9,7 km/h (2 Bft)
09.07.2017 14:40 26,3 °C 26,6 °C 64 % 1010,0 hPa 0,0 mm 4,5 km/h (1 Bft) O-NO 67 ° 1 min 0,000 mm 7,4 UV-I 912 W/m² 18,9 °C 26,3 °C 6,4 km/h (2 Bft)
09.07.2017 14:41 26,2 °C 26,3 °C 65 % 1010,0 hPa 0,0 mm 1,3 km/h (1 Bft) O-NO 67 ° 1 min 0,000 mm 7,2 UV-I 905 W/m² 19,1 °C 26,2 °C 3,2 km/h (1 Bft)
09.07.2017 14:42 26,1 °C 26,2 °C 63 % 1010,0 hPa 0,0 mm 1,0 km/h (0 Bft) O-NO 67 ° 1 min 0,000 mm 6,5 UV-I 911 W/m² 18,5 °C 26,1 °C 3,2 km/h (1 Bft)
09.07.2017 14:43 26,1 °C 26,1 °C 63 % 1009,9 hPa 0,0 mm 4,4 km/h (1 Bft) O-NO 57 ° 1 min 0,000 mm 6,9 UV-I 895 W/m² 18,5 °C 26,1 °C 8,0 km/h (2 Bft)
09.07.2017 14:44 25,9 °C 26,1 °C 64 % 1009,9 hPa 0,0 mm 3,0 km/h (1 Bft) NO 53 ° 1 min 0,000 mm 7,1 UV-I 879 W/m² 18,6 °C 25,9 °C 4,8 km/h (1 Bft)
09.07.2017 14:45 26,0 °C 26,0 °C 66 % 1009,9 hPa 0,0 mm 0,1 km/h (0 Bft) NO 53 ° 1 min 0,000 mm 7,1 UV-I 875 W/m² 19,1 °C 26,0 °C 1,6 km/h (1 Bft)
09.07.2017 14:46 26,1 °C 26,1 °C 67 % 1009,8 hPa 0,0 mm 3,0 km/h (1 Bft) N-NO 32 ° 1 min 0,000 mm 7,0 UV-I 868 W/m² 19,5 °C 26,1 °C 6,4 km/h (2 Bft)
09.07.2017 14:47 26,1 °C 26,1 °C 67 % 1009,8 hPa 0,0 mm 2,2 km/h (1 Bft) O-NO 73 ° 1 min 0,000 mm 7,0 UV-I 867 W/m² 19,5 °C 26,1 °C 4,8 km/h (1 Bft)
09.07.2017 14:48 26,1 °C 26,1 °C 63 % 1009,8 hPa 0,0 mm 4,0 km/h (1 Bft) N-NO 28 ° 1 min 0,000 mm 6,9 UV-I 861 W/m² 18,5 °C 26,1 °C 6,4 km/h (2 Bft)
09.07.2017 14:49 26,1 °C 26,1 °C 67 % 1009,8 hPa 0,0 mm 4,7 km/h (1 Bft) N 5 ° 1 min 0,000 mm 6,9 UV-I 860 W/m² 19,5 °C 26,1 °C 6,4 km/h (2 Bft)
09.07.2017 14:50 26,2 °C 26,2 °C 67 % 1009,8 hPa 0,0 mm 5,7 km/h (1 Bft) O-NO 57 ° 1 min 0,000 mm 6,9 UV-I 858 W/m² 19,6 °C 26,2 °C 8,0 km/h (2 Bft)
09.07.2017 14:51 26,3 °C 26,3 °C 62 % 1009,8 hPa 0,0 mm 3,7 km/h (1 Bft) NO 56 ° 1 min 0,000 mm 6,9 UV-I 867 W/m² 18,4 °C 26,3 °C 6,4 km/h (2 Bft)
09.07.2017 14:52 26,3 °C 26,3 °C 63 % 1009,8 hPa 0,0 mm 2,7 km/h (1 Bft) O 83 ° 1 min 0,000 mm 6,9 UV-I 870 W/m² 18,7 °C 26,3 °C 6,4 km/h (2 Bft)
09.07.2017 14:53 26,2 °C 26,3 °C 64 % 1009,7 hPa 0,0 mm 1,9 km/h (1 Bft) O 82 ° 1 min 0,000 mm 6,9 UV-I 865 W/m² 18,8 °C 26,2 °C 4,8 km/h (1 Bft)
09.07.2017 14:54 26,2 °C 26,2 °C 63 % 1009,7 hPa 0,0 mm 1,9 km/h (1 Bft) O-NO 63 ° 1 min 0,000 mm 6,9 UV-I 863 W/m² 18,6 °C 26,2 °C 3,2 km/h (1 Bft)
09.07.2017 14:55 26,2 °C 26,2 °C 63 % 1009,7 hPa 0,0 mm 5,5 km/h (1 Bft) N 355 ° 1 min 0,000 mm 6,8 UV-I 856 W/m² 18,6 °C 26,2 °C 8,0 km/h (2 Bft)
09.07.2017 14:56 26,4 °C 26,4 °C 64 % 1009,7 hPa 0,0 mm 3,2 km/h (1 Bft) N-NO 24 ° 1 min 0,000 mm 6,8 UV-I 844 W/m² 19,0 °C 26,4 °C 6,4 km/h (2 Bft)
09.07.2017 14:57 26,4 °C 26,4 °C 63 % 1009,7 hPa 0,0 mm 5,1 km/h (1 Bft) N-NO 26 ° 1 min 0,000 mm 6,7 UV-I 837 W/m² 18,8 °C 26,4 °C 8,0 km/h (2 Bft)
09.07.2017 14:58 26,5 °C 26,5 °C 63 % 1009,7 hPa 0,0 mm 6,7 km/h (2 Bft) N 360 ° 1 min 0,000 mm 6,7 UV-I 838 W/m² 18,9 °C 26,5 °C 9,7 km/h (2 Bft)
09.07.2017 14:59 26,6 °C 26,6 °C 63 % 1009,7 hPa 0,0 mm 7,7 km/h (2 Bft) N-NO 24 ° 1 min 0,000 mm 6,4 UV-I 805 W/m² 19,0 °C 26,6 °C 11,3 km/h (2 Bft)
09.07.2017 15:00 26,7 °C 26,7 °C 60 % 1009,8 hPa 0,0 mm 9,0 km/h (2 Bft) N 360 ° 1 min 0,000 mm 6,4 UV-I 784 W/m² 18,3 °C 26,7 °C 12,9 km/h (3 Bft)
09.07.2017 15:01 26,7 °C 26,7 °C 61 % 1009,8 hPa 0,0 mm 3,2 km/h (1 Bft) N 355 ° 1 min 0,558 mm 6,2 UV-I 779 W/m² 18,5 °C 26,7 °C 6,4 km/h (2 Bft)
09.07.2017 15:02 26,6 °C 26,7 °C 59 % 1009,8 hPa 0,0 mm 0,0 km/h (0 Bft) N 355 ° 1 min 0,000 mm 5,9 UV-I 744 W/m² 17,9 °C 26,6 °C 0,0 km/h (0 Bft)
09.07.2017 15:03 26,5 °C 26,6 °C 59 % 1009,8 hPa 0,0 mm 0,9 km/h (0 Bft) N 355 ° 1 min 0,000 mm 5,9 UV-I 654 W/m² 17,8 °C 26,5 °C 3,2 km/h (1 Bft)
09.07.2017 15:04 26,4 °C 26,5 °C 60 % 1009,8 hPa 0,0 mm 3,1 km/h (1 Bft) N 355 ° 1 min 0,000 mm 5,4 UV-I 673 W/m² 18,0 °C 26,4 °C 4,8 km/h (1 Bft)
09.07.2017 15:05 26,5 °C 26,5 °C 60 % 1009,8 hPa 0,0 mm 2,3 km/h (1 Bft) N 355 ° 1 min 0,000 mm 5,3 UV-I 642 W/m² 18,1 °C 26,5 °C 3,2 km/h (1 Bft)
09.07.2017 15:06 26,4 °C 26,5 °C 59 % 1009,8 hPa 0,0 mm 1,6 km/h (1 Bft) N 355 ° 1 min 0,000 mm 5,2 UV-I 605 W/m² 17,7 °C 26,4 °C 3,2 km/h (1 Bft)
09.07.2017 15:07 26,4 °C 26,4 °C 59 % 1009,8 hPa 0,0 mm 1,9 km/h (1 Bft) N-NO 27 ° 1 min 0,000 mm 4,9 UV-I 554 W/m² 17,7 °C 26,4 °C 4,8 km/h (1 Bft)
09.07.2017 15:09 26,4 °C 26,4 °C 62 % 1009,7 hPa 0,0 mm 4,4 km/h (1 Bft) O 82 ° 2 min 0,000 mm 5,5 UV-I 628 W/m² 18,5 °C 26,4 °C 8,0 km/h (2 Bft)
09.07.2017 15:10 26,4 °C 26,4 °C 66 % 1009,7 hPa 0,0 mm 6,5 km/h (2 Bft) O 79 ° 1 min 0,000 mm 5,3 UV-I 605 W/m² 19,5 °C 26,4 °C 11,3 km/h (2 Bft)
09.07.2017 15:11 26,3 °C 26,4 °C 62 % 1009,8 hPa 0,0 mm 8,2 km/h (2 Bft) SO 142 ° 1 min 0,000 mm 5,3 UV-I 512 W/m² 18,4 °C 26,3 °C 11,3 km/h (2 Bft)
09.07.2017 15:12 26,2 °C 26,3 °C 59 % 1009,7 hPa 0,0 mm 5,2 km/h (1 Bft) O-SO 120 ° 1 min 0,000 mm 4,7 UV-I 512 W/m² 17,5 °C 26,2 °C 8,0 km/h (2 Bft)
09.07.2017 15:13 26,1 °C 26,2 °C 59 % 1009,7 hPa 0,0 mm 5,3 km/h (1 Bft) S-SO 157 ° 1 min 0,000 mm 4,7 UV-I 512 W/m² 17,4 °C 26,1 °C 9,7 km/h (2 Bft)
09.07.2017 15:14 26,1 °C 26,2 °C 60 % 1009,7 hPa 0,0 mm 7,2 km/h (2 Bft) S 184 ° 1 min 0,000 mm 4,5 UV-I 434 W/m² 17,7 °C 26,1 °C 9,7 km/h (2 Bft)
09.07.2017 15:15 26,1 °C 26,1 °C 59 % 1009,7 hPa 0,0 mm 6,9 km/h (2 Bft) S 169 ° 1 min 0,000 mm 4,4 UV-I 475 W/m² 17,4 °C 26,1 °C 9,7 km/h (2 Bft)
09.07.2017 15:16 26,1 °C 26,1 °C 61 % 1009,7 hPa 0,0 mm 5,9 km/h (2 Bft) SO 142 ° 1 min 0,000 mm 4,3 UV-I 512 W/m² 18,0 °C 26,1 °C 8,0 km/h (2 Bft)
09.07.2017 15:17 26,0 °C 26,1 °C 61 % 1009,8 hPa 0,0 mm 3,1 km/h (1 Bft) SO 139 ° 1 min 0,000 mm 4,3 UV-I 485 W/m² 17,9 °C 26,0 °C 4,8 km/h (1 Bft)
09.07.2017 15:18 25,9 °C 26,0 °C 60 % 1009,8 hPa 0,0 mm 4,1 km/h (1 Bft) SO 128 ° 1 min 0,000 mm 4,2 UV-I 454 W/m² 17,5 °C 25,9 °C 6,4 km/h (2 Bft)
09.07.2017 15:19 25,9 °C 25,9 °C 60 % 1009,7 hPa 0,0 mm 1,7 km/h (1 Bft) SO 127 ° 1 min 0,000 mm 3,7 UV-I 454 W/m² 17,5 °C 25,9 °C 4,8 km/h (1 Bft)
09.07.2017 15:20 25,9 °C 25,9 °C 61 % 1009,8 hPa 0,0 mm 4,0 km/h (1 Bft) NO 54 ° 1 min 0,000 mm 3,5 UV-I 325 W/m² 17,8 °C 25,9 °C 6,4 km/h (2 Bft)
09.07.2017 15:21 26,1 °C 26,1 °C 61 % 1009,8 hPa 0,0 mm 2,1 km/h (1 Bft) NO 54 ° 1 min 0,000 mm 3,7 UV-I 357 W/m² 18,0 °C 26,1 °C 3,2 km/h (1 Bft)
09.07.2017 15:22 26,1 °C 26,1 °C 59 % 1009,8 hPa 0,0 mm 2,7 km/h (1 Bft) N-NW 346 ° 1 min 0,000 mm 4,0 UV-I 454 W/m² 17,4 °C 26,1 °C 4,8 km/h (1 Bft)
09.07.2017 15:23 26,2 °C 26,2 °C 60 % 1009,8 hPa 0,0 mm 5,4 km/h (1 Bft) N-NW 337 ° 1 min 0,000 mm 3,6 UV-I 357 W/m² 17,8 °C 26,2 °C 6,4 km/h (2 Bft)
09.07.2017 15:24 26,2 °C 26,2 °C 61 % 1009,8 hPa 0,0 mm 5,9 km/h (2 Bft) N-NW 344 ° 1 min 0,000 mm 3,5 UV-I 446 W/m² 18,1 °C 26,2 °C 6,4 km/h (2 Bft)
09.07.2017 15:25 26,1 °C 26,2 °C 60 % 1009,8 hPa 0,0 mm 4,5 km/h (1 Bft) N-NW 337 ° 1 min 0,000 mm 3,2 UV-I 446 W/m² 17,7 °C 26,1 °C 4,8 km/h (1 Bft)
09.07.2017 15:26 26,1 °C 26,1 °C 59 % 1009,7 hPa 0,0 mm 2,6 km/h (1 Bft) N-NW 337 ° 1 min 0,000 mm 3,2 UV-I 446 W/m² 17,4 °C 26,1 °C 4,8 km/h (1 Bft)
09.07.2017 15:27 26,1 °C 26,1 °C 62 % 1009,8 hPa 0,0 mm 1,5 km/h (1 Bft) N-NW 337 ° 1 min 0,000 mm 3,1 UV-I 306 W/m² 18,2 °C 26,1 °C 3,2 km/h (1 Bft)
09.07.2017 15:28 26,0 °C 26,1 °C 62 % 1009,8 hPa 0,0 mm 1,4 km/h (1 Bft) N-NW 337 ° 1 min 0,000 mm 3,1 UV-I 304 W/m² 18,1 °C 26,0 °C 1,6 km/h (1 Bft)
09.07.2017 15:29 25,9 °C 26,0 °C 60 % 1009,8 hPa 0,0 mm 2,7 km/h (1 Bft) N-NW 337 ° 1 min 0,000 mm 3,0 UV-I 301 W/m² 17,5 °C 25,9 °C 4,8 km/h (1 Bft)
09.07.2017 15:30 26,0 °C 26,0 °C 64 % 1009,8 hPa 0,0 mm 0,3 km/h (0 Bft) N-NW 337 ° 1 min 0,000 mm 2,9 UV-I 297 W/m² 18,6 °C 26,0 °C 1,6 km/h (1 Bft)
09.07.2017 15:31 25,9 °C 26,0 °C 63 % 1009,8 hPa 0,0 mm 1,5 km/h (1 Bft) N-NW 337 ° 1 min 0,000 mm 2,9 UV-I 299 W/m² 18,3 °C 25,9 °C 3,2 km/h (1 Bft)
09.07.2017 15:32 26,1 °C 26,1 °C 65 % 1009,8 hPa 0,0 mm 2,1 km/h (1 Bft) N-NW 336 ° 0 min 0,000 mm 2,8 UV-I 276 W/m² 19,0 °C 26,1 °C 3,2 km/h (1 Bft)
09.07.2017 15:33 26,1 °C 26,1 °C 64 % 1009,8 hPa 0,0 mm 3,1 km/h (1 Bft) NW 320 ° 0 min 0,000 mm 2,8 UV-I 278 W/m² 18,7 °C 26,1 °C 4,8 km/h (1 Bft)
09.07.2017 15:34 26,1 °C 26,1 °C 63 % 1009,8 hPa 0,0 mm 3,7 km/h (1 Bft) NW 313 ° 0 min 0,000 mm 2,6 UV-I 260 W/m² 18,5 °C 26,1 °C 6,4 km/h (2 Bft)
09.07.2017 15:35 26,1 °C 26,1 °C 65 % 1009,8 hPa 0,0 mm 3,4 km/h (1 Bft) NW 314 ° 0 min 0,000 mm 2,5 UV-I 253 W/m² 19,0 °C 26,1 °C 4,8 km/h (1 Bft)
09.07.2017 15:36 26,1 °C 26,1 °C 65 % 1009,9 hPa 0,0 mm 4,7 km/h (1 Bft) NW 308 ° 0 min 0,000 mm 2,5 UV-I 250 W/m² 19,0 °C 26,1 °C 6,4 km/h (2 Bft)
09.07.2017 15:37 26,1 °C 26,1 °C 63 % 1009,9 hPa 0,0 mm 4,6 km/h (1 Bft) W-NW 283 ° 0 min 0,000 mm 2,5 UV-I 271 W/m² 18,5 °C 26,1 °C 6,4 km/h (2 Bft)
09.07.2017 15:38 25,9 °C 26,1 °C 65 % 1009,9 hPa 0,0 mm 4,8 km/h (1 Bft) N-NW 342 ° 0 min 0,000 mm 2,4 UV-I 250 W/m² 18,8 °C 25,9 °C 6,4 km/h (2 Bft)
09.07.2017 15:39 25,9 °C 25,9 °C 64 % 1009,9 hPa 0,0 mm 4,4 km/h (1 Bft) NW 312 ° 0 min 0,000 mm 2,4 UV-I 246 W/m² 18,6 °C 25,9 °C 6,4 km/h (2 Bft)
09.07.2017 15:40 25,8 °C 25,9 °C 62 % 1009,9 hPa 0,0 mm 2,5 km/h (1 Bft) NW 312 ° 0 min 0,000 mm 2,4 UV-I 241 W/m² 18,0 °C 25,8 °C 4,8 km/h (1 Bft)
09.07.2017 15:41 25,8 °C 25,8 °C 62 % 1009,9 hPa 0,0 mm 3,0 km/h (1 Bft) NW 321 ° 0 min 0,000 mm 2,3 UV-I 237 W/m² 18,0 °C 25,8 °C 4,8 km/h (1 Bft)
09.07.2017 15:42 25,8 °C 25,8 °C 64 % 1009,9 hPa 0,0 mm 5,4 km/h (1 Bft) W 274 ° 0 min 0,000 mm 2,2 UV-I 232 W/m² 18,5 °C 25,8 °C 6,4 km/h (2 Bft)
09.07.2017 15:43 25,8 °C 25,8 °C 62 % 1009,9 hPa 0,0 mm 3,8 km/h (1 Bft) NW 308 ° 0 min 0,000 mm 2,2 UV-I 229 W/m² 18,0 °C 25,8 °C 4,8 km/h (1 Bft)
09.07.2017 15:44 25,7 °C 25,8 °C 62 % 1009,9 hPa 0,0 mm 2,1 km/h (1 Bft) NW 308 ° 0 min 0,000 mm 2,2 UV-I 227 W/m² 17,9 °C 25,7 °C 3,2 km/h (1 Bft)
09.07.2017 15:45 25,7 °C 25,7 °C 65 % 1009,9 hPa 0,0 mm 2,6 km/h (1 Bft) NW 308 ° 0 min 0,000 mm 2,1 UV-I 220 W/m² 18,6 °C 25,7 °C 3,2 km/h (1 Bft)
09.07.2017 15:46 25,6 °C 25,7 °C 64 % 1009,9 hPa 0,0 mm 2,5 km/h (1 Bft) NW 308 ° 0 min 0,000 mm 2,0 UV-I 216 W/m² 18,3 °C 25,6 °C 4,8 km/h (1 Bft)
09.07.2017 15:47 25,6 °C 25,6 °C 64 % 1009,9 hPa 0,0 mm 0,3 km/h (0 Bft) NW 308 ° 0 min 0,000 mm 2,0 UV-I 214 W/m² 18,3 °C 25,6 °C 1,6 km/h (1 Bft)
09.07.2017 15:48 25,6 °C 25,6 °C 64 % 1010,0 hPa 0,0 mm 1,3 km/h (1 Bft) NW 308 ° 0 min 0,000 mm 2,0 UV-I 213 W/m² 18,3 °C 25,6 °C 3,2 km/h (1 Bft)
09.07.2017 15:49 25,6 °C 25,6 °C 63 % 1010,0 hPa 0,0 mm 1,9 km/h (1 Bft) NW 308 ° 0 min 0,000 mm 1,9 UV-I 211 W/m² 18,0 °C 25,6 °C 3,2 km/h (1 Bft)
09.07.2017 15:50 25,6 °C 25,6 °C 64 % 1010,0 hPa 0,0 mm 0,8 km/h (0 Bft) NW 308 ° 0 min 0,000 mm 1,9 UV-I 213 W/m² 18,3 °C 25,6 °C 3,2 km/h (1 Bft)
09.07.2017 15:51 25,5 °C 25,6 °C 64 % 1010,0 hPa 0,0 mm 1,7 km/h (1 Bft) NW 309 ° 0 min 0,000 mm 1,9 UV-I 213 W/m² 18,2 °C 25,5 °C 4,8 km/h (1 Bft)
09.07.2017 15:52 25,4 °C 25,5 °C 65 % 1010,0 hPa 0,0 mm 2,2 km/h (1 Bft) NW 309 ° 0 min 0,000 mm 1,9 UV-I 213 W/m² 18,3 °C 25,4 °C 3,2 km/h (1 Bft)
09.07.2017 15:53 25,4 °C 25,4 °C 64 % 1010,0 hPa 0,0 mm 1,7 km/h (1 Bft) NW 309 ° 0 min 0,000 mm 1,9 UV-I 214 W/m² 18,1 °C 25,4 °C 3,2 km/h (1 Bft)
09.07.2017 15:54 25,4 °C 25,4 °C 64 % 1010,0 hPa 0,0 mm 1,0 km/h (0 Bft) NW 309 ° 0 min 0,000 mm 1,9 UV-I 214 W/m² 18,1 °C 25,4 °C 3,2 km/h (1 Bft)
09.07.2017 15:55 25,3 °C 25,4 °C 64 % 1010,0 hPa 0,0 mm 0,4 km/h (0 Bft) NW 309 ° 0 min 0,000 mm 1,9 UV-I 213 W/m² 18,0 °C 25,3 °C 1,6 km/h (1 Bft)
09.07.2017 15:56 25,3 °C 25,3 °C 64 % 1010,0 hPa 0,0 mm 0,0 km/h (0 Bft) NW 309 ° 0 min 0,000 mm 1,9 UV-I 209 W/m² 18,0 °C 25,3 °C 0,0 km/h (0 Bft)
09.07.2017 15:57 25,3 °C 25,3 °C 65 % 1010,0 hPa 0,0 mm 0,7 km/h (0 Bft) NW 309 ° 0 min 0,000 mm 1,8 UV-I 204 W/m² 18,2 °C 25,3 °C 3,2 km/h (1 Bft)
09.07.2017 15:58 25,3 °C 25,3 °C 67 % 1010,0 hPa 0,0 mm 2,7 km/h (1 Bft) NW 309 ° 0 min 0,000 mm 1,7 UV-I 199 W/m² 18,7 °C 25,3 °C 3,2 km/h (1 Bft)
09.07.2017 15:59 25,3 °C 25,3 °C 70 % 1010,0 hPa 0,0 mm 1,5 km/h (1 Bft) NW 309 ° 0 min 0,000 mm 1,7 UV-I 193 W/m² 19,4 °C 25,3 °C 3,2 km/h (1 Bft)
09.07.2017 16:00 25,3 °C 25,3 °C 69 % 1010,0 hPa 0,0 mm 1,0 km/h (0 Bft) NW 309 ° 0 min 0,254 mm 1,6 UV-I 188 W/m² 19,2 °C 25,3 °C 3,2 km/h (1 Bft)
09.07.2017 16:01 25,2 °C 25,3 °C 68 % 1010,0 hPa 0,0 mm 2,5 km/h (1 Bft) W-NW 291 ° 0 min 0,000 mm 1,6 UV-I 181 W/m² 18,9 °C 25,2 °C 3,2 km/h (1 Bft)
09.07.2017 16:02 25,2 °C 25,3 °C 67 % 1010,0 hPa 0,0 mm 2,1 km/h (1 Bft) W-NW 291 ° 0 min 0,000 mm 1,5 UV-I 165 W/m² 18,6 °C 25,2 °C 3,2 km/h (1 Bft)
09.07.2017 16:03 25,2 °C 25,2 °C 68 % 1010,0 hPa 0,0 mm 3,0 km/h (1 Bft) W-NW 291 ° 0 min 0,000 mm 1,3 UV-I 156 W/m² 18,9 °C 25,2 °C 4,8 km/h (1 Bft)
09.07.2017 16:04 25,2 °C 25,2 °C 68 % 1010,0 hPa 0,0 mm 1,9 km/h (1 Bft) W-NW 291 ° 0 min 0,000 mm 1,3 UV-I 148 W/m² 18,9 °C 25,2 °C 3,2 km/h (1 Bft)
09.07.2017 16:05 25,2 °C 25,2 °C 68 % 1010,0 hPa 0,0 mm 1,6 km/h (1 Bft) W-NW 291 ° 0 min 0,000 mm 1,2 UV-I 139 W/m² 18,9 °C 25,2 °C 3,2 km/h (1 Bft)
09.07.2017 16:06 25,1 °C 25,2 °C 69 % 1010,0 hPa 0,0 mm 2,1 km/h (1 Bft) W-NW 291 ° 0 min 0,000 mm 1,1 UV-I 130 W/m² 19,0 °C 25,1 °C 3,2 km/h (1 Bft)
09.07.2017 16:07 25,1 °C 25,1 °C 69 % 1010,0 hPa 0,0 mm 1,9 km/h (1 Bft) W-NW 291 ° 0 min 0,000 mm 1,1 UV-I 121 W/m² 19,0 °C 25,1 °C 3,2 km/h (1 Bft)
09.07.2017 16:08 25,0 °C 25,1 °C 70 % 1010,0 hPa 0,0 mm 4,1 km/h (1 Bft) W-NW 296 ° 0 min 0,000 mm 1,0 UV-I 105 W/m² 19,1 °C 25,0 °C 6,4 km/h (2 Bft)
09.07.2017 16:09 24,9 °C 25,0 °C 70 % 1010,0 hPa 0,0 mm 5,2 km/h (1 Bft) W-NW 292 ° 0 min 0,000 mm 0,9 UV-I 100 W/m² 19,0 °C 24,9 °C 6,4 km/h (2 Bft)
09.07.2017 16:10 24,8 °C 24,9 °C 69 % 1010,0 hPa 0,0 mm 4,1 km/h (1 Bft) W 271 ° 0 min 0,000 mm 0,8 UV-I 95 W/m² 18,7 °C 24,8 °C 6,4 km/h (2 Bft)
09.07.2017 16:11 24,8 °C 24,9 °C 71 % 1010,0 hPa 0,0 mm 2,4 km/h (1 Bft) W 267 ° 0 min 0,000 mm 0,8 UV-I 90 W/m² 19,2 °C 24,8 °C 4,8 km/h (1 Bft)
09.07.2017 16:12 24,7 °C 24,8 °C 72 % 1010,1 hPa 0,0 mm 2,7 km/h (1 Bft) W 267 ° 0 min 0,000 mm 0,7 UV-I 84 W/m² 19,3 °C 24,7 °C 4,8 km/h (1 Bft)
09.07.2017 16:13 24,7 °C 24,7 °C 72 % 1010,1 hPa 0,0 mm 3,4 km/h (1 Bft) W 267 ° 0 min 0,000 mm 0,7 UV-I 81 W/m² 19,3 °C 24,7 °C 4,8 km/h (1 Bft)
09.07.2017 16:14 24,6 °C 24,7 °C 72 % 1010,1 hPa 0,0 mm 2,3 km/h (1 Bft) W 269 ° 0 min 0,000 mm 0,7 UV-I 76 W/m² 19,2 °C 24,6 °C 3,2 km/h (1 Bft)
09.07.2017 16:15 24,4 °C 24,6 °C 73 % 1010,1 hPa 0,0 mm 3,5 km/h (1 Bft) W 269 ° 0 min 0,000 mm 0,6 UV-I 72 W/m² 19,2 °C 24,4 °C 4,8 km/h (1 Bft)
09.07.2017 16:16 24,3 °C 24,4 °C 75 % 1010,1 hPa 0,0 mm 2,9 km/h (1 Bft) W 269 ° 0 min 0,000 mm 0,6 UV-I 70 W/m² 19,6 °C 24,3 °C 4,8 km/h (1 Bft)
09.07.2017 16:17 24,2 °C 24,3 °C 74 % 1010,1 hPa 0,0 mm 3,1 km/h (1 Bft) W 269 ° 0 min 0,000 mm 0,6 UV-I 69 W/m² 19,3 °C 24,2 °C 4,8 km/h (1 Bft)
09.07.2017 16:18 24,2 °C 24,2 °C 74 % 1010,2 hPa 0,0 mm 2,9 km/h (1 Bft) W 269 ° 0 min 0,000 mm 0,5 UV-I 65 W/m² 19,3 °C 24,2 °C 3,2 km/h (1 Bft)
09.07.2017 16:19 24,1 °C 24,2 °C 73 % 1010,3 hPa 0,0 mm 1,9 km/h (1 Bft) W 271 ° 0 min 0,000 mm 0,5 UV-I 62 W/m² 18,9 °C 24,1 °C 3,2 km/h (1 Bft)
09.07.2017 16:20 24,0 °C 24,1 °C 75 % 1010,2 hPa 0,0 mm 0,5 km/h (0 Bft) W 271 ° 0 min 0,000 mm 0,5 UV-I 58 W/m² 19,3 °C 24,0 °C 1,6 km/h (1 Bft)
09.07.2017 16:21 23,9 °C 24,0 °C 75 % 1010,3 hPa 0,0 mm 2,3 km/h (1 Bft) W 264 ° 0 min 0,000 mm 0,5 UV-I 56 W/m² 19,2 °C 23,9 °C 4,8 km/h (1 Bft)
09.07.2017 16:22 23,8 °C 23,9 °C 76 % 1010,3 hPa 0,0 mm 4,6 km/h (1 Bft) W 263 ° 0 min 0,000 mm 0,0 UV-I 54 W/m² 19,3 °C 23,8 °C 6,4 km/h (2 Bft)
09.07.2017 16:23 23,7 °C 23,8 °C 76 % 1010,5 hPa 0,0 mm 1,1 km/h (1 Bft) W 263 ° 0 min 0,000 mm 0,0 UV-I 53 W/m² 19,2 °C 23,7 °C 3,2 km/h (1 Bft)
09.07.2017 16:24 23,7 °C 23,7 °C 76 % 1010,5 hPa 0,0 mm 0,0 km/h (0 Bft) W 263 ° 0 min 0,000 mm 0,0 UV-I 49 W/m² 19,2 °C 23,7 °C 0,0 km/h (0 Bft)
09.07.2017 16:25 23,6 °C 23,7 °C 77 % 1010,5 hPa 0,0 mm 0,0 km/h (0 Bft) W 263 ° 0 min 0,000 mm 0,0 UV-I 44 W/m² 19,3 °C 23,6 °C 0,0 km/h (0 Bft)
09.07.2017 16:26 23,5 °C 23,6 °C 76 % 1010,6 hPa 0,0 mm 1,1 km/h (1 Bft) W 263 ° 0 min 0,000 mm 0,0 UV-I 40 W/m² 19,0 °C 23,5 °C 1,6 km/h (1 Bft)
09.07.2017 16:27 23,4 °C 23,5 °C 76 % 1010,6 hPa 0,0 mm 0,0 km/h (0 Bft) W 263 ° 0 min 0,000 mm 0,0 UV-I 39 W/m² 18,9 °C 23,4 °C 0,0 km/h (0 Bft)
09.07.2017 16:28 23,4 °C 23,4 °C 76 % 1010,6 hPa 0,0 mm 2,2 km/h (1 Bft) W 263 ° 0 min 0,000 mm 0,0 UV-I 35 W/m² 18,9 °C 23,4 °C 4,8 km/h (1 Bft)
09.07.2017 16:29 23,3 °C 23,4 °C 78 % 1010,6 hPa 0,0 mm 2,3 km/h (1 Bft) W 263 ° 0 min 0,000 mm 0,0 UV-I 33 W/m² 19,2 °C 23,3 °C 3,2 km/h (1 Bft)
09.07.2017 16:30 23,3 °C 23,3 °C 78 % 1010,7 hPa 0,0 mm 1,6 km/h (1 Bft) W 263 ° 0 min 0,000 mm 0,0 UV-I 32 W/m² 19,2 °C 23,3 °C 1,6 km/h (1 Bft)
09.07.2017 16:31 23,2 °C 23,3 °C 79 % 1010,8 hPa 0,0 mm 2,6 km/h (1 Bft) W 263 ° 0 min 0,000 mm 0,0 UV-I 28 W/m² 19,3 °C 23,2 °C 3,2 km/h (1 Bft)
09.07.2017 16:32 23,1 °C 23,2 °C 80 % 1010,8 hPa 0,0 mm 2,4 km/h (1 Bft) W 263 ° 0 min 0,000 mm 0,0 UV-I 26 W/m² 19,5 °C 23,1 °C 3,2 km/h (1 Bft)
09.07.2017 16:33 23,0 °C 23,1 °C 79 % 1010,8 hPa 0,0 mm 3,0 km/h (1 Bft) W 261 ° 0 min 0,000 mm 0,0 UV-I 26 W/m² 19,2 °C 23,0 °C 4,8 km/h (1 Bft)
09.07.2017 16:34 22,9 °C 23,0 °C 79 % 1010,9 hPa 0,0 mm 1,9 km/h (1 Bft) W-SW 257 ° 0 min 0,000 mm 0,0 UV-I 25 W/m² 19,1 °C 22,9 °C 3,2 km/h (1 Bft)
09.07.2017 16:35 22,8 °C 22,9 °C 81 % 1010,9 hPa 0,0 mm 3,2 km/h (1 Bft) SW 225 ° 0 min 0,000 mm 0,0 UV-I 23 W/m² 19,4 °C 22,8 °C 4,8 km/h (1 Bft)
09.07.2017 16:36 22,8 °C 22,8 °C 81 % 1011,0 hPa 0,0 mm 2,5 km/h (1 Bft) SW 221 ° 0 min 0,000 mm 0,0 UV-I 23 W/m² 19,4 °C 22,8 °C 4,8 km/h (1 Bft)
09.07.2017 16:37 22,7 °C 22,8 °C 81 % 1011,1 hPa 0,0 mm 4,2 km/h (1 Bft) S-SW 198 ° 0 min 0,000 mm 0,0 UV-I 19 W/m² 19,3 °C 22,7 °C 6,4 km/h (2 Bft)
09.07.2017 16:38 22,7 °C 22,8 °C 81 % 1011,3 hPa 0,0 mm 6,7 km/h (2 Bft) S-SW 196 ° 0 min 0,000 mm 0,0 UV-I 18 W/m² 19,3 °C 22,7 °C 9,7 km/h (2 Bft)
09.07.2017 16:39 22,7 °C 22,7 °C 79 % 1011,3 hPa 0,0 mm 4,2 km/h (1 Bft) W 267 ° 0 min 0,000 mm 0,0 UV-I 18 W/m² 18,9 °C 22,7 °C 14,5 km/h (3 Bft)
09.07.2017 16:40 22,7 °C 22,7 °C 78 % 1011,4 hPa 0,0 mm 5,9 km/h (2 Bft) W 271 ° 0 min 0,000 mm 0,0 UV-I 14 W/m² 18,7 °C 22,7 °C 11,3 km/h (2 Bft)
09.07.2017 16:41 22,6 °C 22,7 °C 76 % 1011,4 hPa 0,0 mm 3,6 km/h (1 Bft) W 261 ° 0 min 0,000 mm 0,0 UV-I 11 W/m² 18,1 °C 22,6 °C 9,7 km/h (2 Bft)
09.07.2017 16:42 22,5 °C 22,6 °C 75 % 1011,5 hPa 0,0 mm 5,0 km/h (1 Bft) S-SW 196 ° 0 min 0,000 mm 0,0 UV-I 9 W/m² 17,8 °C 22,5 °C 9,7 km/h (2 Bft)
09.07.2017 16:43 22,4 °C 22,5 °C 74 % 1011,5 hPa 0,2 mm 12,7 km/h (3 Bft) W 277 ° 0 min 0,000 mm 0,0 UV-I 7 W/m² 17,5 °C 22,4 °C 25,7 km/h (4 Bft)
09.07.2017 16:44 22,3 °C 22,4 °C 74 % 1011,8 hPa 0,0 mm 16,8 km/h (3 Bft) W 269 ° 0 min 0,000 mm 0,0 UV-I 5 W/m² 17,4 °C 22,3 °C 22,5 km/h (4 Bft)
09.07.2017 16:45 22,2 °C 22,3 °C 75 % 1012,0 hPa 0,0 mm 7,0 km/h (2 Bft) NW 306 ° 0 min 0,000 mm 0,0 UV-I 5 W/m² 17,5 °C 22,2 °C 12,9 km/h (3 Bft)
09.07.2017 16:46 21,9 °C 22,2 °C 72 % 1012,1 hPa 0,0 mm 19,3 km/h (3 Bft) SW 224 ° 0 min 0,000 mm 0,0 UV-I 5 W/m² 16,6 °C 21,9 °C 32,2 km/h (5 Bft)
09.07.2017 16:47 21,7 °C 21,9 °C 71 % 1012,4 hPa 0,2 mm 12,4 km/h (3 Bft) W-NW 296 ° 0 min 0,000 mm 0,0 UV-I 5 W/m² 16,2 °C 21,7 °C 25,7 km/h (4 Bft)
09.07.2017 16:48 21,3 °C 21,7 °C 72 % 1012,4 hPa 0,2 mm 10,3 km/h (2 Bft) W-NW 291 ° 0 min 0,000 mm 0,0 UV-I 5 W/m² 16,0 °C 21,3 °C 20,9 km/h (4 Bft)
09.07.2017 16:49 20,8 °C 21,3 °C 72 % 1012,1 hPa 0,2 mm 16,0 km/h (3 Bft) W-NW 284 ° 0 min 0,000 mm 0,0 UV-I 0 W/m² 15,6 °C 20,8 °C 27,4 km/h (4 Bft)
09.07.2017 16:50 20,3 °C 20,8 °C 72 % 1012,1 hPa 0,2 mm 13,3 km/h (3 Bft) W-NW 300 ° 0 min 0,000 mm 0,0 UV-I 0 W/m² 15,1 °C 20,3 °C 30,6 km/h (5 Bft)
09.07.2017 16:51 19,7 °C 20,3 °C 74 % 1012,2 hPa 0,2 mm 9,7 km/h (2 Bft) NW 306 ° 0 min 0,000 mm 0,0 UV-I 0 W/m² 14,9 °C 19,7 °C 19,3 km/h (3 Bft)
09.07.2017 16:52 19,2 °C 19,7 °C 75 % 1012,1 hPa 0,2 mm 12,7 km/h (3 Bft) S-SO 159 ° 0 min 0,000 mm 0,0 UV-I 0 W/m² 14,7 °C 19,2 °C 17,7 km/h (3 Bft)
09.07.2017 16:53 18,8 °C 19,2 °C 76 % 1012,1 hPa 0,0 mm 7,7 km/h (2 Bft) W 281 ° 0 min 0,000 mm 0,0 UV-I 0 W/m² 14,5 °C 18,8 °C 12,9 km/h (3 Bft)
09.07.2017 16:54 18,3 °C 18,8 °C 78 % 1011,9 hPa 0,2 mm 14,5 km/h (3 Bft) S-SW 194 ° 0 min 0,000 mm 0,0 UV-I 0 W/m² 14,4 °C 18,3 °C 27,4 km/h (4 Bft)
09.07.2017 16:55 18,1 °C 18,3 °C 79 % 1011,9 hPa 0,2 mm 9,6 km/h (2 Bft) W-NW 286 ° 0 min 0,000 mm 0,0 UV-I 0 W/m² 14,4 °C 18,1 °C 19,3 km/h (3 Bft)
09.07.2017 16:56 17,7 °C 18,1 °C 81 % 1011,9 hPa 0,0 mm 5,1 km/h (1 Bft) W 270 ° 0 min 0,000 mm 0,0 UV-I 0 W/m² 14,4 °C 17,7 °C 9,7 km/h (2 Bft)
09.07.2017 16:57 17,5 °C 17,7 °C 81 % 1011,8 hPa 0,2 mm 4,3 km/h (1 Bft) S 190 ° 0 min 0,000 mm 0,0 UV-I 0 W/m² 14,2 °C 17,5 °C 6,4 km/h (2 Bft)
09.07.2017 16:58 17,2 °C 17,5 °C 83 % 1011,5 hPa 0,4 mm 3,7 km/h (1 Bft) SO 128 ° 0 min 0,000 mm 0,0 UV-I 5 W/m² 14,3 °C 17,2 °C 6,4 km/h (2 Bft)
09.07.2017 16:59 16,9 °C 17,2 °C 85 % 1011,2 hPa 0,0 mm 6,4 km/h (2 Bft) O-SO 111 ° 0 min 0,000 mm 0,0 UV-I 5 W/m² 14,4 °C 16,9 °C 9,7 km/h (2 Bft)
09.07.2017 17:00 16,7 °C 16,9 °C 85 % 1011,2 hPa 0,2 mm 5,8 km/h (2 Bft) S-SO 165 ° 0 min 0,000 mm 0,0 UV-I 5 W/m² 14,2 °C 16,7 °C 8,0 km/h (2 Bft)
09.07.2017 17:01 16,5 °C 16,7 °C 87 % 1011,0 hPa 0,2 mm 2,1 km/h (1 Bft) S-SO 150 ° 0 min 0,051 mm 0,0 UV-I 5 W/m² 14,3 °C 16,5 °C 6,4 km/h (2 Bft)
09.07.2017 17:02 16,3 °C 16,5 °C 87 % 1011,0 hPa 0,0 mm 0,6 km/h (0 Bft) S 171 ° 0 min 0,000 mm 0,0 UV-I 5 W/m² 14,1 °C 16,3 °C 3,2 km/h (1 Bft)
09.07.2017 17:03 16,1 °C 16,3 °C 88 % 1011,1 hPa 0,2 mm 3,4 km/h (1 Bft) S-SW 193 ° 0 min 0,000 mm 0,0 UV-I 7 W/m² 14,1 °C 16,1 °C 6,4 km/h (2 Bft)
09.07.2017 17:04 16,0 °C 16,1 °C 88 % 1011,2 hPa 0,0 mm 3,8 km/h (1 Bft) S-SW 193 ° 0 min 0,000 mm 0,0 UV-I 7 W/m² 14,0 °C 16,0 °C 8,0 km/h (2 Bft)
09.07.2017 17:05 16,0 °C 16,0 °C 88 % 1011,2 hPa 0,2 mm 6,4 km/h (2 Bft) S 184 ° 0 min 0,000 mm 0,0 UV-I 7 W/m² 14,0 °C 16,0 °C 9,7 km/h (2 Bft)
09.07.2017 17:06 15,9 °C 16,0 °C 89 % 1011,1 hPa 0,0 mm 2,2 km/h (1 Bft) S 180 ° 0 min 0,000 mm 0,0 UV-I 7 W/m² 14,1 °C 15,9 °C 4,8 km/h (1 Bft)
09.07.2017 17:07 15,9 °C 15,9 °C 89 % 1011,1 hPa 0,0 mm 1,4 km/h (1 Bft) W-NW 286 ° 0 min 0,000 mm 0,0 UV-I 7 W/m² 14,1 °C 15,9 °C 3,2 km/h (1 Bft)
09.07.2017 17:08 15,8 °C 15,9 °C 89 % 1011,0 hPa 0,2 mm 2,4 km/h (1 Bft) S-SW 205 ° 0 min 0,000 mm 0,0 UV-I 7 W/m² 14,0 °C 15,8 °C 4,8 km/h (1 Bft)
09.07.2017 17:09 15,7 °C 15,8 °C 90 % 1011,0 hPa 0,0 mm 0,1 km/h (0 Bft) S-SW 205 ° 0 min 0,000 mm 0,0 UV-I 9 W/m² 14,1 °C 15,7 °C 1,6 km/h (1 Bft)
09.07.2017 17:10 15,7 °C 15,7 °C 90 % 1011,0 hPa 0,0 mm 0,0 km/h (0 Bft) S-SW 205 ° 0 min 0,000 mm 0,0 UV-I 9 W/m² 14,1 °C 15,7 °C 0,0 km/h (0 Bft)
09.07.2017 17:11 15,6 °C 15,7 °C 91 % 1011,0 hPa 0,0 mm 0,0 km/h (0 Bft) S-SW 205 ° 0 min 0,000 mm 0,0 UV-I 9 W/m² 14,1 °C 15,6 °C 0,0 km/h (0 Bft)
09.07.2017 17:12 15,6 °C 15,6 °C 91 % 1011,0 hPa 0,0 mm 0,0 km/h (0 Bft) S-SW 205 ° 0 min 0,000 mm 0,0 UV-I 11 W/m² 14,1 °C 15,6 °C 0,0 km/h (0 Bft)
09.07.2017 17:13 15,4 °C 15,6 °C 91 % 1011,0 hPa 0,0 mm 0,0 km/h (0 Bft) S-SW 207 ° 0 min 0,000 mm 0,0 UV-I 11 W/m² 13,9 °C 15,4 °C 0,0 km/h (0 Bft)
09.07.2017 17:14 15,4 °C 15,5 °C 91 % 1010,9 hPa 0,0 mm 0,0 km/h (0 Bft) S-SW 207 ° 0 min 0,000 mm 0,0 UV-I 11 W/m² 13,9 °C 15,4 °C 0,0 km/h (0 Bft)
09.07.2017 17:15 15,4 °C 15,4 °C 91 % 1010,8 hPa 0,0 mm 0,6 km/h (0 Bft) SW 225 ° 0 min 0,000 mm 0,0 UV-I 12 W/m² 13,9 °C 15,4 °C 1,6 km/h (1 Bft)
09.07.2017 17:16 15,4 °C 15,4 °C 91 % 1010,8 hPa 0,0 mm 0,0 km/h (0 Bft) SW 225 ° 0 min 0,000 mm 0,0 UV-I 12 W/m² 13,9 °C 15,4 °C 0,0 km/h (0 Bft)
09.07.2017 17:17 15,4 °C 15,4 °C 91 % 1010,8 hPa 0,0 mm 0,0 km/h (0 Bft) SW 225 ° 0 min 0,000 mm 0,0 UV-I 12 W/m² 13,9 °C 15,4 °C 0,0 km/h (0 Bft)
09.07.2017 17:18 15,4 °C 15,4 °C 92 % 1010,8 hPa 0,0 mm 0,0 km/h (0 Bft) SW 225 ° 0 min 0,000 mm 0,0 UV-I 16 W/m² 14,1 °C 15,4 °C 0,0 km/h (0 Bft)
09.07.2017 17:19 15,3 °C 15,4 °C 92 % 1010,8 hPa 0,0 mm 0,0 km/h (0 Bft) SW 225 ° 0 min 0,000 mm 0,0 UV-I 16 W/m² 14,0 °C 15,3 °C 0,0 km/h (0 Bft)
09.07.2017 17:20 15,4 °C 15,4 °C 92 % 1010,7 hPa 0,2 mm 0,5 km/h (0 Bft) SW 225 ° 0 min 0,000 mm 0,0 UV-I 18 W/m² 14,1 °C 15,4 °C 3,2 km/h (1 Bft)
09.07.2017 17:21 15,4 °C 15,4 °C 92 % 1010,6 hPa 0,0 mm 0,4 km/h (0 Bft) SW 225 ° 0 min 0,000 mm 0,0 UV-I 19 W/m² 14,1 °C 15,4 °C 1,6 km/h (1 Bft)
09.07.2017 17:22 15,4 °C 15,4 °C 92 % 1010,6 hPa 0,0 mm 0,8 km/h (0 Bft) W 261 ° 0 min 0,000 mm 0,0 UV-I 21 W/m² 14,1 °C 15,4 °C 1,6 km/h (1 Bft)
09.07.2017 17:23 15,4 °C 15,4 °C 92 % 1010,6 hPa 0,0 mm 0,0 km/h (0 Bft) W 261 ° 0 min 0,000 mm 0,0 UV-I 23 W/m² 14,1 °C 15,4 °C 0,0 km/h (0 Bft)
09.07.2017 17:24 15,4 °C 15,4 °C 92 % 1010,5 hPa 0,0 mm 0,0 km/h (0 Bft) W 261 ° 0 min 0,000 mm 0,0 UV-I 26 W/m² 14,1 °C 15,4 °C 0,0 km/h (0 Bft)
09.07.2017 17:25 15,4 °C 15,4 °C 92 % 1010,6 hPa 0,0 mm 0,0 km/h (0 Bft) W 261 ° 0 min 0,000 mm 0,0 UV-I 30 W/m² 14,1 °C 15,4 °C 0,0 km/h (0 Bft)
09.07.2017 17:26 15,4 °C 15,4 °C 92 % 1010,6 hPa 0,0 mm 0,0 km/h (0 Bft) W 261 ° 0 min 0,000 mm 0,0 UV-I 32 W/m² 14,1 °C 15,4 °C 0,0 km/h (0 Bft)
09.07.2017 17:27 15,4 °C 15,5 °C 93 % 1010,6 hPa 0,0 mm 0,0 km/h (0 Bft) W 261 ° 0 min 0,000 mm 0,0 UV-I 33 W/m² 14,3 °C 15,4 °C 0,0 km/h (0 Bft)
09.07.2017 17:28 15,5 °C 15,5 °C 93 % 1010,6 hPa 0,0 mm 0,2 km/h (0 Bft) W 261 ° 0 min 0,000 mm 0,0 UV-I 37 W/m² 14,4 °C 15,5 °C 1,6 km/h (1 Bft)
09.07.2017 17:29 15,5 °C 15,5 °C 93 % 1010,7 hPa 0,0 mm 0,1 km/h (0 Bft) W 261 ° 0 min 0,000 mm 0,0 UV-I 44 W/m² 14,4 °C 15,5 °C 1,6 km/h (1 Bft)
09.07.2017 17:30 15,6 °C 15,6 °C 93 % 1010,7 hPa 0,0 mm 0,8 km/h (0 Bft) W 261 ° 0 min 0,000 mm 0,0 UV-I 47 W/m² 14,5 °C 15,6 °C 3,2 km/h (1 Bft)
09.07.2017 17:31 15,6 °C 15,6 °C 93 % 1010,8 hPa 0,0 mm 0,3 km/h (0 Bft) W 261 ° 0 min 0,000 mm 0,0 UV-I 51 W/m² 14,5 °C 15,6 °C 1,6 km/h (1 Bft)
09.07.2017 17:32 15,7 °C 15,7 °C 93 % 1010,7 hPa 0,0 mm 0,0 km/h (0 Bft) W 261 ° 0 min 0,000 mm 0,0 UV-I 54 W/m² 14,6 °C 15,7 °C 0,0 km/h (0 Bft)
09.07.2017 17:33 15,7 °C 15,7 °C 93 % 1010,7 hPa 0,0 mm 0,0 km/h (0 Bft) W 261 ° 0 min 0,000 mm 0,0 UV-I 60 W/m² 14,6 °C 15,7 °C 0,0 km/h (0 Bft)
09.07.2017 17:34 15,7 °C 15,7 °C 93 % 1010,7 hPa 0,0 mm 0,0 km/h (0 Bft) W 261 ° 0 min 0,000 mm 0,0 UV-I 63 W/m² 14,6 °C 15,7 °C 0,0 km/h (0 Bft)
09.07.2017 17:35 15,8 °C 15,8 °C 93 % 1010,7 hPa 0,0 mm 0,5 km/h (0 Bft) W 261 ° 0 min 0,000 mm 0,5 UV-I 67 W/m² 14,7 °C 15,8 °C 1,6 km/h (1 Bft)
09.07.2017 17:36 15,8 °C 15,8 °C 93 % 1010,7 hPa 0,0 mm 0,7 km/h (0 Bft) NW 323 ° 0 min 0,000 mm 0,5 UV-I 72 W/m² 14,7 °C 15,8 °C 1,6 km/h (1 Bft)
09.07.2017 17:37 15,8 °C 15,8 °C 93 % 1010,7 hPa 0,0 mm 0,0 km/h (0 Bft) NW 323 ° 0 min 0,000 mm 0,5 UV-I 74 W/m² 14,7 °C 15,8 °C 0,0 km/h (0 Bft)
09.07.2017 17:38 15,9 °C 15,9 °C 93 % 1010,8 hPa 0,0 mm 0,0 km/h (0 Bft) NW 323 ° 0 min 0,000 mm 0,5 UV-I 76 W/m² 14,8 °C 15,9 °C 0,0 km/h (0 Bft)
09.07.2017 17:39 15,9 °C 15,9 °C 93 % 1010,8 hPa 0,0 mm 1,8 km/h (1 Bft) NO 44 ° 0 min 0,000 mm 0,5 UV-I 77 W/m² 14,8 °C 15,9 °C 3,2 km/h (1 Bft)
09.07.2017 17:40 15,9 °C 15,9 °C 93 % 1010,8 hPa 0,0 mm 1,0 km/h (0 Bft) N-NO 26 ° 0 min 0,000 mm 0,5 UV-I 79 W/m² 14,8 °C 15,9 °C 3,2 km/h (1 Bft)
09.07.2017 17:41 16,0 °C 16,0 °C 93 % 1010,8 hPa 0,0 mm 0,5 km/h (0 Bft) N-NO 26 ° 0 min 0,000 mm 0,5 UV-I 83 W/m² 14,9 °C 16,0 °C 3,2 km/h (1 Bft)
09.07.2017 17:42 16,1 °C 16,1 °C 93 % 1010,8 hPa 0,0 mm 1,0 km/h (0 Bft) N-NO 26 ° 0 min 0,000 mm 0,6 UV-I 84 W/m² 15,0 °C 16,1 °C 3,2 km/h (1 Bft)
09.07.2017 17:43 16,0 °C 16,1 °C 93 % 1010,8 hPa 0,0 mm 2,4 km/h (1 Bft) N-NW 334 ° 0 min 0,000 mm 0,6 UV-I 84 W/m² 14,9 °C 16,0 °C 4,8 km/h (1 Bft)
09.07.2017 17:44 16,1 °C 16,1 °C 93 % 1010,8 hPa 0,0 mm 2,5 km/h (1 Bft) N-NW 329 ° 0 min 0,000 mm 0,6 UV-I 86 W/m² 15,0 °C 16,1 °C 4,8 km/h (1 Bft)
09.07.2017 17:45 16,1 °C 16,1 °C 93 % 1010,7 hPa 0,0 mm 2,7 km/h (1 Bft) NW 317 ° 0 min 0,000 mm 0,6 UV-I 86 W/m² 15,0 °C 16,1 °C 4,8 km/h (1 Bft)
09.07.2017 17:46 16,2 °C 16,2 °C 93 % 1010,7 hPa 0,0 mm 1,1 km/h (1 Bft) NW 317 ° 0 min 0,000 mm 0,6 UV-I 86 W/m² 15,1 °C 16,2 °C 3,2 km/h (1 Bft)
09.07.2017 17:47 16,2 °C 16,2 °C 93 % 1010,7 hPa 0,0 mm 1,5 km/h (1 Bft) N-NW 344 ° 0 min 0,000 mm 0,6 UV-I 88 W/m² 15,1 °C 16,2 °C 3,2 km/h (1 Bft)
09.07.2017 17:48 16,2 °C 16,2 °C 93 % 1010,7 hPa 0,0 mm 0,0 km/h (0 Bft) N-NW 344 ° 0 min 0,000 mm 0,6 UV-I 90 W/m² 15,1 °C 16,2 °C 0,0 km/h (0 Bft)
09.07.2017 17:49 16,2 °C 16,3 °C 93 % 1010,7 hPa 0,0 mm 0,2 km/h (0 Bft) N-NW 344 ° 0 min 0,000 mm 0,6 UV-I 90 W/m² 15,1 °C 16,2 °C 1,6 km/h (1 Bft)
09.07.2017 17:50 16,3 °C 16,3 °C 94 % 1010,7 hPa 0,0 mm 0,3 km/h (0 Bft) N-NW 344 ° 0 min 0,000 mm 0,6 UV-I 91 W/m² 15,3 °C 16,3 °C 3,2 km/h (1 Bft)
09.07.2017 17:51 16,2 °C 16,3 °C 93 % 1010,7 hPa 0,0 mm 1,8 km/h (1 Bft) N-NO 21 ° 0 min 0,000 mm 0,6 UV-I 93 W/m² 15,1 °C 16,2 °C 3,2 km/h (1 Bft)
09.07.2017 17:52 16,2 °C 16,3 °C 93 % 1010,7 hPa 0,0 mm 1,4 km/h (1 Bft) NO 37 ° 0 min 0,000 mm 0,6 UV-I 97 W/m² 15,1 °C 16,2 °C 4,8 km/h (1 Bft)
09.07.2017 17:53 16,2 °C 16,3 °C 93 % 1010,7 hPa 0,0 mm 2,0 km/h (1 Bft) NO 44 ° 0 min 0,000 mm 0,6 UV-I 100 W/m² 15,1 °C 16,2 °C 3,2 km/h (1 Bft)
09.07.2017 17:54 16,3 °C 16,3 °C 93 % 1010,6 hPa 0,0 mm 1,4 km/h (1 Bft) O-NO 71 ° 0 min 0,000 mm 0,7 UV-I 104 W/m² 15,2 °C 16,3 °C 3,2 km/h (1 Bft)
09.07.2017 17:55 16,3 °C 16,3 °C 93 % 1010,7 hPa 0,0 mm 0,5 km/h (0 Bft) O-NO 71 ° 0 min 0,000 mm 0,7 UV-I 105 W/m² 15,2 °C 16,3 °C 1,6 km/h (1 Bft)
09.07.2017 17:56 16,3 °C 16,3 °C 93 % 1010,7 hPa 0,0 mm 1,8 km/h (1 Bft) N-NO 28 ° 0 min 0,000 mm 0,7 UV-I 107 W/m² 15,2 °C 16,3 °C 4,8 km/h (1 Bft)
09.07.2017 17:57 16,3 °C 16,3 °C 93 % 1010,6 hPa 0,0 mm 2,1 km/h (1 Bft) N-NW 343 ° 0 min 0,000 mm 0,7 UV-I 111 W/m² 15,2 °C 16,3 °C 4,8 km/h (1 Bft)
09.07.2017 17:58 16,3 °C 16,3 °C 93 % 1010,6 hPa 0,0 mm 0,5 km/h (0 Bft) N-NW 332 ° 0 min 0,000 mm 0,8 UV-I 113 W/m² 15,2 °C 16,3 °C 1,6 km/h (1 Bft)
09.07.2017 17:59 16,4 °C 16,4 °C 93 % 1010,6 hPa 0,0 mm 0,2 km/h (0 Bft) N-NW 332 ° 0 min 0,000 mm 0,8 UV-I 118 W/m² 15,3 °C 16,4 °C 1,6 km/h (1 Bft)
09.07.2017 18:00 16,4 °C 16,4 °C 93 % 1010,5 hPa 0,0 mm 1,1 km/h (1 Bft) NO 52 ° 0 min 0,000 mm 0,8 UV-I 120 W/m² 15,3 °C 16,4 °C 3,2 km/h (1 Bft)
09.07.2017 18:01 16,4 °C 16,5 °C 93 % 1010,4 hPa 0,0 mm 0,6 km/h (0 Bft) NO 52 ° 0 min 0,026 mm 0,8 UV-I 123 W/m² 15,3 °C 16,4 °C 3,2 km/h (1 Bft)
09.07.2017 18:02 16,4 °C 16,4 °C 93 % 1010,4 hPa 0,0 mm 0,1 km/h (0 Bft) NO 52 ° 0 min 0,000 mm 0,8 UV-I 125 W/m² 15,3 °C 16,4 °C 1,6 km/h (1 Bft)
09.07.2017 18:03 16,4 °C 16,4 °C 93 % 1010,3 hPa 0,0 mm 0,0 km/h (0 Bft) NO 52 ° 0 min 0,000 mm 0,9 UV-I 128 W/m² 15,3 °C 16,4 °C 0,0 km/h (0 Bft)
09.07.2017 18:04 16,4 °C 16,4 °C 93 % 1010,3 hPa 0,0 mm 0,0 km/h (0 Bft) NO 52 ° 0 min 0,000 mm 0,9 UV-I 130 W/m² 15,3 °C 16,4 °C 0,0 km/h (0 Bft)
09.07.2017 18:05 16,5 °C 16,5 °C 93 % 1010,3 hPa 0,0 mm 0,0 km/h (0 Bft) NO 52 ° 0 min 0,000 mm 0,9 UV-I 135 W/m² 15,4 °C 16,5 °C 0,0 km/h (0 Bft)
09.07.2017 18:06 16,5 °C 16,5 °C 93 % 1010,3 hPa 0,0 mm 0,3 km/h (0 Bft) N-NO 32 ° 0 min 0,000 mm 0,9 UV-I 139 W/m² 15,4 °C 16,5 °C 3,2 km/h (1 Bft)
09.07.2017 18:07 16,6 °C 16,6 °C 93 % 1010,3 hPa 0,0 mm 2,1 km/h (1 Bft) N-NO 32 ° 0 min 0,000 mm 0,9 UV-I 141 W/m² 15,5 °C 16,6 °C 3,2 km/h (1 Bft)
09.07.2017 18:08 16,7 °C 16,7 °C 94 % 1010,3 hPa 0,0 mm 0,2 km/h (0 Bft) N-NO 32 ° 0 min 0,000 mm 1,0 UV-I 142 W/m² 15,7 °C 16,7 °C 3,2 km/h (1 Bft)
09.07.2017 18:09 16,7 °C 16,7 °C 93 % 1010,3 hPa 0,0 mm 0,0 km/h (0 Bft) N-NO 32 ° 0 min 0,000 mm 1,0 UV-I 146 W/m² 15,6 °C 16,7 °C 0,0 km/h (0 Bft)
09.07.2017 18:10 16,8 °C 16,8 °C 93 % 1010,3 hPa 0,0 mm 3,3 km/h (1 Bft) NW 311 ° 0 min 0,000 mm 1,0 UV-I 148 W/m² 15,7 °C 16,8 °C 6,4 km/h (2 Bft)
09.07.2017 18:11 16,8 °C 16,8 °C 93 % 1010,2 hPa 0,0 mm 1,7 km/h (1 Bft) NW 313 ° 0 min 0,000 mm 1,0 UV-I 151 W/m² 15,7 °C 16,8 °C 3,2 km/h (1 Bft)
09.07.2017 18:12 16,9 °C 16,9 °C 93 % 1010,2 hPa 0,0 mm 0,3 km/h (0 Bft) NW 313 ° 0 min 0,000 mm 1,0 UV-I 153 W/m² 15,8 °C 16,9 °C 1,6 km/h (1 Bft)
09.07.2017 18:13 16,9 °C 16,9 °C 93 % 1010,2 hPa 0,0 mm 0,0 km/h (0 Bft) NW 313 ° 0 min 0,000 mm 1,1 UV-I 155 W/m² 15,8 °C 16,9 °C 0,0 km/h (0 Bft)
09.07.2017 18:14 17,0 °C 17,0 °C 93 % 1010,2 hPa 0,0 mm 0,2 km/h (0 Bft) NW 313 ° 0 min 0,000 mm 1,1 UV-I 156 W/m² 15,9 °C 17,0 °C 1,6 km/h (1 Bft)
09.07.2017 18:15 17,1 °C 17,1 °C 93 % 1010,3 hPa 0,0 mm 0,5 km/h (0 Bft) NW 313 ° 0 min 0,000 mm 1,1 UV-I 158 W/m² 16,0 °C 17,1 °C 1,6 km/h (1 Bft)
09.07.2017 18:16 17,2 °C 17,2 °C 93 % 1010,3 hPa 0,0 mm 0,6 km/h (0 Bft) NW 313 ° 0 min 0,000 mm 1,1 UV-I 162 W/m² 16,1 °C 17,2 °C 1,6 km/h (1 Bft)
09.07.2017 18:17 17,3 °C 17,3 °C 93 % 1010,3 hPa 0,0 mm 1,5 km/h (1 Bft) NW 314 ° 0 min 0,000 mm 1,1 UV-I 163 W/m² 16,2 °C 17,3 °C 3,2 km/h (1 Bft)
09.07.2017 18:18 17,4 °C 17,4 °C 93 % 1010,3 hPa 0,0 mm 0,5 km/h (0 Bft) NW 313 ° 0 min 0,000 mm 1,2 UV-I 165 W/m² 16,3 °C 17,4 °C 1,6 km/h (1 Bft)
09.07.2017 18:19 17,5 °C 17,5 °C 92 % 1010,3 hPa 0,0 mm 0,3 km/h (0 Bft) NW 313 ° 0 min 0,000 mm 1,2 UV-I 167 W/m² 16,2 °C 17,5 °C 1,6 km/h (1 Bft)
09.07.2017 18:20 17,5 °C 17,5 °C 92 % 1010,2 hPa 0,0 mm 0,4 km/h (0 Bft) NW 313 ° 0 min 0,000 mm 1,2 UV-I 171 W/m² 16,2 °C 17,5 °C 1,6 km/h (1 Bft)
09.07.2017 18:21 17,5 °C 17,5 °C 92 % 1010,2 hPa 0,0 mm 0,0 km/h (0 Bft) NW 313 ° 0 min 0,000 mm 1,2 UV-I 172 W/m² 16,2 °C 17,5 °C 0,0 km/h (0 Bft)
09.07.2017 18:22 17,5 °C 17,5 °C 92 % 1010,2 hPa 0,0 mm 0,7 km/h (0 Bft) NW 320 ° 0 min 0,000 mm 1,2 UV-I 172 W/m² 16,2 °C 17,5 °C 3,2 km/h (1 Bft)
09.07.2017 18:23 17,6 °C 17,6 °C 92 % 1010,2 hPa 0,0 mm 1,9 km/h (1 Bft) N-NO 14 ° 0 min 0,000 mm 1,2 UV-I 169 W/m² 16,3 °C 17,6 °C 4,8 km/h (1 Bft)
09.07.2017 18:24 17,7 °C 17,7 °C 93 % 1010,2 hPa 0,0 mm 0,3 km/h (0 Bft) N-NO 23 ° 0 min 0,000 mm 1,2 UV-I 163 W/m² 16,6 °C 17,7 °C 1,6 km/h (1 Bft)
09.07.2017 18:25 17,6 °C 17,7 °C 92 % 1010,2 hPa 0,0 mm 0,0 km/h (0 Bft) N-NO 23 ° 0 min 0,000 mm 1,2 UV-I 162 W/m² 16,3 °C 17,6 °C 0,0 km/h (0 Bft)
09.07.2017 18:26 17,5 °C 17,6 °C 91 % 1010,2 hPa 0,0 mm 0,0 km/h (0 Bft) N-NO 23 ° 0 min 0,000 mm 1,2 UV-I 158 W/m² 16,0 °C 17,5 °C 0,0 km/h (0 Bft)
09.07.2017 18:27 17,4 °C 17,5 °C 91 % 1010,2 hPa 0,0 mm 0,0 km/h (0 Bft) N-NO 23 ° 0 min 0,000 mm 1,1 UV-I 156 W/m² 15,9 °C 17,4 °C 0,0 km/h (0 Bft)
09.07.2017 18:28 17,4 °C 17,4 °C 91 % 1010,2 hPa 0,0 mm 0,0 km/h (0 Bft) N-NO 23 ° 0 min 0,000 mm 1,1 UV-I 153 W/m² 15,9 °C 17,4 °C 0,0 km/h (0 Bft)
09.07.2017 18:29 17,5 °C 17,5 °C 91 % 1010,2 hPa 0,0 mm 0,0 km/h (0 Bft) N-NO 23 ° 0 min 0,000 mm 1,1 UV-I 151 W/m² 16,0 °C 17,5 °C 0,0 km/h (0 Bft)
09.07.2017 18:30 17,6 °C 17,6 °C 92 % 1010,2 hPa 0,0 mm 0,0 km/h (0 Bft) N-NO 23 ° 0 min 0,000 mm 1,1 UV-I 149 W/m² 16,3 °C 17,6 °C 0,0 km/h (0 Bft)
09.07.2017 18:31 17,6 °C 17,6 °C 92 % 1010,3 hPa 0,0 mm 0,0 km/h (0 Bft) N-NO 23 ° 0 min 0,000 mm 1,1 UV-I 148 W/m² 16,3 °C 17,6 °C 0,0 km/h (0 Bft)
09.07.2017 18:32 17,6 °C 17,6 °C 92 % 1010,2 hPa 0,0 mm 0,0 km/h (0 Bft) NO 34 ° 0 min 0,000 mm 1,1 UV-I 148 W/m² 16,3 °C 17,6 °C 0,0 km/h (0 Bft)
09.07.2017 18:33 17,5 °C 17,6 °C 92 % 1010,2 hPa 0,0 mm 0,0 km/h (0 Bft) NO 34 ° 0 min 0,000 mm 1,1 UV-I 149 W/m² 16,2 °C 17,5 °C 0,0 km/h (0 Bft)
09.07.2017 18:34 17,4 °C 17,5 °C 91 % 1010,2 hPa 0,0 mm 0,0 km/h (0 Bft) NO 35 ° 0 min 0,000 mm 1,1 UV-I 156 W/m² 15,9 °C 17,4 °C 0,0 km/h (0 Bft)
09.07.2017 18:35 17,4 °C 17,4 °C 92 % 1010,1 hPa 0,0 mm 0,0 km/h (0 Bft) NO 34 ° 0 min 0,000 mm 1,1 UV-I 160 W/m² 16,1 °C 17,4 °C 0,0 km/h (0 Bft)
09.07.2017 18:36 17,4 °C 17,4 °C 92 % 1010,1 hPa 0,0 mm 0,0 km/h (0 Bft) NO 34 ° 0 min 0,000 mm 1,1 UV-I 163 W/m² 16,1 °C 17,4 °C 0,0 km/h (0 Bft)
09.07.2017 18:37 17,4 °C 17,5 °C 92 % 1010,1 hPa 0,0 mm 0,0 km/h (0 Bft) NO 34 ° 0 min 0,000 mm 1,1 UV-I 165 W/m² 16,1 °C 17,4 °C 0,0 km/h (0 Bft)
09.07.2017 18:38 17,4 °C 17,5 °C 92 % 1010,1 hPa 0,0 mm 0,0 km/h (0 Bft) NO 49 ° 0 min 0,000 mm 1,1 UV-I 167 W/m² 16,1 °C 17,4 °C 0,0 km/h (0 Bft)
09.07.2017 18:39 17,4 °C 17,4 °C 92 % 1010,0 hPa 0,0 mm 0,0 km/h (0 Bft) NO 49 ° 0 min 0,000 mm 1,1 UV-I 172 W/m² 16,1 °C 17,4 °C 0,0 km/h (0 Bft)
09.07.2017 18:40 17,5 °C 17,5 °C 92 % 1010,0 hPa 0,0 mm 0,0 km/h (0 Bft) NO 49 ° 0 min 0,000 mm 1,1 UV-I 174 W/m² 16,2 °C 17,5 °C 0,0 km/h (0 Bft)
09.07.2017 18:41 17,4 °C 17,5 °C 92 % 1009,9 hPa 0,0 mm 0,0 km/h (0 Bft) NO 49 ° 0 min 0,000 mm 1,2 UV-I 176 W/m² 16,1 °C 17,4 °C 0,0 km/h (0 Bft)
09.07.2017 18:42 17,5 °C 17,5 °C 92 % 1009,9 hPa 0,0 mm 0,0 km/h (0 Bft) NO 49 ° 0 min 0,000 mm 1,2 UV-I 185 W/m² 16,2 °C 17,5 °C 0,0 km/h (0 Bft)
09.07.2017 18:43 17,5 °C 17,5 °C 92 % 1009,8 hPa 0,0 mm 0,0 km/h (0 Bft) NO 49 ° 0 min 0,000 mm 1,2 UV-I 181 W/m² 16,2 °C 17,5 °C 0,0 km/h (0 Bft)
09.07.2017 18:44 17,6 °C 17,6 °C 92 % 1009,8 hPa 0,0 mm 0,0 km/h (0 Bft) NO 49 ° 0 min 0,000 mm 1,1 UV-I 176 W/m² 16,3 °C 17,6 °C 0,0 km/h (0 Bft)
09.07.2017 18:45 17,6 °C 17,6 °C 92 % 1009,8 hPa 0,0 mm 0,0 km/h (0 Bft) NO 49 ° 0 min 0,000 mm 1,2 UV-I 178 W/m² 16,3 °C 17,6 °C 0,0 km/h (0 Bft)
09.07.2017 18:46 17,6 °C 17,6 °C 92 % 1009,8 hPa 0,0 mm 1,0 km/h (0 Bft) NO 49 ° 0 min 0,000 mm 1,1 UV-I 169 W/m² 16,3 °C 17,6 °C 1,6 km/h (1 Bft)
09.07.2017 18:47 17,7 °C 17,7 °C 92 % 1009,7 hPa 0,0 mm 0,9 km/h (0 Bft) NO 49 ° 0 min 0,000 mm 1,1 UV-I 165 W/m² 16,4 °C 17,7 °C 3,2 km/h (1 Bft)
09.07.2017 18:48 17,7 °C 17,7 °C 92 % 1009,7 hPa 0,0 mm 1,4 km/h (1 Bft) O 84 ° 0 min 0,000 mm 1,1 UV-I 171 W/m² 16,4 °C 17,7 °C 3,2 km/h (1 Bft)
09.07.2017 18:49 17,7 °C 17,7 °C 92 % 1009,7 hPa 0,0 mm 0,2 km/h (0 Bft) O 84 ° 0 min 0,000 mm 1,2 UV-I 176 W/m² 16,4 °C 17,7 °C 1,6 km/h (1 Bft)
09.07.2017 18:50 17,7 °C 17,7 °C 91 % 1009,7 hPa 0,0 mm 1,7 km/h (1 Bft) NW 323 ° 0 min 0,000 mm 1,2 UV-I 172 W/m² 16,2 °C 17,7 °C 4,8 km/h (1 Bft)
09.07.2017 18:51 17,8 °C 17,8 °C 91 % 1009,7 hPa 0,0 mm 0,5 km/h (0 Bft) NW 323 ° 0 min 0,000 mm 1,1 UV-I 169 W/m² 16,3 °C 17,8 °C 3,2 km/h (1 Bft)
09.07.2017 18:52 17,9 °C 17,9 °C 91 % 1009,7 hPa 0,0 mm 1,6 km/h (1 Bft) NW 319 ° 0 min 0,000 mm 1,1 UV-I 190 W/m² 16,4 °C 17,9 °C 4,8 km/h (1 Bft)
09.07.2017 18:53 18,1 °C 18,1 °C 92 % 1009,7 hPa 0,0 mm 2,2 km/h (1 Bft) NW 309 ° 0 min 0,000 mm 1,1 UV-I 193 W/m² 16,8 °C 18,1 °C 4,8 km/h (1 Bft)
09.07.2017 18:54 18,1 °C 18,1 °C 91 % 1009,7 hPa 0,0 mm 1,9 km/h (1 Bft) N-NW 342 ° 0 min 0,000 mm 1,1 UV-I 174 W/m² 16,6 °C 18,1 °C 4,8 km/h (1 Bft)
09.07.2017 18:55 18,1 °C 18,1 °C 90 % 1009,6 hPa 0,0 mm 2,6 km/h (1 Bft) O-NO 59 ° 0 min 0,000 mm 1,1 UV-I 167 W/m² 16,4 °C 18,1 °C 4,8 km/h (1 Bft)
09.07.2017 18:56 18,1 °C 18,1 °C 91 % 1009,6 hPa 0,0 mm 1,7 km/h (1 Bft) O-NO 60 ° 0 min 0,000 mm 1,1 UV-I 162 W/m² 16,6 °C 18,1 °C 3,2 km/h (1 Bft)
09.07.2017 18:57 18,2 °C 18,2 °C 90 % 1009,6 hPa 0,0 mm 1,5 km/h (1 Bft) NO 55 ° 0 min 0,000 mm 1,1 UV-I 167 W/m² 16,5 °C 18,2 °C 4,8 km/h (1 Bft)
09.07.2017 18:58 18,1 °C 18,2 °C 90 % 1009,5 hPa 0,0 mm 3,8 km/h (1 Bft) S-SO 164 ° 0 min 0,000 mm 1,1 UV-I 181 W/m² 16,4 °C 18,1 °C 9,7 km/h (2 Bft)
09.07.2017 18:59 18,2 °C 18,2 °C 90 % 1009,5 hPa 0,0 mm 4,5 km/h (1 Bft) SO 144 ° 0 min 0,000 mm 1,1 UV-I 179 W/m² 16,5 °C 18,2 °C 6,4 km/h (2 Bft)
09.07.2017 19:00 18,3 °C 18,3 °C 91 % 1009,5 hPa 0,0 mm 5,1 km/h (1 Bft) O-SO 122 ° 0 min 0,000 mm 1,1 UV-I 172 W/m² 16,8 °C 18,3 °C 6,4 km/h (2 Bft)
09.07.2017 19:01 18,3 °C 18,3 °C 91 % 1009,5 hPa 0,0 mm 1,3 km/h (1 Bft) O-SO 123 ° 0 min 0,101 mm 1,0 UV-I 171 W/m² 16,8 °C 18,3 °C 3,2 km/h (1 Bft)
09.07.2017 19:02 18,3 °C 18,3 °C 90 % 1009,5 hPa 0,0 mm 0,0 km/h (0 Bft) O-SO 123 ° 0 min 0,000 mm 1,0 UV-I 169 W/m² 16,6 °C 18,3 °C 0,0 km/h (0 Bft)
09.07.2017 19:03 18,3 °C 18,4 °C 90 % 1009,6 hPa 0,0 mm 3,2 km/h (1 Bft) N-NW 345 ° 0 min 0,000 mm 1,0 UV-I 241 W/m² 16,6 °C 18,3 °C 8,0 km/h (2 Bft)
09.07.2017 19:04 18,4 °C 18,4 °C 90 % 1009,5 hPa 0,0 mm 3,9 km/h (1 Bft) W-NW 283 ° 0 min 0,000 mm 1,1 UV-I 232 W/m² 16,7 °C 18,4 °C 6,4 km/h (2 Bft)
09.07.2017 19:05 18,6 °C 18,6 °C 90 % 1009,5 hPa 0,0 mm 0,8 km/h (0 Bft) O-SO 102 ° 0 min 0,000 mm 1,1 UV-I 234 W/m² 16,9 °C 18,6 °C 3,2 km/h (1 Bft)
09.07.2017 19:06 18,6 °C 18,6 °C 90 % 1009,5 hPa 0,0 mm 3,0 km/h (1 Bft) N-NO 17 ° 0 min 0,000 mm 1,0 UV-I 193 W/m² 16,9 °C 18,6 °C 4,8 km/h (1 Bft)
09.07.2017 19:07 18,7 °C 18,7 °C 88 % 1009,5 hPa 0,0 mm 3,5 km/h (1 Bft) N-NO 15 ° 0 min 0,000 mm 1,0 UV-I 172 W/m² 16,7 °C 18,7 °C 4,8 km/h (1 Bft)
09.07.2017 19:08 18,8 °C 18,8 °C 89 % 1009,5 hPa 0,0 mm 2,9 km/h (1 Bft) N-NO 29 ° 0 min 0,000 mm 0,9 UV-I 148 W/m² 16,9 °C 18,8 °C 4,8 km/h (1 Bft)
09.07.2017 19:09 18,7 °C 18,8 °C 88 % 1009,5 hPa 0,0 mm 1,5 km/h (1 Bft) NO 49 ° 0 min 0,000 mm 0,9 UV-I 151 W/m² 16,7 °C 18,7 °C 4,8 km/h (1 Bft)
09.07.2017 19:10 18,7 °C 18,7 °C 87 % 1009,5 hPa 0,0 mm 3,5 km/h (1 Bft) S 188 ° 0 min 0,000 mm 0,9 UV-I 137 W/m² 16,5 °C 18,7 °C 8,0 km/h (2 Bft)
09.07.2017 19:11 18,7 °C 18,7 °C 88 % 1009,6 hPa 0,0 mm 2,2 km/h (1 Bft) S-SW 212 ° 0 min 0,000 mm 0,9 UV-I 141 W/m² 16,7 °C 18,7 °C 8,0 km/h (2 Bft)
09.07.2017 19:12 18,7 °C 18,7 °C 87 % 1009,6 hPa 0,0 mm 4,0 km/h (1 Bft) S 187 ° 0 min 0,000 mm 0,9 UV-I 139 W/m² 16,5 °C 18,7 °C 6,4 km/h (2 Bft)
09.07.2017 19:13 18,7 °C 18,7 °C 89 % 1009,6 hPa 0,0 mm 3,0 km/h (1 Bft) NO 51 ° 0 min 0,000 mm 0,8 UV-I 134 W/m² 16,8 °C 18,7 °C 6,4 km/h (2 Bft)
09.07.2017 19:14 18,7 °C 18,7 °C 89 % 1009,6 hPa 0,0 mm 0,7 km/h (0 Bft) O-NO 70 ° 0 min 0,000 mm 0,8 UV-I 128 W/m² 16,8 °C 18,7 °C 3,2 km/h (1 Bft)
09.07.2017 19:15 18,7 °C 18,7 °C 88 % 1009,6 hPa 0,0 mm 2,5 km/h (1 Bft) N-NW 339 ° 0 min 0,000 mm 0,8 UV-I 123 W/m² 16,7 °C 18,7 °C 4,8 km/h (1 Bft)
09.07.2017 19:16 18,8 °C 18,8 °C 88 % 1009,6 hPa 0,0 mm 1,5 km/h (1 Bft) N-NW 340 ° 0 min 0,000 mm 0,8 UV-I 130 W/m² 16,8 °C 18,8 °C 3,2 km/h (1 Bft)
09.07.2017 19:17 18,8 °C 18,9 °C 89 % 1009,7 hPa 0,0 mm 3,1 km/h (1 Bft) N 349 ° 0 min 0,000 mm 0,8 UV-I 141 W/m² 16,9 °C 18,8 °C 4,8 km/h (1 Bft)
09.07.2017 19:18 18,8 °C 18,8 °C 88 % 1009,7 hPa 0,0 mm 2,7 km/h (1 Bft) O 95 ° 0 min 0,000 mm 0,9 UV-I 156 W/m² 16,8 °C 18,8 °C 4,8 km/h (1 Bft)
09.07.2017 19:19 18,8 °C 18,8 °C 87 % 1009,6 hPa 0,0 mm 2,8 km/h (1 Bft) N-NW 335 ° 0 min 0,000 mm 0,9 UV-I 236 W/m² 16,6 °C 18,8 °C 4,8 km/h (1 Bft)
09.07.2017 19:20 18,9 °C 18,9 °C 86 % 1009,6 hPa 0,0 mm 1,5 km/h (1 Bft) N-NW 344 ° 0 min 0,000 mm 0,9 UV-I 230 W/m² 16,5 °C 18,9 °C 3,2 km/h (1 Bft)
09.07.2017 19:21 18,9 °C 18,9 °C 87 % 1009,5 hPa 0,0 mm 0,9 km/h (0 Bft) N-NW 345 ° 0 min 0,000 mm 0,9 UV-I 214 W/m² 16,7 °C 18,9 °C 3,2 km/h (1 Bft)
09.07.2017 19:22 18,8 °C 18,9 °C 88 % 1009,7 hPa 0,0 mm 1,7 km/h (1 Bft) NO 37 ° 0 min 0,000 mm 0,8 UV-I 179 W/m² 16,8 °C 18,8 °C 4,8 km/h (1 Bft)
09.07.2017 19:23 18,8 °C 18,8 °C 88 % 1009,6 hPa 0,0 mm 3,4 km/h (1 Bft) N-NO 24 ° 0 min 0,000 mm 0,8 UV-I 207 W/m² 16,8 °C 18,8 °C 4,8 km/h (1 Bft)
09.07.2017 19:24 18,8 °C 18,8 °C 89 % 1009,6 hPa 0,0 mm 2,0 km/h (1 Bft) N-NO 24 ° 0 min 0,000 mm 0,8 UV-I 211 W/m² 16,9 °C 18,8 °C 4,8 km/h (1 Bft)
09.07.2017 19:25 18,7 °C 18,8 °C 88 % 1009,6 hPa 0,0 mm 1,4 km/h (1 Bft) O-NO 77 ° 0 min 0,000 mm 0,8 UV-I 213 W/m² 16,7 °C 18,7 °C 3,2 km/h (1 Bft)
09.07.2017 19:26 18,7 °C 18,7 °C 88 % 1009,7 hPa 0,0 mm 0,0 km/h (0 Bft) O-NO 77 ° 0 min 0,000 mm 0,8 UV-I 204 W/m² 16,7 °C 18,7 °C 0,0 km/h (0 Bft)
09.07.2017 19:27 18,7 °C 18,7 °C 88 % 1009,7 hPa 0,0 mm 0,0 km/h (0 Bft) O-NO 77 ° 0 min 0,000 mm 0,8 UV-I 169 W/m² 16,7 °C 18,7 °C 0,0 km/h (0 Bft)
09.07.2017 19:28 18,8 °C 18,8 °C 88 % 1009,7 hPa 0,0 mm 1,4 km/h (1 Bft) O-NO 77 ° 0 min 0,000 mm 0,7 UV-I 204 W/m² 16,8 °C 18,8 °C 3,2 km/h (1 Bft)
09.07.2017 19:29 18,8 °C 18,8 °C 88 % 1009,7 hPa 0,0 mm 2,0 km/h (1 Bft) O-NO 77 ° 0 min 0,000 mm 0,7 UV-I 197 W/m² 16,8 °C 18,8 °C 3,2 km/h (1 Bft)
09.07.2017 19:30 18,7 °C 18,8 °C 88 % 1009,7 hPa 0,0 mm 1,5 km/h (1 Bft) O-NO 77 ° 0 min 0,000 mm 0,7 UV-I 202 W/m² 16,7 °C 18,7 °C 3,2 km/h (1 Bft)
09.07.2017 19:31 18,7 °C 18,7 °C 87 % 1009,8 hPa 0,0 mm 0,0 km/h (0 Bft) O-NO 77 ° 0 min 0,000 mm 0,7 UV-I 181 W/m² 16,5 °C 18,7 °C 0,0 km/h (0 Bft)
09.07.2017 19:32 18,7 °C 18,7 °C 88 % 1009,7 hPa 0,0 mm 0,0 km/h (0 Bft) O-NO 77 ° 0 min 0,000 mm 0,7 UV-I 176 W/m² 16,7 °C 18,7 °C 0,0 km/h (0 Bft)
09.07.2017 19:33 18,8 °C 18,8 °C 85 % 1009,7 hPa 0,0 mm 2,6 km/h (1 Bft) S 177 ° 0 min 0,000 mm 0,7 UV-I 202 W/m² 16,2 °C 18,8 °C 8,0 km/h (2 Bft)
09.07.2017 19:34 18,9 °C 18,9 °C 84 % 1009,7 hPa 0,0 mm 3,8 km/h (1 Bft) S-SO 155 ° 0 min 0,000 mm 0,7 UV-I 197 W/m² 16,1 °C 18,9 °C 8,0 km/h (2 Bft)
09.07.2017 19:35 19,1 °C 19,1 °C 84 % 1009,7 hPa 0,0 mm 1,9 km/h (1 Bft) SO 142 ° 0 min 0,000 mm 0,6 UV-I 195 W/m² 16,3 °C 19,1 °C 6,4 km/h (2 Bft)
09.07.2017 19:36 19,2 °C 19,2 °C 83 % 1009,7 hPa 0,0 mm 3,8 km/h (1 Bft) SO 131 ° 0 min 0,000 mm 0,6 UV-I 186 W/m² 16,2 °C 19,2 °C 6,4 km/h (2 Bft)
09.07.2017 19:37 19,3 °C 19,3 °C 84 % 1009,7 hPa 0,0 mm 0,6 km/h (0 Bft) N-NO 25 ° 0 min 0,000 mm 0,6 UV-I 185 W/m² 16,5 °C 19,3 °C 4,8 km/h (1 Bft)
09.07.2017 19:38 19,4 °C 19,4 °C 83 % 1009,6 hPa 0,0 mm 0,9 km/h (0 Bft) N-NO 24 ° 0 min 0,000 mm 0,6 UV-I 172 W/m² 16,4 °C 19,4 °C 4,8 km/h (1 Bft)
09.07.2017 19:39 19,4 °C 19,4 °C 85 % 1009,6 hPa 0,0 mm 0,0 km/h (0 Bft) N-NO 24 ° 0 min 0,000 mm 0,6 UV-I 102 W/m² 16,8 °C 19,4 °C 0,0 km/h (0 Bft)
09.07.2017 19:40 19,4 °C 19,4 °C 85 % 1009,6 hPa 0,0 mm 0,0 km/h (0 Bft) N-NO 24 ° 0 min 0,000 mm 0,5 UV-I 81 W/m² 16,8 °C 19,4 °C 0,0 km/h (0 Bft)
09.07.2017 19:41 19,4 °C 19,4 °C 84 % 1009,6 hPa 0,0 mm 0,2 km/h (0 Bft) N-NO 24 ° 0 min 0,000 mm 0,5 UV-I 77 W/m² 16,6 °C 19,4 °C 1,6 km/h (1 Bft)
09.07.2017 19:42 19,3 °C 19,4 °C 86 % 1009,7 hPa 0,0 mm 0,0 km/h (0 Bft) N-NO 24 ° 0 min 0,000 mm 0,5 UV-I 76 W/m² 16,9 °C 19,3 °C 0,0 km/h (0 Bft)
09.07.2017 19:43 19,2 °C 19,3 °C 87 % 1009,7 hPa 0,0 mm 0,0 km/h (0 Bft) N-NO 24 ° 0 min 0,000 mm 0,5 UV-I 76 W/m² 17,0 °C 19,2 °C 0,0 km/h (0 Bft)
09.07.2017 19:44 19,1 °C 19,2 °C 88 % 1009,8 hPa 0,0 mm 0,0 km/h (0 Bft) N-NO 24 ° 0 min 0,000 mm 0,0 UV-I 76 W/m² 17,1 °C 19,1 °C 0,0 km/h (0 Bft)
09.07.2017 19:45 19,0 °C 19,1 °C 88 % 1009,7 hPa 0,0 mm 0,0 km/h (0 Bft) N-NO 24 ° 0 min 0,000 mm 0,0 UV-I 72 W/m² 17,0 °C 19,0 °C 0,0 km/h (0 Bft)
09.07.2017 19:46 18,9 °C 19,0 °C 89 % 1009,8 hPa 0,0 mm 0,2 km/h (0 Bft) N-NO 26 ° 0 min 0,000 mm 0,0 UV-I 70 W/m² 17,0 °C 18,9 °C 1,6 km/h (1 Bft)
09.07.2017 19:47 18,7 °C 18,9 °C 88 % 1009,7 hPa 0,0 mm 1,9 km/h (1 Bft) N-NO 32 ° 0 min 0,000 mm 0,0 UV-I 69 W/m² 16,7 °C 18,7 °C 3,2 km/h (1 Bft)
09.07.2017 19:48 18,6 °C 18,7 °C 89 % 1009,8 hPa 0,0 mm 0,2 km/h (0 Bft) N-NO 32 ° 0 min 0,000 mm 0,0 UV-I 65 W/m² 16,7 °C 18,6 °C 1,6 km/h (1 Bft)
09.07.2017 19:49 18,6 °C 18,6 °C 89 % 1009,8 hPa 0,0 mm 0,0 km/h (0 Bft) N-NO 32 ° 0 min 0,000 mm 0,0 UV-I 63 W/m² 16,7 °C 18,6 °C 0,0 km/h (0 Bft)
09.07.2017 19:50 18,5 °C 18,6 °C 90 % 1009,8 hPa 0,0 mm 0,0 km/h (0 Bft) N-NO 32 ° 0 min 0,000 mm 0,0 UV-I 62 W/m² 16,8 °C 18,5 °C 0,0 km/h (0 Bft)
09.07.2017 19:51 18,4 °C 18,6 °C 90 % 1009,8 hPa 0,0 mm 0,0 km/h (0 Bft) N-NO 32 ° 0 min 0,000 mm 0,0 UV-I 60 W/m² 16,7 °C 18,4 °C 0,0 km/h (0 Bft)
09.07.2017 19:52 18,3 °C 18,4 °C 90 % 1009,8 hPa 0,0 mm 0,0 km/h (0 Bft) N-NO 32 ° 0 min 0,000 mm 0,0 UV-I 58 W/m² 16,6 °C 18,3 °C 0,0 km/h (0 Bft)
09.07.2017 19:53 18,3 °C 18,3 °C 90 % 1009,8 hPa 0,0 mm 0,0 km/h (0 Bft) N-NO 32 ° 0 min 0,000 mm 0,0 UV-I 54 W/m² 16,6 °C 18,3 °C 0,0 km/h (0 Bft)
09.07.2017 19:54 18,3 °C 18,3 °C 91 % 1009,7 hPa 0,0 mm 0,0 km/h (0 Bft) N-NO 32 ° 0 min 0,000 mm 0,0 UV-I 54 W/m² 16,8 °C 18,3 °C 0,0 km/h (0 Bft)
09.07.2017 19:55 18,2 °C 18,3 °C 91 % 1009,7 hPa 0,0 mm 0,0 km/h (0 Bft) N-NO 32 ° 0 min 0,000 mm 0,0 UV-I 49 W/m² 16,7 °C 18,2 °C 0,0 km/h (0 Bft)
09.07.2017 19:56 18,1 °C 18,2 °C 90 % 1009,7 hPa 0,0 mm 0,0 km/h (0 Bft) N-NO 32 ° 0 min 0,000 mm 0,0 UV-I 46 W/m² 16,4 °C 18,1 °C 0,0 km/h (0 Bft)
09.07.2017 19:57 18,1 °C 18,1 °C 91 % 1009,7 hPa 0,0 mm 0,0 km/h (0 Bft) N-NO 32 ° 0 min 0,000 mm 0,0 UV-I 44 W/m² 16,6 °C 18,1 °C 0,0 km/h (0 Bft)
09.07.2017 19:58 18,0 °C 18,1 °C 90 % 1009,7 hPa 0,0 mm 0,0 km/h (0 Bft) N-NO 32 ° 0 min 0,000 mm 0,0 UV-I 42 W/m² 16,3 °C 18,0 °C 0,0 km/h (0 Bft)
09.07.2017 19:59 18,0 °C 18,1 °C 91 % 1009,8 hPa 0,0 mm 0,0 km/h (0 Bft) N-NO 32 ° 0 min 0,000 mm 0,0 UV-I 40 W/m² 16,5 °C 18,0 °C 0,0 km/h (0 Bft)
09.07.2017 20:00 18,0 °C 18,0 °C 91 % 1009,8 hPa 0,0 mm 0,0 km/h (0 Bft) N-NO 32 ° 0 min 0,000 mm 0,0 UV-I 40 W/m² 16,5 °C 18,0 °C 0,0 km/h (0 Bft)
09.07.2017 20:01 17,9 °C 18,0 °C 91 % 1009,8 hPa 0,0 mm 0,0 km/h (0 Bft) N-NO 32 ° 0 min 0,076 mm 0,0 UV-I 39 W/m² 16,4 °C 17,9 °C 0,0 km/h (0 Bft)
09.07.2017 20:02 17,9 °C 17,9 °C 91 % 1009,8 hPa 0,0 mm 0,0 km/h (0 Bft) N-NO 32 ° 0 min 0,000 mm 0,0 UV-I 35 W/m² 16,4 °C 17,9 °C 0,0 km/h (0 Bft)
09.07.2017 20:03 17,9 °C 17,9 °C 91 % 1009,8 hPa 0,0 mm 0,0 km/h (0 Bft) N-NO 32 ° 0 min 0,000 mm 0,0 UV-I 33 W/m² 16,4 °C 17,9 °C 0,0 km/h (0 Bft)
09.07.2017 20:04 17,9 °C 17,9 °C 91 % 1009,7 hPa 0,0 mm 0,6 km/h (0 Bft) O 96 ° 0 min 0,000 mm 0,0 UV-I 32 W/m² 16,4 °C 17,9 °C 3,2 km/h (1 Bft)
09.07.2017 20:05 17,9 °C 17,9 °C 91 % 1009,7 hPa 0,0 mm 2,3 km/h (1 Bft) SO 137 ° 0 min 0,000 mm 0,0 UV-I 30 W/m² 16,4 °C 17,9 °C 4,8 km/h (1 Bft)
09.07.2017 20:06 17,8 °C 17,9 °C 90 % 1009,7 hPa 0,0 mm 0,1 km/h (0 Bft) SO 137 ° 0 min 0,000 mm 0,0 UV-I 28 W/m² 16,1 °C 17,8 °C 1,6 km/h (1 Bft)
09.07.2017 20:07 17,8 °C 17,8 °C 90 % 1009,7 hPa 0,0 mm 0,5 km/h (0 Bft) SO 136 ° 0 min 0,000 mm 0,0 UV-I 26 W/m² 16,1 °C 17,8 °C 1,6 km/h (1 Bft)
09.07.2017 20:08 17,8 °C 17,8 °C 91 % 1009,6 hPa 0,0 mm 0,0 km/h (0 Bft) SO 136 ° 0 min 0,000 mm 0,0 UV-I 25 W/m² 16,3 °C 17,8 °C 0,0 km/h (0 Bft)
09.07.2017 20:09 17,8 °C 17,8 °C 90 % 1009,6 hPa 0,0 mm 0,0 km/h (0 Bft) SO 136 ° 0 min 0,000 mm 0,0 UV-I 25 W/m² 16,1 °C 17,8 °C 0,0 km/h (0 Bft)
09.07.2017 20:10 17,7 °C 17,8 °C 91 % 1009,6 hPa 0,0 mm 0,0 km/h (0 Bft) SO 136 ° 0 min 0,000 mm 0,0 UV-I 25 W/m² 16,2 °C 17,7 °C 0,0 km/h (0 Bft)
09.07.2017 20:11 17,7 °C 17,7 °C 91 % 1009,6 hPa 0,0 mm 0,0 km/h (0 Bft) SO 136 ° 0 min 0,000 mm 0,0 UV-I 25 W/m² 16,2 °C 17,7 °C 0,0 km/h (0 Bft)
09.07.2017 20:12 17,6 °C 17,7 °C 91 % 1009,5 hPa 0,0 mm 0,0 km/h (0 Bft) SO 136 ° 0 min 0,000 mm 0,0 UV-I 25 W/m² 16,1 °C 17,6 °C 0,0 km/h (0 Bft)
09.07.2017 20:13 17,6 °C 17,6 °C 91 % 1009,6 hPa 0,0 mm 0,0 km/h (0 Bft) SO 136 ° 0 min 0,000 mm 0,0 UV-I 25 W/m² 16,1 °C 17,6 °C 0,0 km/h (0 Bft)
09.07.2017 20:14 17,6 °C 17,6 °C 91 % 1009,5 hPa 0,0 mm 0,0 km/h (0 Bft) SO 136 ° 0 min 0,000 mm 0,0 UV-I 25 W/m² 16,1 °C 17,6 °C 0,0 km/h (0 Bft)
09.07.2017 20:15 17,6 °C 17,6 °C 92 % 1009,5 hPa 0,0 mm 0,0 km/h (0 Bft) SO 136 ° 0 min 0,000 mm 0,0 UV-I 25 W/m² 16,3 °C 17,6 °C 0,0 km/h (0 Bft)
09.07.2017 20:16 17,5 °C 17,6 °C 92 % 1009,5 hPa 0,0 mm 0,0 km/h (0 Bft) SO 136 ° 0 min 0,000 mm 0,0 UV-I 25 W/m² 16,2 °C 17,5 °C 0,0 km/h (0 Bft)
09.07.2017 20:17 17,5 °C 17,6 °C 91 % 1009,5 hPa 0,0 mm 1,8 km/h (1 Bft) O-SO 121 ° 0 min 0,000 mm 0,0 UV-I 25 W/m² 16,0 °C 17,5 °C 3,2 km/h (1 Bft)
09.07.2017 20:18 17,4 °C 17,5 °C 91 % 1009,4 hPa 0,0 mm 0,0 km/h (0 Bft) O-SO 121 ° 0 min 0,000 mm 0,0 UV-I 25 W/m² 15,9 °C 17,4 °C 0,0 km/h (0 Bft)
09.07.2017 20:19 17,5 °C 17,5 °C 92 % 1009,4 hPa 0,0 mm 1,4 km/h (1 Bft) O-SO 121 ° 0 min 0,000 mm 0,0 UV-I 23 W/m² 16,2 °C 17,5 °C 3,2 km/h (1 Bft)
09.07.2017 20:20 17,5 °C 17,5 °C 91 % 1009,4 hPa 0,0 mm 2,1 km/h (1 Bft) O-SO 121 ° 0 min 0,000 mm 0,0 UV-I 23 W/m² 16,0 °C 17,5 °C 3,2 km/h (1 Bft)
09.07.2017 20:21 17,6 °C 17,6 °C 91 % 1009,4 hPa 0,0 mm 0,2 km/h (0 Bft) O-SO 121 ° 0 min 0,000 mm 0,0 UV-I 21 W/m² 16,1 °C 17,6 °C 1,6 km/h (1 Bft)
09.07.2017 20:22 17,6 °C 17,6 °C 91 % 1009,3 hPa 0,0 mm 0,0 km/h (0 Bft) O-SO 121 ° 0 min 0,000 mm 0,0 UV-I 21 W/m² 16,1 °C 17,6 °C 0,0 km/h (0 Bft)
09.07.2017 20:23 17,6 °C 17,6 °C 91 % 1009,3 hPa 0,0 mm 0,0 km/h (0 Bft) O-SO 121 ° 0 min 0,000 mm 0,0 UV-I 19 W/m² 16,1 °C 17,6 °C 0,0 km/h (0 Bft)
09.07.2017 20:24 17,6 °C 17,6 °C 91 % 1009,3 hPa 0,0 mm 0,1 km/h (0 Bft) O-SO 121 ° 0 min 0,000 mm 0,0 UV-I 18 W/m² 16,1 °C 17,6 °C 1,6 km/h (1 Bft)
09.07.2017 20:25 17,6 °C 17,6 °C 91 % 1009,3 hPa 0,0 mm 0,0 km/h (0 Bft) O-SO 121 ° 0 min 0,000 mm 0,0 UV-I 18 W/m² 16,1 °C 17,6 °C 0,0 km/h (0 Bft)
09.07.2017 20:26 17,6 °C 17,6 °C 91 % 1009,3 hPa 0,0 mm 0,0 km/h (0 Bft) O-SO 121 ° 0 min 0,000 mm 0,0 UV-I 18 W/m² 16,1 °C 17,6 °C 0,0 km/h (0 Bft)
09.07.2017 20:27 17,5 °C 17,6 °C 92 % 1009,3 hPa 0,0 mm 0,0 km/h (0 Bft) O-SO 121 ° 0 min 0,000 mm 0,0 UV-I 18 W/m² 16,2 °C 17,5 °C 0,0 km/h (0 Bft)
09.07.2017 20:28 17,5 °C 17,6 °C 92 % 1009,2 hPa 0,0 mm 0,0 km/h (0 Bft) O-SO 121 ° 0 min 0,000 mm 0,0 UV-I 19 W/m² 16,2 °C 17,5 °C 0,0 km/h (0 Bft)
09.07.2017 20:29 17,5 °C 17,5 °C 92 % 1009,2 hPa 0,0 mm 1,0 km/h (0 Bft) NO 51 ° 0 min 0,000 mm 0,0 UV-I 19 W/m² 16,2 °C 17,5 °C 4,8 km/h (1 Bft)
09.07.2017 20:30 17,4 °C 17,5 °C 92 % 1009,2 hPa 0,0 mm 0,1 km/h (0 Bft) NO 52 ° 0 min 0,000 mm 0,0 UV-I 21 W/m² 16,1 °C 17,4 °C 1,6 km/h (1 Bft)
09.07.2017 20:31 17,4 °C 17,4 °C 92 % 1009,2 hPa 0,0 mm 0,0 km/h (0 Bft) NO 51 ° 0 min 0,000 mm 0,0 UV-I 21 W/m² 16,1 °C 17,4 °C 0,0 km/h (0 Bft)
09.07.2017 20:32 17,3 °C 17,4 °C 92 % 1009,3 hPa 0,0 mm 0,3 km/h (0 Bft) NO 52 ° 0 min 0,000 mm 0,0 UV-I 21 W/m² 16,0 °C 17,3 °C 1,6 km/h (1 Bft)
09.07.2017 20:33 17,3 °C 17,3 °C 92 % 1009,2 hPa 0,0 mm 0,0 km/h (0 Bft) NO 51 ° 0 min 0,000 mm 0,0 UV-I 21 W/m² 16,0 °C 17,3 °C 0,0 km/h (0 Bft)
09.07.2017 20:34 17,3 °C 17,3 °C 92 % 1009,3 hPa 0,0 mm 1,5 km/h (1 Bft) W-NW 302 ° 0 min 0,000 mm 0,0 UV-I 19 W/m² 16,0 °C 17,3 °C 6,4 km/h (2 Bft)
09.07.2017 20:35 17,3 °C 17,3 °C 92 % 1009,3 hPa 0,0 mm 0,4 km/h (0 Bft) W-NW 302 ° 0 min 0,000 mm 0,0 UV-I 19 W/m² 16,0 °C 17,3 °C 3,2 km/h (1 Bft)
09.07.2017 20:36 17,4 °C 17,4 °C 92 % 1009,3 hPa 0,0 mm 2,3 km/h (1 Bft) SW 215 ° 0 min 0,000 mm 0,0 UV-I 18 W/m² 16,1 °C 17,4 °C 4,8 km/h (1 Bft)
09.07.2017 20:37 17,4 °C 17,4 °C 92 % 1009,3 hPa 0,0 mm 2,2 km/h (1 Bft) SW 217 ° 0 min 0,000 mm 0,0 UV-I 18 W/m² 16,1 °C 17,4 °C 4,8 km/h (1 Bft)
09.07.2017 20:38 17,4 °C 17,4 °C 92 % 1009,3 hPa 0,0 mm 0,0 km/h (0 Bft) SW 217 ° 0 min 0,000 mm 0,0 UV-I 16 W/m² 16,1 °C 17,4 °C 0,0 km/h (0 Bft)
09.07.2017 20:39 17,4 °C 17,4 °C 92 % 1009,3 hPa 0,0 mm 1,5 km/h (1 Bft) SW 216 ° 0 min 0,000 mm 0,0 UV-I 14 W/m² 16,1 °C 17,4 °C 3,2 km/h (1 Bft)
09.07.2017 20:40 17,3 °C 17,4 °C 92 % 1009,3 hPa 0,0 mm 0,3 km/h (0 Bft) SW 216 ° 0 min 0,000 mm 0,0 UV-I 12 W/m² 16,0 °C 17,3 °C 1,6 km/h (1 Bft)
09.07.2017 20:41 17,3 °C 17,3 °C 92 % 1009,3 hPa 0,0 mm 0,3 km/h (0 Bft) SW 216 ° 0 min 0,000 mm 0,0 UV-I 12 W/m² 16,0 °C 17,3 °C 1,6 km/h (1 Bft)
09.07.2017 20:42 17,3 °C 17,3 °C 92 % 1009,2 hPa 0,0 mm 0,6 km/h (0 Bft) SW 216 ° 0 min 0,000 mm 0,0 UV-I 11 W/m² 16,0 °C 17,3 °C 1,6 km/h (1 Bft)
09.07.2017 20:43 17,2 °C 17,3 °C 92 % 1009,2 hPa 0,0 mm 0,1 km/h (0 Bft) SW 217 ° 0 min 0,000 mm 0,0 UV-I 11 W/m² 15,9 °C 17,2 °C 1,6 km/h (1 Bft)
09.07.2017 20:44 17,2 °C 17,3 °C 92 % 1009,2 hPa 0,0 mm 0,8 km/h (0 Bft) S-SO 168 ° 0 min 0,000 mm 0,0 UV-I 11 W/m² 15,9 °C 17,2 °C 3,2 km/h (1 Bft)
09.07.2017 20:45 17,2 °C 17,2 °C 92 % 1009,2 hPa 0,0 mm 0,7 km/h (0 Bft) NW 305 ° 0 min 0,000 mm 0,0 UV-I 9 W/m² 15,9 °C 17,2 °C 1,6 km/h (1 Bft)
09.07.2017 20:46 17,2 °C 17,2 °C 92 % 1009,2 hPa 0,0 mm 0,0 km/h (0 Bft) NW 305 ° 0 min 0,000 mm 0,0 UV-I 9 W/m² 15,9 °C 17,2 °C 0,0 km/h (0 Bft)
09.07.2017 20:47 17,2 °C 17,2 °C 92 % 1009,2 hPa 0,0 mm 0,0 km/h (0 Bft) NW 305 ° 0 min 0,000 mm 0,0 UV-I 7 W/m² 15,9 °C 17,2 °C 0,0 km/h (0 Bft)
09.07.2017 20:48 17,2 °C 17,2 °C 92 % 1009,2 hPa 0,0 mm 0,0 km/h (0 Bft) NW 305 ° 0 min 0,000 mm 0,0 UV-I 7 W/m² 15,9 °C 17,2 °C 0,0 km/h (0 Bft)
09.07.2017 20:49 17,2 °C 17,2 °C 92 % 1009,2 hPa 0,0 mm 0,0 km/h (0 Bft) NW 305 ° 0 min 0,000 mm 0,0 UV-I 5 W/m² 15,9 °C 17,2 °C 0,0 km/h (0 Bft)
09.07.2017 20:50 17,2 °C 17,2 °C 92 % 1009,2 hPa 0,0 mm 1,1 km/h (1 Bft) W-NW 298 ° 0 min 0,000 mm 0,0 UV-I 0 W/m² 15,9 °C 17,2 °C 3,2 km/h (1 Bft)
09.07.2017 20:51 17,2 °C 17,2 °C 92 % 1009,3 hPa 0,0 mm 4,2 km/h (1 Bft) W-NW 292 ° 0 min 0,000 mm 0,0 UV-I 0 W/m² 15,9 °C 17,2 °C 8,0 km/h (2 Bft)
09.07.2017 20:52 17,3 °C 17,3 °C 92 % 1009,3 hPa 0,0 mm 1,4 km/h (1 Bft) W 269 ° 0 min 0,000 mm 0,0 UV-I 0 W/m² 16,0 °C 17,3 °C 4,8 km/h (1 Bft)
09.07.2017 20:53 17,3 °C 17,3 °C 92 % 1009,3 hPa 0,0 mm 1,0 km/h (0 Bft) W 269 ° 0 min 0,000 mm 0,0 UV-I 0 W/m² 16,0 °C 17,3 °C 1,6 km/h (1 Bft)
09.07.2017 20:54 17,3 °C 17,3 °C 92 % 1009,3 hPa 0,0 mm 0,3 km/h (0 Bft) W 269 ° 0 min 0,000 mm 0,0 UV-I 0 W/m² 16,0 °C 17,3 °C 1,6 km/h (1 Bft)
09.07.2017 20:55 17,3 °C 17,3 °C 92 % 1009,3 hPa 0,0 mm 0,3 km/h (0 Bft) W-NW 283 ° 0 min 0,000 mm 0,0 UV-I 0 W/m² 16,0 °C 17,3 °C 3,2 km/h (1 Bft)
09.07.2017 20:56 17,3 °C 17,3 °C 91 % 1009,2 hPa 0,0 mm 0,9 km/h (0 Bft) W-SW 257 ° 0 min 0,000 mm 0,0 UV-I 0 W/m² 15,8 °C 17,3 °C 3,2 km/h (1 Bft)
09.07.2017 20:57 17,3 °C 17,3 °C 92 % 1009,2 hPa 0,0 mm 1,1 km/h (1 Bft) W-SW 257 ° 0 min 0,000 mm 0,0 UV-I 0 W/m² 16,0 °C 17,3 °C 3,2 km/h (1 Bft)
09.07.2017 20:58 17,2 °C 17,3 °C 92 % 1009,1 hPa 0,0 mm 1,7 km/h (1 Bft) SW 230 ° 0 min 0,000 mm 0,0 UV-I 0 W/m² 15,9 °C 17,2 °C 3,2 km/h (1 Bft)
09.07.2017 20:59 17,2 °C 17,3 °C 92 % 1009,1 hPa 0,0 mm 3,6 km/h (1 Bft) O-SO 102 ° 0 min 0,000 mm 0,0 UV-I 0 W/m² 15,9 °C 17,2 °C 4,8 km/h (1 Bft)
09.07.2017 21:00 17,2 °C 17,2 °C 92 % 1009,1 hPa 0,0 mm 1,8 km/h (1 Bft) O-SO 102 ° 0 min 0,000 mm 0,0 UV-I 0 W/m² 15,9 °C 17,2 °C 3,2 km/h (1 Bft)
09.07.2017 21:01 17,2 °C 17,2 °C 92 % 1009,0 hPa 0,0 mm 0,0 km/h (0 Bft) O-SO 102 ° 0 min 0,000 mm 0,0 UV-I 0 W/m² 15,9 °C 17,2 °C 0,0 km/h (0 Bft)
09.07.2017 21:02 17,1 °C 17,2 °C 92 % 1009,0 hPa 0,0 mm 0,0 km/h (0 Bft) O-SO 102 ° 0 min 0,000 mm 0,0 UV-I 0 W/m² 15,8 °C 17,1 °C 0,0 km/h (0 Bft)
09.07.2017 21:04 17,1 °C 17,1 °C 92 % 1009,2 hPa 0,0 mm 1,3 km/h (1 Bft) SO 140 ° 0 min 0,000 mm 0,0 UV-I 0 W/m² 15,8 °C 17,1 °C 4,8 km/h (1 Bft)
09.07.2017 21:05 17,1 °C 17,1 °C 92 % 1009,2 hPa 0,0 mm 1,1 km/h (1 Bft) SO 139 ° 0 min 0,000 mm 0,0 UV-I 0 W/m² 15,8 °C 17,1 °C 3,2 km/h (1 Bft)
09.07.2017 21:06 17,1 °C 17,1 °C 92 % 1009,2 hPa 0,0 mm 0,2 km/h (0 Bft) SO 139 ° 0 min 0,000 mm 0,0 UV-I 0 W/m² 15,8 °C 17,1 °C 1,6 km/h (1 Bft)
09.07.2017 21:07 17,1 °C 17,1 °C 92 % 1009,2 hPa 0,0 mm 0,9 km/h (0 Bft) O-NO 59 ° 0 min 0,000 mm 0,0 UV-I 0 W/m² 15,8 °C 17,1 °C 3,2 km/h (1 Bft)
09.07.2017 21:08 17,1 °C 17,1 °C 92 % 1009,2 hPa 0,0 mm 0,5 km/h (0 Bft) O-NO 59 ° 0 min 0,000 mm 0,0 UV-I 0 W/m² 15,8 °C 17,1 °C 1,6 km/h (1 Bft)
09.07.2017 21:09 17,1 °C 17,1 °C 92 % 1009,2 hPa 0,0 mm 3,5 km/h (1 Bft) NO 49 ° 0 min 0,000 mm 0,0 UV-I 0 W/m² 15,8 °C 17,1 °C 4,8 km/h (1 Bft)
09.07.2017 21:10 17,0 °C 17,1 °C 92 % 1009,2 hPa 0,0 mm 0,3 km/h (0 Bft) NO 53 ° 0 min 0,000 mm 0,0 UV-I 0 W/m² 15,7 °C 17,0 °C 1,6 km/h (1 Bft)
09.07.2017 21:11 17,0 °C 17,0 °C 92 % 1009,2 hPa 0,0 mm 1,8 km/h (1 Bft) N 355 ° 0 min 0,000 mm 0,0 UV-I 0 W/m² 15,7 °C 17,0 °C 4,8 km/h (1 Bft)
09.07.2017 21:12 17,0 °C 17,0 °C 92 % 1009,3 hPa 0,0 mm 2,6 km/h (1 Bft) N-NW 327 ° 0 min 0,000 mm 0,0 UV-I 0 W/m² 15,7 °C 17,0 °C 3,2 km/h (1 Bft)
09.07.2017 21:13 17,0 °C 17,0 °C 92 % 1009,4 hPa 0,0 mm 2,4 km/h (1 Bft) NW 315 ° 0 min 0,000 mm 0,0 UV-I 0 W/m² 15,7 °C 17,0 °C 4,8 km/h (1 Bft)
09.07.2017 21:14 17,0 °C 17,0 °C 92 % 1009,6 hPa 0,0 mm 2,4 km/h (1 Bft) NW 313 ° 0 min 0,000 mm 0,0 UV-I 0 W/m² 15,7 °C 17,0 °C 3,2 km/h (1 Bft)
09.07.2017 21:15 17,1 °C 17,1 °C 92 % 1009,8 hPa 0,0 mm 4,8 km/h (1 Bft) W 267 ° 0 min 0,000 mm 0,0 UV-I 0 W/m² 15,8 °C 17,1 °C 6,4 km/h (2 Bft)
09.07.2017 21:16 17,2 °C 17,2 °C 91 % 1010,0 hPa 0,0 mm 5,9 km/h (2 Bft) W-SW 240 ° 0 min 0,000 mm 0,0 UV-I 0 W/m² 15,7 °C 17,2 °C 11,3 km/h (2 Bft)
09.07.2017 21:17 17,2 °C 17,2 °C 91 % 1010,2 hPa 0,0 mm 7,7 km/h (2 Bft) W-NW 286 ° 0 min 0,000 mm 0,0 UV-I 0 W/m² 15,7 °C 17,2 °C 11,3 km/h (2 Bft)
09.07.2017 21:18 17,3 °C 17,3 °C 90 % 1010,3 hPa 0,0 mm 10,1 km/h (2 Bft) W 271 ° 0 min 0,000 mm 0,0 UV-I 0 W/m² 15,6 °C 17,3 °C 14,5 km/h (3 Bft)
09.07.2017 21:19 17,4 °C 17,4 °C 90 % 1010,5 hPa 0,0 mm 7,1 km/h (2 Bft) W-NW 284 ° 0 min 0,000 mm 0,0 UV-I 0 W/m² 15,7 °C 17,4 °C 12,9 km/h (3 Bft)
09.07.2017 21:20 17,5 °C 17,5 °C 89 % 1010,6 hPa 0,0 mm 5,5 km/h (1 Bft) W 275 ° 0 min 0,000 mm 0,0 UV-I 0 W/m² 15,7 °C 17,5 °C 9,7 km/h (2 Bft)
09.07.2017 21:21 17,6 °C 17,6 °C 89 % 1010,7 hPa 0,0 mm 6,5 km/h (2 Bft) W 271 ° 0 min 0,000 mm 0,0 UV-I 0 W/m² 15,8 °C 17,6 °C 9,7 km/h (2 Bft)
09.07.2017 21:22 17,6 °C 17,6 °C 89 % 1011,0 hPa 0,0 mm 9,4 km/h (2 Bft) W 264 ° 0 min 0,000 mm 0,0 UV-I 0 W/m² 15,8 °C 17,6 °C 14,5 km/h (3 Bft)
09.07.2017 21:23 17,6 °C 17,6 °C 89 % 1011,0 hPa 0,0 mm 6,4 km/h (2 Bft) W-SW 254 ° 0 min 0,000 mm 0,0 UV-I 0 W/m² 15,8 °C 17,6 °C 11,3 km/h (2 Bft)
09.07.2017 21:24 17,6 °C 17,6 °C 89 % 1011,0 hPa 0,0 mm 5,6 km/h (1 Bft) SW 236 ° 0 min 0,000 mm 0,0 UV-I 0 W/m² 15,8 °C 17,6 °C 9,7 km/h (2 Bft)
09.07.2017 21:25 17,6 °C 17,6 °C 89 % 1011,0 hPa 0,0 mm 5,9 km/h (2 Bft) W-SW 251 ° 0 min 0,000 mm 0,0 UV-I 0 W/m² 15,8 °C 17,6 °C 9,7 km/h (2 Bft)
09.07.2017 21:26 17,6 °C 17,6 °C 89 % 1011,1 hPa 0,0 mm 4,0 km/h (1 Bft) W 275 ° 0 min 0,000 mm 0,0 UV-I 0 W/m² 15,8 °C 17,6 °C 6,4 km/h (2 Bft)
09.07.2017 21:27 17,6 °C 17,6 °C 90 % 1011,2 hPa 0,0 mm 1,8 km/h (1 Bft) W 269 ° 0 min 0,000 mm 0,0 UV-I 0 W/m² 15,9 °C 17,6 °C 4,8 km/h (1 Bft)
09.07.2017 21:28 17,5 °C 17,6 °C 90 % 1011,2 hPa 0,0 mm 0,4 km/h (0 Bft) W 264 ° 0 min 0,000 mm 0,0 UV-I 0 W/m² 15,8 °C 17,5 °C 3,2 km/h (1 Bft)
09.07.2017 21:29 17,5 °C 17,5 °C 90 % 1011,2 hPa 0,0 mm 2,4 km/h (1 Bft) S-SW 198 ° 0 min 0,000 mm 0,0 UV-I 0 W/m² 15,8 °C 17,5 °C 4,8 km/h (1 Bft)
09.07.2017 21:30 17,4 °C 17,5 °C 90 % 1011,2 hPa 0,0 mm 1,0 km/h (0 Bft) W 269 ° 0 min 0,000 mm 0,0 UV-I 0 W/m² 15,7 °C 17,4 °C 3,2 km/h (1 Bft)
09.07.2017 21:31 17,3 °C 17,4 °C 90 % 1011,1 hPa 0,0 mm 2,0 km/h (1 Bft) S-SW 203 ° 0 min 0,000 mm 0,0 UV-I 0 W/m² 15,6 °C 17,3 °C 3,2 km/h (1 Bft)
09.07.2017 21:32 17,3 °C 17,3 °C 90 % 1011,2 hPa 0,2 mm 3,5 km/h (1 Bft) S-SO 163 ° 0 min 0,000 mm 0,0 UV-I 0 W/m² 15,6 °C 17,3 °C 6,4 km/h (2 Bft)
09.07.2017 21:33 17,2 °C 17,3 °C 90 % 1011,2 hPa 0,0 mm 3,9 km/h (1 Bft) S-SW 204 ° 0 min 0,000 mm 0,0 UV-I 0 W/m² 15,5 °C 17,2 °C 6,4 km/h (2 Bft)
09.07.2017 21:34 17,2 °C 17,2 °C 91 % 1011,2 hPa 0,0 mm 1,1 km/h (1 Bft) S-SW 205 ° 0 min 0,000 mm 0,0 UV-I 0 W/m² 15,7 °C 17,2 °C 3,2 km/h (1 Bft)
09.07.2017 21:35 17,2 °C 17,2 °C 91 % 1011,2 hPa 0,0 mm 2,1 km/h (1 Bft) S-SW 201 ° 0 min 0,000 mm 0,0 UV-I 0 W/m² 15,7 °C 17,2 °C 3,2 km/h (1 Bft)
09.07.2017 21:36 17,2 °C 17,2 °C 91 % 1011,2 hPa 0,0 mm 4,5 km/h (1 Bft) S-SO 167 ° 0 min 0,000 mm 0,0 UV-I 0 W/m² 15,7 °C 17,2 °C 9,7 km/h (2 Bft)
09.07.2017 21:37 17,1 °C 17,2 °C 91 % 1011,1 hPa 0,0 mm 2,5 km/h (1 Bft) S-SO 168 ° 0 min 0,000 mm 0,0 UV-I 0 W/m² 15,6 °C 17,1 °C 6,4 km/h (2 Bft)
09.07.2017 21:38 17,1 °C 17,1 °C 91 % 1011,1 hPa 0,0 mm 2,5 km/h (1 Bft) S-SO 168 ° 0 min 0,000 mm 0,0 UV-I 0 W/m² 15,6 °C 17,1 °C 3,2 km/h (1 Bft)
09.07.2017 21:39 17,0 °C 17,1 °C 91 % 1011,0 hPa 0,0 mm 3,3 km/h (1 Bft) S-SO 155 ° 0 min 0,000 mm 0,0 UV-I 0 W/m² 15,5 °C 17,0 °C 6,4 km/h (2 Bft)
09.07.2017 21:40 16,9 °C 17,0 °C 91 % 1010,9 hPa 0,0 mm 4,0 km/h (1 Bft) S-SO 168 ° 0 min 0,000 mm 0,0 UV-I 0 W/m² 15,4 °C 16,9 °C 6,4 km/h (2 Bft)
09.07.2017 21:41 16,9 °C 16,9 °C 92 % 1010,8 hPa 0,0 mm 1,1 km/h (1 Bft) S-SO 168 ° 0 min 0,000 mm 0,0 UV-I 0 W/m² 15,6 °C 16,9 °C 3,2 km/h (1 Bft)
09.07.2017 21:42 16,8 °C 16,9 °C 92 % 1010,7 hPa 0,0 mm 0,0 km/h (0 Bft) S-SO 168 ° 0 min 0,000 mm 0,0 UV-I 0 W/m² 15,5 °C 16,8 °C 0,0 km/h (0 Bft)
09.07.2017 21:43 16,8 °C 16,8 °C 92 % 1010,6 hPa 0,0 mm 0,0 km/h (0 Bft) S-SO 168 ° 0 min 0,000 mm 0,0 UV-I 0 W/m² 15,5 °C 16,8 °C 0,0 km/h (0 Bft)
09.07.2017 21:44 16,7 °C 16,8 °C 92 % 1010,5 hPa 0,0 mm 0,9 km/h (0 Bft) S-SO 168 ° 0 min 0,000 mm 0,0 UV-I 0 W/m² 15,4 °C 16,7 °C 3,2 km/h (1 Bft)
09.07.2017 21:45 16,7 °C 16,7 °C 92 % 1010,5 hPa 0,0 mm 3,6 km/h (1 Bft) S-SO 165 ° 0 min 0,000 mm 0,0 UV-I 0 W/m² 15,4 °C 16,7 °C 6,4 km/h (2 Bft)
09.07.2017 21:46 16,7 °C 16,7 °C 92 % 1010,3 hPa 0,0 mm 0,4 km/h (0 Bft) S-SO 165 ° 0 min 0,000 mm 0,0 UV-I 0 W/m² 15,4 °C 16,7 °C 1,6 km/h (1 Bft)
09.07.2017 21:47 16,7 °C 16,7 °C 92 % 1010,3 hPa 0,0 mm 2,7 km/h (1 Bft) S-SO 161 ° 0 min 0,000 mm 0,0 UV-I 0 W/m² 15,4 °C 16,7 °C 6,4 km/h (2 Bft)
09.07.2017 21:48 16,7 °C 16,7 °C 92 % 1010,3 hPa 0,0 mm 0,0 km/h (0 Bft) S-SO 161 ° 0 min 0,000 mm 0,0 UV-I 0 W/m² 15,4 °C 16,7 °C 0,0 km/h (0 Bft)
09.07.2017 21:49 16,7 °C 16,7 °C 92 % 1010,3 hPa 0,0 mm 0,5 km/h (0 Bft) S-SO 161 ° 0 min 0,000 mm 0,0 UV-I 0 W/m² 15,4 °C 16,7 °C 1,6 km/h (1 Bft)
09.07.2017 21:50 16,7 °C 16,7 °C 92 % 1010,3 hPa 0,0 mm 2,3 km/h (1 Bft) S-SO 161 ° 0 min 0,000 mm 0,0 UV-I 0 W/m² 15,4 °C 16,7 °C 6,4 km/h (2 Bft)
09.07.2017 21:51 16,7 °C 16,8 °C 92 % 1010,3 hPa 0,0 mm 3,9 km/h (1 Bft) S-SO 161 ° 0 min 0,000 mm 0,0 UV-I 0 W/m² 15,4 °C 16,7 °C 8,0 km/h (2 Bft)
09.07.2017 21:52 16,8 °C 16,8 °C 92 % 1010,3 hPa 0,0 mm 5,4 km/h (1 Bft) S-SO 157 ° 0 min 0,000 mm 0,0 UV-I 0 W/m² 15,5 °C 16,8 °C 8,0 km/h (2 Bft)
09.07.2017 21:53 16,8 °C 16,8 °C 92 % 1010,3 hPa 0,2 mm 5,5 km/h (1 Bft) SO 142 ° 0 min 0,000 mm 0,0 UV-I 0 W/m² 15,5 °C 16,8 °C 6,4 km/h (2 Bft)
09.07.2017 21:54 16,8 °C 16,8 °C 92 % 1010,2 hPa 0,0 mm 7,2 km/h (2 Bft) SO 125 ° 0 min 0,000 mm 0,0 UV-I 0 W/m² 15,5 °C 16,8 °C 8,0 km/h (2 Bft)
09.07.2017 21:55 16,8 °C 16,8 °C 92 % 1010,2 hPa 0,0 mm 6,3 km/h (2 Bft) O-SO 105 ° 0 min 0,000 mm 0,0 UV-I 0 W/m² 15,5 °C 16,8 °C 9,7 km/h (2 Bft)
09.07.2017 21:56 16,8 °C 16,8 °C 92 % 1010,1 hPa 0,0 mm 3,5 km/h (1 Bft) O-NO 74 ° 0 min 0,000 mm 0,0 UV-I 0 W/m² 15,5 °C 16,8 °C 4,8 km/h (1 Bft)
09.07.2017 21:57 16,8 °C 16,8 °C 92 % 1010,1 hPa 0,0 mm 3,2 km/h (1 Bft) O-NO 74 ° 0 min 0,000 mm 0,0 UV-I 0 W/m² 15,5 °C 16,8 °C 4,8 km/h (1 Bft)
09.07.2017 21:58 16,7 °C 16,8 °C 92 % 1010,1 hPa 0,0 mm 1,8 km/h (1 Bft) O-NO 74 ° 0 min 0,000 mm 0,0 UV-I 0 W/m² 15,4 °C 16,7 °C 3,2 km/h (1 Bft)
09.07.2017 21:59 16,7 °C 16,8 °C 92 % 1010,1 hPa 0,0 mm 2,3 km/h (1 Bft) O-NO 74 ° 0 min 0,000 mm 0,0 UV-I 0 W/m² 15,4 °C 16,7 °C 3,2 km/h (1 Bft)
09.07.2017 22:00 16,7 °C 16,7 °C 92 % 1010,0 hPa 0,0 mm 2,6 km/h (1 Bft) O-NO 74 ° 0 min 0,000 mm 0,0 UV-I 0 W/m² 15,4 °C 16,7 °C 4,8 km/h (1 Bft)
09.07.2017 22:01 16,7 °C 16,7 °C 92 % 1009,9 hPa 0,0 mm 3,6 km/h (1 Bft) O-NO 59 ° 0 min 0,000 mm 0,0 UV-I 0 W/m² 15,4 °C 16,7 °C 4,8 km/h (1 Bft)
09.07.2017 22:02 16,6 °C 16,7 °C 93 % 1009,9 hPa 0,0 mm 3,1 km/h (1 Bft) O-NO 60 ° 0 min 0,000 mm 0,0 UV-I 0 W/m² 15,5 °C 16,6 °C 4,8 km/h (1 Bft)
09.07.2017 22:03 16,6 °C 16,6 °C 93 % 1009,8 hPa 0,0 mm 4,5 km/h (1 Bft) O 90 ° 0 min 0,000 mm 0,0 UV-I 0 W/m² 15,5 °C 16,6 °C 4,8 km/h (1 Bft)
09.07.2017 22:04 16,6 °C 16,6 °C 93 % 1009,8 hPa 0,0 mm 4,4 km/h (1 Bft) SO 131 ° 0 min 0,000 mm 0,0 UV-I 0 W/m² 15,5 °C 16,6 °C 4,8 km/h (1 Bft)
09.07.2017 22:05 16,5 °C 16,6 °C 93 % 1009,7 hPa 0,0 mm 4,1 km/h (1 Bft) S-SO 149 ° 0 min 0,000 mm 0,0 UV-I 0 W/m² 15,4 °C 16,5 °C 6,4 km/h (2 Bft)
09.07.2017 22:06 16,5 °C 16,5 °C 93 % 1009,7 hPa 0,0 mm 5,5 km/h (1 Bft) S-SO 163 ° 0 min 0,000 mm 0,0 UV-I 0 W/m² 15,4 °C 16,5 °C 8,0 km/h (2 Bft)
09.07.2017 22:07 16,5 °C 16,5 °C 93 % 1009,7 hPa 0,0 mm 5,1 km/h (1 Bft) SO 124 ° 0 min 0,000 mm 0,0 UV-I 0 W/m² 15,4 °C 16,5 °C 8,0 km/h (2 Bft)
09.07.2017 22:08 16,5 °C 16,6 °C 93 % 1009,5 hPa 0,0 mm 5,4 km/h (1 Bft) O 98 ° 0 min 0,000 mm 0,0 UV-I 0 W/m² 15,4 °C 16,5 °C 9,7 km/h (2 Bft)
09.07.2017 22:09 16,6 °C 16,6 °C 92 % 1009,5 hPa 0,0 mm 5,1 km/h (1 Bft) O 88 ° 0 min 0,000 mm 0,0 UV-I 0 W/m² 15,3 °C 16,6 °C 6,4 km/h (2 Bft)
09.07.2017 22:10 16,5 °C 16,6 °C 92 % 1009,5 hPa 0,0 mm 2,7 km/h (1 Bft) O 88 ° 0 min 0,000 mm 0,0 UV-I 0 W/m² 15,2 °C 16,5 °C 3,2 km/h (1 Bft)
09.07.2017 22:11 16,4 °C 16,6 °C 92 % 1009,4 hPa 0,0 mm 2,5 km/h (1 Bft) O 88 ° 0 min 0,000 mm 0,0 UV-I 0 W/m² 15,1 °C 16,4 °C 4,8 km/h (1 Bft)
09.07.2017 22:12 16,4 °C 16,5 °C 92 % 1009,4 hPa 0,0 mm 0,3 km/h (0 Bft) O 88 ° 0 min 0,000 mm 0,0 UV-I 0 W/m² 15,1 °C 16,4 °C 1,6 km/h (1 Bft)
09.07.2017 22:13 16,4 °C 16,4 °C 92 % 1009,3 hPa 0,0 mm 0,0 km/h (0 Bft) O 88 ° 0 min 0,000 mm 0,0 UV-I 0 W/m² 15,1 °C 16,4 °C 0,0 km/h (0 Bft)
09.07.2017 22:14 16,3 °C 16,4 °C 92 % 1009,3 hPa 0,0 mm 0,0 km/h (0 Bft) O 88 ° 0 min 0,000 mm 0,0 UV-I 0 W/m² 15,0 °C 16,3 °C 0,0 km/h (0 Bft)
09.07.2017 22:15 16,3 °C 16,3 °C 93 % 1009,3 hPa 0,0 mm 0,0 km/h (0 Bft) O 88 ° 0 min 0,000 mm 0,0 UV-I 0 W/m² 15,2 °C 16,3 °C 0,0 km/h (0 Bft)
09.07.2017 22:16 16,3 °C 16,3 °C 93 % 1009,2 hPa 0,0 mm 0,0 km/h (0 Bft) O 88 ° 0 min 0,000 mm 0,0 UV-I 0 W/m² 15,2 °C 16,3 °C 0,0 km/h (0 Bft)
09.07.2017 22:17 16,2 °C 16,3 °C 93 % 1009,2 hPa 0,0 mm 1,0 km/h (0 Bft) O 88 ° 0 min 0,000 mm 0,0 UV-I 0 W/m² 15,1 °C 16,2 °C 1,6 km/h (1 Bft)
09.07.2017 22:18 16,2 °C 16,2 °C 93 % 1009,3 hPa 0,0 mm 0,0 km/h (0 Bft) O 88 ° 0 min 0,000 mm 0,0 UV-I 0 W/m² 15,1 °C 16,2 °C 0,0 km/h (0 Bft)
09.07.2017 22:19 16,1 °C 16,2 °C 93 % 1009,3 hPa 0,0 mm 0,1 km/h (0 Bft) O 88 ° 0 min 0,000 mm 0,0 UV-I 0 W/m² 15,0 °C 16,1 °C 1,6 km/h (1 Bft)
09.07.2017 22:20 16,1 °C 16,1 °C 93 % 1009,3 hPa 0,0 mm 0,0 km/h (0 Bft) O 88 ° 0 min 0,000 mm 0,0 UV-I 0 W/m² 15,0 °C 16,1 °C 0,0 km/h (0 Bft)
09.07.2017 22:21 16,0 °C 16,1 °C 93 % 1009,4 hPa 0,0 mm 0,0 km/h (0 Bft) O 88 ° 0 min 0,000 mm 0,0 UV-I 0 W/m² 14,9 °C 16,0 °C 0,0 km/h (0 Bft)
09.07.2017 22:22 16,0 °C 16,0 °C 93 % 1009,4 hPa 0,0 mm 0,0 km/h (0 Bft) O 88 ° 0 min 0,000 mm 0,0 UV-I 0 W/m² 14,9 °C 16,0 °C 0,0 km/h (0 Bft)
09.07.2017 22:23 15,9 °C 16,0 °C 93 % 1009,4 hPa 0,0 mm 0,0 km/h (0 Bft) O 88 ° 0 min 0,000 mm 0,0 UV-I 0 W/m² 14,8 °C 15,9 °C 0,0 km/h (0 Bft)
09.07.2017 22:24 15,9 °C 15,9 °C 93 % 1009,3 hPa 0,0 mm 0,7 km/h (0 Bft) O 86 ° 0 min 0,000 mm 0,0 UV-I 0 W/m² 14,8 °C 15,9 °C 1,6 km/h (1 Bft)
09.07.2017 22:25 15,9 °C 15,9 °C 93 % 1009,3 hPa 0,0 mm 1,1 km/h (1 Bft) O 86 ° 0 min 0,000 mm 0,0 UV-I 0 W/m² 14,8 °C 15,9 °C 3,2 km/h (1 Bft)
09.07.2017 22:26 15,9 °C 15,9 °C 93 % 1009,2 hPa 0,0 mm 0,0 km/h (0 Bft) O 86 ° 0 min 0,000 mm 0,0 UV-I 0 W/m² 14,8 °C 15,9 °C 0,0 km/h (0 Bft)
09.07.2017 22:27 15,8 °C 15,9 °C 93 % 1009,2 hPa 0,0 mm 1,6 km/h (1 Bft) O 86 ° 0 min 0,000 mm 0,0 UV-I 0 W/m² 14,7 °C 15,8 °C 3,2 km/h (1 Bft)
09.07.2017 22:28 15,8 °C 15,8 °C 93 % 1009,2 hPa 0,0 mm 2,9 km/h (1 Bft) O-NO 69 ° 0 min 0,000 mm 0,0 UV-I 0 W/m² 14,7 °C 15,8 °C 6,4 km/h (2 Bft)
09.07.2017 22:29 15,8 °C 15,8 °C 93 % 1009,2 hPa 0,0 mm 4,3 km/h (1 Bft) O-NO 77 ° 0 min 0,000 mm 0,0 UV-I 0 W/m² 14,7 °C 15,8 °C 6,4 km/h (2 Bft)
09.07.2017 22:30 15,7 °C 15,8 °C 93 % 1009,2 hPa 0,0 mm 6,8 km/h (2 Bft) O-NO 57 ° 0 min 0,000 mm 0,0 UV-I 0 W/m² 14,6 °C 15,7 °C 9,7 km/h (2 Bft)
09.07.2017 22:31 15,8 °C 15,8 °C 93 % 1009,3 hPa 0,0 mm 5,3 km/h (1 Bft) O-NO 74 ° 0 min 0,000 mm 0,0 UV-I 0 W/m² 14,7 °C 15,8 °C 6,4 km/h (2 Bft)
09.07.2017 22:32 15,8 °C 15,8 °C 94 % 1009,3 hPa 0,0 mm 3,8 km/h (1 Bft) O-NO 74 ° 0 min 0,000 mm 0,0 UV-I 0 W/m² 14,8 °C 15,8 °C 6,4 km/h (2 Bft)
09.07.2017 22:33 15,8 °C 15,8 °C 94 % 1009,2 hPa 0,0 mm 4,2 km/h (1 Bft) S-SO 155 ° 0 min 0,000 mm 0,0 UV-I 0 W/m² 14,8 °C 15,8 °C 9,7 km/h (2 Bft)
09.07.2017 22:34 15,9 °C 15,9 °C 94 % 1009,2 hPa 0,0 mm 1,0 km/h (0 Bft) O 98 ° 0 min 0,000 mm 0,0 UV-I 0 W/m² 14,9 °C 15,9 °C 3,2 km/h (1 Bft)
09.07.2017 22:35 15,8 °C 15,9 °C 93 % 1009,1 hPa 0,0 mm 0,8 km/h (0 Bft) O 98 ° 0 min 0,000 mm 0,0 UV-I 0 W/m² 14,7 °C 15,8 °C 1,6 km/h (1 Bft)
09.07.2017 22:36 15,8 °C 15,8 °C 93 % 1009,1 hPa 0,0 mm 0,2 km/h (0 Bft) O 98 ° 0 min 0,000 mm 0,0 UV-I 0 W/m² 14,7 °C 15,8 °C 1,6 km/h (1 Bft)
09.07.2017 22:37 15,8 °C 15,8 °C 93 % 1009,1 hPa 0,0 mm 0,0 km/h (0 Bft) O 98 ° 0 min 0,000 mm 0,0 UV-I 0 W/m² 14,7 °C 15,8 °C 0,0 km/h (0 Bft)
09.07.2017 22:38 15,8 °C 15,8 °C 93 % 1009,1 hPa 0,0 mm 0,0 km/h (0 Bft) O 98 ° 0 min 0,000 mm 0,0 UV-I 0 W/m² 14,7 °C 15,8 °C 0,0 km/h (0 Bft)
09.07.2017 22:39 15,8 °C 15,8 °C 93 % 1009,1 hPa 0,0 mm 0,8 km/h (0 Bft) O 98 ° 0 min 0,000 mm 0,0 UV-I 0 W/m² 14,7 °C 15,8 °C 1,6 km/h (1 Bft)
09.07.2017 22:40 15,7 °C 15,8 °C 93 % 1009,1 hPa 0,0 mm 1,9 km/h (1 Bft) O 80 ° 0 min 0,000 mm 0,0 UV-I 0 W/m² 14,6 °C 15,7 °C 4,8 km/h (1 Bft)
09.07.2017 22:41 15,7 °C 15,7 °C 93 % 1009,1 hPa 0,0 mm 5,0 km/h (1 Bft) O-NO 67 ° 0 min 0,000 mm 0,0 UV-I 0 W/m² 14,6 °C 15,7 °C 8,0 km/h (2 Bft)
09.07.2017 22:42 15,7 °C 15,7 °C 93 % 1009,2 hPa 0,0 mm 4,4 km/h (1 Bft) O 80 ° 0 min 0,000 mm 0,0 UV-I 0 W/m² 14,6 °C 15,7 °C 6,4 km/h (2 Bft)
09.07.2017 22:43 15,7 °C 15,7 °C 93 % 1009,1 hPa 0,0 mm 5,1 km/h (1 Bft) O-SO 116 ° 0 min 0,000 mm 0,0 UV-I 0 W/m² 14,6 °C 15,7 °C 6,4 km/h (2 Bft)
09.07.2017 22:44 15,7 °C 15,7 °C 93 % 1009,1 hPa 0,0 mm 3,3 km/h (1 Bft) O 101 ° 0 min 0,000 mm 0,0 UV-I 0 W/m² 14,6 °C 15,7 °C 4,8 km/h (1 Bft)
09.07.2017 22:45 15,7 °C 15,7 °C 93 % 1009,1 hPa 0,0 mm 4,0 km/h (1 Bft) O-SO 102 ° 0 min 0,000 mm 0,0 UV-I 0 W/m² 14,6 °C 15,7 °C 4,8 km/h (1 Bft)
09.07.2017 22:46 15,6 °C 15,7 °C 93 % 1009,1 hPa 0,0 mm 3,4 km/h (1 Bft) O-SO 102 ° 0 min 0,000 mm 0,0 UV-I 0 W/m² 14,5 °C 15,6 °C 4,8 km/h (1 Bft)
09.07.2017 22:47 15,6 °C 15,6 °C 93 % 1009,1 hPa 0,0 mm 2,1 km/h (1 Bft) O-SO 107 ° 0 min 0,000 mm 0,0 UV-I 0 W/m² 14,5 °C 15,6 °C 3,2 km/h (1 Bft)
09.07.2017 22:48 15,6 °C 15,6 °C 93 % 1009,1 hPa 0,0 mm 2,8 km/h (1 Bft) O-SO 111 ° 0 min 0,000 mm 0,0 UV-I 0 W/m² 14,5 °C 15,6 °C 3,2 km/h (1 Bft)
09.07.2017 22:49 15,6 °C 15,6 °C 93 % 1009,1 hPa 0,0 mm 1,1 km/h (1 Bft) O-SO 111 ° 0 min 0,000 mm 0,0 UV-I 0 W/m² 14,5 °C 15,6 °C 1,6 km/h (1 Bft)
09.07.2017 22:50 15,6 °C 15,6 °C 93 % 1009,2 hPa 0,0 mm 1,6 km/h (1 Bft) O-SO 111 ° 0 min 0,000 mm 0,0 UV-I 0 W/m² 14,5 °C 15,6 °C 3,2 km/h (1 Bft)
09.07.2017 22:51 15,6 °C 15,6 °C 93 % 1009,2 hPa 0,0 mm 0,1 km/h (0 Bft) O-SO 111 ° 0 min 0,000 mm 0,0 UV-I 0 W/m² 14,5 °C 15,6 °C 1,6 km/h (1 Bft)
09.07.2017 22:52 15,6 °C 15,6 °C 93 % 1009,2 hPa 0,0 mm 0,0 km/h (0 Bft) O-SO 111 ° 0 min 0,000 mm 0,0 UV-I 0 W/m² 14,5 °C 15,6 °C 0,0 km/h (0 Bft)
09.07.2017 22:53 15,6 °C 15,6 °C 93 % 1009,2 hPa 0,0 mm 0,0 km/h (0 Bft) O-SO 111 ° 0 min 0,000 mm 0,0 UV-I 0 W/m² 14,5 °C 15,6 °C 0,0 km/h (0 Bft)
09.07.2017 22:54 15,5 °C 15,6 °C 93 % 1009,2 hPa 0,0 mm 0,0 km/h (0 Bft) O-SO 111 ° 0 min 0,000 mm 0,0 UV-I 0 W/m² 14,4 °C 15,5 °C 0,0 km/h (0 Bft)
09.07.2017 22:55 15,4 °C 15,5 °C 93 % 1009,2 hPa 0,0 mm 0,1 km/h (0 Bft) O-SO 111 ° 0 min 0,000 mm 0,0 UV-I 0 W/m² 14,3 °C 15,4 °C 1,6 km/h (1 Bft)
09.07.2017 22:56 15,4 °C 15,5 °C 93 % 1009,3 hPa 0,0 mm 0,4 km/h (0 Bft) O-NO 71 ° 0 min 0,000 mm 0,0 UV-I 0 W/m² 14,3 °C 15,4 °C 3,2 km/h (1 Bft)
09.07.2017 22:57 15,4 °C 15,4 °C 93 % 1009,3 hPa 0,0 mm 0,6 km/h (0 Bft) O-NO 71 ° 0 min 0,000 mm 0,0 UV-I 0 W/m² 14,3 °C 15,4 °C 1,6 km/h (1 Bft)
09.07.2017 22:58 15,4 °C 15,4 °C 93 % 1009,2 hPa 0,0 mm 0,0 km/h (0 Bft) O-NO 71 ° 0 min 0,000 mm 0,0 UV-I 0 W/m² 14,3 °C 15,4 °C 0,0 km/h (0 Bft)
09.07.2017 22:59 15,4 °C 15,4 °C 93 % 1009,2 hPa 0,0 mm 0,1 km/h (0 Bft) O-NO 71 ° 0 min 0,000 mm 0,0 UV-I 0 W/m² 14,3 °C 15,4 °C 1,6 km/h (1 Bft)
09.07.2017 23:00 15,3 °C 15,4 °C 93 % 1009,2 hPa 0,0 mm 0,7 km/h (0 Bft) O-NO 71 ° 0 min 0,000 mm 0,0 UV-I 0 W/m² 14,2 °C 15,3 °C 1,6 km/h (1 Bft)
09.07.2017 23:01 15,3 °C 15,3 °C 93 % 1009,2 hPa 0,0 mm 0,0 km/h (0 Bft) O-NO 71 ° 0 min 0,000 mm 0,0 UV-I 0 W/m² 14,2 °C 15,3 °C 0,0 km/h (0 Bft)
09.07.2017 23:02 15,3 °C 15,3 °C 94 % 1009,1 hPa 0,0 mm 1,6 km/h (1 Bft) O-NO 71 ° 0 min 0,000 mm 0,0 UV-I 0 W/m² 14,3 °C 15,3 °C 3,2 km/h (1 Bft)
09.07.2017 23:03 15,3 °C 15,3 °C 94 % 1009,2 hPa 0,0 mm 0,9 km/h (0 Bft) O-NO 71 ° 0 min 0,000 mm 0,0 UV-I 0 W/m² 14,3 °C 15,3 °C 3,2 km/h (1 Bft)
09.07.2017 23:04 15,3 °C 15,3 °C 94 % 1009,2 hPa 0,0 mm 0,0 km/h (0 Bft) O-NO 71 ° 0 min 0,000 mm 0,0 UV-I 0 W/m² 14,3 °C 15,3 °C 0,0 km/h (0 Bft)
09.07.2017 23:05 15,3 °C 15,3 °C 94 % 1009,2 hPa 0,0 mm 0,0 km/h (0 Bft) O-NO 71 ° 0 min 0,000 mm 0,0 UV-I 0 W/m² 14,3 °C 15,3 °C 0,0 km/h (0 Bft)
09.07.2017 23:06 15,3 °C 15,3 °C 94 % 1009,2 hPa 0,0 mm 0,0 km/h (0 Bft) O-NO 71 ° 0 min 0,000 mm 0,0 UV-I 0 W/m² 14,3 °C 15,3 °C 0,0 km/h (0 Bft)
09.07.2017 23:07 15,3 °C 15,3 °C 93 % 1009,2 hPa 0,0 mm 0,0 km/h (0 Bft) O-NO 71 ° 0 min 0,000 mm 0,0 UV-I 0 W/m² 14,2 °C 15,3 °C 0,0 km/h (0 Bft)
09.07.2017 23:08 15,3 °C 15,3 °C 93 % 1009,3 hPa 0,0 mm 0,0 km/h (0 Bft) O-NO 71 ° 0 min 0,000 mm 0,0 UV-I 0 W/m² 14,2 °C 15,3 °C 0,0 km/h (0 Bft)
09.07.2017 23:09 15,3 °C 15,3 °C 93 % 1009,2 hPa 0,0 mm 0,0 km/h (0 Bft) O-NO 71 ° 0 min 0,000 mm 0,0 UV-I 0 W/m² 14,2 °C 15,3 °C 0,0 km/h (0 Bft)
09.07.2017 23:10 15,2 °C 15,3 °C 94 % 1009,2 hPa 0,0 mm 0,0 km/h (0 Bft) O-NO 71 ° 0 min 0,000 mm 0,0 UV-I 0 W/m² 14,2 °C 15,2 °C 0,0 km/h (0 Bft)
09.07.2017 23:11 15,2 °C 15,2 °C 94 % 1009,2 hPa 0,0 mm 0,0 km/h (0 Bft) O-NO 71 ° 0 min 0,000 mm 0,0 UV-I 0 W/m² 14,2 °C 15,2 °C 0,0 km/h (0 Bft)
09.07.2017 23:12 15,2 °C 15,2 °C 94 % 1009,2 hPa 0,0 mm 0,0 km/h (0 Bft) O-NO 71 ° 0 min 0,000 mm 0,0 UV-I 0 W/m² 14,2 °C 15,2 °C 0,0 km/h (0 Bft)
09.07.2017 23:13 15,2 °C 15,2 °C 94 % 1009,2 hPa 0,0 mm 0,1 km/h (0 Bft) O-NO 71 ° 0 min 0,000 mm 0,0 UV-I 0 W/m² 14,2 °C 15,2 °C 1,6 km/h (1 Bft)
09.07.2017 23:14 15,2 °C 15,2 °C 94 % 1009,3 hPa 0,0 mm 0,0 km/h (0 Bft) O-NO 71 ° 0 min 0,000 mm 0,0 UV-I 0 W/m² 14,2 °C 15,2 °C 0,0 km/h (0 Bft)
09.07.2017 23:15 15,3 °C 15,3 °C 94 % 1009,3 hPa 0,0 mm 0,0 km/h (0 Bft) O-NO 71 ° 0 min 0,000 mm 0,0 UV-I 0 W/m² 14,3 °C 15,3 °C 0,0 km/h (0 Bft)
09.07.2017 23:16 15,3 °C 15,3 °C 94 % 1009,3 hPa 0,0 mm 0,0 km/h (0 Bft) O-NO 71 ° 0 min 0,000 mm 0,0 UV-I 0 W/m² 14,3 °C 15,3 °C 0,0 km/h (0 Bft)
09.07.2017 23:17 15,3 °C 15,4 °C 93 % 1009,3 hPa 0,0 mm 0,0 km/h (0 Bft) O-NO 71 ° 0 min 0,000 mm 0,0 UV-I 0 W/m² 14,2 °C 15,3 °C 0,0 km/h (0 Bft)
09.07.2017 23:18 15,4 °C 15,4 °C 93 % 1009,3 hPa 0,0 mm 0,0 km/h (0 Bft) O-NO 71 ° 0 min 0,000 mm 0,0 UV-I 0 W/m² 14,3 °C 15,4 °C 0,0 km/h (0 Bft)
09.07.2017 23:19 15,4 °C 15,4 °C 93 % 1009,3 hPa 0,0 mm 0,0 km/h (0 Bft) O-NO 71 ° 0 min 0,000 mm 0,0 UV-I 0 W/m² 14,3 °C 15,4 °C 0,0 km/h (0 Bft)
09.07.2017 23:20 15,4 °C 15,4 °C 93 % 1009,3 hPa 0,0 mm 0,9 km/h (0 Bft) O-NO 71 ° 0 min 0,000 mm 0,0 UV-I 0 W/m² 14,3 °C 15,4 °C 3,2 km/h (1 Bft)
09.07.2017 23:21 15,4 °C 15,4 °C 93 % 1009,2 hPa 0,0 mm 0,0 km/h (0 Bft) O-NO 71 ° 0 min 0,000 mm 0,0 UV-I 0 W/m² 14,3 °C 15,4 °C 0,0 km/h (0 Bft)
09.07.2017 23:22 15,4 °C 15,4 °C 93 % 1009,2 hPa 0,0 mm 0,1 km/h (0 Bft) O-NO 71 ° 0 min 0,000 mm 0,0 UV-I 0 W/m² 14,3 °C 15,4 °C 1,6 km/h (1 Bft)
09.07.2017 23:23 15,4 °C 15,4 °C 93 % 1009,2 hPa 0,0 mm 2,2 km/h (1 Bft) O-NO 72 ° 0 min 0,000 mm 0,0 UV-I 0 W/m² 14,3 °C 15,4 °C 3,2 km/h (1 Bft)
09.07.2017 23:24 15,4 °C 15,4 °C 93 % 1009,2 hPa 0,0 mm 3,6 km/h (1 Bft) O-SO 113 ° 0 min 0,000 mm 0,0 UV-I 0 W/m² 14,3 °C 15,4 °C 4,8 km/h (1 Bft)
09.07.2017 23:25 15,4 °C 15,4 °C 93 % 1009,2 hPa 0,0 mm 2,9 km/h (1 Bft) O-SO 113 ° 0 min 0,000 mm 0,0 UV-I 0 W/m² 14,3 °C 15,4 °C 4,8 km/h (1 Bft)
09.07.2017 23:26 15,4 °C 15,4 °C 93 % 1009,2 hPa 0,0 mm 1,3 km/h (1 Bft) O-SO 113 ° 0 min 0,000 mm 0,0 UV-I 0 W/m² 14,3 °C 15,4 °C 3,2 km/h (1 Bft)
09.07.2017 23:27 15,4 °C 15,4 °C 93 % 1009,1 hPa 0,0 mm 1,3 km/h (1 Bft) O-SO 113 ° 0 min 0,000 mm 0,0 UV-I 0 W/m² 14,3 °C 15,4 °C 3,2 km/h (1 Bft)
09.07.2017 23:28 15,3 °C 15,4 °C 93 % 1009,1 hPa 0,0 mm 1,5 km/h (1 Bft) O-SO 113 ° 0 min 0,000 mm 0,0 UV-I 0 W/m² 14,2 °C 15,3 °C 3,2 km/h (1 Bft)
09.07.2017 23:29 15,3 °C 15,3 °C 93 % 1009,1 hPa 0,0 mm 2,1 km/h (1 Bft) O-SO 113 ° 0 min 0,000 mm 0,0 UV-I 0 W/m² 14,2 °C 15,3 °C 3,2 km/h (1 Bft)
09.07.2017 23:30 15,3 °C 15,3 °C 93 % 1009,1 hPa 0,0 mm 1,3 km/h (1 Bft) O-SO 113 ° 0 min 0,000 mm 0,0 UV-I 0 W/m² 14,2 °C 15,3 °C 1,6 km/h (1 Bft)
09.07.2017 23:31 15,2 °C 15,3 °C 93 % 1009,1 hPa 0,0 mm 1,7 km/h (1 Bft) O-SO 113 ° 0 min 0,000 mm 0,0 UV-I 0 W/m² 14,1 °C 15,2 °C 3,2 km/h (1 Bft)
09.07.2017 23:32 15,2 °C 15,2 °C 93 % 1009,1 hPa 0,0 mm 1,9 km/h (1 Bft) O-SO 113 ° 0 min 0,000 mm 0,0 UV-I 0 W/m² 14,1 °C 15,2 °C 3,2 km/h (1 Bft)
09.07.2017 23:33 15,2 °C 15,2 °C 93 % 1009,1 hPa 0,0 mm 0,1 km/h (0 Bft) O-SO 113 ° 0 min 0,000 mm 0,0 UV-I 0 W/m² 14,1 °C 15,2 °C 1,6 km/h (1 Bft)
09.07.2017 23:34 15,2 °C 15,2 °C 93 % 1009,0 hPa 0,0 mm 0,0 km/h (0 Bft) O-SO 113 ° 0 min 0,000 mm 0,0 UV-I 0 W/m² 14,1 °C 15,2 °C 0,0 km/h (0 Bft)
09.07.2017 23:35 15,1 °C 15,2 °C 93 % 1009,0 hPa 0,0 mm 0,0 km/h (0 Bft) O-SO 113 ° 0 min 0,000 mm 0,0 UV-I 0 W/m² 14,0 °C 15,1 °C 0,0 km/h (0 Bft)
09.07.2017 23:36 15,1 °C 15,1 °C 93 % 1009,0 hPa 0,0 mm 0,0 km/h (0 Bft) O-SO 113 ° 0 min 0,000 mm 0,0 UV-I 0 W/m² 14,0 °C 15,1 °C 0,0 km/h (0 Bft)
09.07.2017 23:37 15,0 °C 15,1 °C 93 % 1009,0 hPa 0,0 mm 0,0 km/h (0 Bft) O-SO 113 ° 0 min 0,000 mm 0,0 UV-I 0 W/m² 13,9 °C 15,0 °C 0,0 km/h (0 Bft)
09.07.2017 23:38 15,0 °C 15,0 °C 93 % 1009,0 hPa 0,0 mm 0,2 km/h (0 Bft) W 275 ° 0 min 0,000 mm 0,0 UV-I 0 W/m² 13,9 °C 15,0 °C 3,2 km/h (1 Bft)
09.07.2017 23:39 15,0 °C 15,0 °C 93 % 1009,0 hPa 0,0 mm 2,0 km/h (1 Bft) W 263 ° 0 min 0,000 mm 0,0 UV-I 0 W/m² 13,9 °C 15,0 °C 4,8 km/h (1 Bft)
09.07.2017 23:40 15,1 °C 15,1 °C 93 % 1009,1 hPa 0,0 mm 4,7 km/h (1 Bft) W-SW 249 ° 0 min 0,000 mm 0,0 UV-I 0 W/m² 14,0 °C 15,1 °C 6,4 km/h (2 Bft)
09.07.2017 23:41 15,1 °C 15,1 °C 93 % 1009,0 hPa 0,0 mm 4,3 km/h (1 Bft) W 271 ° 0 min 0,000 mm 0,0 UV-I 0 W/m² 14,0 °C 15,1 °C 6,4 km/h (2 Bft)
09.07.2017 23:42 15,2 °C 15,2 °C 94 % 1009,2 hPa 0,0 mm 1,9 km/h (1 Bft) W 273 ° 0 min 0,000 mm 0,0 UV-I 0 W/m² 14,2 °C 15,2 °C 4,8 km/h (1 Bft)
09.07.2017 23:43 15,3 °C 15,3 °C 93 % 1009,2 hPa 0,0 mm 2,9 km/h (1 Bft) W 275 ° 0 min 0,000 mm 0,0 UV-I 0 W/m² 14,2 °C 15,3 °C 4,8 km/h (1 Bft)
09.07.2017 23:44 15,3 °C 15,3 °C 93 % 1009,3 hPa 0,0 mm 4,0 km/h (1 Bft) NW 308 ° 0 min 0,000 mm 0,0 UV-I 0 W/m² 14,2 °C 15,3 °C 6,4 km/h (2 Bft)
09.07.2017 23:45 15,3 °C 15,3 °C 93 % 1009,2 hPa 0,0 mm 1,2 km/h (1 Bft) NW 308 ° 0 min 0,000 mm 0,0 UV-I 0 W/m² 14,2 °C 15,3 °C 3,2 km/h (1 Bft)
09.07.2017 23:46 15,3 °C 15,3 °C 93 % 1009,2 hPa 0,0 mm 0,6 km/h (0 Bft) NW 308 ° 0 min 0,000 mm 0,0 UV-I 0 W/m² 14,2 °C 15,3 °C 1,6 km/h (1 Bft)
09.07.2017 23:47 15,2 °C 15,3 °C 93 % 1009,3 hPa 0,0 mm 0,1 km/h (0 Bft) NW 308 ° 0 min 0,000 mm 0,0 UV-I 0 W/m² 14,1 °C 15,2 °C 1,6 km/h (1 Bft)
09.07.2017 23:48 15,2 °C 15,3 °C 93 % 1009,2 hPa 0,0 mm 0,1 km/h (0 Bft) NW 308 ° 0 min 0,000 mm 0,0 UV-I 0 W/m² 14,1 °C 15,2 °C 1,6 km/h (1 Bft)
09.07.2017 23:49 15,2 °C 15,2 °C 93 % 1009,2 hPa 0,0 mm 2,9 km/h (1 Bft) NW 313 ° 0 min 0,000 mm 0,0 UV-I 0 W/m² 14,1 °C 15,2 °C 6,4 km/h (2 Bft)
09.07.2017 23:50 15,2 °C 15,2 °C 93 % 1009,2 hPa 0,0 mm 3,2 km/h (1 Bft) N-NW 331 ° 0 min 0,000 mm 0,0 UV-I 0 W/m² 14,1 °C 15,2 °C 6,4 km/h (2 Bft)
09.07.2017 23:51 15,2 °C 15,2 °C 93 % 1009,1 hPa 0,0 mm 0,2 km/h (0 Bft) N-NW 331 ° 0 min 0,000 mm 0,0 UV-I 0 W/m² 14,1 °C 15,2 °C 1,6 km/h (1 Bft)
09.07.2017 23:52 15,2 °C 15,2 °C 93 % 1009,1 hPa 0,0 mm 0,2 km/h (0 Bft) N-NW 331 ° 0 min 0,000 mm 0,0 UV-I 0 W/m² 14,1 °C 15,2 °C 1,6 km/h (1 Bft)
09.07.2017 23:53 15,2 °C 15,2 °C 93 % 1009,1 hPa 0,0 mm 0,5 km/h (0 Bft) N-NW 331 ° 0 min 0,000 mm 0,0 UV-I 0 W/m² 14,1 °C 15,2 °C 1,6 km/h (1 Bft)
09.07.2017 23:54 15,2 °C 15,2 °C 93 % 1009,1 hPa 0,0 mm 0,0 km/h (0 Bft) N-NW 331 ° 0 min 0,000 mm 0,0 UV-I 0 W/m² 14,1 °C 15,2 °C 0,0 km/h (0 Bft)
09.07.2017 23:55 15,2 °C 15,2 °C 93 % 1009,0 hPa 0,0 mm 0,0 km/h (0 Bft) N-NW 331 ° 0 min 0,000 mm 0,0 UV-I 0 W/m² 14,1 °C 15,2 °C 0,0 km/h (0 Bft)
09.07.2017 23:56 15,2 °C 15,2 °C 93 % 1009,0 hPa 0,0 mm 0,0 km/h (0 Bft) N-NW 331 ° 0 min 0,000 mm 0,0 UV-I 0 W/m² 14,1 °C 15,2 °C 0,0 km/h (0 Bft)
09.07.2017 23:57 15,2 °C 15,2 °C 93 % 1009,1 hPa 0,0 mm 0,0 km/h (0 Bft) N-NW 331 ° 0 min 0,000 mm 0,0 UV-I 0 W/m² 14,1 °C 15,2 °C 0,0 km/h (0 Bft)
09.07.2017 23:58 15,2 °C 15,2 °C 93 % 1009,1 hPa 0,0 mm 2,8 km/h (1 Bft) NW 304 ° 0 min 0,000 mm 0,0 UV-I 0 W/m² 14,1 °C 15,2 °C 4,8 km/h (1 Bft)
09.07.2017 23:59 15,2 °C 15,2 °C 94 % 1009,1 hPa 0,0 mm 4,1 km/h (1 Bft) W 259 ° 0 min 0,000 mm 0,0 UV-I 0 W/m² 14,2 °C 15,2 °C 4,8 km/h (1 Bft)
_ Min-Zeit 23:39 23:39 12:42 23:56 - 23:57 - - - - - - 05:40 23:39 23:57
Minimum _ 15,0 °C 15,0 °C 49 % 1009,0 hPa - 0,0 km/h (0 Bft) - - - - - - 11,9 °C 15,0 °C 0,0 km/h (0 Bft)
_ Max-Zeit 14:29 14:37 23:59 08:41 16:58 08:04 - - 15:09 15:01 12:37 14:18 16:16 14:29 08:00
Maximum _ 27,1 °C 27,1 °C 94 % 1014,5 hPa 0,4 mm 21,3 km/h
W-NW (4 Bft)
- - 2 min 0,558 mm 8,6 UV-I 1165 W/m² 19,6 °C 27,1 °C 35,4 km/h
W (5 Bft)
Durchschnitt _ 19,3 °C 19,3 °C 78 % 1011,4 hPa #4,4 mm 2,5 km/h (1 Bft) W - #3:48 h #2,565 mm 2,7 UV-I 155 W/m² 15,1 °C 19,3 °C 4,5 km/h (1 Bft)